<?xml version="1.0" encoding="UTF-8" standalone="no" ?>
<gpx xmlns="http://www.topografix.com/GPX/1/1" xmlns:xsi="http://www.w3.org/2001/XMLSchema-instance" xsi:schemaLocation="http://www.topografix.com/GPX/1/1 http://www.topografix.com/GPX/1/1/gpx.xsd" version="1.1" creator="VisuGPX - https://www.visugpx.com">
  <metadata>
    <name>Sortie VTT du jeudi 7 juin 2012 (sans Christine)</name>
    <desc><![CDATA[port]]></desc>
  </metadata>
  <trk>
    <name><![CDATA[07/06/2012 9:24]]></name>
    <desc><![CDATA[port]]></desc>
    <trkseg>
      <trkpt lat="47.68618" lon="6.04554">
        <ele>276.4</ele>
        <time>2012-06-07T07:24:55.000Z</time>
      </trkpt>
      <trkpt lat="47.68618" lon="6.04554">
        <ele>276.4</ele>
        <time>2012-06-07T07:24:55.000Z</time>
      </trkpt>
      <trkpt lat="47.68618" lon="6.04554">
        <ele>276.4</ele>
        <time>2012-06-07T07:25:05.000Z</time>
      </trkpt>
      <trkpt lat="47.68623" lon="6.04553">
        <ele>267.5</ele>
        <time>2012-06-07T07:26:12.000Z</time>
      </trkpt>
      <trkpt lat="47.68623" lon="6.04553">
        <ele>267.5</ele>
        <time>2012-06-07T07:26:12.000Z</time>
      </trkpt>
      <trkpt lat="47.68623" lon="6.04553">
        <ele>267.5</ele>
        <time>2012-06-07T07:26:32.000Z</time>
      </trkpt>
      <trkpt lat="47.68627" lon="6.04555">
        <ele>279.2</ele>
        <time>2012-06-07T07:26:42.000Z</time>
      </trkpt>
      <trkpt lat="47.68626" lon="6.04548">
        <ele>283.5</ele>
        <time>2012-06-07T07:27:21.000Z</time>
      </trkpt>
      <trkpt lat="47.6863" lon="6.04543">
        <ele>283.5</ele>
        <time>2012-06-07T07:27:26.000Z</time>
      </trkpt>
      <trkpt lat="47.68625" lon="6.04545">
        <ele>284.2</ele>
        <time>2012-06-07T07:27:42.000Z</time>
      </trkpt>
      <trkpt lat="47.68625" lon="6.04545">
        <ele>284.2</ele>
        <time>2012-06-07T07:27:42.000Z</time>
      </trkpt>
      <trkpt lat="47.68625" lon="6.04545">
        <ele>284.2</ele>
        <time>2012-06-07T07:27:44.000Z</time>
      </trkpt>
      <trkpt lat="47.6862" lon="6.04546">
        <ele>283.5</ele>
        <time>2012-06-07T07:27:51.000Z</time>
      </trkpt>
      <trkpt lat="47.68618" lon="6.04539">
        <ele>283.2</ele>
        <time>2012-06-07T07:27:57.000Z</time>
      </trkpt>
      <trkpt lat="47.68614" lon="6.04533">
        <ele>283.1</ele>
        <time>2012-06-07T07:27:59.000Z</time>
      </trkpt>
      <trkpt lat="47.68608" lon="6.04528">
        <ele>282.6</ele>
        <time>2012-06-07T07:28:01.000Z</time>
      </trkpt>
      <trkpt lat="47.68602" lon="6.04522">
        <ele>282.2</ele>
        <time>2012-06-07T07:28:03.000Z</time>
      </trkpt>
      <trkpt lat="47.68595" lon="6.04516">
        <ele>282.4</ele>
        <time>2012-06-07T07:28:05.000Z</time>
      </trkpt>
      <trkpt lat="47.68589" lon="6.04511">
        <ele>282.7</ele>
        <time>2012-06-07T07:28:07.000Z</time>
      </trkpt>
      <trkpt lat="47.68582" lon="6.04505">
        <ele>282.9</ele>
        <time>2012-06-07T07:28:09.000Z</time>
      </trkpt>
      <trkpt lat="47.68578" lon="6.04501">
        <ele>282.9</ele>
        <time>2012-06-07T07:28:10.000Z</time>
      </trkpt>
      <trkpt lat="47.68573" lon="6.04498">
        <ele>282.8</ele>
        <time>2012-06-07T07:28:11.000Z</time>
      </trkpt>
      <trkpt lat="47.68568" lon="6.04493">
        <ele>283.1</ele>
        <time>2012-06-07T07:28:12.000Z</time>
      </trkpt>
      <trkpt lat="47.68563" lon="6.04489">
        <ele>283.2</ele>
        <time>2012-06-07T07:28:13.000Z</time>
      </trkpt>
      <trkpt lat="47.68557" lon="6.04484">
        <ele>283.4</ele>
        <time>2012-06-07T07:28:14.000Z</time>
      </trkpt>
      <trkpt lat="47.68551" lon="6.04479">
        <ele>283.5</ele>
        <time>2012-06-07T07:28:15.000Z</time>
      </trkpt>
      <trkpt lat="47.68545" lon="6.04474">
        <ele>283.5</ele>
        <time>2012-06-07T07:28:16.000Z</time>
      </trkpt>
      <trkpt lat="47.68539" lon="6.04469">
        <ele>283.3</ele>
        <time>2012-06-07T07:28:17.000Z</time>
      </trkpt>
      <trkpt lat="47.68533" lon="6.04464">
        <ele>283.2</ele>
        <time>2012-06-07T07:28:18.000Z</time>
      </trkpt>
      <trkpt lat="47.68527" lon="6.0446">
        <ele>283.4</ele>
        <time>2012-06-07T07:28:19.000Z</time>
      </trkpt>
      <trkpt lat="47.68521" lon="6.04456">
        <ele>283.5</ele>
        <time>2012-06-07T07:28:20.000Z</time>
      </trkpt>
      <trkpt lat="47.68514" lon="6.04452">
        <ele>283.5</ele>
        <time>2012-06-07T07:28:21.000Z</time>
      </trkpt>
      <trkpt lat="47.68506" lon="6.04447">
        <ele>283.1</ele>
        <time>2012-06-07T07:28:22.000Z</time>
      </trkpt>
      <trkpt lat="47.68498" lon="6.04443">
        <ele>282.3</ele>
        <time>2012-06-07T07:28:23.000Z</time>
      </trkpt>
      <trkpt lat="47.6849" lon="6.0444">
        <ele>281.6</ele>
        <time>2012-06-07T07:28:24.000Z</time>
      </trkpt>
      <trkpt lat="47.68483" lon="6.04436">
        <ele>281.5</ele>
        <time>2012-06-07T07:28:25.000Z</time>
      </trkpt>
      <trkpt lat="47.68476" lon="6.04436">
        <ele>281.3</ele>
        <time>2012-06-07T07:28:26.000Z</time>
      </trkpt>
      <trkpt lat="47.68468" lon="6.04435">
        <ele>281</ele>
        <time>2012-06-07T07:28:27.000Z</time>
      </trkpt>
      <trkpt lat="47.6846" lon="6.04434">
        <ele>280.1</ele>
        <time>2012-06-07T07:28:28.000Z</time>
      </trkpt>
      <trkpt lat="47.68452" lon="6.04434">
        <ele>279.5</ele>
        <time>2012-06-07T07:28:29.000Z</time>
      </trkpt>
      <trkpt lat="47.68444" lon="6.04434">
        <ele>279.7</ele>
        <time>2012-06-07T07:28:30.000Z</time>
      </trkpt>
      <trkpt lat="47.68437" lon="6.04434">
        <ele>279.5</ele>
        <time>2012-06-07T07:28:31.000Z</time>
      </trkpt>
      <trkpt lat="47.6843" lon="6.04434">
        <ele>279.3</ele>
        <time>2012-06-07T07:28:32.000Z</time>
      </trkpt>
      <trkpt lat="47.68423" lon="6.04433">
        <ele>279.3</ele>
        <time>2012-06-07T07:28:33.000Z</time>
      </trkpt>
      <trkpt lat="47.68416" lon="6.04432">
        <ele>279.6</ele>
        <time>2012-06-07T07:28:34.000Z</time>
      </trkpt>
      <trkpt lat="47.6841" lon="6.04432">
        <ele>279.7</ele>
        <time>2012-06-07T07:28:35.000Z</time>
      </trkpt>
      <trkpt lat="47.68402" lon="6.04432">
        <ele>279.3</ele>
        <time>2012-06-07T07:28:36.000Z</time>
      </trkpt>
      <trkpt lat="47.68394" lon="6.04431">
        <ele>279</ele>
        <time>2012-06-07T07:28:37.000Z</time>
      </trkpt>
      <trkpt lat="47.68387" lon="6.0443">
        <ele>278.3</ele>
        <time>2012-06-07T07:28:38.000Z</time>
      </trkpt>
      <trkpt lat="47.68379" lon="6.04429">
        <ele>278.3</ele>
        <time>2012-06-07T07:28:39.000Z</time>
      </trkpt>
      <trkpt lat="47.68372" lon="6.04429">
        <ele>278.3</ele>
        <time>2012-06-07T07:28:40.000Z</time>
      </trkpt>
      <trkpt lat="47.68364" lon="6.04429">
        <ele>278.4</ele>
        <time>2012-06-07T07:28:41.000Z</time>
      </trkpt>
      <trkpt lat="47.68356" lon="6.04429">
        <ele>278</ele>
        <time>2012-06-07T07:28:42.000Z</time>
      </trkpt>
      <trkpt lat="47.68348" lon="6.04428">
        <ele>277.4</ele>
        <time>2012-06-07T07:28:43.000Z</time>
      </trkpt>
      <trkpt lat="47.6834" lon="6.04427">
        <ele>277.1</ele>
        <time>2012-06-07T07:28:44.000Z</time>
      </trkpt>
      <trkpt lat="47.68332" lon="6.04426">
        <ele>275.7</ele>
        <time>2012-06-07T07:28:45.000Z</time>
      </trkpt>
      <trkpt lat="47.68324" lon="6.04425">
        <ele>274.7</ele>
        <time>2012-06-07T07:28:46.000Z</time>
      </trkpt>
      <trkpt lat="47.68316" lon="6.04424">
        <ele>274.8</ele>
        <time>2012-06-07T07:28:47.000Z</time>
      </trkpt>
      <trkpt lat="47.68309" lon="6.04422">
        <ele>274.8</ele>
        <time>2012-06-07T07:28:48.000Z</time>
      </trkpt>
      <trkpt lat="47.68302" lon="6.04421">
        <ele>275.5</ele>
        <time>2012-06-07T07:28:49.000Z</time>
      </trkpt>
      <trkpt lat="47.68295" lon="6.0442">
        <ele>275.9</ele>
        <time>2012-06-07T07:28:50.000Z</time>
      </trkpt>
      <trkpt lat="47.68288" lon="6.04418">
        <ele>276.4</ele>
        <time>2012-06-07T07:28:51.000Z</time>
      </trkpt>
      <trkpt lat="47.68282" lon="6.04417">
        <ele>276.6</ele>
        <time>2012-06-07T07:28:52.000Z</time>
      </trkpt>
      <trkpt lat="47.68275" lon="6.04415">
        <ele>276.8</ele>
        <time>2012-06-07T07:28:53.000Z</time>
      </trkpt>
      <trkpt lat="47.68269" lon="6.04412">
        <ele>276.5</ele>
        <time>2012-06-07T07:28:54.000Z</time>
      </trkpt>
      <trkpt lat="47.68263" lon="6.0441">
        <ele>275.8</ele>
        <time>2012-06-07T07:28:55.000Z</time>
      </trkpt>
      <trkpt lat="47.68256" lon="6.04407">
        <ele>275.2</ele>
        <time>2012-06-07T07:28:56.000Z</time>
      </trkpt>
      <trkpt lat="47.6825" lon="6.04404">
        <ele>274.7</ele>
        <time>2012-06-07T07:28:57.000Z</time>
      </trkpt>
      <trkpt lat="47.68244" lon="6.044">
        <ele>274.6</ele>
        <time>2012-06-07T07:28:58.000Z</time>
      </trkpt>
      <trkpt lat="47.68239" lon="6.04396">
        <ele>274.6</ele>
        <time>2012-06-07T07:28:59.000Z</time>
      </trkpt>
      <trkpt lat="47.68234" lon="6.04393">
        <ele>274.7</ele>
        <time>2012-06-07T07:29:00.000Z</time>
      </trkpt>
      <trkpt lat="47.68229" lon="6.0439">
        <ele>274.5</ele>
        <time>2012-06-07T07:29:01.000Z</time>
      </trkpt>
      <trkpt lat="47.68223" lon="6.04386">
        <ele>274.2</ele>
        <time>2012-06-07T07:29:02.000Z</time>
      </trkpt>
      <trkpt lat="47.68218" lon="6.04383">
        <ele>274.1</ele>
        <time>2012-06-07T07:29:03.000Z</time>
      </trkpt>
      <trkpt lat="47.68213" lon="6.0438">
        <ele>274.1</ele>
        <time>2012-06-07T07:29:04.000Z</time>
      </trkpt>
      <trkpt lat="47.68209" lon="6.04376">
        <ele>274.3</ele>
        <time>2012-06-07T07:29:05.000Z</time>
      </trkpt>
      <trkpt lat="47.68204" lon="6.04373">
        <ele>274.2</ele>
        <time>2012-06-07T07:29:06.000Z</time>
      </trkpt>
      <trkpt lat="47.682" lon="6.0437">
        <ele>274.2</ele>
        <time>2012-06-07T07:29:07.000Z</time>
      </trkpt>
      <trkpt lat="47.68195" lon="6.04367">
        <ele>274.2</ele>
        <time>2012-06-07T07:29:08.000Z</time>
      </trkpt>
      <trkpt lat="47.68191" lon="6.04365">
        <ele>274.6</ele>
        <time>2012-06-07T07:29:09.000Z</time>
      </trkpt>
      <trkpt lat="47.68182" lon="6.04364">
        <ele>274.9</ele>
        <time>2012-06-07T07:29:11.000Z</time>
      </trkpt>
      <trkpt lat="47.68178" lon="6.04365">
        <ele>274.5</ele>
        <time>2012-06-07T07:29:12.000Z</time>
      </trkpt>
      <trkpt lat="47.68169" lon="6.04367">
        <ele>274.1</ele>
        <time>2012-06-07T07:29:14.000Z</time>
      </trkpt>
      <trkpt lat="47.68164" lon="6.04368">
        <ele>273.8</ele>
        <time>2012-06-07T07:29:15.000Z</time>
      </trkpt>
      <trkpt lat="47.68155" lon="6.04371">
        <ele>273.6</ele>
        <time>2012-06-07T07:29:17.000Z</time>
      </trkpt>
      <trkpt lat="47.68151" lon="6.04372">
        <ele>273.3</ele>
        <time>2012-06-07T07:29:18.000Z</time>
      </trkpt>
      <trkpt lat="47.68143" lon="6.04376">
        <ele>273.2</ele>
        <time>2012-06-07T07:29:20.000Z</time>
      </trkpt>
      <trkpt lat="47.68135" lon="6.04378">
        <ele>273.1</ele>
        <time>2012-06-07T07:29:22.000Z</time>
      </trkpt>
      <trkpt lat="47.68126" lon="6.0438">
        <ele>272.9</ele>
        <time>2012-06-07T07:29:24.000Z</time>
      </trkpt>
      <trkpt lat="47.68119" lon="6.04383">
        <ele>272.8</ele>
        <time>2012-06-07T07:29:26.000Z</time>
      </trkpt>
      <trkpt lat="47.6811" lon="6.04385">
        <ele>272.8</ele>
        <time>2012-06-07T07:29:28.000Z</time>
      </trkpt>
      <trkpt lat="47.68102" lon="6.04388">
        <ele>272.6</ele>
        <time>2012-06-07T07:29:30.000Z</time>
      </trkpt>
      <trkpt lat="47.68094" lon="6.04392">
        <ele>272.3</ele>
        <time>2012-06-07T07:29:32.000Z</time>
      </trkpt>
      <trkpt lat="47.68086" lon="6.04395">
        <ele>272</ele>
        <time>2012-06-07T07:29:34.000Z</time>
      </trkpt>
      <trkpt lat="47.68079" lon="6.04398">
        <ele>272</ele>
        <time>2012-06-07T07:29:36.000Z</time>
      </trkpt>
      <trkpt lat="47.68071" lon="6.044">
        <ele>271.9</ele>
        <time>2012-06-07T07:29:38.000Z</time>
      </trkpt>
      <trkpt lat="47.68063" lon="6.04404">
        <ele>271.9</ele>
        <time>2012-06-07T07:29:40.000Z</time>
      </trkpt>
      <trkpt lat="47.68056" lon="6.04409">
        <ele>272</ele>
        <time>2012-06-07T07:29:42.000Z</time>
      </trkpt>
      <trkpt lat="47.68051" lon="6.04415">
        <ele>272.3</ele>
        <time>2012-06-07T07:29:44.000Z</time>
      </trkpt>
      <trkpt lat="47.68045" lon="6.04422">
        <ele>272</ele>
        <time>2012-06-07T07:29:46.000Z</time>
      </trkpt>
      <trkpt lat="47.6804" lon="6.0443">
        <ele>272.2</ele>
        <time>2012-06-07T07:29:48.000Z</time>
      </trkpt>
      <trkpt lat="47.68033" lon="6.04434">
        <ele>272.4</ele>
        <time>2012-06-07T07:29:50.000Z</time>
      </trkpt>
      <trkpt lat="47.68002" lon="6.04425">
        <ele>258.4</ele>
        <time>2012-06-07T07:29:57.000Z</time>
      </trkpt>
      <trkpt lat="47.67994" lon="6.04424">
        <ele>262.3</ele>
        <time>2012-06-07T07:30:00.000Z</time>
      </trkpt>
      <trkpt lat="47.67988" lon="6.04424">
        <ele>263.7</ele>
        <time>2012-06-07T07:30:02.000Z</time>
      </trkpt>
      <trkpt lat="47.67981" lon="6.04425">
        <ele>263.8</ele>
        <time>2012-06-07T07:30:04.000Z</time>
      </trkpt>
      <trkpt lat="47.67974" lon="6.04427">
        <ele>264.2</ele>
        <time>2012-06-07T07:30:06.000Z</time>
      </trkpt>
      <trkpt lat="47.67968" lon="6.04427">
        <ele>264.4</ele>
        <time>2012-06-07T07:30:08.000Z</time>
      </trkpt>
      <trkpt lat="47.67961" lon="6.04427">
        <ele>264.8</ele>
        <time>2012-06-07T07:30:10.000Z</time>
      </trkpt>
      <trkpt lat="47.67954" lon="6.04427">
        <ele>265</ele>
        <time>2012-06-07T07:30:12.000Z</time>
      </trkpt>
      <trkpt lat="47.67946" lon="6.04426">
        <ele>264.9</ele>
        <time>2012-06-07T07:30:14.000Z</time>
      </trkpt>
      <trkpt lat="47.6794" lon="6.04425">
        <ele>265.1</ele>
        <time>2012-06-07T07:30:16.000Z</time>
      </trkpt>
      <trkpt lat="47.67932" lon="6.04425">
        <ele>265.1</ele>
        <time>2012-06-07T07:30:18.000Z</time>
      </trkpt>
      <trkpt lat="47.67925" lon="6.04424">
        <ele>265.3</ele>
        <time>2012-06-07T07:30:20.000Z</time>
      </trkpt>
      <trkpt lat="47.67918" lon="6.04424">
        <ele>265.7</ele>
        <time>2012-06-07T07:30:22.000Z</time>
      </trkpt>
      <trkpt lat="47.67912" lon="6.04423">
        <ele>266</ele>
        <time>2012-06-07T07:30:24.000Z</time>
      </trkpt>
      <trkpt lat="47.67905" lon="6.04422">
        <ele>266.4</ele>
        <time>2012-06-07T07:30:26.000Z</time>
      </trkpt>
      <trkpt lat="47.67899" lon="6.04422">
        <ele>267</ele>
        <time>2012-06-07T07:30:28.000Z</time>
      </trkpt>
      <trkpt lat="47.67892" lon="6.04421">
        <ele>267.4</ele>
        <time>2012-06-07T07:30:30.000Z</time>
      </trkpt>
      <trkpt lat="47.67886" lon="6.0442">
        <ele>267.5</ele>
        <time>2012-06-07T07:30:32.000Z</time>
      </trkpt>
      <trkpt lat="47.67879" lon="6.0442">
        <ele>267.8</ele>
        <time>2012-06-07T07:30:34.000Z</time>
      </trkpt>
      <trkpt lat="47.67873" lon="6.04419">
        <ele>268.2</ele>
        <time>2012-06-07T07:30:36.000Z</time>
      </trkpt>
      <trkpt lat="47.67866" lon="6.04419">
        <ele>268.5</ele>
        <time>2012-06-07T07:30:38.000Z</time>
      </trkpt>
      <trkpt lat="47.6786" lon="6.04418">
        <ele>268.6</ele>
        <time>2012-06-07T07:30:40.000Z</time>
      </trkpt>
      <trkpt lat="47.67853" lon="6.04416">
        <ele>268.5</ele>
        <time>2012-06-07T07:30:42.000Z</time>
      </trkpt>
      <trkpt lat="47.67847" lon="6.04415">
        <ele>268.6</ele>
        <time>2012-06-07T07:30:44.000Z</time>
      </trkpt>
      <trkpt lat="47.6784" lon="6.04415">
        <ele>268.9</ele>
        <time>2012-06-07T07:30:46.000Z</time>
      </trkpt>
      <trkpt lat="47.67834" lon="6.04414">
        <ele>269.3</ele>
        <time>2012-06-07T07:30:48.000Z</time>
      </trkpt>
      <trkpt lat="47.67828" lon="6.04411">
        <ele>269.3</ele>
        <time>2012-06-07T07:30:50.000Z</time>
      </trkpt>
      <trkpt lat="47.67821" lon="6.04409">
        <ele>269.4</ele>
        <time>2012-06-07T07:30:52.000Z</time>
      </trkpt>
      <trkpt lat="47.67815" lon="6.04408">
        <ele>269.8</ele>
        <time>2012-06-07T07:30:54.000Z</time>
      </trkpt>
      <trkpt lat="47.67809" lon="6.04406">
        <ele>270</ele>
        <time>2012-06-07T07:30:56.000Z</time>
      </trkpt>
      <trkpt lat="47.67803" lon="6.04404">
        <ele>270.3</ele>
        <time>2012-06-07T07:30:58.000Z</time>
      </trkpt>
      <trkpt lat="47.67797" lon="6.04402">
        <ele>270.9</ele>
        <time>2012-06-07T07:31:00.000Z</time>
      </trkpt>
      <trkpt lat="47.67791" lon="6.044">
        <ele>271.6</ele>
        <time>2012-06-07T07:31:02.000Z</time>
      </trkpt>
      <trkpt lat="47.67785" lon="6.04399">
        <ele>272</ele>
        <time>2012-06-07T07:31:05.000Z</time>
      </trkpt>
      <trkpt lat="47.6778" lon="6.04398">
        <ele>272.4</ele>
        <time>2012-06-07T07:31:07.000Z</time>
      </trkpt>
      <trkpt lat="47.67775" lon="6.04396">
        <ele>273</ele>
        <time>2012-06-07T07:31:09.000Z</time>
      </trkpt>
      <trkpt lat="47.67769" lon="6.04391">
        <ele>273.4</ele>
        <time>2012-06-07T07:31:11.000Z</time>
      </trkpt>
      <trkpt lat="47.67763" lon="6.04386">
        <ele>273.6</ele>
        <time>2012-06-07T07:31:13.000Z</time>
      </trkpt>
      <trkpt lat="47.6776" lon="6.04382">
        <ele>273.8</ele>
        <time>2012-06-07T07:31:15.000Z</time>
      </trkpt>
      <trkpt lat="47.67756" lon="6.04377">
        <ele>274.1</ele>
        <time>2012-06-07T07:31:17.000Z</time>
      </trkpt>
      <trkpt lat="47.67751" lon="6.04374">
        <ele>274.2</ele>
        <time>2012-06-07T07:31:19.000Z</time>
      </trkpt>
      <trkpt lat="47.67747" lon="6.04371">
        <ele>274.4</ele>
        <time>2012-06-07T07:31:21.000Z</time>
      </trkpt>
      <trkpt lat="47.67743" lon="6.04369">
        <ele>274.8</ele>
        <time>2012-06-07T07:31:23.000Z</time>
      </trkpt>
      <trkpt lat="47.67736" lon="6.04366">
        <ele>275.2</ele>
        <time>2012-06-07T07:31:26.000Z</time>
      </trkpt>
      <trkpt lat="47.67732" lon="6.04362">
        <ele>275.2</ele>
        <time>2012-06-07T07:31:28.000Z</time>
      </trkpt>
      <trkpt lat="47.67728" lon="6.04356">
        <ele>275.6</ele>
        <time>2012-06-07T07:31:31.000Z</time>
      </trkpt>
      <trkpt lat="47.67721" lon="6.04354">
        <ele>276.5</ele>
        <time>2012-06-07T07:31:33.000Z</time>
      </trkpt>
      <trkpt lat="47.67715" lon="6.04351">
        <ele>277.1</ele>
        <time>2012-06-07T07:31:35.000Z</time>
      </trkpt>
      <trkpt lat="47.67707" lon="6.04348">
        <ele>277.5</ele>
        <time>2012-06-07T07:31:37.000Z</time>
      </trkpt>
      <trkpt lat="47.67703" lon="6.04348">
        <ele>277.7</ele>
        <time>2012-06-07T07:31:38.000Z</time>
      </trkpt>
      <trkpt lat="47.67694" lon="6.04347">
        <ele>278.2</ele>
        <time>2012-06-07T07:31:40.000Z</time>
      </trkpt>
      <trkpt lat="47.67686" lon="6.04343">
        <ele>278.7</ele>
        <time>2012-06-07T07:31:42.000Z</time>
      </trkpt>
      <trkpt lat="47.67681" lon="6.04337">
        <ele>279.2</ele>
        <time>2012-06-07T07:31:44.000Z</time>
      </trkpt>
      <trkpt lat="47.67678" lon="6.04331">
        <ele>279.5</ele>
        <time>2012-06-07T07:31:45.000Z</time>
      </trkpt>
      <trkpt lat="47.67671" lon="6.04326">
        <ele>280.4</ele>
        <time>2012-06-07T07:31:47.000Z</time>
      </trkpt>
      <trkpt lat="47.67666" lon="6.04322">
        <ele>281.2</ele>
        <time>2012-06-07T07:31:49.000Z</time>
      </trkpt>
      <trkpt lat="47.67631" lon="6.04275">
        <ele>302.7</ele>
        <time>2012-06-07T07:32:02.000Z</time>
      </trkpt>
      <trkpt lat="47.67626" lon="6.04268">
        <ele>305.2</ele>
        <time>2012-06-07T07:32:04.000Z</time>
      </trkpt>
      <trkpt lat="47.67621" lon="6.04262">
        <ele>310.3</ele>
        <time>2012-06-07T07:32:06.000Z</time>
      </trkpt>
      <trkpt lat="47.67617" lon="6.04258">
        <ele>315.2</ele>
        <time>2012-06-07T07:32:08.000Z</time>
      </trkpt>
      <trkpt lat="47.67612" lon="6.04254">
        <ele>319.4</ele>
        <time>2012-06-07T07:32:10.000Z</time>
      </trkpt>
      <trkpt lat="47.67607" lon="6.04249">
        <ele>319.2</ele>
        <time>2012-06-07T07:32:13.000Z</time>
      </trkpt>
      <trkpt lat="47.67601" lon="6.04244">
        <ele>320.9</ele>
        <time>2012-06-07T07:32:15.000Z</time>
      </trkpt>
      <trkpt lat="47.67595" lon="6.04238">
        <ele>321.7</ele>
        <time>2012-06-07T07:32:17.000Z</time>
      </trkpt>
      <trkpt lat="47.6759" lon="6.04235">
        <ele>324.1</ele>
        <time>2012-06-07T07:32:19.000Z</time>
      </trkpt>
      <trkpt lat="47.67585" lon="6.04231">
        <ele>326.9</ele>
        <time>2012-06-07T07:32:21.000Z</time>
      </trkpt>
      <trkpt lat="47.67582" lon="6.04222">
        <ele>323.3</ele>
        <time>2012-06-07T07:32:23.000Z</time>
      </trkpt>
      <trkpt lat="47.67576" lon="6.04216">
        <ele>322.3</ele>
        <time>2012-06-07T07:32:25.000Z</time>
      </trkpt>
      <trkpt lat="47.67571" lon="6.04211">
        <ele>321.9</ele>
        <time>2012-06-07T07:32:27.000Z</time>
      </trkpt>
      <trkpt lat="47.67564" lon="6.04208">
        <ele>319</ele>
        <time>2012-06-07T07:32:29.000Z</time>
      </trkpt>
      <trkpt lat="47.67557" lon="6.04204">
        <ele>317.2</ele>
        <time>2012-06-07T07:32:31.000Z</time>
      </trkpt>
      <trkpt lat="47.67552" lon="6.04202">
        <ele>316.2</ele>
        <time>2012-06-07T07:32:32.000Z</time>
      </trkpt>
      <trkpt lat="47.67546" lon="6.042">
        <ele>315.3</ele>
        <time>2012-06-07T07:32:33.000Z</time>
      </trkpt>
      <trkpt lat="47.67541" lon="6.04198">
        <ele>314.8</ele>
        <time>2012-06-07T07:32:34.000Z</time>
      </trkpt>
      <trkpt lat="47.67536" lon="6.04196">
        <ele>314</ele>
        <time>2012-06-07T07:32:35.000Z</time>
      </trkpt>
      <trkpt lat="47.67531" lon="6.04193">
        <ele>313.2</ele>
        <time>2012-06-07T07:32:36.000Z</time>
      </trkpt>
      <trkpt lat="47.67526" lon="6.0419">
        <ele>312.5</ele>
        <time>2012-06-07T07:32:37.000Z</time>
      </trkpt>
      <trkpt lat="47.67522" lon="6.04186">
        <ele>311.9</ele>
        <time>2012-06-07T07:32:38.000Z</time>
      </trkpt>
      <trkpt lat="47.67518" lon="6.04182">
        <ele>311.6</ele>
        <time>2012-06-07T07:32:39.000Z</time>
      </trkpt>
      <trkpt lat="47.6751" lon="6.04177">
        <ele>311.4</ele>
        <time>2012-06-07T07:32:41.000Z</time>
      </trkpt>
      <trkpt lat="47.67502" lon="6.04172">
        <ele>311.4</ele>
        <time>2012-06-07T07:32:43.000Z</time>
      </trkpt>
      <trkpt lat="47.67494" lon="6.04166">
        <ele>311</ele>
        <time>2012-06-07T07:32:45.000Z</time>
      </trkpt>
      <trkpt lat="47.67488" lon="6.04157">
        <ele>311</ele>
        <time>2012-06-07T07:32:47.000Z</time>
      </trkpt>
      <trkpt lat="47.67481" lon="6.0415">
        <ele>311</ele>
        <time>2012-06-07T07:32:49.000Z</time>
      </trkpt>
      <trkpt lat="47.67472" lon="6.04059">
        <ele>312.8</ele>
        <time>2012-06-07T07:33:03.000Z</time>
      </trkpt>
      <trkpt lat="47.67467" lon="6.04053">
        <ele>312.7</ele>
        <time>2012-06-07T07:33:05.000Z</time>
      </trkpt>
      <trkpt lat="47.6746" lon="6.04048">
        <ele>313.1</ele>
        <time>2012-06-07T07:33:07.000Z</time>
      </trkpt>
      <trkpt lat="47.67452" lon="6.04042">
        <ele>313.4</ele>
        <time>2012-06-07T07:33:09.000Z</time>
      </trkpt>
      <trkpt lat="47.67445" lon="6.04038">
        <ele>315.5</ele>
        <time>2012-06-07T07:33:11.000Z</time>
      </trkpt>
      <trkpt lat="47.67438" lon="6.04028">
        <ele>315.1</ele>
        <time>2012-06-07T07:33:13.000Z</time>
      </trkpt>
      <trkpt lat="47.67435" lon="6.04023">
        <ele>314.9</ele>
        <time>2012-06-07T07:33:14.000Z</time>
      </trkpt>
      <trkpt lat="47.67428" lon="6.04013">
        <ele>313.2</ele>
        <time>2012-06-07T07:33:16.000Z</time>
      </trkpt>
      <trkpt lat="47.67426" lon="6.04007">
        <ele>312.5</ele>
        <time>2012-06-07T07:33:17.000Z</time>
      </trkpt>
      <trkpt lat="47.67424" lon="6.04">
        <ele>312.3</ele>
        <time>2012-06-07T07:33:18.000Z</time>
      </trkpt>
      <trkpt lat="47.67419" lon="6.0399">
        <ele>312.5</ele>
        <time>2012-06-07T07:33:20.000Z</time>
      </trkpt>
      <trkpt lat="47.67417" lon="6.03984">
        <ele>312.3</ele>
        <time>2012-06-07T07:33:21.000Z</time>
      </trkpt>
      <trkpt lat="47.67415" lon="6.03978">
        <ele>312.1</ele>
        <time>2012-06-07T07:33:22.000Z</time>
      </trkpt>
      <trkpt lat="47.67411" lon="6.03967">
        <ele>313</ele>
        <time>2012-06-07T07:33:24.000Z</time>
      </trkpt>
      <trkpt lat="47.67406" lon="6.03957">
        <ele>311</ele>
        <time>2012-06-07T07:33:26.000Z</time>
      </trkpt>
      <trkpt lat="47.674" lon="6.0395">
        <ele>309.6</ele>
        <time>2012-06-07T07:33:28.000Z</time>
      </trkpt>
      <trkpt lat="47.67395" lon="6.03941">
        <ele>308.4</ele>
        <time>2012-06-07T07:33:30.000Z</time>
      </trkpt>
      <trkpt lat="47.67386" lon="6.03937">
        <ele>307.6</ele>
        <time>2012-06-07T07:33:32.000Z</time>
      </trkpt>
      <trkpt lat="47.67381" lon="6.03937">
        <ele>307.3</ele>
        <time>2012-06-07T07:33:33.000Z</time>
      </trkpt>
      <trkpt lat="47.67373" lon="6.03933">
        <ele>307.9</ele>
        <time>2012-06-07T07:33:35.000Z</time>
      </trkpt>
      <trkpt lat="47.67367" lon="6.03928">
        <ele>308</ele>
        <time>2012-06-07T07:33:37.000Z</time>
      </trkpt>
      <trkpt lat="47.67361" lon="6.0392">
        <ele>306.4</ele>
        <time>2012-06-07T07:33:39.000Z</time>
      </trkpt>
      <trkpt lat="47.67355" lon="6.03911">
        <ele>305</ele>
        <time>2012-06-07T07:33:41.000Z</time>
      </trkpt>
      <trkpt lat="47.67349" lon="6.03903">
        <ele>304.1</ele>
        <time>2012-06-07T07:33:43.000Z</time>
      </trkpt>
      <trkpt lat="47.67343" lon="6.03896">
        <ele>303.1</ele>
        <time>2012-06-07T07:33:45.000Z</time>
      </trkpt>
      <trkpt lat="47.67336" lon="6.03894">
        <ele>303.3</ele>
        <time>2012-06-07T07:33:47.000Z</time>
      </trkpt>
      <trkpt lat="47.6733" lon="6.03889">
        <ele>303.4</ele>
        <time>2012-06-07T07:33:49.000Z</time>
      </trkpt>
      <trkpt lat="47.67313" lon="6.03831">
        <ele>304.2</ele>
        <time>2012-06-07T07:34:02.000Z</time>
      </trkpt>
      <trkpt lat="47.67308" lon="6.03827">
        <ele>303.7</ele>
        <time>2012-06-07T07:34:04.000Z</time>
      </trkpt>
      <trkpt lat="47.67304" lon="6.03823">
        <ele>304.2</ele>
        <time>2012-06-07T07:34:06.000Z</time>
      </trkpt>
      <trkpt lat="47.67298" lon="6.03819">
        <ele>304.6</ele>
        <time>2012-06-07T07:34:08.000Z</time>
      </trkpt>
      <trkpt lat="47.67293" lon="6.03816">
        <ele>305.1</ele>
        <time>2012-06-07T07:34:10.000Z</time>
      </trkpt>
      <trkpt lat="47.67289" lon="6.03811">
        <ele>306.1</ele>
        <time>2012-06-07T07:34:12.000Z</time>
      </trkpt>
      <trkpt lat="47.67286" lon="6.03805">
        <ele>307</ele>
        <time>2012-06-07T07:34:14.000Z</time>
      </trkpt>
      <trkpt lat="47.67282" lon="6.038">
        <ele>307.2</ele>
        <time>2012-06-07T07:34:16.000Z</time>
      </trkpt>
      <trkpt lat="47.67278" lon="6.03797">
        <ele>308.4</ele>
        <time>2012-06-07T07:34:18.000Z</time>
      </trkpt>
      <trkpt lat="47.67273" lon="6.03793">
        <ele>308.5</ele>
        <time>2012-06-07T07:34:20.000Z</time>
      </trkpt>
      <trkpt lat="47.67269" lon="6.03787">
        <ele>308.6</ele>
        <time>2012-06-07T07:34:22.000Z</time>
      </trkpt>
      <trkpt lat="47.67264" lon="6.03781">
        <ele>309.6</ele>
        <time>2012-06-07T07:34:24.000Z</time>
      </trkpt>
      <trkpt lat="47.67258" lon="6.03775">
        <ele>309.5</ele>
        <time>2012-06-07T07:34:26.000Z</time>
      </trkpt>
      <trkpt lat="47.67255" lon="6.03766">
        <ele>308.7</ele>
        <time>2012-06-07T07:34:28.000Z</time>
      </trkpt>
      <trkpt lat="47.67253" lon="6.03757">
        <ele>307.7</ele>
        <time>2012-06-07T07:34:30.000Z</time>
      </trkpt>
      <trkpt lat="47.6725" lon="6.03749">
        <ele>307.1</ele>
        <time>2012-06-07T07:34:32.000Z</time>
      </trkpt>
      <trkpt lat="47.67246" lon="6.03744">
        <ele>307.1</ele>
        <time>2012-06-07T07:34:34.000Z</time>
      </trkpt>
      <trkpt lat="47.67243" lon="6.03738">
        <ele>307.1</ele>
        <time>2012-06-07T07:34:36.000Z</time>
      </trkpt>
      <trkpt lat="47.67241" lon="6.0373">
        <ele>306.7</ele>
        <time>2012-06-07T07:34:38.000Z</time>
      </trkpt>
      <trkpt lat="47.67238" lon="6.03725">
        <ele>306.7</ele>
        <time>2012-06-07T07:34:40.000Z</time>
      </trkpt>
      <trkpt lat="47.67234" lon="6.03718">
        <ele>307</ele>
        <time>2012-06-07T07:34:43.000Z</time>
      </trkpt>
      <trkpt lat="47.67228" lon="6.03714">
        <ele>307.7</ele>
        <time>2012-06-07T07:34:46.000Z</time>
      </trkpt>
      <trkpt lat="47.67222" lon="6.03709">
        <ele>308.1</ele>
        <time>2012-06-07T07:34:49.000Z</time>
      </trkpt>
      <trkpt lat="47.6722" lon="6.03704">
        <ele>307.8</ele>
        <time>2012-06-07T07:34:51.000Z</time>
      </trkpt>
      <trkpt lat="47.67217" lon="6.03698">
        <ele>307</ele>
        <time>2012-06-07T07:34:53.000Z</time>
      </trkpt>
      <trkpt lat="47.67215" lon="6.03691">
        <ele>306.3</ele>
        <time>2012-06-07T07:34:55.000Z</time>
      </trkpt>
      <trkpt lat="47.67213" lon="6.03684">
        <ele>306.1</ele>
        <time>2012-06-07T07:34:57.000Z</time>
      </trkpt>
      <trkpt lat="47.67212" lon="6.03676">
        <ele>305</ele>
        <time>2012-06-07T07:34:59.000Z</time>
      </trkpt>
      <trkpt lat="47.6721" lon="6.03668">
        <ele>304.2</ele>
        <time>2012-06-07T07:35:01.000Z</time>
      </trkpt>
      <trkpt lat="47.67209" lon="6.0366">
        <ele>303.8</ele>
        <time>2012-06-07T07:35:03.000Z</time>
      </trkpt>
      <trkpt lat="47.67208" lon="6.03652">
        <ele>303.2</ele>
        <time>2012-06-07T07:35:05.000Z</time>
      </trkpt>
      <trkpt lat="47.67206" lon="6.03643">
        <ele>302.4</ele>
        <time>2012-06-07T07:35:07.000Z</time>
      </trkpt>
      <trkpt lat="47.67204" lon="6.03635">
        <ele>301.8</ele>
        <time>2012-06-07T07:35:09.000Z</time>
      </trkpt>
      <trkpt lat="47.67201" lon="6.03628">
        <ele>301.8</ele>
        <time>2012-06-07T07:35:11.000Z</time>
      </trkpt>
      <trkpt lat="47.67198" lon="6.0362">
        <ele>301.6</ele>
        <time>2012-06-07T07:35:13.000Z</time>
      </trkpt>
      <trkpt lat="47.67195" lon="6.03612">
        <ele>301.3</ele>
        <time>2012-06-07T07:35:15.000Z</time>
      </trkpt>
      <trkpt lat="47.67191" lon="6.03607">
        <ele>301.1</ele>
        <time>2012-06-07T07:35:17.000Z</time>
      </trkpt>
      <trkpt lat="47.67187" lon="6.03602">
        <ele>301.5</ele>
        <time>2012-06-07T07:35:19.000Z</time>
      </trkpt>
      <trkpt lat="47.67183" lon="6.03598">
        <ele>301.9</ele>
        <time>2012-06-07T07:35:21.000Z</time>
      </trkpt>
      <trkpt lat="47.6718" lon="6.03592">
        <ele>302.1</ele>
        <time>2012-06-07T07:35:23.000Z</time>
      </trkpt>
      <trkpt lat="47.67177" lon="6.03587">
        <ele>302.2</ele>
        <time>2012-06-07T07:35:25.000Z</time>
      </trkpt>
      <trkpt lat="47.67173" lon="6.03582">
        <ele>302.4</ele>
        <time>2012-06-07T07:35:27.000Z</time>
      </trkpt>
      <trkpt lat="47.6717" lon="6.03575">
        <ele>302.6</ele>
        <time>2012-06-07T07:35:29.000Z</time>
      </trkpt>
      <trkpt lat="47.67166" lon="6.03568">
        <ele>302.9</ele>
        <time>2012-06-07T07:35:31.000Z</time>
      </trkpt>
      <trkpt lat="47.67161" lon="6.03562">
        <ele>303.2</ele>
        <time>2012-06-07T07:35:33.000Z</time>
      </trkpt>
      <trkpt lat="47.67156" lon="6.03554">
        <ele>303.9</ele>
        <time>2012-06-07T07:35:35.000Z</time>
      </trkpt>
      <trkpt lat="47.6715" lon="6.03548">
        <ele>304.3</ele>
        <time>2012-06-07T07:35:37.000Z</time>
      </trkpt>
      <trkpt lat="47.67144" lon="6.03539">
        <ele>304.7</ele>
        <time>2012-06-07T07:35:39.000Z</time>
      </trkpt>
      <trkpt lat="47.67141" lon="6.03534">
        <ele>304.8</ele>
        <time>2012-06-07T07:35:40.000Z</time>
      </trkpt>
      <trkpt lat="47.67138" lon="6.03529">
        <ele>304.9</ele>
        <time>2012-06-07T07:35:41.000Z</time>
      </trkpt>
      <trkpt lat="47.67134" lon="6.03524">
        <ele>305</ele>
        <time>2012-06-07T07:35:42.000Z</time>
      </trkpt>
      <trkpt lat="47.6713" lon="6.03519">
        <ele>305.1</ele>
        <time>2012-06-07T07:35:43.000Z</time>
      </trkpt>
      <trkpt lat="47.67126" lon="6.03514">
        <ele>305.2</ele>
        <time>2012-06-07T07:35:44.000Z</time>
      </trkpt>
      <trkpt lat="47.67122" lon="6.03509">
        <ele>305.4</ele>
        <time>2012-06-07T07:35:45.000Z</time>
      </trkpt>
      <trkpt lat="47.67117" lon="6.03504">
        <ele>305.6</ele>
        <time>2012-06-07T07:35:46.000Z</time>
      </trkpt>
      <trkpt lat="47.67113" lon="6.03499">
        <ele>305.8</ele>
        <time>2012-06-07T07:35:47.000Z</time>
      </trkpt>
      <trkpt lat="47.67108" lon="6.03495">
        <ele>306</ele>
        <time>2012-06-07T07:35:48.000Z</time>
      </trkpt>
      <trkpt lat="47.67103" lon="6.03491">
        <ele>306.2</ele>
        <time>2012-06-07T07:35:49.000Z</time>
      </trkpt>
      <trkpt lat="47.67099" lon="6.03486">
        <ele>306.3</ele>
        <time>2012-06-07T07:35:50.000Z</time>
      </trkpt>
      <trkpt lat="47.67096" lon="6.03481">
        <ele>306.4</ele>
        <time>2012-06-07T07:35:51.000Z</time>
      </trkpt>
      <trkpt lat="47.67092" lon="6.03476">
        <ele>306.6</ele>
        <time>2012-06-07T07:35:52.000Z</time>
      </trkpt>
      <trkpt lat="47.67089" lon="6.03471">
        <ele>306.9</ele>
        <time>2012-06-07T07:35:53.000Z</time>
      </trkpt>
      <trkpt lat="47.67085" lon="6.03466">
        <ele>307.3</ele>
        <time>2012-06-07T07:35:54.000Z</time>
      </trkpt>
      <trkpt lat="47.67082" lon="6.03461">
        <ele>307.5</ele>
        <time>2012-06-07T07:35:55.000Z</time>
      </trkpt>
      <trkpt lat="47.67079" lon="6.03456">
        <ele>307.7</ele>
        <time>2012-06-07T07:35:56.000Z</time>
      </trkpt>
      <trkpt lat="47.67076" lon="6.0345">
        <ele>307.7</ele>
        <time>2012-06-07T07:35:57.000Z</time>
      </trkpt>
      <trkpt lat="47.67069" lon="6.03446">
        <ele>308.2</ele>
        <time>2012-06-07T07:35:59.000Z</time>
      </trkpt>
      <trkpt lat="47.67064" lon="6.03442">
        <ele>308.4</ele>
        <time>2012-06-07T07:36:00.000Z</time>
      </trkpt>
      <trkpt lat="47.67059" lon="6.03434">
        <ele>308.6</ele>
        <time>2012-06-07T07:36:01.000Z</time>
      </trkpt>
      <trkpt lat="47.67054" lon="6.03424">
        <ele>309.1</ele>
        <time>2012-06-07T07:36:02.000Z</time>
      </trkpt>
      <trkpt lat="47.67052" lon="6.03412">
        <ele>309</ele>
        <time>2012-06-07T07:36:03.000Z</time>
      </trkpt>
      <trkpt lat="47.67052" lon="6.03402">
        <ele>309.2</ele>
        <time>2012-06-07T07:36:04.000Z</time>
      </trkpt>
      <trkpt lat="47.67052" lon="6.03391">
        <ele>308.6</ele>
        <time>2012-06-07T07:36:05.000Z</time>
      </trkpt>
      <trkpt lat="47.6705" lon="6.03383">
        <ele>308.8</ele>
        <time>2012-06-07T07:36:06.000Z</time>
      </trkpt>
      <trkpt lat="47.6705" lon="6.03372">
        <ele>308.5</ele>
        <time>2012-06-07T07:36:07.000Z</time>
      </trkpt>
      <trkpt lat="47.67048" lon="6.03364">
        <ele>308.9</ele>
        <time>2012-06-07T07:36:08.000Z</time>
      </trkpt>
      <trkpt lat="47.67044" lon="6.03359">
        <ele>309.1</ele>
        <time>2012-06-07T07:36:09.000Z</time>
      </trkpt>
      <trkpt lat="47.67037" lon="6.03356">
        <ele>309.1</ele>
        <time>2012-06-07T07:36:10.000Z</time>
      </trkpt>
      <trkpt lat="47.67032" lon="6.03352">
        <ele>309.3</ele>
        <time>2012-06-07T07:36:11.000Z</time>
      </trkpt>
      <trkpt lat="47.67029" lon="6.03346">
        <ele>309.7</ele>
        <time>2012-06-07T07:36:12.000Z</time>
      </trkpt>
      <trkpt lat="47.67024" lon="6.03341">
        <ele>309.6</ele>
        <time>2012-06-07T07:36:13.000Z</time>
      </trkpt>
      <trkpt lat="47.6702" lon="6.03334">
        <ele>309.7</ele>
        <time>2012-06-07T07:36:14.000Z</time>
      </trkpt>
      <trkpt lat="47.67014" lon="6.03329">
        <ele>309.8</ele>
        <time>2012-06-07T07:36:15.000Z</time>
      </trkpt>
      <trkpt lat="47.67009" lon="6.0332">
        <ele>309.6</ele>
        <time>2012-06-07T07:36:16.000Z</time>
      </trkpt>
      <trkpt lat="47.67008" lon="6.03309">
        <ele>309.3</ele>
        <time>2012-06-07T07:36:17.000Z</time>
      </trkpt>
      <trkpt lat="47.67004" lon="6.03301">
        <ele>308.7</ele>
        <time>2012-06-07T07:36:18.000Z</time>
      </trkpt>
      <trkpt lat="47.66998" lon="6.03297">
        <ele>308.6</ele>
        <time>2012-06-07T07:36:19.000Z</time>
      </trkpt>
      <trkpt lat="47.66988" lon="6.03296">
        <ele>308.8</ele>
        <time>2012-06-07T07:36:20.000Z</time>
      </trkpt>
      <trkpt lat="47.66984" lon="6.03289">
        <ele>309.1</ele>
        <time>2012-06-07T07:36:21.000Z</time>
      </trkpt>
      <trkpt lat="47.66978" lon="6.03282">
        <ele>309</ele>
        <time>2012-06-07T07:36:22.000Z</time>
      </trkpt>
      <trkpt lat="47.66971" lon="6.03278">
        <ele>309.4</ele>
        <time>2012-06-07T07:36:23.000Z</time>
      </trkpt>
      <trkpt lat="47.66965" lon="6.03274">
        <ele>310</ele>
        <time>2012-06-07T07:36:24.000Z</time>
      </trkpt>
      <trkpt lat="47.66958" lon="6.0327">
        <ele>310.4</ele>
        <time>2012-06-07T07:36:25.000Z</time>
      </trkpt>
      <trkpt lat="47.6695" lon="6.03268">
        <ele>311.1</ele>
        <time>2012-06-07T07:36:26.000Z</time>
      </trkpt>
      <trkpt lat="47.66942" lon="6.03265">
        <ele>311.6</ele>
        <time>2012-06-07T07:36:27.000Z</time>
      </trkpt>
      <trkpt lat="47.66933" lon="6.0326">
        <ele>312.1</ele>
        <time>2012-06-07T07:36:28.000Z</time>
      </trkpt>
      <trkpt lat="47.66923" lon="6.03253">
        <ele>312.2</ele>
        <time>2012-06-07T07:36:29.000Z</time>
      </trkpt>
      <trkpt lat="47.66914" lon="6.03246">
        <ele>312.2</ele>
        <time>2012-06-07T07:36:30.000Z</time>
      </trkpt>
      <trkpt lat="47.66906" lon="6.0324">
        <ele>312.1</ele>
        <time>2012-06-07T07:36:31.000Z</time>
      </trkpt>
      <trkpt lat="47.66898" lon="6.03234">
        <ele>311.6</ele>
        <time>2012-06-07T07:36:32.000Z</time>
      </trkpt>
      <trkpt lat="47.66891" lon="6.03229">
        <ele>311</ele>
        <time>2012-06-07T07:36:33.000Z</time>
      </trkpt>
      <trkpt lat="47.66882" lon="6.03225">
        <ele>310.4</ele>
        <time>2012-06-07T07:36:34.000Z</time>
      </trkpt>
      <trkpt lat="47.66873" lon="6.03222">
        <ele>309.9</ele>
        <time>2012-06-07T07:36:35.000Z</time>
      </trkpt>
      <trkpt lat="47.66865" lon="6.03218">
        <ele>309.6</ele>
        <time>2012-06-07T07:36:36.000Z</time>
      </trkpt>
      <trkpt lat="47.66856" lon="6.03215">
        <ele>309</ele>
        <time>2012-06-07T07:36:37.000Z</time>
      </trkpt>
      <trkpt lat="47.66847" lon="6.03212">
        <ele>308.4</ele>
        <time>2012-06-07T07:36:38.000Z</time>
      </trkpt>
      <trkpt lat="47.66839" lon="6.03207">
        <ele>307.9</ele>
        <time>2012-06-07T07:36:39.000Z</time>
      </trkpt>
      <trkpt lat="47.6683" lon="6.03203">
        <ele>306.9</ele>
        <time>2012-06-07T07:36:40.000Z</time>
      </trkpt>
      <trkpt lat="47.66824" lon="6.03196">
        <ele>305.7</ele>
        <time>2012-06-07T07:36:41.000Z</time>
      </trkpt>
      <trkpt lat="47.66816" lon="6.03191">
        <ele>304.7</ele>
        <time>2012-06-07T07:36:42.000Z</time>
      </trkpt>
      <trkpt lat="47.66808" lon="6.03188">
        <ele>303.9</ele>
        <time>2012-06-07T07:36:43.000Z</time>
      </trkpt>
      <trkpt lat="47.668" lon="6.03183">
        <ele>302.7</ele>
        <time>2012-06-07T07:36:44.000Z</time>
      </trkpt>
      <trkpt lat="47.66792" lon="6.03179">
        <ele>301.7</ele>
        <time>2012-06-07T07:36:45.000Z</time>
      </trkpt>
      <trkpt lat="47.66788" lon="6.0317">
        <ele>300.7</ele>
        <time>2012-06-07T07:36:46.000Z</time>
      </trkpt>
      <trkpt lat="47.66781" lon="6.03164">
        <ele>299.9</ele>
        <time>2012-06-07T07:36:47.000Z</time>
      </trkpt>
      <trkpt lat="47.66772" lon="6.03157">
        <ele>299</ele>
        <time>2012-06-07T07:36:48.000Z</time>
      </trkpt>
      <trkpt lat="47.66762" lon="6.03151">
        <ele>297.7</ele>
        <time>2012-06-07T07:36:49.000Z</time>
      </trkpt>
      <trkpt lat="47.66752" lon="6.03145">
        <ele>296.4</ele>
        <time>2012-06-07T07:36:50.000Z</time>
      </trkpt>
      <trkpt lat="47.66742" lon="6.03139">
        <ele>295.6</ele>
        <time>2012-06-07T07:36:51.000Z</time>
      </trkpt>
      <trkpt lat="47.66733" lon="6.03132">
        <ele>294.7</ele>
        <time>2012-06-07T07:36:52.000Z</time>
      </trkpt>
      <trkpt lat="47.66724" lon="6.03126">
        <ele>294.1</ele>
        <time>2012-06-07T07:36:53.000Z</time>
      </trkpt>
      <trkpt lat="47.66714" lon="6.03121">
        <ele>291</ele>
        <time>2012-06-07T07:36:54.000Z</time>
      </trkpt>
      <trkpt lat="47.66705" lon="6.03114">
        <ele>288.3</ele>
        <time>2012-06-07T07:36:55.000Z</time>
      </trkpt>
      <trkpt lat="47.66697" lon="6.03107">
        <ele>285.8</ele>
        <time>2012-06-07T07:36:56.000Z</time>
      </trkpt>
      <trkpt lat="47.66688" lon="6.031">
        <ele>283.9</ele>
        <time>2012-06-07T07:36:57.000Z</time>
      </trkpt>
      <trkpt lat="47.66679" lon="6.03096">
        <ele>282.3</ele>
        <time>2012-06-07T07:36:58.000Z</time>
      </trkpt>
      <trkpt lat="47.66671" lon="6.03093">
        <ele>280.7</ele>
        <time>2012-06-07T07:36:59.000Z</time>
      </trkpt>
      <trkpt lat="47.66663" lon="6.03092">
        <ele>279.4</ele>
        <time>2012-06-07T07:37:00.000Z</time>
      </trkpt>
      <trkpt lat="47.66655" lon="6.03092">
        <ele>278.7</ele>
        <time>2012-06-07T07:37:01.000Z</time>
      </trkpt>
      <trkpt lat="47.66648" lon="6.03092">
        <ele>278.1</ele>
        <time>2012-06-07T07:37:02.000Z</time>
      </trkpt>
      <trkpt lat="47.6664" lon="6.03093">
        <ele>277.3</ele>
        <time>2012-06-07T07:37:03.000Z</time>
      </trkpt>
      <trkpt lat="47.66632" lon="6.03093">
        <ele>276.5</ele>
        <time>2012-06-07T07:37:04.000Z</time>
      </trkpt>
      <trkpt lat="47.66625" lon="6.03093">
        <ele>275.7</ele>
        <time>2012-06-07T07:37:05.000Z</time>
      </trkpt>
      <trkpt lat="47.66618" lon="6.03093">
        <ele>275.1</ele>
        <time>2012-06-07T07:37:06.000Z</time>
      </trkpt>
      <trkpt lat="47.66611" lon="6.03093">
        <ele>274.8</ele>
        <time>2012-06-07T07:37:07.000Z</time>
      </trkpt>
      <trkpt lat="47.66604" lon="6.03093">
        <ele>274.6</ele>
        <time>2012-06-07T07:37:08.000Z</time>
      </trkpt>
      <trkpt lat="47.66596" lon="6.03093">
        <ele>274.3</ele>
        <time>2012-06-07T07:37:09.000Z</time>
      </trkpt>
      <trkpt lat="47.6659" lon="6.03093">
        <ele>274.1</ele>
        <time>2012-06-07T07:37:10.000Z</time>
      </trkpt>
      <trkpt lat="47.66582" lon="6.03093">
        <ele>273.8</ele>
        <time>2012-06-07T07:37:11.000Z</time>
      </trkpt>
      <trkpt lat="47.66576" lon="6.03092">
        <ele>273.6</ele>
        <time>2012-06-07T07:37:12.000Z</time>
      </trkpt>
      <trkpt lat="47.66569" lon="6.03092">
        <ele>273.2</ele>
        <time>2012-06-07T07:37:13.000Z</time>
      </trkpt>
      <trkpt lat="47.66562" lon="6.03092">
        <ele>273</ele>
        <time>2012-06-07T07:37:14.000Z</time>
      </trkpt>
      <trkpt lat="47.66555" lon="6.03092">
        <ele>272.7</ele>
        <time>2012-06-07T07:37:15.000Z</time>
      </trkpt>
      <trkpt lat="47.66549" lon="6.03092">
        <ele>272.4</ele>
        <time>2012-06-07T07:37:16.000Z</time>
      </trkpt>
      <trkpt lat="47.66543" lon="6.03092">
        <ele>272.1</ele>
        <time>2012-06-07T07:37:17.000Z</time>
      </trkpt>
      <trkpt lat="47.66536" lon="6.0309">
        <ele>271.6</ele>
        <time>2012-06-07T07:37:18.000Z</time>
      </trkpt>
      <trkpt lat="47.66529" lon="6.03088">
        <ele>271</ele>
        <time>2012-06-07T07:37:19.000Z</time>
      </trkpt>
      <trkpt lat="47.66522" lon="6.03085">
        <ele>270.6</ele>
        <time>2012-06-07T07:37:20.000Z</time>
      </trkpt>
      <trkpt lat="47.66516" lon="6.03082">
        <ele>270.2</ele>
        <time>2012-06-07T07:37:21.000Z</time>
      </trkpt>
      <trkpt lat="47.6651" lon="6.03082">
        <ele>270.2</ele>
        <time>2012-06-07T07:37:22.000Z</time>
      </trkpt>
      <trkpt lat="47.66504" lon="6.03082">
        <ele>269.9</ele>
        <time>2012-06-07T07:37:23.000Z</time>
      </trkpt>
      <trkpt lat="47.66496" lon="6.03082">
        <ele>270.1</ele>
        <time>2012-06-07T07:37:25.000Z</time>
      </trkpt>
      <trkpt lat="47.66486" lon="6.03084">
        <ele>270.9</ele>
        <time>2012-06-07T07:37:27.000Z</time>
      </trkpt>
      <trkpt lat="47.6648" lon="6.03082">
        <ele>270.7</ele>
        <time>2012-06-07T07:37:28.000Z</time>
      </trkpt>
      <trkpt lat="47.66473" lon="6.03081">
        <ele>270.5</ele>
        <time>2012-06-07T07:37:29.000Z</time>
      </trkpt>
      <trkpt lat="47.66468" lon="6.0308">
        <ele>270.6</ele>
        <time>2012-06-07T07:37:30.000Z</time>
      </trkpt>
      <trkpt lat="47.66463" lon="6.0308">
        <ele>270.8</ele>
        <time>2012-06-07T07:37:31.000Z</time>
      </trkpt>
      <trkpt lat="47.66454" lon="6.03078">
        <ele>271.5</ele>
        <time>2012-06-07T07:37:33.000Z</time>
      </trkpt>
      <trkpt lat="47.66445" lon="6.03075">
        <ele>272</ele>
        <time>2012-06-07T07:37:35.000Z</time>
      </trkpt>
      <trkpt lat="47.66437" lon="6.03071">
        <ele>272.3</ele>
        <time>2012-06-07T07:37:37.000Z</time>
      </trkpt>
      <trkpt lat="47.6643" lon="6.03067">
        <ele>272.7</ele>
        <time>2012-06-07T07:37:39.000Z</time>
      </trkpt>
      <trkpt lat="47.66423" lon="6.03064">
        <ele>272.7</ele>
        <time>2012-06-07T07:37:41.000Z</time>
      </trkpt>
      <trkpt lat="47.66418" lon="6.03061">
        <ele>272.9</ele>
        <time>2012-06-07T07:37:43.000Z</time>
      </trkpt>
      <trkpt lat="47.66412" lon="6.03058">
        <ele>273.2</ele>
        <time>2012-06-07T07:37:45.000Z</time>
      </trkpt>
      <trkpt lat="47.66407" lon="6.03059">
        <ele>273.5</ele>
        <time>2012-06-07T07:37:47.000Z</time>
      </trkpt>
      <trkpt lat="47.66402" lon="6.03056">
        <ele>273.5</ele>
        <time>2012-06-07T07:37:49.000Z</time>
      </trkpt>
      <trkpt lat="47.66395" lon="6.0305">
        <ele>273.5</ele>
        <time>2012-06-07T07:37:51.000Z</time>
      </trkpt>
      <trkpt lat="47.6639" lon="6.03046">
        <ele>273.7</ele>
        <time>2012-06-07T07:37:53.000Z</time>
      </trkpt>
      <trkpt lat="47.66385" lon="6.03042">
        <ele>273.8</ele>
        <time>2012-06-07T07:37:55.000Z</time>
      </trkpt>
      <trkpt lat="47.6638" lon="6.03039">
        <ele>274.1</ele>
        <time>2012-06-07T07:37:57.000Z</time>
      </trkpt>
      <trkpt lat="47.66374" lon="6.03037">
        <ele>274.5</ele>
        <time>2012-06-07T07:37:59.000Z</time>
      </trkpt>
      <trkpt lat="47.66368" lon="6.03034">
        <ele>274.6</ele>
        <time>2012-06-07T07:38:01.000Z</time>
      </trkpt>
      <trkpt lat="47.66363" lon="6.0303">
        <ele>274.9</ele>
        <time>2012-06-07T07:38:03.000Z</time>
      </trkpt>
      <trkpt lat="47.66358" lon="6.03024">
        <ele>275.5</ele>
        <time>2012-06-07T07:38:05.000Z</time>
      </trkpt>
      <trkpt lat="47.66353" lon="6.03018">
        <ele>276.3</ele>
        <time>2012-06-07T07:38:07.000Z</time>
      </trkpt>
      <trkpt lat="47.66349" lon="6.03011">
        <ele>277.1</ele>
        <time>2012-06-07T07:38:09.000Z</time>
      </trkpt>
      <trkpt lat="47.66344" lon="6.03005">
        <ele>277.4</ele>
        <time>2012-06-07T07:38:11.000Z</time>
      </trkpt>
      <trkpt lat="47.6634" lon="6.02998">
        <ele>277.8</ele>
        <time>2012-06-07T07:38:13.000Z</time>
      </trkpt>
      <trkpt lat="47.66334" lon="6.02989">
        <ele>278.2</ele>
        <time>2012-06-07T07:38:15.000Z</time>
      </trkpt>
      <trkpt lat="47.66327" lon="6.02984">
        <ele>279.2</ele>
        <time>2012-06-07T07:38:17.000Z</time>
      </trkpt>
      <trkpt lat="47.6632" lon="6.02978">
        <ele>280.3</ele>
        <time>2012-06-07T07:38:19.000Z</time>
      </trkpt>
      <trkpt lat="47.66316" lon="6.02966">
        <ele>280</ele>
        <time>2012-06-07T07:38:21.000Z</time>
      </trkpt>
      <trkpt lat="47.6631" lon="6.02957">
        <ele>280.5</ele>
        <time>2012-06-07T07:38:23.000Z</time>
      </trkpt>
      <trkpt lat="47.66303" lon="6.0295">
        <ele>280.5</ele>
        <time>2012-06-07T07:38:25.000Z</time>
      </trkpt>
      <trkpt lat="47.66296" lon="6.02941">
        <ele>281.4</ele>
        <time>2012-06-07T07:38:27.000Z</time>
      </trkpt>
      <trkpt lat="47.66294" lon="6.02934">
        <ele>281.1</ele>
        <time>2012-06-07T07:38:28.000Z</time>
      </trkpt>
      <trkpt lat="47.6629" lon="6.02928">
        <ele>281</ele>
        <time>2012-06-07T07:38:29.000Z</time>
      </trkpt>
      <trkpt lat="47.66287" lon="6.02922">
        <ele>281</ele>
        <time>2012-06-07T07:38:30.000Z</time>
      </trkpt>
      <trkpt lat="47.66284" lon="6.02916">
        <ele>280.9</ele>
        <time>2012-06-07T07:38:31.000Z</time>
      </trkpt>
      <trkpt lat="47.6628" lon="6.0291">
        <ele>280.6</ele>
        <time>2012-06-07T07:38:32.000Z</time>
      </trkpt>
      <trkpt lat="47.66277" lon="6.02904">
        <ele>280.3</ele>
        <time>2012-06-07T07:38:33.000Z</time>
      </trkpt>
      <trkpt lat="47.66273" lon="6.02899">
        <ele>280.2</ele>
        <time>2012-06-07T07:38:34.000Z</time>
      </trkpt>
      <trkpt lat="47.66269" lon="6.02893">
        <ele>280</ele>
        <time>2012-06-07T07:38:35.000Z</time>
      </trkpt>
      <trkpt lat="47.66265" lon="6.02888">
        <ele>279.8</ele>
        <time>2012-06-07T07:38:36.000Z</time>
      </trkpt>
      <trkpt lat="47.66261" lon="6.02884">
        <ele>279.7</ele>
        <time>2012-06-07T07:38:37.000Z</time>
      </trkpt>
      <trkpt lat="47.66256" lon="6.02879">
        <ele>279.7</ele>
        <time>2012-06-07T07:38:38.000Z</time>
      </trkpt>
      <trkpt lat="47.66252" lon="6.02874">
        <ele>279.4</ele>
        <time>2012-06-07T07:38:39.000Z</time>
      </trkpt>
      <trkpt lat="47.66249" lon="6.02869">
        <ele>279.3</ele>
        <time>2012-06-07T07:38:40.000Z</time>
      </trkpt>
      <trkpt lat="47.66245" lon="6.02864">
        <ele>279.1</ele>
        <time>2012-06-07T07:38:41.000Z</time>
      </trkpt>
      <trkpt lat="47.66242" lon="6.02859">
        <ele>279.1</ele>
        <time>2012-06-07T07:38:42.000Z</time>
      </trkpt>
      <trkpt lat="47.66238" lon="6.02855">
        <ele>278.9</ele>
        <time>2012-06-07T07:38:43.000Z</time>
      </trkpt>
      <trkpt lat="47.66234" lon="6.0285">
        <ele>278.9</ele>
        <time>2012-06-07T07:38:44.000Z</time>
      </trkpt>
      <trkpt lat="47.66231" lon="6.02845">
        <ele>278.8</ele>
        <time>2012-06-07T07:38:45.000Z</time>
      </trkpt>
      <trkpt lat="47.66227" lon="6.0284">
        <ele>278.5</ele>
        <time>2012-06-07T07:38:46.000Z</time>
      </trkpt>
      <trkpt lat="47.66223" lon="6.02834">
        <ele>278.4</ele>
        <time>2012-06-07T07:38:47.000Z</time>
      </trkpt>
      <trkpt lat="47.6622" lon="6.02828">
        <ele>278</ele>
        <time>2012-06-07T07:38:48.000Z</time>
      </trkpt>
      <trkpt lat="47.66216" lon="6.02821">
        <ele>277.7</ele>
        <time>2012-06-07T07:38:49.000Z</time>
      </trkpt>
      <trkpt lat="47.66213" lon="6.02813">
        <ele>277.2</ele>
        <time>2012-06-07T07:38:50.000Z</time>
      </trkpt>
      <trkpt lat="47.66211" lon="6.02804">
        <ele>276.4</ele>
        <time>2012-06-07T07:38:51.000Z</time>
      </trkpt>
      <trkpt lat="47.66208" lon="6.02795">
        <ele>275.9</ele>
        <time>2012-06-07T07:38:52.000Z</time>
      </trkpt>
      <trkpt lat="47.66205" lon="6.02788">
        <ele>275.7</ele>
        <time>2012-06-07T07:38:53.000Z</time>
      </trkpt>
      <trkpt lat="47.66203" lon="6.02779">
        <ele>275.3</ele>
        <time>2012-06-07T07:38:54.000Z</time>
      </trkpt>
      <trkpt lat="47.66202" lon="6.0277">
        <ele>274.9</ele>
        <time>2012-06-07T07:38:55.000Z</time>
      </trkpt>
      <trkpt lat="47.662" lon="6.02761">
        <ele>274.4</ele>
        <time>2012-06-07T07:38:56.000Z</time>
      </trkpt>
      <trkpt lat="47.662" lon="6.02752">
        <ele>273.7</ele>
        <time>2012-06-07T07:38:57.000Z</time>
      </trkpt>
      <trkpt lat="47.66198" lon="6.02743">
        <ele>272.9</ele>
        <time>2012-06-07T07:38:58.000Z</time>
      </trkpt>
      <trkpt lat="47.66198" lon="6.02734">
        <ele>272.4</ele>
        <time>2012-06-07T07:38:59.000Z</time>
      </trkpt>
      <trkpt lat="47.66197" lon="6.02724">
        <ele>271.5</ele>
        <time>2012-06-07T07:39:00.000Z</time>
      </trkpt>
      <trkpt lat="47.66197" lon="6.02713">
        <ele>270.6</ele>
        <time>2012-06-07T07:39:01.000Z</time>
      </trkpt>
      <trkpt lat="47.66197" lon="6.02703">
        <ele>269.9</ele>
        <time>2012-06-07T07:39:02.000Z</time>
      </trkpt>
      <trkpt lat="47.66197" lon="6.02693">
        <ele>269.5</ele>
        <time>2012-06-07T07:39:03.000Z</time>
      </trkpt>
      <trkpt lat="47.66194" lon="6.02685">
        <ele>269.1</ele>
        <time>2012-06-07T07:39:04.000Z</time>
      </trkpt>
      <trkpt lat="47.66188" lon="6.02679">
        <ele>269.2</ele>
        <time>2012-06-07T07:39:05.000Z</time>
      </trkpt>
      <trkpt lat="47.66181" lon="6.02674">
        <ele>268.8</ele>
        <time>2012-06-07T07:39:06.000Z</time>
      </trkpt>
      <trkpt lat="47.66173" lon="6.02671">
        <ele>268.2</ele>
        <time>2012-06-07T07:39:07.000Z</time>
      </trkpt>
      <trkpt lat="47.66166" lon="6.02666">
        <ele>267.4</ele>
        <time>2012-06-07T07:39:08.000Z</time>
      </trkpt>
      <trkpt lat="47.66158" lon="6.02663">
        <ele>267.1</ele>
        <time>2012-06-07T07:39:09.000Z</time>
      </trkpt>
      <trkpt lat="47.66151" lon="6.02659">
        <ele>266.6</ele>
        <time>2012-06-07T07:39:10.000Z</time>
      </trkpt>
      <trkpt lat="47.66144" lon="6.02654">
        <ele>266.5</ele>
        <time>2012-06-07T07:39:11.000Z</time>
      </trkpt>
      <trkpt lat="47.66138" lon="6.02649">
        <ele>266.2</ele>
        <time>2012-06-07T07:39:12.000Z</time>
      </trkpt>
      <trkpt lat="47.66131" lon="6.02646">
        <ele>266.1</ele>
        <time>2012-06-07T07:39:13.000Z</time>
      </trkpt>
      <trkpt lat="47.66124" lon="6.0264">
        <ele>266.2</ele>
        <time>2012-06-07T07:39:14.000Z</time>
      </trkpt>
      <trkpt lat="47.66118" lon="6.02635">
        <ele>266.7</ele>
        <time>2012-06-07T07:39:15.000Z</time>
      </trkpt>
      <trkpt lat="47.66111" lon="6.02632">
        <ele>266.9</ele>
        <time>2012-06-07T07:39:16.000Z</time>
      </trkpt>
      <trkpt lat="47.66103" lon="6.02628">
        <ele>267.1</ele>
        <time>2012-06-07T07:39:17.000Z</time>
      </trkpt>
      <trkpt lat="47.66096" lon="6.02626">
        <ele>267.1</ele>
        <time>2012-06-07T07:39:18.000Z</time>
      </trkpt>
      <trkpt lat="47.66089" lon="6.02624">
        <ele>267.2</ele>
        <time>2012-06-07T07:39:19.000Z</time>
      </trkpt>
      <trkpt lat="47.66082" lon="6.02624">
        <ele>267.3</ele>
        <time>2012-06-07T07:39:20.000Z</time>
      </trkpt>
      <trkpt lat="47.66076" lon="6.02625">
        <ele>267.5</ele>
        <time>2012-06-07T07:39:21.000Z</time>
      </trkpt>
      <trkpt lat="47.6607" lon="6.02626">
        <ele>267.4</ele>
        <time>2012-06-07T07:39:22.000Z</time>
      </trkpt>
      <trkpt lat="47.66063" lon="6.02627">
        <ele>267.4</ele>
        <time>2012-06-07T07:39:23.000Z</time>
      </trkpt>
      <trkpt lat="47.66057" lon="6.02629">
        <ele>267.2</ele>
        <time>2012-06-07T07:39:24.000Z</time>
      </trkpt>
      <trkpt lat="47.66051" lon="6.02631">
        <ele>267.9</ele>
        <time>2012-06-07T07:39:25.000Z</time>
      </trkpt>
      <trkpt lat="47.66045" lon="6.02634">
        <ele>268</ele>
        <time>2012-06-07T07:39:26.000Z</time>
      </trkpt>
      <trkpt lat="47.6604" lon="6.02637">
        <ele>268.5</ele>
        <time>2012-06-07T07:39:27.000Z</time>
      </trkpt>
      <trkpt lat="47.66035" lon="6.0264">
        <ele>268.9</ele>
        <time>2012-06-07T07:39:28.000Z</time>
      </trkpt>
      <trkpt lat="47.6603" lon="6.02643">
        <ele>269.5</ele>
        <time>2012-06-07T07:39:29.000Z</time>
      </trkpt>
      <trkpt lat="47.66025" lon="6.02646">
        <ele>270</ele>
        <time>2012-06-07T07:39:30.000Z</time>
      </trkpt>
      <trkpt lat="47.6602" lon="6.02649">
        <ele>270.5</ele>
        <time>2012-06-07T07:39:31.000Z</time>
      </trkpt>
      <trkpt lat="47.66016" lon="6.02653">
        <ele>271.1</ele>
        <time>2012-06-07T07:39:32.000Z</time>
      </trkpt>
      <trkpt lat="47.66011" lon="6.02657">
        <ele>271.1</ele>
        <time>2012-06-07T07:39:33.000Z</time>
      </trkpt>
      <trkpt lat="47.66004" lon="6.02663">
        <ele>271.1</ele>
        <time>2012-06-07T07:39:35.000Z</time>
      </trkpt>
      <trkpt lat="47.66" lon="6.02666">
        <ele>270.8</ele>
        <time>2012-06-07T07:39:36.000Z</time>
      </trkpt>
      <trkpt lat="47.65993" lon="6.02674">
        <ele>271.2</ele>
        <time>2012-06-07T07:39:38.000Z</time>
      </trkpt>
      <trkpt lat="47.65986" lon="6.0268">
        <ele>271.3</ele>
        <time>2012-06-07T07:39:40.000Z</time>
      </trkpt>
      <trkpt lat="47.65978" lon="6.02687">
        <ele>271</ele>
        <time>2012-06-07T07:39:42.000Z</time>
      </trkpt>
      <trkpt lat="47.65972" lon="6.02691">
        <ele>270.9</ele>
        <time>2012-06-07T07:39:43.000Z</time>
      </trkpt>
      <trkpt lat="47.65968" lon="6.02694">
        <ele>271</ele>
        <time>2012-06-07T07:39:44.000Z</time>
      </trkpt>
      <trkpt lat="47.65962" lon="6.02698">
        <ele>270.7</ele>
        <time>2012-06-07T07:39:45.000Z</time>
      </trkpt>
      <trkpt lat="47.65958" lon="6.02702">
        <ele>270.7</ele>
        <time>2012-06-07T07:39:46.000Z</time>
      </trkpt>
      <trkpt lat="47.65953" lon="6.02705">
        <ele>269.8</ele>
        <time>2012-06-07T07:39:47.000Z</time>
      </trkpt>
      <trkpt lat="47.65948" lon="6.02708">
        <ele>268.9</ele>
        <time>2012-06-07T07:39:48.000Z</time>
      </trkpt>
      <trkpt lat="47.65943" lon="6.02711">
        <ele>268.8</ele>
        <time>2012-06-07T07:39:49.000Z</time>
      </trkpt>
      <trkpt lat="47.65938" lon="6.02714">
        <ele>268.7</ele>
        <time>2012-06-07T07:39:50.000Z</time>
      </trkpt>
      <trkpt lat="47.65933" lon="6.02718">
        <ele>268.5</ele>
        <time>2012-06-07T07:39:51.000Z</time>
      </trkpt>
      <trkpt lat="47.65929" lon="6.0272">
        <ele>268.4</ele>
        <time>2012-06-07T07:39:52.000Z</time>
      </trkpt>
      <trkpt lat="47.65924" lon="6.02724">
        <ele>268.2</ele>
        <time>2012-06-07T07:39:53.000Z</time>
      </trkpt>
      <trkpt lat="47.6592" lon="6.02728">
        <ele>268</ele>
        <time>2012-06-07T07:39:54.000Z</time>
      </trkpt>
      <trkpt lat="47.65912" lon="6.02734">
        <ele>267.6</ele>
        <time>2012-06-07T07:39:56.000Z</time>
      </trkpt>
      <trkpt lat="47.65907" lon="6.02737">
        <ele>267.5</ele>
        <time>2012-06-07T07:39:57.000Z</time>
      </trkpt>
      <trkpt lat="47.65902" lon="6.0274">
        <ele>267.2</ele>
        <time>2012-06-07T07:39:58.000Z</time>
      </trkpt>
      <trkpt lat="47.65897" lon="6.02743">
        <ele>266.8</ele>
        <time>2012-06-07T07:39:59.000Z</time>
      </trkpt>
      <trkpt lat="47.65893" lon="6.02746">
        <ele>266.5</ele>
        <time>2012-06-07T07:40:00.000Z</time>
      </trkpt>
      <trkpt lat="47.65888" lon="6.02749">
        <ele>266.2</ele>
        <time>2012-06-07T07:40:01.000Z</time>
      </trkpt>
      <trkpt lat="47.65884" lon="6.02752">
        <ele>265.9</ele>
        <time>2012-06-07T07:40:02.000Z</time>
      </trkpt>
      <trkpt lat="47.65879" lon="6.02754">
        <ele>265.7</ele>
        <time>2012-06-07T07:40:03.000Z</time>
      </trkpt>
      <trkpt lat="47.65874" lon="6.02757">
        <ele>265.5</ele>
        <time>2012-06-07T07:40:04.000Z</time>
      </trkpt>
      <trkpt lat="47.6587" lon="6.0276">
        <ele>265.4</ele>
        <time>2012-06-07T07:40:05.000Z</time>
      </trkpt>
      <trkpt lat="47.65865" lon="6.02763">
        <ele>265.2</ele>
        <time>2012-06-07T07:40:06.000Z</time>
      </trkpt>
      <trkpt lat="47.65861" lon="6.02766">
        <ele>265.1</ele>
        <time>2012-06-07T07:40:07.000Z</time>
      </trkpt>
      <trkpt lat="47.65856" lon="6.02769">
        <ele>265</ele>
        <time>2012-06-07T07:40:08.000Z</time>
      </trkpt>
      <trkpt lat="47.65851" lon="6.02771">
        <ele>265</ele>
        <time>2012-06-07T07:40:09.000Z</time>
      </trkpt>
      <trkpt lat="47.65847" lon="6.02774">
        <ele>265</ele>
        <time>2012-06-07T07:40:10.000Z</time>
      </trkpt>
      <trkpt lat="47.65842" lon="6.02776">
        <ele>265</ele>
        <time>2012-06-07T07:40:11.000Z</time>
      </trkpt>
      <trkpt lat="47.65838" lon="6.02779">
        <ele>264.9</ele>
        <time>2012-06-07T07:40:12.000Z</time>
      </trkpt>
      <trkpt lat="47.6583" lon="6.02783">
        <ele>264.9</ele>
        <time>2012-06-07T07:40:14.000Z</time>
      </trkpt>
      <trkpt lat="47.65825" lon="6.02785">
        <ele>264.8</ele>
        <time>2012-06-07T07:40:15.000Z</time>
      </trkpt>
      <trkpt lat="47.65821" lon="6.02787">
        <ele>264.8</ele>
        <time>2012-06-07T07:40:16.000Z</time>
      </trkpt>
      <trkpt lat="47.65816" lon="6.0279">
        <ele>265</ele>
        <time>2012-06-07T07:40:17.000Z</time>
      </trkpt>
      <trkpt lat="47.65812" lon="6.02792">
        <ele>265.4</ele>
        <time>2012-06-07T07:40:18.000Z</time>
      </trkpt>
      <trkpt lat="47.65808" lon="6.02794">
        <ele>265.5</ele>
        <time>2012-06-07T07:40:19.000Z</time>
      </trkpt>
      <trkpt lat="47.65803" lon="6.02796">
        <ele>265.4</ele>
        <time>2012-06-07T07:40:20.000Z</time>
      </trkpt>
      <trkpt lat="47.65798" lon="6.02797">
        <ele>265.5</ele>
        <time>2012-06-07T07:40:21.000Z</time>
      </trkpt>
      <trkpt lat="47.6579" lon="6.028">
        <ele>265.8</ele>
        <time>2012-06-07T07:40:23.000Z</time>
      </trkpt>
      <trkpt lat="47.65781" lon="6.02805">
        <ele>265.9</ele>
        <time>2012-06-07T07:40:25.000Z</time>
      </trkpt>
      <trkpt lat="47.65776" lon="6.02809">
        <ele>265.8</ele>
        <time>2012-06-07T07:40:26.000Z</time>
      </trkpt>
      <trkpt lat="47.65772" lon="6.02811">
        <ele>266.1</ele>
        <time>2012-06-07T07:40:27.000Z</time>
      </trkpt>
      <trkpt lat="47.65767" lon="6.02813">
        <ele>266.1</ele>
        <time>2012-06-07T07:40:28.000Z</time>
      </trkpt>
      <trkpt lat="47.6576" lon="6.02814">
        <ele>265.8</ele>
        <time>2012-06-07T07:40:30.000Z</time>
      </trkpt>
      <trkpt lat="47.65751" lon="6.02818">
        <ele>265.8</ele>
        <time>2012-06-07T07:40:32.000Z</time>
      </trkpt>
      <trkpt lat="47.65743" lon="6.02823">
        <ele>265.6</ele>
        <time>2012-06-07T07:40:34.000Z</time>
      </trkpt>
      <trkpt lat="47.65738" lon="6.02825">
        <ele>265.5</ele>
        <time>2012-06-07T07:40:35.000Z</time>
      </trkpt>
      <trkpt lat="47.65734" lon="6.02827">
        <ele>265.5</ele>
        <time>2012-06-07T07:40:36.000Z</time>
      </trkpt>
      <trkpt lat="47.6573" lon="6.02829">
        <ele>265.4</ele>
        <time>2012-06-07T07:40:37.000Z</time>
      </trkpt>
      <trkpt lat="47.65725" lon="6.02831">
        <ele>265.2</ele>
        <time>2012-06-07T07:40:38.000Z</time>
      </trkpt>
      <trkpt lat="47.65716" lon="6.02835">
        <ele>265.2</ele>
        <time>2012-06-07T07:40:40.000Z</time>
      </trkpt>
      <trkpt lat="47.65712" lon="6.02837">
        <ele>265.2</ele>
        <time>2012-06-07T07:40:41.000Z</time>
      </trkpt>
      <trkpt lat="47.65704" lon="6.02841">
        <ele>265.3</ele>
        <time>2012-06-07T07:40:43.000Z</time>
      </trkpt>
      <trkpt lat="47.65696" lon="6.02844">
        <ele>265.4</ele>
        <time>2012-06-07T07:40:45.000Z</time>
      </trkpt>
      <trkpt lat="47.65688" lon="6.02849">
        <ele>265.3</ele>
        <time>2012-06-07T07:40:47.000Z</time>
      </trkpt>
      <trkpt lat="47.6568" lon="6.02852">
        <ele>265.7</ele>
        <time>2012-06-07T07:40:49.000Z</time>
      </trkpt>
      <trkpt lat="47.65671" lon="6.02854">
        <ele>265.9</ele>
        <time>2012-06-07T07:40:51.000Z</time>
      </trkpt>
      <trkpt lat="47.65663" lon="6.02858">
        <ele>265.8</ele>
        <time>2012-06-07T07:40:53.000Z</time>
      </trkpt>
      <trkpt lat="47.65658" lon="6.0286">
        <ele>265.8</ele>
        <time>2012-06-07T07:40:54.000Z</time>
      </trkpt>
      <trkpt lat="47.65649" lon="6.02863">
        <ele>265.5</ele>
        <time>2012-06-07T07:40:56.000Z</time>
      </trkpt>
      <trkpt lat="47.6564" lon="6.02865">
        <ele>264.8</ele>
        <time>2012-06-07T07:40:58.000Z</time>
      </trkpt>
      <trkpt lat="47.65632" lon="6.02868">
        <ele>264.5</ele>
        <time>2012-06-07T07:41:00.000Z</time>
      </trkpt>
      <trkpt lat="47.65623" lon="6.0287">
        <ele>264.2</ele>
        <time>2012-06-07T07:41:02.000Z</time>
      </trkpt>
      <trkpt lat="47.65614" lon="6.02872">
        <ele>264.2</ele>
        <time>2012-06-07T07:41:04.000Z</time>
      </trkpt>
      <trkpt lat="47.65605" lon="6.02875">
        <ele>264.2</ele>
        <time>2012-06-07T07:41:06.000Z</time>
      </trkpt>
      <trkpt lat="47.656" lon="6.02876">
        <ele>264.1</ele>
        <time>2012-06-07T07:41:07.000Z</time>
      </trkpt>
      <trkpt lat="47.65592" lon="6.02877">
        <ele>263.9</ele>
        <time>2012-06-07T07:41:09.000Z</time>
      </trkpt>
      <trkpt lat="47.65587" lon="6.02878">
        <ele>264</ele>
        <time>2012-06-07T07:41:10.000Z</time>
      </trkpt>
      <trkpt lat="47.65583" lon="6.0288">
        <ele>264</ele>
        <time>2012-06-07T07:41:11.000Z</time>
      </trkpt>
      <trkpt lat="47.65574" lon="6.02882">
        <ele>264.1</ele>
        <time>2012-06-07T07:41:13.000Z</time>
      </trkpt>
      <trkpt lat="47.65566" lon="6.02884">
        <ele>264.4</ele>
        <time>2012-06-07T07:41:15.000Z</time>
      </trkpt>
      <trkpt lat="47.65557" lon="6.02886">
        <ele>264.5</ele>
        <time>2012-06-07T07:41:17.000Z</time>
      </trkpt>
      <trkpt lat="47.65549" lon="6.02888">
        <ele>264.4</ele>
        <time>2012-06-07T07:41:19.000Z</time>
      </trkpt>
      <trkpt lat="47.6554" lon="6.0289">
        <ele>264.5</ele>
        <time>2012-06-07T07:41:21.000Z</time>
      </trkpt>
      <trkpt lat="47.65532" lon="6.02892">
        <ele>265</ele>
        <time>2012-06-07T07:41:23.000Z</time>
      </trkpt>
      <trkpt lat="47.65524" lon="6.02895">
        <ele>265.3</ele>
        <time>2012-06-07T07:41:25.000Z</time>
      </trkpt>
      <trkpt lat="47.65516" lon="6.02899">
        <ele>265.5</ele>
        <time>2012-06-07T07:41:27.000Z</time>
      </trkpt>
      <trkpt lat="47.65509" lon="6.02899">
        <ele>265.7</ele>
        <time>2012-06-07T07:41:29.000Z</time>
      </trkpt>
      <trkpt lat="47.65504" lon="6.02901">
        <ele>265.5</ele>
        <time>2012-06-07T07:41:30.000Z</time>
      </trkpt>
      <trkpt lat="47.65496" lon="6.02904">
        <ele>265.5</ele>
        <time>2012-06-07T07:41:32.000Z</time>
      </trkpt>
      <trkpt lat="47.65488" lon="6.02908">
        <ele>265.6</ele>
        <time>2012-06-07T07:41:34.000Z</time>
      </trkpt>
      <trkpt lat="47.65479" lon="6.02912">
        <ele>265.5</ele>
        <time>2012-06-07T07:41:36.000Z</time>
      </trkpt>
      <trkpt lat="47.65475" lon="6.02914">
        <ele>265.4</ele>
        <time>2012-06-07T07:41:37.000Z</time>
      </trkpt>
      <trkpt lat="47.6547" lon="6.02916">
        <ele>265.4</ele>
        <time>2012-06-07T07:41:38.000Z</time>
      </trkpt>
      <trkpt lat="47.65465" lon="6.02918">
        <ele>265.2</ele>
        <time>2012-06-07T07:41:39.000Z</time>
      </trkpt>
      <trkpt lat="47.65457" lon="6.02921">
        <ele>265.3</ele>
        <time>2012-06-07T07:41:41.000Z</time>
      </trkpt>
      <trkpt lat="47.65449" lon="6.02924">
        <ele>265.3</ele>
        <time>2012-06-07T07:41:43.000Z</time>
      </trkpt>
      <trkpt lat="47.65441" lon="6.02927">
        <ele>265.5</ele>
        <time>2012-06-07T07:41:45.000Z</time>
      </trkpt>
      <trkpt lat="47.65437" lon="6.0293">
        <ele>265.3</ele>
        <time>2012-06-07T07:41:46.000Z</time>
      </trkpt>
      <trkpt lat="47.65433" lon="6.02932">
        <ele>265.4</ele>
        <time>2012-06-07T07:41:47.000Z</time>
      </trkpt>
      <trkpt lat="47.65425" lon="6.02936">
        <ele>265.7</ele>
        <time>2012-06-07T07:41:49.000Z</time>
      </trkpt>
      <trkpt lat="47.6542" lon="6.02938">
        <ele>265.6</ele>
        <time>2012-06-07T07:41:50.000Z</time>
      </trkpt>
      <trkpt lat="47.65388" lon="6.02956">
        <ele>273.2</ele>
        <time>2012-06-07T07:41:59.000Z</time>
      </trkpt>
      <trkpt lat="47.65382" lon="6.02959">
        <ele>271.6</ele>
        <time>2012-06-07T07:42:00.000Z</time>
      </trkpt>
      <trkpt lat="47.65378" lon="6.02962">
        <ele>271.9</ele>
        <time>2012-06-07T07:42:01.000Z</time>
      </trkpt>
      <trkpt lat="47.65369" lon="6.02965">
        <ele>271.8</ele>
        <time>2012-06-07T07:42:03.000Z</time>
      </trkpt>
      <trkpt lat="47.65365" lon="6.02967">
        <ele>271</ele>
        <time>2012-06-07T07:42:04.000Z</time>
      </trkpt>
      <trkpt lat="47.65356" lon="6.02971">
        <ele>270.5</ele>
        <time>2012-06-07T07:42:06.000Z</time>
      </trkpt>
      <trkpt lat="47.65348" lon="6.02975">
        <ele>270.2</ele>
        <time>2012-06-07T07:42:08.000Z</time>
      </trkpt>
      <trkpt lat="47.65341" lon="6.02979">
        <ele>270.6</ele>
        <time>2012-06-07T07:42:10.000Z</time>
      </trkpt>
      <trkpt lat="47.65333" lon="6.02984">
        <ele>271.1</ele>
        <time>2012-06-07T07:42:12.000Z</time>
      </trkpt>
      <trkpt lat="47.65324" lon="6.02988">
        <ele>269.7</ele>
        <time>2012-06-07T07:42:14.000Z</time>
      </trkpt>
      <trkpt lat="47.65316" lon="6.02991">
        <ele>269.2</ele>
        <time>2012-06-07T07:42:16.000Z</time>
      </trkpt>
      <trkpt lat="47.65308" lon="6.02994">
        <ele>269.8</ele>
        <time>2012-06-07T07:42:18.000Z</time>
      </trkpt>
      <trkpt lat="47.65303" lon="6.02995">
        <ele>269.7</ele>
        <time>2012-06-07T07:42:19.000Z</time>
      </trkpt>
      <trkpt lat="47.65298" lon="6.02996">
        <ele>269.5</ele>
        <time>2012-06-07T07:42:20.000Z</time>
      </trkpt>
      <trkpt lat="47.65294" lon="6.02998">
        <ele>269.3</ele>
        <time>2012-06-07T07:42:21.000Z</time>
      </trkpt>
      <trkpt lat="47.65289" lon="6.03">
        <ele>269.3</ele>
        <time>2012-06-07T07:42:22.000Z</time>
      </trkpt>
      <trkpt lat="47.65284" lon="6.03002">
        <ele>268.9</ele>
        <time>2012-06-07T07:42:23.000Z</time>
      </trkpt>
      <trkpt lat="47.6528" lon="6.03004">
        <ele>268.6</ele>
        <time>2012-06-07T07:42:24.000Z</time>
      </trkpt>
      <trkpt lat="47.65275" lon="6.03005">
        <ele>268.5</ele>
        <time>2012-06-07T07:42:25.000Z</time>
      </trkpt>
      <trkpt lat="47.6527" lon="6.03006">
        <ele>268.4</ele>
        <time>2012-06-07T07:42:26.000Z</time>
      </trkpt>
      <trkpt lat="47.65266" lon="6.03006">
        <ele>268</ele>
        <time>2012-06-07T07:42:27.000Z</time>
      </trkpt>
      <trkpt lat="47.65261" lon="6.03006">
        <ele>268</ele>
        <time>2012-06-07T07:42:28.000Z</time>
      </trkpt>
      <trkpt lat="47.65256" lon="6.03007">
        <ele>268</ele>
        <time>2012-06-07T07:42:29.000Z</time>
      </trkpt>
      <trkpt lat="47.65251" lon="6.03007">
        <ele>267.9</ele>
        <time>2012-06-07T07:42:30.000Z</time>
      </trkpt>
      <trkpt lat="47.65247" lon="6.03008">
        <ele>267.9</ele>
        <time>2012-06-07T07:42:31.000Z</time>
      </trkpt>
      <trkpt lat="47.65242" lon="6.03008">
        <ele>267.6</ele>
        <time>2012-06-07T07:42:32.000Z</time>
      </trkpt>
      <trkpt lat="47.65237" lon="6.03008">
        <ele>267.5</ele>
        <time>2012-06-07T07:42:33.000Z</time>
      </trkpt>
      <trkpt lat="47.65232" lon="6.03008">
        <ele>267.5</ele>
        <time>2012-06-07T07:42:34.000Z</time>
      </trkpt>
      <trkpt lat="47.65227" lon="6.03009">
        <ele>267.2</ele>
        <time>2012-06-07T07:42:35.000Z</time>
      </trkpt>
      <trkpt lat="47.65222" lon="6.0301">
        <ele>267.1</ele>
        <time>2012-06-07T07:42:36.000Z</time>
      </trkpt>
      <trkpt lat="47.65218" lon="6.03012">
        <ele>267.1</ele>
        <time>2012-06-07T07:42:37.000Z</time>
      </trkpt>
      <trkpt lat="47.65213" lon="6.03013">
        <ele>267</ele>
        <time>2012-06-07T07:42:38.000Z</time>
      </trkpt>
      <trkpt lat="47.65208" lon="6.03013">
        <ele>267.1</ele>
        <time>2012-06-07T07:42:39.000Z</time>
      </trkpt>
      <trkpt lat="47.65203" lon="6.03013">
        <ele>267</ele>
        <time>2012-06-07T07:42:40.000Z</time>
      </trkpt>
      <trkpt lat="47.65198" lon="6.03012">
        <ele>266.9</ele>
        <time>2012-06-07T07:42:41.000Z</time>
      </trkpt>
      <trkpt lat="47.65193" lon="6.03014">
        <ele>266.8</ele>
        <time>2012-06-07T07:42:42.000Z</time>
      </trkpt>
      <trkpt lat="47.65189" lon="6.03016">
        <ele>266.7</ele>
        <time>2012-06-07T07:42:43.000Z</time>
      </trkpt>
      <trkpt lat="47.65184" lon="6.03018">
        <ele>266.4</ele>
        <time>2012-06-07T07:42:44.000Z</time>
      </trkpt>
      <trkpt lat="47.6518" lon="6.0302">
        <ele>266.5</ele>
        <time>2012-06-07T07:42:45.000Z</time>
      </trkpt>
      <trkpt lat="47.65172" lon="6.03026">
        <ele>266.6</ele>
        <time>2012-06-07T07:42:47.000Z</time>
      </trkpt>
      <trkpt lat="47.65168" lon="6.0303">
        <ele>266.5</ele>
        <time>2012-06-07T07:42:48.000Z</time>
      </trkpt>
      <trkpt lat="47.65164" lon="6.03033">
        <ele>266.5</ele>
        <time>2012-06-07T07:42:49.000Z</time>
      </trkpt>
      <trkpt lat="47.65133" lon="6.03066">
        <ele>264.7</ele>
        <time>2012-06-07T07:42:58.000Z</time>
      </trkpt>
      <trkpt lat="47.65129" lon="6.0307">
        <ele>264.2</ele>
        <time>2012-06-07T07:42:59.000Z</time>
      </trkpt>
      <trkpt lat="47.65122" lon="6.03079">
        <ele>264.3</ele>
        <time>2012-06-07T07:43:01.000Z</time>
      </trkpt>
      <trkpt lat="47.65118" lon="6.03083">
        <ele>264</ele>
        <time>2012-06-07T07:43:02.000Z</time>
      </trkpt>
      <trkpt lat="47.65111" lon="6.0309">
        <ele>264.9</ele>
        <time>2012-06-07T07:43:04.000Z</time>
      </trkpt>
      <trkpt lat="47.65105" lon="6.03097">
        <ele>265.8</ele>
        <time>2012-06-07T07:43:06.000Z</time>
      </trkpt>
      <trkpt lat="47.65099" lon="6.03104">
        <ele>265.9</ele>
        <time>2012-06-07T07:43:08.000Z</time>
      </trkpt>
      <trkpt lat="47.65094" lon="6.03112">
        <ele>267.9</ele>
        <time>2012-06-07T07:43:10.000Z</time>
      </trkpt>
      <trkpt lat="47.65089" lon="6.03119">
        <ele>270.4</ele>
        <time>2012-06-07T07:43:12.000Z</time>
      </trkpt>
      <trkpt lat="47.65084" lon="6.03129">
        <ele>270.1</ele>
        <time>2012-06-07T07:43:14.000Z</time>
      </trkpt>
      <trkpt lat="47.6508" lon="6.03136">
        <ele>272</ele>
        <time>2012-06-07T07:43:16.000Z</time>
      </trkpt>
      <trkpt lat="47.65076" lon="6.03143">
        <ele>273.3</ele>
        <time>2012-06-07T07:43:18.000Z</time>
      </trkpt>
      <trkpt lat="47.65072" lon="6.03151">
        <ele>273.9</ele>
        <time>2012-06-07T07:43:20.000Z</time>
      </trkpt>
      <trkpt lat="47.65066" lon="6.03159">
        <ele>273.5</ele>
        <time>2012-06-07T07:43:22.000Z</time>
      </trkpt>
      <trkpt lat="47.65062" lon="6.03165">
        <ele>272.3</ele>
        <time>2012-06-07T07:43:24.000Z</time>
      </trkpt>
      <trkpt lat="47.65057" lon="6.0317">
        <ele>272.4</ele>
        <time>2012-06-07T07:43:26.000Z</time>
      </trkpt>
      <trkpt lat="47.65052" lon="6.03177">
        <ele>272.7</ele>
        <time>2012-06-07T07:43:28.000Z</time>
      </trkpt>
      <trkpt lat="47.65048" lon="6.03185">
        <ele>272.4</ele>
        <time>2012-06-07T07:43:30.000Z</time>
      </trkpt>
      <trkpt lat="47.65046" lon="6.03194">
        <ele>271.6</ele>
        <time>2012-06-07T07:43:32.000Z</time>
      </trkpt>
      <trkpt lat="47.65044" lon="6.03202">
        <ele>271.5</ele>
        <time>2012-06-07T07:43:34.000Z</time>
      </trkpt>
      <trkpt lat="47.65039" lon="6.0321">
        <ele>270.8</ele>
        <time>2012-06-07T07:43:36.000Z</time>
      </trkpt>
      <trkpt lat="47.65036" lon="6.03218">
        <ele>270.5</ele>
        <time>2012-06-07T07:43:38.000Z</time>
      </trkpt>
      <trkpt lat="47.65034" lon="6.03225">
        <ele>270.1</ele>
        <time>2012-06-07T07:43:40.000Z</time>
      </trkpt>
      <trkpt lat="47.65032" lon="6.03233">
        <ele>270</ele>
        <time>2012-06-07T07:43:43.000Z</time>
      </trkpt>
      <trkpt lat="47.65029" lon="6.03242">
        <ele>270.2</ele>
        <time>2012-06-07T07:43:46.000Z</time>
      </trkpt>
      <trkpt lat="47.65026" lon="6.03251">
        <ele>270.3</ele>
        <time>2012-06-07T07:43:49.000Z</time>
      </trkpt>
      <trkpt lat="47.65024" lon="6.03258">
        <ele>270.1</ele>
        <time>2012-06-07T07:43:51.000Z</time>
      </trkpt>
      <trkpt lat="47.65022" lon="6.03265">
        <ele>269.9</ele>
        <time>2012-06-07T07:43:53.000Z</time>
      </trkpt>
      <trkpt lat="47.65019" lon="6.03272">
        <ele>270.2</ele>
        <time>2012-06-07T07:43:56.000Z</time>
      </trkpt>
      <trkpt lat="47.65016" lon="6.03279">
        <ele>270.7</ele>
        <time>2012-06-07T07:43:59.000Z</time>
      </trkpt>
      <trkpt lat="47.65012" lon="6.03286">
        <ele>271.2</ele>
        <time>2012-06-07T07:44:02.000Z</time>
      </trkpt>
      <trkpt lat="47.65008" lon="6.03292">
        <ele>271.6</ele>
        <time>2012-06-07T07:44:05.000Z</time>
      </trkpt>
      <trkpt lat="47.65003" lon="6.03298">
        <ele>272.3</ele>
        <time>2012-06-07T07:44:08.000Z</time>
      </trkpt>
      <trkpt lat="47.64999" lon="6.03302">
        <ele>272.2</ele>
        <time>2012-06-07T07:44:10.000Z</time>
      </trkpt>
      <trkpt lat="47.64995" lon="6.03309">
        <ele>271.6</ele>
        <time>2012-06-07T07:44:13.000Z</time>
      </trkpt>
      <trkpt lat="47.6499" lon="6.03316">
        <ele>271.4</ele>
        <time>2012-06-07T07:44:16.000Z</time>
      </trkpt>
      <trkpt lat="47.64985" lon="6.03322">
        <ele>271.3</ele>
        <time>2012-06-07T07:44:19.000Z</time>
      </trkpt>
      <trkpt lat="47.64982" lon="6.03327">
        <ele>271.2</ele>
        <time>2012-06-07T07:44:21.000Z</time>
      </trkpt>
      <trkpt lat="47.64978" lon="6.0333">
        <ele>271.4</ele>
        <time>2012-06-07T07:44:24.000Z</time>
      </trkpt>
      <trkpt lat="47.64973" lon="6.03335">
        <ele>271.8</ele>
        <time>2012-06-07T07:44:28.000Z</time>
      </trkpt>
      <trkpt lat="47.64968" lon="6.0334">
        <ele>272.2</ele>
        <time>2012-06-07T07:44:31.000Z</time>
      </trkpt>
      <trkpt lat="47.64966" lon="6.03347">
        <ele>272.2</ele>
        <time>2012-06-07T07:44:34.000Z</time>
      </trkpt>
      <trkpt lat="47.64962" lon="6.03353">
        <ele>272.6</ele>
        <time>2012-06-07T07:44:37.000Z</time>
      </trkpt>
      <trkpt lat="47.6496" lon="6.0336">
        <ele>272.1</ele>
        <time>2012-06-07T07:44:40.000Z</time>
      </trkpt>
      <trkpt lat="47.64958" lon="6.03368">
        <ele>272.1</ele>
        <time>2012-06-07T07:44:43.000Z</time>
      </trkpt>
      <trkpt lat="47.64955" lon="6.03375">
        <ele>272.8</ele>
        <time>2012-06-07T07:44:46.000Z</time>
      </trkpt>
      <trkpt lat="47.64952" lon="6.03382">
        <ele>273.3</ele>
        <time>2012-06-07T07:44:49.000Z</time>
      </trkpt>
      <trkpt lat="47.6495" lon="6.0339">
        <ele>273.4</ele>
        <time>2012-06-07T07:44:52.000Z</time>
      </trkpt>
      <trkpt lat="47.64947" lon="6.03397">
        <ele>273.8</ele>
        <time>2012-06-07T07:44:55.000Z</time>
      </trkpt>
      <trkpt lat="47.64945" lon="6.03403">
        <ele>273.7</ele>
        <time>2012-06-07T07:44:58.000Z</time>
      </trkpt>
      <trkpt lat="47.64943" lon="6.0341">
        <ele>273.7</ele>
        <time>2012-06-07T07:45:01.000Z</time>
      </trkpt>
      <trkpt lat="47.6494" lon="6.03418">
        <ele>273.7</ele>
        <time>2012-06-07T07:45:04.000Z</time>
      </trkpt>
      <trkpt lat="47.64938" lon="6.03425">
        <ele>273.9</ele>
        <time>2012-06-07T07:45:07.000Z</time>
      </trkpt>
      <trkpt lat="47.64935" lon="6.03432">
        <ele>274.1</ele>
        <time>2012-06-07T07:45:10.000Z</time>
      </trkpt>
      <trkpt lat="47.64932" lon="6.03439">
        <ele>274.3</ele>
        <time>2012-06-07T07:45:13.000Z</time>
      </trkpt>
      <trkpt lat="47.64929" lon="6.03446">
        <ele>274.8</ele>
        <time>2012-06-07T07:45:16.000Z</time>
      </trkpt>
      <trkpt lat="47.64926" lon="6.03453">
        <ele>275.4</ele>
        <time>2012-06-07T07:45:19.000Z</time>
      </trkpt>
      <trkpt lat="47.64923" lon="6.03459">
        <ele>276</ele>
        <time>2012-06-07T07:45:22.000Z</time>
      </trkpt>
      <trkpt lat="47.6492" lon="6.03465">
        <ele>276.8</ele>
        <time>2012-06-07T07:45:25.000Z</time>
      </trkpt>
      <trkpt lat="47.64918" lon="6.03471">
        <ele>277.4</ele>
        <time>2012-06-07T07:45:28.000Z</time>
      </trkpt>
      <trkpt lat="47.64916" lon="6.03478">
        <ele>277.8</ele>
        <time>2012-06-07T07:45:31.000Z</time>
      </trkpt>
      <trkpt lat="47.64913" lon="6.03483">
        <ele>278.4</ele>
        <time>2012-06-07T07:45:34.000Z</time>
      </trkpt>
      <trkpt lat="47.64911" lon="6.0349">
        <ele>278.8</ele>
        <time>2012-06-07T07:45:38.000Z</time>
      </trkpt>
      <trkpt lat="47.64908" lon="6.03495">
        <ele>279.1</ele>
        <time>2012-06-07T07:45:41.000Z</time>
      </trkpt>
      <trkpt lat="47.64903" lon="6.03501">
        <ele>279.4</ele>
        <time>2012-06-07T07:45:45.000Z</time>
      </trkpt>
      <trkpt lat="47.64899" lon="6.03506">
        <ele>279.6</ele>
        <time>2012-06-07T07:45:48.000Z</time>
      </trkpt>
      <trkpt lat="47.64895" lon="6.03512">
        <ele>279.5</ele>
        <time>2012-06-07T07:45:51.000Z</time>
      </trkpt>
      <trkpt lat="47.64892" lon="6.03518">
        <ele>280</ele>
        <time>2012-06-07T07:45:55.000Z</time>
      </trkpt>
      <trkpt lat="47.64886" lon="6.03523">
        <ele>280</ele>
        <time>2012-06-07T07:45:58.000Z</time>
      </trkpt>
      <trkpt lat="47.64881" lon="6.03529">
        <ele>280.5</ele>
        <time>2012-06-07T07:46:01.000Z</time>
      </trkpt>
      <trkpt lat="47.64877" lon="6.03534">
        <ele>280.7</ele>
        <time>2012-06-07T07:46:03.000Z</time>
      </trkpt>
      <trkpt lat="47.64873" lon="6.0354">
        <ele>281.2</ele>
        <time>2012-06-07T07:46:06.000Z</time>
      </trkpt>
      <trkpt lat="47.64869" lon="6.03547">
        <ele>281.7</ele>
        <time>2012-06-07T07:46:09.000Z</time>
      </trkpt>
      <trkpt lat="47.64865" lon="6.03552">
        <ele>282.1</ele>
        <time>2012-06-07T07:46:11.000Z</time>
      </trkpt>
      <trkpt lat="47.64861" lon="6.03557">
        <ele>282.5</ele>
        <time>2012-06-07T07:46:13.000Z</time>
      </trkpt>
      <trkpt lat="47.64857" lon="6.03561">
        <ele>282.7</ele>
        <time>2012-06-07T07:46:15.000Z</time>
      </trkpt>
      <trkpt lat="47.64852" lon="6.03566">
        <ele>283</ele>
        <time>2012-06-07T07:46:17.000Z</time>
      </trkpt>
      <trkpt lat="47.64846" lon="6.03571">
        <ele>283</ele>
        <time>2012-06-07T07:46:20.000Z</time>
      </trkpt>
      <trkpt lat="47.64841" lon="6.03575">
        <ele>283</ele>
        <time>2012-06-07T07:46:22.000Z</time>
      </trkpt>
      <trkpt lat="47.64836" lon="6.03579">
        <ele>283</ele>
        <time>2012-06-07T07:46:23.000Z</time>
      </trkpt>
      <trkpt lat="47.6483" lon="6.03584">
        <ele>283.1</ele>
        <time>2012-06-07T07:46:24.000Z</time>
      </trkpt>
      <trkpt lat="47.64826" lon="6.03588">
        <ele>283.2</ele>
        <time>2012-06-07T07:46:25.000Z</time>
      </trkpt>
      <trkpt lat="47.64822" lon="6.03592">
        <ele>283.3</ele>
        <time>2012-06-07T07:46:26.000Z</time>
      </trkpt>
      <trkpt lat="47.64818" lon="6.03598">
        <ele>283.4</ele>
        <time>2012-06-07T07:46:27.000Z</time>
      </trkpt>
      <trkpt lat="47.64814" lon="6.03602">
        <ele>283.3</ele>
        <time>2012-06-07T07:46:28.000Z</time>
      </trkpt>
      <trkpt lat="47.64808" lon="6.03607">
        <ele>283.3</ele>
        <time>2012-06-07T07:46:29.000Z</time>
      </trkpt>
      <trkpt lat="47.64803" lon="6.03611">
        <ele>283.3</ele>
        <time>2012-06-07T07:46:30.000Z</time>
      </trkpt>
      <trkpt lat="47.64797" lon="6.03617">
        <ele>283.3</ele>
        <time>2012-06-07T07:46:31.000Z</time>
      </trkpt>
      <trkpt lat="47.64791" lon="6.03623">
        <ele>283.3</ele>
        <time>2012-06-07T07:46:32.000Z</time>
      </trkpt>
      <trkpt lat="47.64786" lon="6.03629">
        <ele>283.4</ele>
        <time>2012-06-07T07:46:33.000Z</time>
      </trkpt>
      <trkpt lat="47.64781" lon="6.03634">
        <ele>283.4</ele>
        <time>2012-06-07T07:46:34.000Z</time>
      </trkpt>
      <trkpt lat="47.64777" lon="6.0364">
        <ele>283.4</ele>
        <time>2012-06-07T07:46:35.000Z</time>
      </trkpt>
      <trkpt lat="47.64772" lon="6.03646">
        <ele>283.6</ele>
        <time>2012-06-07T07:46:36.000Z</time>
      </trkpt>
      <trkpt lat="47.64768" lon="6.03652">
        <ele>283.7</ele>
        <time>2012-06-07T07:46:37.000Z</time>
      </trkpt>
      <trkpt lat="47.64764" lon="6.0366">
        <ele>283.7</ele>
        <time>2012-06-07T07:46:38.000Z</time>
      </trkpt>
      <trkpt lat="47.64761" lon="6.03667">
        <ele>283.7</ele>
        <time>2012-06-07T07:46:39.000Z</time>
      </trkpt>
      <trkpt lat="47.64758" lon="6.03673">
        <ele>283.7</ele>
        <time>2012-06-07T07:46:40.000Z</time>
      </trkpt>
      <trkpt lat="47.64755" lon="6.03679">
        <ele>283.7</ele>
        <time>2012-06-07T07:46:41.000Z</time>
      </trkpt>
      <trkpt lat="47.64753" lon="6.03685">
        <ele>283.6</ele>
        <time>2012-06-07T07:46:42.000Z</time>
      </trkpt>
      <trkpt lat="47.64749" lon="6.03694">
        <ele>283.6</ele>
        <time>2012-06-07T07:46:44.000Z</time>
      </trkpt>
      <trkpt lat="47.64747" lon="6.03702">
        <ele>283.4</ele>
        <time>2012-06-07T07:46:46.000Z</time>
      </trkpt>
      <trkpt lat="47.64744" lon="6.03708">
        <ele>283.1</ele>
        <time>2012-06-07T07:46:48.000Z</time>
      </trkpt>
      <trkpt lat="47.64741" lon="6.03716">
        <ele>282.8</ele>
        <time>2012-06-07T07:46:50.000Z</time>
      </trkpt>
      <trkpt lat="47.64737" lon="6.03722">
        <ele>281.8</ele>
        <time>2012-06-07T07:46:52.000Z</time>
      </trkpt>
      <trkpt lat="47.64735" lon="6.0373">
        <ele>281.5</ele>
        <time>2012-06-07T07:46:54.000Z</time>
      </trkpt>
      <trkpt lat="47.64732" lon="6.03736">
        <ele>281</ele>
        <time>2012-06-07T07:46:56.000Z</time>
      </trkpt>
      <trkpt lat="47.64729" lon="6.03742">
        <ele>280.5</ele>
        <time>2012-06-07T07:46:58.000Z</time>
      </trkpt>
      <trkpt lat="47.64725" lon="6.03747">
        <ele>280</ele>
        <time>2012-06-07T07:47:00.000Z</time>
      </trkpt>
      <trkpt lat="47.64721" lon="6.03752">
        <ele>279.6</ele>
        <time>2012-06-07T07:47:02.000Z</time>
      </trkpt>
      <trkpt lat="47.64718" lon="6.03758">
        <ele>279.5</ele>
        <time>2012-06-07T07:47:04.000Z</time>
      </trkpt>
      <trkpt lat="47.64714" lon="6.03763">
        <ele>279.2</ele>
        <time>2012-06-07T07:47:06.000Z</time>
      </trkpt>
      <trkpt lat="47.6471" lon="6.03767">
        <ele>279</ele>
        <time>2012-06-07T07:47:08.000Z</time>
      </trkpt>
      <trkpt lat="47.64707" lon="6.03772">
        <ele>279</ele>
        <time>2012-06-07T07:47:10.000Z</time>
      </trkpt>
      <trkpt lat="47.64703" lon="6.03777">
        <ele>278.9</ele>
        <time>2012-06-07T07:47:12.000Z</time>
      </trkpt>
      <trkpt lat="47.64699" lon="6.03781">
        <ele>278.9</ele>
        <time>2012-06-07T07:47:14.000Z</time>
      </trkpt>
      <trkpt lat="47.64695" lon="6.03786">
        <ele>279</ele>
        <time>2012-06-07T07:47:16.000Z</time>
      </trkpt>
      <trkpt lat="47.64692" lon="6.03791">
        <ele>279</ele>
        <time>2012-06-07T07:47:18.000Z</time>
      </trkpt>
      <trkpt lat="47.64688" lon="6.03796">
        <ele>278.9</ele>
        <time>2012-06-07T07:47:20.000Z</time>
      </trkpt>
      <trkpt lat="47.64684" lon="6.038">
        <ele>278.6</ele>
        <time>2012-06-07T07:47:22.000Z</time>
      </trkpt>
      <trkpt lat="47.64679" lon="6.03807">
        <ele>278.8</ele>
        <time>2012-06-07T07:47:25.000Z</time>
      </trkpt>
      <trkpt lat="47.64675" lon="6.03813">
        <ele>279</ele>
        <time>2012-06-07T07:47:28.000Z</time>
      </trkpt>
      <trkpt lat="47.64669" lon="6.03819">
        <ele>279</ele>
        <time>2012-06-07T07:47:31.000Z</time>
      </trkpt>
      <trkpt lat="47.64664" lon="6.03825">
        <ele>279.2</ele>
        <time>2012-06-07T07:47:34.000Z</time>
      </trkpt>
      <trkpt lat="47.64661" lon="6.0383">
        <ele>279.3</ele>
        <time>2012-06-07T07:47:36.000Z</time>
      </trkpt>
      <trkpt lat="47.64657" lon="6.03834">
        <ele>279.4</ele>
        <time>2012-06-07T07:47:38.000Z</time>
      </trkpt>
      <trkpt lat="47.64653" lon="6.03838">
        <ele>279.5</ele>
        <time>2012-06-07T07:47:40.000Z</time>
      </trkpt>
      <trkpt lat="47.6465" lon="6.03843">
        <ele>279.6</ele>
        <time>2012-06-07T07:47:42.000Z</time>
      </trkpt>
      <trkpt lat="47.64646" lon="6.03847">
        <ele>279.5</ele>
        <time>2012-06-07T07:47:44.000Z</time>
      </trkpt>
      <trkpt lat="47.64642" lon="6.03852">
        <ele>279.5</ele>
        <time>2012-06-07T07:47:46.000Z</time>
      </trkpt>
      <trkpt lat="47.64637" lon="6.03858">
        <ele>279.6</ele>
        <time>2012-06-07T07:47:49.000Z</time>
      </trkpt>
      <trkpt lat="47.64633" lon="6.03864">
        <ele>279.9</ele>
        <time>2012-06-07T07:47:52.000Z</time>
      </trkpt>
      <trkpt lat="47.64628" lon="6.0387">
        <ele>279.8</ele>
        <time>2012-06-07T07:47:55.000Z</time>
      </trkpt>
      <trkpt lat="47.64625" lon="6.03876">
        <ele>280.1</ele>
        <time>2012-06-07T07:47:58.000Z</time>
      </trkpt>
      <trkpt lat="47.64622" lon="6.03881">
        <ele>280.3</ele>
        <time>2012-06-07T07:48:01.000Z</time>
      </trkpt>
      <trkpt lat="47.64618" lon="6.03887">
        <ele>280.4</ele>
        <time>2012-06-07T07:48:04.000Z</time>
      </trkpt>
      <trkpt lat="47.64616" lon="6.03892">
        <ele>280.5</ele>
        <time>2012-06-07T07:48:06.000Z</time>
      </trkpt>
      <trkpt lat="47.64612" lon="6.039">
        <ele>280.6</ele>
        <time>2012-06-07T07:48:09.000Z</time>
      </trkpt>
      <trkpt lat="47.64608" lon="6.03906">
        <ele>280.8</ele>
        <time>2012-06-07T07:48:12.000Z</time>
      </trkpt>
      <trkpt lat="47.64605" lon="6.03911">
        <ele>281</ele>
        <time>2012-06-07T07:48:15.000Z</time>
      </trkpt>
      <trkpt lat="47.64601" lon="6.03918">
        <ele>281.1</ele>
        <time>2012-06-07T07:48:18.000Z</time>
      </trkpt>
      <trkpt lat="47.64596" lon="6.03924">
        <ele>281.3</ele>
        <time>2012-06-07T07:48:20.000Z</time>
      </trkpt>
      <trkpt lat="47.64592" lon="6.0393">
        <ele>281.7</ele>
        <time>2012-06-07T07:48:22.000Z</time>
      </trkpt>
      <trkpt lat="47.64589" lon="6.03935">
        <ele>281.9</ele>
        <time>2012-06-07T07:48:24.000Z</time>
      </trkpt>
      <trkpt lat="47.64584" lon="6.0394">
        <ele>282.1</ele>
        <time>2012-06-07T07:48:28.000Z</time>
      </trkpt>
      <trkpt lat="47.6458" lon="6.03946">
        <ele>281.8</ele>
        <time>2012-06-07T07:48:31.000Z</time>
      </trkpt>
      <trkpt lat="47.64576" lon="6.03953">
        <ele>281.9</ele>
        <time>2012-06-07T07:48:33.000Z</time>
      </trkpt>
      <trkpt lat="47.64573" lon="6.0396">
        <ele>281.8</ele>
        <time>2012-06-07T07:48:35.000Z</time>
      </trkpt>
      <trkpt lat="47.64569" lon="6.03968">
        <ele>281.4</ele>
        <time>2012-06-07T07:48:37.000Z</time>
      </trkpt>
      <trkpt lat="47.64565" lon="6.03974">
        <ele>281.4</ele>
        <time>2012-06-07T07:48:39.000Z</time>
      </trkpt>
      <trkpt lat="47.64561" lon="6.03982">
        <ele>281.4</ele>
        <time>2012-06-07T07:48:41.000Z</time>
      </trkpt>
      <trkpt lat="47.64556" lon="6.0399">
        <ele>281</ele>
        <time>2012-06-07T07:48:43.000Z</time>
      </trkpt>
      <trkpt lat="47.64552" lon="6.03996">
        <ele>280.8</ele>
        <time>2012-06-07T07:48:45.000Z</time>
      </trkpt>
      <trkpt lat="47.64549" lon="6.04002">
        <ele>280.5</ele>
        <time>2012-06-07T07:48:47.000Z</time>
      </trkpt>
      <trkpt lat="47.64545" lon="6.04008">
        <ele>280.4</ele>
        <time>2012-06-07T07:48:49.000Z</time>
      </trkpt>
      <trkpt lat="47.64542" lon="6.04015">
        <ele>280.3</ele>
        <time>2012-06-07T07:48:51.000Z</time>
      </trkpt>
      <trkpt lat="47.64538" lon="6.04021">
        <ele>280.2</ele>
        <time>2012-06-07T07:48:53.000Z</time>
      </trkpt>
      <trkpt lat="47.64534" lon="6.04028">
        <ele>280.4</ele>
        <time>2012-06-07T07:48:56.000Z</time>
      </trkpt>
      <trkpt lat="47.6453" lon="6.04033">
        <ele>280.2</ele>
        <time>2012-06-07T07:48:58.000Z</time>
      </trkpt>
      <trkpt lat="47.64526" lon="6.0404">
        <ele>280</ele>
        <time>2012-06-07T07:49:01.000Z</time>
      </trkpt>
      <trkpt lat="47.64522" lon="6.04048">
        <ele>279.9</ele>
        <time>2012-06-07T07:49:04.000Z</time>
      </trkpt>
      <trkpt lat="47.64519" lon="6.04054">
        <ele>280</ele>
        <time>2012-06-07T07:49:06.000Z</time>
      </trkpt>
      <trkpt lat="47.64516" lon="6.0406">
        <ele>280.2</ele>
        <time>2012-06-07T07:49:08.000Z</time>
      </trkpt>
      <trkpt lat="47.64513" lon="6.04066">
        <ele>280.1</ele>
        <time>2012-06-07T07:49:10.000Z</time>
      </trkpt>
      <trkpt lat="47.6451" lon="6.04074">
        <ele>280</ele>
        <time>2012-06-07T07:49:13.000Z</time>
      </trkpt>
      <trkpt lat="47.64506" lon="6.04083">
        <ele>279.7</ele>
        <time>2012-06-07T07:49:16.000Z</time>
      </trkpt>
      <trkpt lat="47.64504" lon="6.04089">
        <ele>279.5</ele>
        <time>2012-06-07T07:49:18.000Z</time>
      </trkpt>
      <trkpt lat="47.645" lon="6.04095">
        <ele>279.4</ele>
        <time>2012-06-07T07:49:20.000Z</time>
      </trkpt>
      <trkpt lat="47.64497" lon="6.04101">
        <ele>279.1</ele>
        <time>2012-06-07T07:49:22.000Z</time>
      </trkpt>
      <trkpt lat="47.64493" lon="6.04109">
        <ele>278.8</ele>
        <time>2012-06-07T07:49:25.000Z</time>
      </trkpt>
      <trkpt lat="47.64488" lon="6.04116">
        <ele>278.9</ele>
        <time>2012-06-07T07:49:28.000Z</time>
      </trkpt>
      <trkpt lat="47.64483" lon="6.04123">
        <ele>278.9</ele>
        <time>2012-06-07T07:49:31.000Z</time>
      </trkpt>
      <trkpt lat="47.6448" lon="6.04129">
        <ele>278.9</ele>
        <time>2012-06-07T07:49:33.000Z</time>
      </trkpt>
      <trkpt lat="47.64476" lon="6.04136">
        <ele>278.8</ele>
        <time>2012-06-07T07:49:36.000Z</time>
      </trkpt>
      <trkpt lat="47.64473" lon="6.04144">
        <ele>278.4</ele>
        <time>2012-06-07T07:49:39.000Z</time>
      </trkpt>
      <trkpt lat="47.6447" lon="6.04152">
        <ele>278.4</ele>
        <time>2012-06-07T07:49:42.000Z</time>
      </trkpt>
      <trkpt lat="47.64467" lon="6.04159">
        <ele>278.2</ele>
        <time>2012-06-07T07:49:44.000Z</time>
      </trkpt>
      <trkpt lat="47.64464" lon="6.04165">
        <ele>278.1</ele>
        <time>2012-06-07T07:49:46.000Z</time>
      </trkpt>
      <trkpt lat="47.64461" lon="6.04172">
        <ele>278</ele>
        <time>2012-06-07T07:49:48.000Z</time>
      </trkpt>
      <trkpt lat="47.64457" lon="6.04176">
        <ele>278.1</ele>
        <time>2012-06-07T07:49:50.000Z</time>
      </trkpt>
      <trkpt lat="47.64453" lon="6.04183">
        <ele>278.1</ele>
        <time>2012-06-07T07:49:53.000Z</time>
      </trkpt>
      <trkpt lat="47.6445" lon="6.04192">
        <ele>278.4</ele>
        <time>2012-06-07T07:49:56.000Z</time>
      </trkpt>
      <trkpt lat="47.64447" lon="6.04201">
        <ele>278.6</ele>
        <time>2012-06-07T07:49:59.000Z</time>
      </trkpt>
      <trkpt lat="47.64445" lon="6.04207">
        <ele>278.7</ele>
        <time>2012-06-07T07:50:01.000Z</time>
      </trkpt>
      <trkpt lat="47.64442" lon="6.04216">
        <ele>278.9</ele>
        <time>2012-06-07T07:50:04.000Z</time>
      </trkpt>
      <trkpt lat="47.6444" lon="6.04225">
        <ele>279.3</ele>
        <time>2012-06-07T07:50:07.000Z</time>
      </trkpt>
      <trkpt lat="47.64438" lon="6.04231">
        <ele>279.4</ele>
        <time>2012-06-07T07:50:09.000Z</time>
      </trkpt>
      <trkpt lat="47.64435" lon="6.04239">
        <ele>279.3</ele>
        <time>2012-06-07T07:50:12.000Z</time>
      </trkpt>
      <trkpt lat="47.64432" lon="6.04247">
        <ele>279.2</ele>
        <time>2012-06-07T07:50:15.000Z</time>
      </trkpt>
      <trkpt lat="47.64429" lon="6.04254">
        <ele>279.1</ele>
        <time>2012-06-07T07:50:18.000Z</time>
      </trkpt>
      <trkpt lat="47.64426" lon="6.04262">
        <ele>278.9</ele>
        <time>2012-06-07T07:50:21.000Z</time>
      </trkpt>
      <trkpt lat="47.64425" lon="6.04269">
        <ele>278.9</ele>
        <time>2012-06-07T07:50:24.000Z</time>
      </trkpt>
      <trkpt lat="47.64422" lon="6.04276">
        <ele>279.3</ele>
        <time>2012-06-07T07:50:27.000Z</time>
      </trkpt>
      <trkpt lat="47.64421" lon="6.04283">
        <ele>279.3</ele>
        <time>2012-06-07T07:50:29.000Z</time>
      </trkpt>
      <trkpt lat="47.6442" lon="6.04289">
        <ele>279.6</ele>
        <time>2012-06-07T07:50:31.000Z</time>
      </trkpt>
      <trkpt lat="47.64418" lon="6.04298">
        <ele>280.1</ele>
        <time>2012-06-07T07:50:34.000Z</time>
      </trkpt>
      <trkpt lat="47.64416" lon="6.04307">
        <ele>280.7</ele>
        <time>2012-06-07T07:50:37.000Z</time>
      </trkpt>
      <trkpt lat="47.64414" lon="6.04314">
        <ele>281.1</ele>
        <time>2012-06-07T07:50:39.000Z</time>
      </trkpt>
      <trkpt lat="47.64413" lon="6.04321">
        <ele>281.4</ele>
        <time>2012-06-07T07:50:41.000Z</time>
      </trkpt>
      <trkpt lat="47.64411" lon="6.0433">
        <ele>282</ele>
        <time>2012-06-07T07:50:44.000Z</time>
      </trkpt>
      <trkpt lat="47.6441" lon="6.0434">
        <ele>281.9</ele>
        <time>2012-06-07T07:50:47.000Z</time>
      </trkpt>
      <trkpt lat="47.64409" lon="6.04347">
        <ele>281.8</ele>
        <time>2012-06-07T07:50:49.000Z</time>
      </trkpt>
      <trkpt lat="47.64404" lon="6.04379">
        <ele>289.5</ele>
        <time>2012-06-07T07:51:00.000Z</time>
      </trkpt>
      <trkpt lat="47.64404" lon="6.04386">
        <ele>290.1</ele>
        <time>2012-06-07T07:51:02.000Z</time>
      </trkpt>
      <trkpt lat="47.64403" lon="6.04394">
        <ele>289.4</ele>
        <time>2012-06-07T07:51:04.000Z</time>
      </trkpt>
      <trkpt lat="47.64403" lon="6.04402">
        <ele>288.6</ele>
        <time>2012-06-07T07:51:07.000Z</time>
      </trkpt>
      <trkpt lat="47.64403" lon="6.0441">
        <ele>290.5</ele>
        <time>2012-06-07T07:51:11.000Z</time>
      </trkpt>
      <trkpt lat="47.64404" lon="6.04418">
        <ele>290.7</ele>
        <time>2012-06-07T07:51:14.000Z</time>
      </trkpt>
      <trkpt lat="47.64404" lon="6.04427">
        <ele>290.5</ele>
        <time>2012-06-07T07:51:17.000Z</time>
      </trkpt>
      <trkpt lat="47.64404" lon="6.04434">
        <ele>291.7</ele>
        <time>2012-06-07T07:51:20.000Z</time>
      </trkpt>
      <trkpt lat="47.64404" lon="6.04441">
        <ele>293.4</ele>
        <time>2012-06-07T07:51:23.000Z</time>
      </trkpt>
      <trkpt lat="47.64404" lon="6.04447">
        <ele>292.4</ele>
        <time>2012-06-07T07:51:25.000Z</time>
      </trkpt>
      <trkpt lat="47.64404" lon="6.04456">
        <ele>291.9</ele>
        <time>2012-06-07T07:51:28.000Z</time>
      </trkpt>
      <trkpt lat="47.64404" lon="6.04463">
        <ele>291.4</ele>
        <time>2012-06-07T07:51:30.000Z</time>
      </trkpt>
      <trkpt lat="47.64405" lon="6.04473">
        <ele>290.6</ele>
        <time>2012-06-07T07:51:32.000Z</time>
      </trkpt>
      <trkpt lat="47.64405" lon="6.04481">
        <ele>289.5</ele>
        <time>2012-06-07T07:51:34.000Z</time>
      </trkpt>
      <trkpt lat="47.64405" lon="6.04488">
        <ele>288.7</ele>
        <time>2012-06-07T07:51:36.000Z</time>
      </trkpt>
      <trkpt lat="47.64405" lon="6.04499">
        <ele>288.6</ele>
        <time>2012-06-07T07:51:39.000Z</time>
      </trkpt>
      <trkpt lat="47.64404" lon="6.04506">
        <ele>288.6</ele>
        <time>2012-06-07T07:51:41.000Z</time>
      </trkpt>
      <trkpt lat="47.64404" lon="6.04513">
        <ele>287.6</ele>
        <time>2012-06-07T07:51:43.000Z</time>
      </trkpt>
      <trkpt lat="47.64402" lon="6.04522">
        <ele>288.2</ele>
        <time>2012-06-07T07:51:46.000Z</time>
      </trkpt>
      <trkpt lat="47.64402" lon="6.0453">
        <ele>290</ele>
        <time>2012-06-07T07:51:50.000Z</time>
      </trkpt>
      <trkpt lat="47.64403" lon="6.04539">
        <ele>290.8</ele>
        <time>2012-06-07T07:51:53.000Z</time>
      </trkpt>
      <trkpt lat="47.64401" lon="6.04548">
        <ele>291.9</ele>
        <time>2012-06-07T07:51:57.000Z</time>
      </trkpt>
      <trkpt lat="47.64402" lon="6.04555">
        <ele>292.4</ele>
        <time>2012-06-07T07:51:59.000Z</time>
      </trkpt>
      <trkpt lat="47.64401" lon="6.04562">
        <ele>292.3</ele>
        <time>2012-06-07T07:52:01.000Z</time>
      </trkpt>
      <trkpt lat="47.64401" lon="6.04571">
        <ele>292</ele>
        <time>2012-06-07T07:52:04.000Z</time>
      </trkpt>
      <trkpt lat="47.644" lon="6.04579">
        <ele>292.3</ele>
        <time>2012-06-07T07:52:07.000Z</time>
      </trkpt>
      <trkpt lat="47.64399" lon="6.04586">
        <ele>292.9</ele>
        <time>2012-06-07T07:52:10.000Z</time>
      </trkpt>
      <trkpt lat="47.64398" lon="6.04593">
        <ele>292.7</ele>
        <time>2012-06-07T07:52:13.000Z</time>
      </trkpt>
      <trkpt lat="47.64399" lon="6.046">
        <ele>292</ele>
        <time>2012-06-07T07:52:16.000Z</time>
      </trkpt>
      <trkpt lat="47.64397" lon="6.04609">
        <ele>292.6</ele>
        <time>2012-06-07T07:52:21.000Z</time>
      </trkpt>
      <trkpt lat="47.64397" lon="6.04615">
        <ele>289.5</ele>
        <time>2012-06-07T07:52:30.000Z</time>
      </trkpt>
      <trkpt lat="47.64398" lon="6.04624">
        <ele>291.8</ele>
        <time>2012-06-07T07:52:44.000Z</time>
      </trkpt>
      <trkpt lat="47.64397" lon="6.04632">
        <ele>291.6</ele>
        <time>2012-06-07T07:52:47.000Z</time>
      </trkpt>
      <trkpt lat="47.64395" lon="6.04642">
        <ele>291.8</ele>
        <time>2012-06-07T07:52:50.000Z</time>
      </trkpt>
      <trkpt lat="47.64392" lon="6.04682">
        <ele>299.8</ele>
        <time>2012-06-07T07:53:00.000Z</time>
      </trkpt>
      <trkpt lat="47.64388" lon="6.04686">
        <ele>301.9</ele>
        <time>2012-06-07T07:53:01.000Z</time>
      </trkpt>
      <trkpt lat="47.64388" lon="6.04694">
        <ele>306.4</ele>
        <time>2012-06-07T07:53:04.000Z</time>
      </trkpt>
      <trkpt lat="47.64386" lon="6.04702">
        <ele>307.9</ele>
        <time>2012-06-07T07:53:07.000Z</time>
      </trkpt>
      <trkpt lat="47.64385" lon="6.04709">
        <ele>310</ele>
        <time>2012-06-07T07:53:09.000Z</time>
      </trkpt>
      <trkpt lat="47.64383" lon="6.04716">
        <ele>312.2</ele>
        <time>2012-06-07T07:53:11.000Z</time>
      </trkpt>
      <trkpt lat="47.64381" lon="6.04724">
        <ele>312.6</ele>
        <time>2012-06-07T07:53:13.000Z</time>
      </trkpt>
      <trkpt lat="47.64379" lon="6.0473">
        <ele>312.2</ele>
        <time>2012-06-07T07:53:15.000Z</time>
      </trkpt>
      <trkpt lat="47.64377" lon="6.04738">
        <ele>315.4</ele>
        <time>2012-06-07T07:53:18.000Z</time>
      </trkpt>
      <trkpt lat="47.64376" lon="6.04745">
        <ele>316.6</ele>
        <time>2012-06-07T07:53:20.000Z</time>
      </trkpt>
      <trkpt lat="47.64373" lon="6.04755">
        <ele>316.5</ele>
        <time>2012-06-07T07:53:22.000Z</time>
      </trkpt>
      <trkpt lat="47.64372" lon="6.04763">
        <ele>316.1</ele>
        <time>2012-06-07T07:53:24.000Z</time>
      </trkpt>
      <trkpt lat="47.64372" lon="6.04771">
        <ele>314.6</ele>
        <time>2012-06-07T07:53:26.000Z</time>
      </trkpt>
      <trkpt lat="47.64371" lon="6.0478">
        <ele>313.3</ele>
        <time>2012-06-07T07:53:28.000Z</time>
      </trkpt>
      <trkpt lat="47.6437" lon="6.04789">
        <ele>312.8</ele>
        <time>2012-06-07T07:53:30.000Z</time>
      </trkpt>
      <trkpt lat="47.64369" lon="6.04797">
        <ele>312.5</ele>
        <time>2012-06-07T07:53:32.000Z</time>
      </trkpt>
      <trkpt lat="47.64369" lon="6.04804">
        <ele>312</ele>
        <time>2012-06-07T07:53:34.000Z</time>
      </trkpt>
      <trkpt lat="47.64367" lon="6.04812">
        <ele>311.3</ele>
        <time>2012-06-07T07:53:36.000Z</time>
      </trkpt>
      <trkpt lat="47.64367" lon="6.04821">
        <ele>310.6</ele>
        <time>2012-06-07T07:53:38.000Z</time>
      </trkpt>
      <trkpt lat="47.64366" lon="6.04829">
        <ele>309.7</ele>
        <time>2012-06-07T07:53:40.000Z</time>
      </trkpt>
      <trkpt lat="47.64366" lon="6.04838">
        <ele>308.9</ele>
        <time>2012-06-07T07:53:42.000Z</time>
      </trkpt>
      <trkpt lat="47.64364" lon="6.04846">
        <ele>308.1</ele>
        <time>2012-06-07T07:53:44.000Z</time>
      </trkpt>
      <trkpt lat="47.64363" lon="6.04855">
        <ele>307.4</ele>
        <time>2012-06-07T07:53:46.000Z</time>
      </trkpt>
      <trkpt lat="47.64362" lon="6.04864">
        <ele>306.5</ele>
        <time>2012-06-07T07:53:48.000Z</time>
      </trkpt>
      <trkpt lat="47.64361" lon="6.04874">
        <ele>305.9</ele>
        <time>2012-06-07T07:53:50.000Z</time>
      </trkpt>
      <trkpt lat="47.64358" lon="6.04929">
        <ele>285.5</ele>
        <time>2012-06-07T07:54:00.000Z</time>
      </trkpt>
      <trkpt lat="47.64355" lon="6.04937">
        <ele>290.1</ele>
        <time>2012-06-07T07:54:02.000Z</time>
      </trkpt>
      <trkpt lat="47.64353" lon="6.04949">
        <ele>290.3</ele>
        <time>2012-06-07T07:54:04.000Z</time>
      </trkpt>
      <trkpt lat="47.64351" lon="6.04961">
        <ele>291.5</ele>
        <time>2012-06-07T07:54:06.000Z</time>
      </trkpt>
      <trkpt lat="47.64349" lon="6.04972">
        <ele>292.9</ele>
        <time>2012-06-07T07:54:08.000Z</time>
      </trkpt>
      <trkpt lat="47.64348" lon="6.04984">
        <ele>294</ele>
        <time>2012-06-07T07:54:10.000Z</time>
      </trkpt>
      <trkpt lat="47.64347" lon="6.04994">
        <ele>294.5</ele>
        <time>2012-06-07T07:54:12.000Z</time>
      </trkpt>
      <trkpt lat="47.64345" lon="6.05004">
        <ele>294.9</ele>
        <time>2012-06-07T07:54:14.000Z</time>
      </trkpt>
      <trkpt lat="47.64344" lon="6.05013">
        <ele>294.7</ele>
        <time>2012-06-07T07:54:16.000Z</time>
      </trkpt>
      <trkpt lat="47.64342" lon="6.05022">
        <ele>294.9</ele>
        <time>2012-06-07T07:54:18.000Z</time>
      </trkpt>
      <trkpt lat="47.64341" lon="6.05032">
        <ele>295.1</ele>
        <time>2012-06-07T07:54:20.000Z</time>
      </trkpt>
      <trkpt lat="47.64339" lon="6.05041">
        <ele>295.2</ele>
        <time>2012-06-07T07:54:22.000Z</time>
      </trkpt>
      <trkpt lat="47.64338" lon="6.0505">
        <ele>295.8</ele>
        <time>2012-06-07T07:54:24.000Z</time>
      </trkpt>
      <trkpt lat="47.64336" lon="6.0506">
        <ele>295.3</ele>
        <time>2012-06-07T07:54:26.000Z</time>
      </trkpt>
      <trkpt lat="47.64335" lon="6.05069">
        <ele>294.9</ele>
        <time>2012-06-07T07:54:28.000Z</time>
      </trkpt>
      <trkpt lat="47.64334" lon="6.05079">
        <ele>294.7</ele>
        <time>2012-06-07T07:54:30.000Z</time>
      </trkpt>
      <trkpt lat="47.64333" lon="6.05088">
        <ele>294.8</ele>
        <time>2012-06-07T07:54:32.000Z</time>
      </trkpt>
      <trkpt lat="47.64332" lon="6.05097">
        <ele>294.7</ele>
        <time>2012-06-07T07:54:34.000Z</time>
      </trkpt>
      <trkpt lat="47.64331" lon="6.05106">
        <ele>294.7</ele>
        <time>2012-06-07T07:54:36.000Z</time>
      </trkpt>
      <trkpt lat="47.6433" lon="6.05114">
        <ele>294.5</ele>
        <time>2012-06-07T07:54:38.000Z</time>
      </trkpt>
      <trkpt lat="47.64329" lon="6.05123">
        <ele>294.6</ele>
        <time>2012-06-07T07:54:40.000Z</time>
      </trkpt>
      <trkpt lat="47.64328" lon="6.05132">
        <ele>294.6</ele>
        <time>2012-06-07T07:54:42.000Z</time>
      </trkpt>
      <trkpt lat="47.64327" lon="6.05141">
        <ele>294.6</ele>
        <time>2012-06-07T07:54:44.000Z</time>
      </trkpt>
      <trkpt lat="47.64326" lon="6.0515">
        <ele>294.8</ele>
        <time>2012-06-07T07:54:46.000Z</time>
      </trkpt>
      <trkpt lat="47.64326" lon="6.05158">
        <ele>294.7</ele>
        <time>2012-06-07T07:54:48.000Z</time>
      </trkpt>
      <trkpt lat="47.64324" lon="6.05166">
        <ele>294.6</ele>
        <time>2012-06-07T07:54:50.000Z</time>
      </trkpt>
      <trkpt lat="47.6432" lon="6.05211">
        <ele>298</ele>
        <time>2012-06-07T07:55:01.000Z</time>
      </trkpt>
      <trkpt lat="47.64318" lon="6.0522">
        <ele>298</ele>
        <time>2012-06-07T07:55:03.000Z</time>
      </trkpt>
      <trkpt lat="47.64318" lon="6.05228">
        <ele>298.6</ele>
        <time>2012-06-07T07:55:05.000Z</time>
      </trkpt>
      <trkpt lat="47.64317" lon="6.05236">
        <ele>298.7</ele>
        <time>2012-06-07T07:55:07.000Z</time>
      </trkpt>
      <trkpt lat="47.64315" lon="6.05244">
        <ele>299.3</ele>
        <time>2012-06-07T07:55:09.000Z</time>
      </trkpt>
      <trkpt lat="47.64314" lon="6.05252">
        <ele>299.8</ele>
        <time>2012-06-07T07:55:11.000Z</time>
      </trkpt>
      <trkpt lat="47.64313" lon="6.05259">
        <ele>300.3</ele>
        <time>2012-06-07T07:55:13.000Z</time>
      </trkpt>
      <trkpt lat="47.64312" lon="6.05267">
        <ele>300.6</ele>
        <time>2012-06-07T07:55:15.000Z</time>
      </trkpt>
      <trkpt lat="47.64311" lon="6.05275">
        <ele>300.9</ele>
        <time>2012-06-07T07:55:17.000Z</time>
      </trkpt>
      <trkpt lat="47.6431" lon="6.05284">
        <ele>300.9</ele>
        <time>2012-06-07T07:55:19.000Z</time>
      </trkpt>
      <trkpt lat="47.64309" lon="6.05293">
        <ele>300.4</ele>
        <time>2012-06-07T07:55:21.000Z</time>
      </trkpt>
      <trkpt lat="47.64308" lon="6.05302">
        <ele>300.3</ele>
        <time>2012-06-07T07:55:23.000Z</time>
      </trkpt>
      <trkpt lat="47.64307" lon="6.0531">
        <ele>300.4</ele>
        <time>2012-06-07T07:55:25.000Z</time>
      </trkpt>
      <trkpt lat="47.64306" lon="6.05319">
        <ele>300.3</ele>
        <time>2012-06-07T07:55:27.000Z</time>
      </trkpt>
      <trkpt lat="47.64305" lon="6.05328">
        <ele>300.3</ele>
        <time>2012-06-07T07:55:29.000Z</time>
      </trkpt>
      <trkpt lat="47.64304" lon="6.05337">
        <ele>300.3</ele>
        <time>2012-06-07T07:55:31.000Z</time>
      </trkpt>
      <trkpt lat="47.64303" lon="6.05346">
        <ele>300.1</ele>
        <time>2012-06-07T07:55:33.000Z</time>
      </trkpt>
      <trkpt lat="47.64302" lon="6.05355">
        <ele>300.1</ele>
        <time>2012-06-07T07:55:35.000Z</time>
      </trkpt>
      <trkpt lat="47.64301" lon="6.05363">
        <ele>300.2</ele>
        <time>2012-06-07T07:55:37.000Z</time>
      </trkpt>
      <trkpt lat="47.643" lon="6.05372">
        <ele>300.2</ele>
        <time>2012-06-07T07:55:39.000Z</time>
      </trkpt>
      <trkpt lat="47.64299" lon="6.0538">
        <ele>300.5</ele>
        <time>2012-06-07T07:55:41.000Z</time>
      </trkpt>
      <trkpt lat="47.64298" lon="6.05388">
        <ele>300.5</ele>
        <time>2012-06-07T07:55:43.000Z</time>
      </trkpt>
      <trkpt lat="47.64297" lon="6.05397">
        <ele>300.5</ele>
        <time>2012-06-07T07:55:45.000Z</time>
      </trkpt>
      <trkpt lat="47.64296" lon="6.05404">
        <ele>300.9</ele>
        <time>2012-06-07T07:55:47.000Z</time>
      </trkpt>
      <trkpt lat="47.64294" lon="6.05413">
        <ele>300.9</ele>
        <time>2012-06-07T07:55:49.000Z</time>
      </trkpt>
      <trkpt lat="47.64293" lon="6.05422">
        <ele>300.4</ele>
        <time>2012-06-07T07:55:51.000Z</time>
      </trkpt>
      <trkpt lat="47.64293" lon="6.0543">
        <ele>300.2</ele>
        <time>2012-06-07T07:55:53.000Z</time>
      </trkpt>
      <trkpt lat="47.64293" lon="6.05437">
        <ele>300</ele>
        <time>2012-06-07T07:55:55.000Z</time>
      </trkpt>
      <trkpt lat="47.64292" lon="6.05445">
        <ele>299.9</ele>
        <time>2012-06-07T07:55:57.000Z</time>
      </trkpt>
      <trkpt lat="47.64291" lon="6.05453">
        <ele>299.8</ele>
        <time>2012-06-07T07:55:59.000Z</time>
      </trkpt>
      <trkpt lat="47.64291" lon="6.0546">
        <ele>299.8</ele>
        <time>2012-06-07T07:56:01.000Z</time>
      </trkpt>
      <trkpt lat="47.6429" lon="6.05468">
        <ele>299.4</ele>
        <time>2012-06-07T07:56:03.000Z</time>
      </trkpt>
      <trkpt lat="47.64289" lon="6.05476">
        <ele>299.3</ele>
        <time>2012-06-07T07:56:05.000Z</time>
      </trkpt>
      <trkpt lat="47.64288" lon="6.05484">
        <ele>299.5</ele>
        <time>2012-06-07T07:56:07.000Z</time>
      </trkpt>
      <trkpt lat="47.64287" lon="6.05492">
        <ele>299.9</ele>
        <time>2012-06-07T07:56:09.000Z</time>
      </trkpt>
      <trkpt lat="47.64286" lon="6.055">
        <ele>300</ele>
        <time>2012-06-07T07:56:11.000Z</time>
      </trkpt>
      <trkpt lat="47.64285" lon="6.05508">
        <ele>300.3</ele>
        <time>2012-06-07T07:56:13.000Z</time>
      </trkpt>
      <trkpt lat="47.64284" lon="6.05515">
        <ele>300.6</ele>
        <time>2012-06-07T07:56:15.000Z</time>
      </trkpt>
      <trkpt lat="47.64283" lon="6.05523">
        <ele>300.7</ele>
        <time>2012-06-07T07:56:17.000Z</time>
      </trkpt>
      <trkpt lat="47.64282" lon="6.05531">
        <ele>301</ele>
        <time>2012-06-07T07:56:19.000Z</time>
      </trkpt>
      <trkpt lat="47.64281" lon="6.0554">
        <ele>300.9</ele>
        <time>2012-06-07T07:56:21.000Z</time>
      </trkpt>
      <trkpt lat="47.6428" lon="6.05548">
        <ele>300.9</ele>
        <time>2012-06-07T07:56:23.000Z</time>
      </trkpt>
      <trkpt lat="47.6428" lon="6.05556">
        <ele>301</ele>
        <time>2012-06-07T07:56:25.000Z</time>
      </trkpt>
      <trkpt lat="47.64279" lon="6.05563">
        <ele>301</ele>
        <time>2012-06-07T07:56:27.000Z</time>
      </trkpt>
      <trkpt lat="47.64278" lon="6.05571">
        <ele>301.2</ele>
        <time>2012-06-07T07:56:29.000Z</time>
      </trkpt>
      <trkpt lat="47.64278" lon="6.0558">
        <ele>301.1</ele>
        <time>2012-06-07T07:56:31.000Z</time>
      </trkpt>
      <trkpt lat="47.64278" lon="6.05588">
        <ele>301.4</ele>
        <time>2012-06-07T07:56:33.000Z</time>
      </trkpt>
      <trkpt lat="47.64277" lon="6.05595">
        <ele>301.5</ele>
        <time>2012-06-07T07:56:35.000Z</time>
      </trkpt>
      <trkpt lat="47.64277" lon="6.05602">
        <ele>301.6</ele>
        <time>2012-06-07T07:56:37.000Z</time>
      </trkpt>
      <trkpt lat="47.64277" lon="6.0561">
        <ele>302</ele>
        <time>2012-06-07T07:56:39.000Z</time>
      </trkpt>
      <trkpt lat="47.64277" lon="6.05618">
        <ele>302.3</ele>
        <time>2012-06-07T07:56:41.000Z</time>
      </trkpt>
      <trkpt lat="47.64276" lon="6.05626">
        <ele>302.6</ele>
        <time>2012-06-07T07:56:43.000Z</time>
      </trkpt>
      <trkpt lat="47.64276" lon="6.05634">
        <ele>302.8</ele>
        <time>2012-06-07T07:56:45.000Z</time>
      </trkpt>
      <trkpt lat="47.64275" lon="6.05642">
        <ele>303</ele>
        <time>2012-06-07T07:56:47.000Z</time>
      </trkpt>
      <trkpt lat="47.64275" lon="6.05651">
        <ele>303.2</ele>
        <time>2012-06-07T07:56:49.000Z</time>
      </trkpt>
      <trkpt lat="47.6427" lon="6.05704">
        <ele>303.4</ele>
        <time>2012-06-07T07:57:02.000Z</time>
      </trkpt>
      <trkpt lat="47.6427" lon="6.05711">
        <ele>303.4</ele>
        <time>2012-06-07T07:57:04.000Z</time>
      </trkpt>
      <trkpt lat="47.64271" lon="6.05718">
        <ele>303.9</ele>
        <time>2012-06-07T07:57:06.000Z</time>
      </trkpt>
      <trkpt lat="47.64271" lon="6.05726">
        <ele>304.7</ele>
        <time>2012-06-07T07:57:08.000Z</time>
      </trkpt>
      <trkpt lat="47.6427" lon="6.05733">
        <ele>305.4</ele>
        <time>2012-06-07T07:57:10.000Z</time>
      </trkpt>
      <trkpt lat="47.64269" lon="6.0574">
        <ele>306.3</ele>
        <time>2012-06-07T07:57:12.000Z</time>
      </trkpt>
      <trkpt lat="47.64269" lon="6.05748">
        <ele>307.3</ele>
        <time>2012-06-07T07:57:14.000Z</time>
      </trkpt>
      <trkpt lat="47.64269" lon="6.05755">
        <ele>308.3</ele>
        <time>2012-06-07T07:57:16.000Z</time>
      </trkpt>
      <trkpt lat="47.64269" lon="6.05763">
        <ele>308.8</ele>
        <time>2012-06-07T07:57:18.000Z</time>
      </trkpt>
      <trkpt lat="47.6427" lon="6.05771">
        <ele>309.3</ele>
        <time>2012-06-07T07:57:20.000Z</time>
      </trkpt>
      <trkpt lat="47.6427" lon="6.05779">
        <ele>310</ele>
        <time>2012-06-07T07:57:22.000Z</time>
      </trkpt>
      <trkpt lat="47.6427" lon="6.05787">
        <ele>310.3</ele>
        <time>2012-06-07T07:57:24.000Z</time>
      </trkpt>
      <trkpt lat="47.6427" lon="6.05794">
        <ele>310.7</ele>
        <time>2012-06-07T07:57:26.000Z</time>
      </trkpt>
      <trkpt lat="47.6427" lon="6.05803">
        <ele>311.2</ele>
        <time>2012-06-07T07:57:29.000Z</time>
      </trkpt>
      <trkpt lat="47.64271" lon="6.05811">
        <ele>311.2</ele>
        <time>2012-06-07T07:57:31.000Z</time>
      </trkpt>
      <trkpt lat="47.64271" lon="6.05818">
        <ele>310.8</ele>
        <time>2012-06-07T07:57:33.000Z</time>
      </trkpt>
      <trkpt lat="47.64272" lon="6.05826">
        <ele>310.7</ele>
        <time>2012-06-07T07:57:35.000Z</time>
      </trkpt>
      <trkpt lat="47.64272" lon="6.05832">
        <ele>310.8</ele>
        <time>2012-06-07T07:57:37.000Z</time>
      </trkpt>
      <trkpt lat="47.64272" lon="6.0584">
        <ele>310.7</ele>
        <time>2012-06-07T07:57:39.000Z</time>
      </trkpt>
      <trkpt lat="47.64272" lon="6.05847">
        <ele>310.9</ele>
        <time>2012-06-07T07:57:41.000Z</time>
      </trkpt>
      <trkpt lat="47.64272" lon="6.05854">
        <ele>311</ele>
        <time>2012-06-07T07:57:43.000Z</time>
      </trkpt>
      <trkpt lat="47.64272" lon="6.05864">
        <ele>311.1</ele>
        <time>2012-06-07T07:57:46.000Z</time>
      </trkpt>
      <trkpt lat="47.64271" lon="6.05871">
        <ele>311.1</ele>
        <time>2012-06-07T07:57:48.000Z</time>
      </trkpt>
      <trkpt lat="47.64271" lon="6.0588">
        <ele>311</ele>
        <time>2012-06-07T07:57:50.000Z</time>
      </trkpt>
      <trkpt lat="47.64272" lon="6.05887">
        <ele>310.7</ele>
        <time>2012-06-07T07:57:52.000Z</time>
      </trkpt>
      <trkpt lat="47.64271" lon="6.05894">
        <ele>310.5</ele>
        <time>2012-06-07T07:57:55.000Z</time>
      </trkpt>
      <trkpt lat="47.6427" lon="6.05904">
        <ele>310.6</ele>
        <time>2012-06-07T07:57:58.000Z</time>
      </trkpt>
      <trkpt lat="47.64269" lon="6.05911">
        <ele>310.7</ele>
        <time>2012-06-07T07:58:00.000Z</time>
      </trkpt>
      <trkpt lat="47.64268" lon="6.05918">
        <ele>310.9</ele>
        <time>2012-06-07T07:58:02.000Z</time>
      </trkpt>
      <trkpt lat="47.64266" lon="6.05925">
        <ele>311</ele>
        <time>2012-06-07T07:58:04.000Z</time>
      </trkpt>
      <trkpt lat="47.64264" lon="6.05932">
        <ele>311.1</ele>
        <time>2012-06-07T07:58:06.000Z</time>
      </trkpt>
      <trkpt lat="47.64263" lon="6.0594">
        <ele>311.2</ele>
        <time>2012-06-07T07:58:08.000Z</time>
      </trkpt>
      <trkpt lat="47.64262" lon="6.05946">
        <ele>311.5</ele>
        <time>2012-06-07T07:58:10.000Z</time>
      </trkpt>
      <trkpt lat="47.6426" lon="6.05954">
        <ele>311.7</ele>
        <time>2012-06-07T07:58:12.000Z</time>
      </trkpt>
      <trkpt lat="47.64259" lon="6.05961">
        <ele>312</ele>
        <time>2012-06-07T07:58:14.000Z</time>
      </trkpt>
      <trkpt lat="47.64257" lon="6.05968">
        <ele>312.1</ele>
        <time>2012-06-07T07:58:16.000Z</time>
      </trkpt>
      <trkpt lat="47.64255" lon="6.05974">
        <ele>312.3</ele>
        <time>2012-06-07T07:58:18.000Z</time>
      </trkpt>
      <trkpt lat="47.64253" lon="6.05982">
        <ele>312.4</ele>
        <time>2012-06-07T07:58:20.000Z</time>
      </trkpt>
      <trkpt lat="47.64252" lon="6.05988">
        <ele>312.6</ele>
        <time>2012-06-07T07:58:22.000Z</time>
      </trkpt>
      <trkpt lat="47.6425" lon="6.05995">
        <ele>312.5</ele>
        <time>2012-06-07T07:58:24.000Z</time>
      </trkpt>
      <trkpt lat="47.64249" lon="6.06001">
        <ele>312.7</ele>
        <time>2012-06-07T07:58:26.000Z</time>
      </trkpt>
      <trkpt lat="47.64247" lon="6.06008">
        <ele>312.7</ele>
        <time>2012-06-07T07:58:28.000Z</time>
      </trkpt>
      <trkpt lat="47.64246" lon="6.06015">
        <ele>312.8</ele>
        <time>2012-06-07T07:58:30.000Z</time>
      </trkpt>
      <trkpt lat="47.64244" lon="6.06021">
        <ele>312.8</ele>
        <time>2012-06-07T07:58:32.000Z</time>
      </trkpt>
      <trkpt lat="47.64241" lon="6.0603">
        <ele>313.1</ele>
        <time>2012-06-07T07:58:35.000Z</time>
      </trkpt>
      <trkpt lat="47.64238" lon="6.06039">
        <ele>313.5</ele>
        <time>2012-06-07T07:58:38.000Z</time>
      </trkpt>
      <trkpt lat="47.64236" lon="6.06045">
        <ele>313.5</ele>
        <time>2012-06-07T07:58:40.000Z</time>
      </trkpt>
      <trkpt lat="47.64233" lon="6.06051">
        <ele>314</ele>
        <time>2012-06-07T07:58:42.000Z</time>
      </trkpt>
      <trkpt lat="47.64231" lon="6.06057">
        <ele>314</ele>
        <time>2012-06-07T07:58:44.000Z</time>
      </trkpt>
      <trkpt lat="47.64229" lon="6.06064">
        <ele>314</ele>
        <time>2012-06-07T07:58:46.000Z</time>
      </trkpt>
      <trkpt lat="47.64226" lon="6.06071">
        <ele>314.2</ele>
        <time>2012-06-07T07:58:49.000Z</time>
      </trkpt>
      <trkpt lat="47.64223" lon="6.06077">
        <ele>314.1</ele>
        <time>2012-06-07T07:58:51.000Z</time>
      </trkpt>
      <trkpt lat="47.64221" lon="6.06083">
        <ele>314.1</ele>
        <time>2012-06-07T07:58:53.000Z</time>
      </trkpt>
      <trkpt lat="47.64218" lon="6.06089">
        <ele>314.2</ele>
        <time>2012-06-07T07:58:55.000Z</time>
      </trkpt>
      <trkpt lat="47.64215" lon="6.06098">
        <ele>314.4</ele>
        <time>2012-06-07T07:58:58.000Z</time>
      </trkpt>
      <trkpt lat="47.64213" lon="6.06104">
        <ele>314.5</ele>
        <time>2012-06-07T07:59:00.000Z</time>
      </trkpt>
      <trkpt lat="47.6421" lon="6.06109">
        <ele>314.6</ele>
        <time>2012-06-07T07:59:02.000Z</time>
      </trkpt>
      <trkpt lat="47.64208" lon="6.06115">
        <ele>314.6</ele>
        <time>2012-06-07T07:59:04.000Z</time>
      </trkpt>
      <trkpt lat="47.64203" lon="6.06122">
        <ele>314.8</ele>
        <time>2012-06-07T07:59:07.000Z</time>
      </trkpt>
      <trkpt lat="47.64199" lon="6.06125">
        <ele>315.6</ele>
        <time>2012-06-07T07:59:10.000Z</time>
      </trkpt>
      <trkpt lat="47.64193" lon="6.06122">
        <ele>316.3</ele>
        <time>2012-06-07T07:59:14.000Z</time>
      </trkpt>
      <trkpt lat="47.64188" lon="6.06117">
        <ele>316.8</ele>
        <time>2012-06-07T07:59:17.000Z</time>
      </trkpt>
      <trkpt lat="47.64184" lon="6.0611">
        <ele>317.3</ele>
        <time>2012-06-07T07:59:20.000Z</time>
      </trkpt>
      <trkpt lat="47.64184" lon="6.06101">
        <ele>317.2</ele>
        <time>2012-06-07T07:59:22.000Z</time>
      </trkpt>
      <trkpt lat="47.64179" lon="6.06098">
        <ele>317.2</ele>
        <time>2012-06-07T07:59:24.000Z</time>
      </trkpt>
      <trkpt lat="47.64176" lon="6.06092">
        <ele>317.1</ele>
        <time>2012-06-07T07:59:26.000Z</time>
      </trkpt>
      <trkpt lat="47.64172" lon="6.06086">
        <ele>317.3</ele>
        <time>2012-06-07T07:59:28.000Z</time>
      </trkpt>
      <trkpt lat="47.64169" lon="6.06079">
        <ele>317.6</ele>
        <time>2012-06-07T07:59:30.000Z</time>
      </trkpt>
      <trkpt lat="47.64165" lon="6.06072">
        <ele>317.7</ele>
        <time>2012-06-07T07:59:32.000Z</time>
      </trkpt>
      <trkpt lat="47.64161" lon="6.06066">
        <ele>317.7</ele>
        <time>2012-06-07T07:59:34.000Z</time>
      </trkpt>
      <trkpt lat="47.64156" lon="6.06059">
        <ele>317.9</ele>
        <time>2012-06-07T07:59:36.000Z</time>
      </trkpt>
      <trkpt lat="47.64152" lon="6.06052">
        <ele>318</ele>
        <time>2012-06-07T07:59:38.000Z</time>
      </trkpt>
      <trkpt lat="47.64147" lon="6.06046">
        <ele>318.2</ele>
        <time>2012-06-07T07:59:40.000Z</time>
      </trkpt>
      <trkpt lat="47.64143" lon="6.0604">
        <ele>318.5</ele>
        <time>2012-06-07T07:59:42.000Z</time>
      </trkpt>
      <trkpt lat="47.64138" lon="6.06033">
        <ele>318.8</ele>
        <time>2012-06-07T07:59:44.000Z</time>
      </trkpt>
      <trkpt lat="47.64134" lon="6.06027">
        <ele>319</ele>
        <time>2012-06-07T07:59:46.000Z</time>
      </trkpt>
      <trkpt lat="47.6413" lon="6.06021">
        <ele>319.1</ele>
        <time>2012-06-07T07:59:48.000Z</time>
      </trkpt>
      <trkpt lat="47.64126" lon="6.06015">
        <ele>319.3</ele>
        <time>2012-06-07T07:59:50.000Z</time>
      </trkpt>
      <trkpt lat="47.64109" lon="6.05992">
        <ele>328.8</ele>
        <time>2012-06-07T08:00:00.000Z</time>
      </trkpt>
      <trkpt lat="47.64106" lon="6.05984">
        <ele>323.5</ele>
        <time>2012-06-07T08:00:02.000Z</time>
      </trkpt>
      <trkpt lat="47.64103" lon="6.05978">
        <ele>322.2</ele>
        <time>2012-06-07T08:00:04.000Z</time>
      </trkpt>
      <trkpt lat="47.641" lon="6.05973">
        <ele>322.6</ele>
        <time>2012-06-07T08:00:06.000Z</time>
      </trkpt>
      <trkpt lat="47.64096" lon="6.05968">
        <ele>323.9</ele>
        <time>2012-06-07T08:00:08.000Z</time>
      </trkpt>
      <trkpt lat="47.64092" lon="6.05963">
        <ele>323.8</ele>
        <time>2012-06-07T08:00:10.000Z</time>
      </trkpt>
      <trkpt lat="47.64088" lon="6.05958">
        <ele>324.6</ele>
        <time>2012-06-07T08:00:12.000Z</time>
      </trkpt>
      <trkpt lat="47.64084" lon="6.05952">
        <ele>324.3</ele>
        <time>2012-06-07T08:00:14.000Z</time>
      </trkpt>
      <trkpt lat="47.6408" lon="6.05946">
        <ele>324.5</ele>
        <time>2012-06-07T08:00:16.000Z</time>
      </trkpt>
      <trkpt lat="47.64077" lon="6.05938">
        <ele>324.2</ele>
        <time>2012-06-07T08:00:18.000Z</time>
      </trkpt>
      <trkpt lat="47.64073" lon="6.05932">
        <ele>324.3</ele>
        <time>2012-06-07T08:00:20.000Z</time>
      </trkpt>
      <trkpt lat="47.64068" lon="6.05927">
        <ele>324.7</ele>
        <time>2012-06-07T08:00:22.000Z</time>
      </trkpt>
      <trkpt lat="47.64064" lon="6.05922">
        <ele>325.3</ele>
        <time>2012-06-07T08:00:24.000Z</time>
      </trkpt>
      <trkpt lat="47.6406" lon="6.05915">
        <ele>325.4</ele>
        <time>2012-06-07T08:00:26.000Z</time>
      </trkpt>
      <trkpt lat="47.64056" lon="6.05908">
        <ele>324.9</ele>
        <time>2012-06-07T08:00:28.000Z</time>
      </trkpt>
      <trkpt lat="47.64052" lon="6.059">
        <ele>324.2</ele>
        <time>2012-06-07T08:00:30.000Z</time>
      </trkpt>
      <trkpt lat="47.64048" lon="6.05891">
        <ele>322.9</ele>
        <time>2012-06-07T08:00:32.000Z</time>
      </trkpt>
      <trkpt lat="47.64044" lon="6.05882">
        <ele>322.3</ele>
        <time>2012-06-07T08:00:34.000Z</time>
      </trkpt>
      <trkpt lat="47.64041" lon="6.05873">
        <ele>321.7</ele>
        <time>2012-06-07T08:00:36.000Z</time>
      </trkpt>
      <trkpt lat="47.64038" lon="6.05862">
        <ele>320.9</ele>
        <time>2012-06-07T08:00:38.000Z</time>
      </trkpt>
      <trkpt lat="47.64035" lon="6.0585">
        <ele>320.3</ele>
        <time>2012-06-07T08:00:40.000Z</time>
      </trkpt>
      <trkpt lat="47.64034" lon="6.05843">
        <ele>319.9</ele>
        <time>2012-06-07T08:00:41.000Z</time>
      </trkpt>
      <trkpt lat="47.64033" lon="6.05837">
        <ele>319.6</ele>
        <time>2012-06-07T08:00:42.000Z</time>
      </trkpt>
      <trkpt lat="47.6403" lon="6.05824">
        <ele>317.6</ele>
        <time>2012-06-07T08:00:44.000Z</time>
      </trkpt>
      <trkpt lat="47.64027" lon="6.05812">
        <ele>316.9</ele>
        <time>2012-06-07T08:00:46.000Z</time>
      </trkpt>
      <trkpt lat="47.64023" lon="6.05801">
        <ele>316.3</ele>
        <time>2012-06-07T08:00:48.000Z</time>
      </trkpt>
      <trkpt lat="47.64022" lon="6.05794">
        <ele>315.9</ele>
        <time>2012-06-07T08:00:49.000Z</time>
      </trkpt>
      <trkpt lat="47.64022" lon="6.05787">
        <ele>315.6</ele>
        <time>2012-06-07T08:00:50.000Z</time>
      </trkpt>
      <trkpt lat="47.6402" lon="6.0578">
        <ele>315.4</ele>
        <time>2012-06-07T08:00:51.000Z</time>
      </trkpt>
      <trkpt lat="47.64018" lon="6.05773">
        <ele>315.3</ele>
        <time>2012-06-07T08:00:52.000Z</time>
      </trkpt>
      <trkpt lat="47.64014" lon="6.05762">
        <ele>315.4</ele>
        <time>2012-06-07T08:00:54.000Z</time>
      </trkpt>
      <trkpt lat="47.64011" lon="6.0575">
        <ele>315.5</ele>
        <time>2012-06-07T08:00:56.000Z</time>
      </trkpt>
      <trkpt lat="47.6401" lon="6.05743">
        <ele>315.5</ele>
        <time>2012-06-07T08:00:57.000Z</time>
      </trkpt>
      <trkpt lat="47.64009" lon="6.05736">
        <ele>315.5</ele>
        <time>2012-06-07T08:00:58.000Z</time>
      </trkpt>
      <trkpt lat="47.64008" lon="6.0573">
        <ele>315.3</ele>
        <time>2012-06-07T08:00:59.000Z</time>
      </trkpt>
      <trkpt lat="47.64005" lon="6.05719">
        <ele>315.4</ele>
        <time>2012-06-07T08:01:01.000Z</time>
      </trkpt>
      <trkpt lat="47.64004" lon="6.05708">
        <ele>315.5</ele>
        <time>2012-06-07T08:01:03.000Z</time>
      </trkpt>
      <trkpt lat="47.64002" lon="6.05698">
        <ele>315.6</ele>
        <time>2012-06-07T08:01:05.000Z</time>
      </trkpt>
      <trkpt lat="47.63999" lon="6.05689">
        <ele>315.9</ele>
        <time>2012-06-07T08:01:07.000Z</time>
      </trkpt>
      <trkpt lat="47.63997" lon="6.05681">
        <ele>316.2</ele>
        <time>2012-06-07T08:01:09.000Z</time>
      </trkpt>
      <trkpt lat="47.63995" lon="6.05673">
        <ele>316.3</ele>
        <time>2012-06-07T08:01:11.000Z</time>
      </trkpt>
      <trkpt lat="47.63992" lon="6.05666">
        <ele>316.5</ele>
        <time>2012-06-07T08:01:13.000Z</time>
      </trkpt>
      <trkpt lat="47.6399" lon="6.05658">
        <ele>316.7</ele>
        <time>2012-06-07T08:01:15.000Z</time>
      </trkpt>
      <trkpt lat="47.63988" lon="6.05652">
        <ele>317</ele>
        <time>2012-06-07T08:01:17.000Z</time>
      </trkpt>
      <trkpt lat="47.63986" lon="6.05645">
        <ele>317.3</ele>
        <time>2012-06-07T08:01:19.000Z</time>
      </trkpt>
      <trkpt lat="47.63984" lon="6.05635">
        <ele>317.2</ele>
        <time>2012-06-07T08:01:21.000Z</time>
      </trkpt>
      <trkpt lat="47.63983" lon="6.05627">
        <ele>317.2</ele>
        <time>2012-06-07T08:01:23.000Z</time>
      </trkpt>
      <trkpt lat="47.63981" lon="6.05618">
        <ele>317.2</ele>
        <time>2012-06-07T08:01:25.000Z</time>
      </trkpt>
      <trkpt lat="47.63979" lon="6.0561">
        <ele>317.3</ele>
        <time>2012-06-07T08:01:27.000Z</time>
      </trkpt>
      <trkpt lat="47.63977" lon="6.05601">
        <ele>317.5</ele>
        <time>2012-06-07T08:01:29.000Z</time>
      </trkpt>
      <trkpt lat="47.63976" lon="6.05591">
        <ele>317.5</ele>
        <time>2012-06-07T08:01:31.000Z</time>
      </trkpt>
      <trkpt lat="47.63974" lon="6.05583">
        <ele>317.7</ele>
        <time>2012-06-07T08:01:33.000Z</time>
      </trkpt>
      <trkpt lat="47.63972" lon="6.05575">
        <ele>317.8</ele>
        <time>2012-06-07T08:01:35.000Z</time>
      </trkpt>
      <trkpt lat="47.6397" lon="6.05567">
        <ele>318</ele>
        <time>2012-06-07T08:01:37.000Z</time>
      </trkpt>
      <trkpt lat="47.63968" lon="6.05559">
        <ele>318</ele>
        <time>2012-06-07T08:01:39.000Z</time>
      </trkpt>
      <trkpt lat="47.63967" lon="6.05551">
        <ele>317.9</ele>
        <time>2012-06-07T08:01:41.000Z</time>
      </trkpt>
      <trkpt lat="47.63965" lon="6.05543">
        <ele>318</ele>
        <time>2012-06-07T08:01:43.000Z</time>
      </trkpt>
      <trkpt lat="47.63963" lon="6.05535">
        <ele>318.3</ele>
        <time>2012-06-07T08:01:45.000Z</time>
      </trkpt>
      <trkpt lat="47.63961" lon="6.05528">
        <ele>318.7</ele>
        <time>2012-06-07T08:01:47.000Z</time>
      </trkpt>
      <trkpt lat="47.63959" lon="6.0552">
        <ele>318.9</ele>
        <time>2012-06-07T08:01:49.000Z</time>
      </trkpt>
      <trkpt lat="47.63957" lon="6.05511">
        <ele>318.8</ele>
        <time>2012-06-07T08:01:51.000Z</time>
      </trkpt>
      <trkpt lat="47.63955" lon="6.05504">
        <ele>319</ele>
        <time>2012-06-07T08:01:53.000Z</time>
      </trkpt>
      <trkpt lat="47.63953" lon="6.05498">
        <ele>319.1</ele>
        <time>2012-06-07T08:01:55.000Z</time>
      </trkpt>
      <trkpt lat="47.63951" lon="6.05491">
        <ele>319.2</ele>
        <time>2012-06-07T08:01:57.000Z</time>
      </trkpt>
      <trkpt lat="47.6395" lon="6.05483">
        <ele>319.2</ele>
        <time>2012-06-07T08:01:59.000Z</time>
      </trkpt>
      <trkpt lat="47.63948" lon="6.05475">
        <ele>319.4</ele>
        <time>2012-06-07T08:02:01.000Z</time>
      </trkpt>
      <trkpt lat="47.63949" lon="6.05464">
        <ele>319.4</ele>
        <time>2012-06-07T08:02:03.000Z</time>
      </trkpt>
      <trkpt lat="47.63952" lon="6.05454">
        <ele>319.6</ele>
        <time>2012-06-07T08:02:05.000Z</time>
      </trkpt>
      <trkpt lat="47.63957" lon="6.05446">
        <ele>319.6</ele>
        <time>2012-06-07T08:02:07.000Z</time>
      </trkpt>
      <trkpt lat="47.63963" lon="6.05439">
        <ele>319.5</ele>
        <time>2012-06-07T08:02:09.000Z</time>
      </trkpt>
      <trkpt lat="47.63968" lon="6.05429">
        <ele>319.2</ele>
        <time>2012-06-07T08:02:11.000Z</time>
      </trkpt>
      <trkpt lat="47.63972" lon="6.05417">
        <ele>319</ele>
        <time>2012-06-07T08:02:13.000Z</time>
      </trkpt>
      <trkpt lat="47.63973" lon="6.05409">
        <ele>319</ele>
        <time>2012-06-07T08:02:14.000Z</time>
      </trkpt>
      <trkpt lat="47.63973" lon="6.05402">
        <ele>319</ele>
        <time>2012-06-07T08:02:15.000Z</time>
      </trkpt>
      <trkpt lat="47.63972" lon="6.05395">
        <ele>318.9</ele>
        <time>2012-06-07T08:02:16.000Z</time>
      </trkpt>
      <trkpt lat="47.6397" lon="6.05389">
        <ele>318.8</ele>
        <time>2012-06-07T08:02:17.000Z</time>
      </trkpt>
      <trkpt lat="47.63969" lon="6.05383">
        <ele>318.8</ele>
        <time>2012-06-07T08:02:18.000Z</time>
      </trkpt>
      <trkpt lat="47.63967" lon="6.05377">
        <ele>318.8</ele>
        <time>2012-06-07T08:02:19.000Z</time>
      </trkpt>
      <trkpt lat="47.63964" lon="6.0537">
        <ele>318.7</ele>
        <time>2012-06-07T08:02:20.000Z</time>
      </trkpt>
      <trkpt lat="47.63962" lon="6.05364">
        <ele>318.6</ele>
        <time>2012-06-07T08:02:21.000Z</time>
      </trkpt>
      <trkpt lat="47.63961" lon="6.05348">
        <ele>318.1</ele>
        <time>2012-06-07T08:02:23.000Z</time>
      </trkpt>
      <trkpt lat="47.63961" lon="6.05337">
        <ele>317.5</ele>
        <time>2012-06-07T08:02:24.000Z</time>
      </trkpt>
      <trkpt lat="47.63961" lon="6.05328">
        <ele>317.2</ele>
        <time>2012-06-07T08:02:25.000Z</time>
      </trkpt>
      <trkpt lat="47.63962" lon="6.0532">
        <ele>317</ele>
        <time>2012-06-07T08:02:26.000Z</time>
      </trkpt>
      <trkpt lat="47.63962" lon="6.05312">
        <ele>316.9</ele>
        <time>2012-06-07T08:02:27.000Z</time>
      </trkpt>
      <trkpt lat="47.63961" lon="6.05304">
        <ele>316.8</ele>
        <time>2012-06-07T08:02:28.000Z</time>
      </trkpt>
      <trkpt lat="47.6396" lon="6.05297">
        <ele>316.9</ele>
        <time>2012-06-07T08:02:29.000Z</time>
      </trkpt>
      <trkpt lat="47.6396" lon="6.0529">
        <ele>317</ele>
        <time>2012-06-07T08:02:30.000Z</time>
      </trkpt>
      <trkpt lat="47.63959" lon="6.05283">
        <ele>317</ele>
        <time>2012-06-07T08:02:31.000Z</time>
      </trkpt>
      <trkpt lat="47.63958" lon="6.05275">
        <ele>317.1</ele>
        <time>2012-06-07T08:02:32.000Z</time>
      </trkpt>
      <trkpt lat="47.63957" lon="6.05268">
        <ele>317.1</ele>
        <time>2012-06-07T08:02:33.000Z</time>
      </trkpt>
      <trkpt lat="47.63956" lon="6.0526">
        <ele>317.1</ele>
        <time>2012-06-07T08:02:34.000Z</time>
      </trkpt>
      <trkpt lat="47.63955" lon="6.05252">
        <ele>317.1</ele>
        <time>2012-06-07T08:02:35.000Z</time>
      </trkpt>
      <trkpt lat="47.63954" lon="6.05246">
        <ele>317.2</ele>
        <time>2012-06-07T08:02:36.000Z</time>
      </trkpt>
      <trkpt lat="47.63953" lon="6.05233">
        <ele>317.3</ele>
        <time>2012-06-07T08:02:38.000Z</time>
      </trkpt>
      <trkpt lat="47.63952" lon="6.05226">
        <ele>317.3</ele>
        <time>2012-06-07T08:02:39.000Z</time>
      </trkpt>
      <trkpt lat="47.63951" lon="6.05219">
        <ele>317.3</ele>
        <time>2012-06-07T08:02:40.000Z</time>
      </trkpt>
      <trkpt lat="47.6395" lon="6.05212">
        <ele>317.4</ele>
        <time>2012-06-07T08:02:41.000Z</time>
      </trkpt>
      <trkpt lat="47.63946" lon="6.05201">
        <ele>317.4</ele>
        <time>2012-06-07T08:02:43.000Z</time>
      </trkpt>
      <trkpt lat="47.63938" lon="6.05195">
        <ele>317.5</ele>
        <time>2012-06-07T08:02:45.000Z</time>
      </trkpt>
      <trkpt lat="47.63932" lon="6.05194">
        <ele>317.5</ele>
        <time>2012-06-07T08:02:46.000Z</time>
      </trkpt>
      <trkpt lat="47.63927" lon="6.05193">
        <ele>317.6</ele>
        <time>2012-06-07T08:02:47.000Z</time>
      </trkpt>
      <trkpt lat="47.63922" lon="6.05192">
        <ele>317.6</ele>
        <time>2012-06-07T08:02:48.000Z</time>
      </trkpt>
      <trkpt lat="47.63918" lon="6.0519">
        <ele>317.5</ele>
        <time>2012-06-07T08:02:49.000Z</time>
      </trkpt>
      <trkpt lat="47.63911" lon="6.05188">
        <ele>317.4</ele>
        <time>2012-06-07T08:02:51.000Z</time>
      </trkpt>
      <trkpt lat="47.63906" lon="6.05186">
        <ele>317.5</ele>
        <time>2012-06-07T08:02:53.000Z</time>
      </trkpt>
      <trkpt lat="47.639" lon="6.05183">
        <ele>317.4</ele>
        <time>2012-06-07T08:02:55.000Z</time>
      </trkpt>
      <trkpt lat="47.63895" lon="6.0518">
        <ele>317.4</ele>
        <time>2012-06-07T08:02:57.000Z</time>
      </trkpt>
      <trkpt lat="47.63889" lon="6.0518">
        <ele>317.6</ele>
        <time>2012-06-07T08:03:00.000Z</time>
      </trkpt>
      <trkpt lat="47.63884" lon="6.05181">
        <ele>317.7</ele>
        <time>2012-06-07T08:03:02.000Z</time>
      </trkpt>
      <trkpt lat="47.63878" lon="6.05181">
        <ele>317.7</ele>
        <time>2012-06-07T08:03:04.000Z</time>
      </trkpt>
      <trkpt lat="47.63872" lon="6.05181">
        <ele>317.7</ele>
        <time>2012-06-07T08:03:06.000Z</time>
      </trkpt>
      <trkpt lat="47.63868" lon="6.05178">
        <ele>317.8</ele>
        <time>2012-06-07T08:03:08.000Z</time>
      </trkpt>
      <trkpt lat="47.63863" lon="6.05175">
        <ele>318.2</ele>
        <time>2012-06-07T08:03:10.000Z</time>
      </trkpt>
      <trkpt lat="47.6386" lon="6.0517">
        <ele>318.4</ele>
        <time>2012-06-07T08:03:12.000Z</time>
      </trkpt>
      <trkpt lat="47.63853" lon="6.05166">
        <ele>318.4</ele>
        <time>2012-06-07T08:03:14.000Z</time>
      </trkpt>
      <trkpt lat="47.63847" lon="6.05161">
        <ele>318.5</ele>
        <time>2012-06-07T08:03:16.000Z</time>
      </trkpt>
      <trkpt lat="47.63843" lon="6.05158">
        <ele>318.3</ele>
        <time>2012-06-07T08:03:17.000Z</time>
      </trkpt>
      <trkpt lat="47.6384" lon="6.05154">
        <ele>318.2</ele>
        <time>2012-06-07T08:03:18.000Z</time>
      </trkpt>
      <trkpt lat="47.63836" lon="6.0515">
        <ele>318.2</ele>
        <time>2012-06-07T08:03:19.000Z</time>
      </trkpt>
      <trkpt lat="47.63832" lon="6.05141">
        <ele>318.1</ele>
        <time>2012-06-07T08:03:21.000Z</time>
      </trkpt>
      <trkpt lat="47.63828" lon="6.05135">
        <ele>318.3</ele>
        <time>2012-06-07T08:03:23.000Z</time>
      </trkpt>
      <trkpt lat="47.63823" lon="6.05128">
        <ele>318.5</ele>
        <time>2012-06-07T08:03:25.000Z</time>
      </trkpt>
      <trkpt lat="47.63818" lon="6.05122">
        <ele>318.4</ele>
        <time>2012-06-07T08:03:27.000Z</time>
      </trkpt>
      <trkpt lat="47.63813" lon="6.05117">
        <ele>318.7</ele>
        <time>2012-06-07T08:03:29.000Z</time>
      </trkpt>
      <trkpt lat="47.63808" lon="6.05112">
        <ele>318.6</ele>
        <time>2012-06-07T08:03:31.000Z</time>
      </trkpt>
      <trkpt lat="47.63802" lon="6.05111">
        <ele>318.7</ele>
        <time>2012-06-07T08:03:33.000Z</time>
      </trkpt>
      <trkpt lat="47.63795" lon="6.0511">
        <ele>318.9</ele>
        <time>2012-06-07T08:03:36.000Z</time>
      </trkpt>
      <trkpt lat="47.63789" lon="6.05109">
        <ele>319</ele>
        <time>2012-06-07T08:03:38.000Z</time>
      </trkpt>
      <trkpt lat="47.63784" lon="6.05107">
        <ele>319.1</ele>
        <time>2012-06-07T08:03:40.000Z</time>
      </trkpt>
      <trkpt lat="47.63778" lon="6.05102">
        <ele>319.2</ele>
        <time>2012-06-07T08:03:42.000Z</time>
      </trkpt>
      <trkpt lat="47.63771" lon="6.05099">
        <ele>319.3</ele>
        <time>2012-06-07T08:03:44.000Z</time>
      </trkpt>
      <trkpt lat="47.63764" lon="6.05098">
        <ele>319.2</ele>
        <time>2012-06-07T08:03:46.000Z</time>
      </trkpt>
      <trkpt lat="47.63757" lon="6.05096">
        <ele>319.2</ele>
        <time>2012-06-07T08:03:48.000Z</time>
      </trkpt>
      <trkpt lat="47.63752" lon="6.05094">
        <ele>319</ele>
        <time>2012-06-07T08:03:50.000Z</time>
      </trkpt>
      <trkpt lat="47.6374" lon="6.05089">
        <ele>320.9</ele>
        <time>2012-06-07T08:03:58.000Z</time>
      </trkpt>
      <trkpt lat="47.63738" lon="6.05098">
        <ele>315.6</ele>
        <time>2012-06-07T08:04:00.000Z</time>
      </trkpt>
      <trkpt lat="47.63735" lon="6.05104">
        <ele>315</ele>
        <time>2012-06-07T08:04:02.000Z</time>
      </trkpt>
      <trkpt lat="47.63731" lon="6.0511">
        <ele>318.4</ele>
        <time>2012-06-07T08:04:04.000Z</time>
      </trkpt>
      <trkpt lat="47.63724" lon="6.05115">
        <ele>321</ele>
        <time>2012-06-07T08:04:06.000Z</time>
      </trkpt>
      <trkpt lat="47.63716" lon="6.05119">
        <ele>328.3</ele>
        <time>2012-06-07T08:04:08.000Z</time>
      </trkpt>
      <trkpt lat="47.63712" lon="6.05122">
        <ele>330</ele>
        <time>2012-06-07T08:04:09.000Z</time>
      </trkpt>
      <trkpt lat="47.63707" lon="6.05127">
        <ele>329.1</ele>
        <time>2012-06-07T08:04:10.000Z</time>
      </trkpt>
      <trkpt lat="47.63703" lon="6.05132">
        <ele>328.5</ele>
        <time>2012-06-07T08:04:11.000Z</time>
      </trkpt>
      <trkpt lat="47.63698" lon="6.05135">
        <ele>326.9</ele>
        <time>2012-06-07T08:04:12.000Z</time>
      </trkpt>
      <trkpt lat="47.63694" lon="6.0514">
        <ele>325.4</ele>
        <time>2012-06-07T08:04:13.000Z</time>
      </trkpt>
      <trkpt lat="47.6369" lon="6.05144">
        <ele>325.1</ele>
        <time>2012-06-07T08:04:14.000Z</time>
      </trkpt>
      <trkpt lat="47.63683" lon="6.05153">
        <ele>327.6</ele>
        <time>2012-06-07T08:04:16.000Z</time>
      </trkpt>
      <trkpt lat="47.63678" lon="6.05162">
        <ele>329.9</ele>
        <time>2012-06-07T08:04:18.000Z</time>
      </trkpt>
      <trkpt lat="47.63676" lon="6.05168">
        <ele>331.4</ele>
        <time>2012-06-07T08:04:19.000Z</time>
      </trkpt>
      <trkpt lat="47.63675" lon="6.05175">
        <ele>333.3</ele>
        <time>2012-06-07T08:04:20.000Z</time>
      </trkpt>
      <trkpt lat="47.63672" lon="6.05181">
        <ele>335.1</ele>
        <time>2012-06-07T08:04:21.000Z</time>
      </trkpt>
      <trkpt lat="47.63669" lon="6.05192">
        <ele>335.2</ele>
        <time>2012-06-07T08:04:23.000Z</time>
      </trkpt>
      <trkpt lat="47.63665" lon="6.05205">
        <ele>333.1</ele>
        <time>2012-06-07T08:04:25.000Z</time>
      </trkpt>
      <trkpt lat="47.63662" lon="6.05217">
        <ele>331.5</ele>
        <time>2012-06-07T08:04:27.000Z</time>
      </trkpt>
      <trkpt lat="47.63661" lon="6.05223">
        <ele>331.2</ele>
        <time>2012-06-07T08:04:28.000Z</time>
      </trkpt>
      <trkpt lat="47.63658" lon="6.05235">
        <ele>330.7</ele>
        <time>2012-06-07T08:04:30.000Z</time>
      </trkpt>
      <trkpt lat="47.63656" lon="6.05246">
        <ele>329.5</ele>
        <time>2012-06-07T08:04:32.000Z</time>
      </trkpt>
      <trkpt lat="47.63655" lon="6.05255">
        <ele>328.9</ele>
        <time>2012-06-07T08:04:34.000Z</time>
      </trkpt>
      <trkpt lat="47.63654" lon="6.05263">
        <ele>328.9</ele>
        <time>2012-06-07T08:04:36.000Z</time>
      </trkpt>
      <trkpt lat="47.63651" lon="6.05271">
        <ele>328.9</ele>
        <time>2012-06-07T08:04:38.000Z</time>
      </trkpt>
      <trkpt lat="47.63649" lon="6.0528">
        <ele>329.4</ele>
        <time>2012-06-07T08:04:40.000Z</time>
      </trkpt>
      <trkpt lat="47.63648" lon="6.05289">
        <ele>329.2</ele>
        <time>2012-06-07T08:04:42.000Z</time>
      </trkpt>
      <trkpt lat="47.63647" lon="6.053">
        <ele>328.2</ele>
        <time>2012-06-07T08:04:44.000Z</time>
      </trkpt>
      <trkpt lat="47.63646" lon="6.0531">
        <ele>327.3</ele>
        <time>2012-06-07T08:04:46.000Z</time>
      </trkpt>
      <trkpt lat="47.63645" lon="6.05318">
        <ele>327.2</ele>
        <time>2012-06-07T08:04:48.000Z</time>
      </trkpt>
      <trkpt lat="47.63645" lon="6.05328">
        <ele>325.5</ele>
        <time>2012-06-07T08:04:50.000Z</time>
      </trkpt>
      <trkpt lat="47.63646" lon="6.05338">
        <ele>324.1</ele>
        <time>2012-06-07T08:04:52.000Z</time>
      </trkpt>
      <trkpt lat="47.63648" lon="6.05347">
        <ele>322.9</ele>
        <time>2012-06-07T08:04:54.000Z</time>
      </trkpt>
      <trkpt lat="47.63649" lon="6.05356">
        <ele>321.3</ele>
        <time>2012-06-07T08:04:57.000Z</time>
      </trkpt>
      <trkpt lat="47.6365" lon="6.05363">
        <ele>320.8</ele>
        <time>2012-06-07T08:04:59.000Z</time>
      </trkpt>
      <trkpt lat="47.63652" lon="6.05371">
        <ele>320.1</ele>
        <time>2012-06-07T08:05:01.000Z</time>
      </trkpt>
      <trkpt lat="47.63652" lon="6.05379">
        <ele>319</ele>
        <time>2012-06-07T08:05:03.000Z</time>
      </trkpt>
      <trkpt lat="47.63652" lon="6.05388">
        <ele>318.7</ele>
        <time>2012-06-07T08:05:05.000Z</time>
      </trkpt>
      <trkpt lat="47.63653" lon="6.05397">
        <ele>318.9</ele>
        <time>2012-06-07T08:05:08.000Z</time>
      </trkpt>
      <trkpt lat="47.63653" lon="6.05403">
        <ele>318.7</ele>
        <time>2012-06-07T08:05:10.000Z</time>
      </trkpt>
      <trkpt lat="47.63652" lon="6.05411">
        <ele>318.5</ele>
        <time>2012-06-07T08:05:12.000Z</time>
      </trkpt>
      <trkpt lat="47.63652" lon="6.0542">
        <ele>318.4</ele>
        <time>2012-06-07T08:05:14.000Z</time>
      </trkpt>
      <trkpt lat="47.63651" lon="6.0543">
        <ele>318.2</ele>
        <time>2012-06-07T08:05:16.000Z</time>
      </trkpt>
      <trkpt lat="47.63651" lon="6.05439">
        <ele>318.2</ele>
        <time>2012-06-07T08:05:18.000Z</time>
      </trkpt>
      <trkpt lat="47.6365" lon="6.0545">
        <ele>317.9</ele>
        <time>2012-06-07T08:05:20.000Z</time>
      </trkpt>
      <trkpt lat="47.6365" lon="6.05465">
        <ele>318</ele>
        <time>2012-06-07T08:05:22.000Z</time>
      </trkpt>
      <trkpt lat="47.63649" lon="6.05472">
        <ele>318</ele>
        <time>2012-06-07T08:05:23.000Z</time>
      </trkpt>
      <trkpt lat="47.63647" lon="6.0548">
        <ele>317.9</ele>
        <time>2012-06-07T08:05:24.000Z</time>
      </trkpt>
      <trkpt lat="47.63647" lon="6.05488">
        <ele>317.7</ele>
        <time>2012-06-07T08:05:25.000Z</time>
      </trkpt>
      <trkpt lat="47.63646" lon="6.05497">
        <ele>317.5</ele>
        <time>2012-06-07T08:05:26.000Z</time>
      </trkpt>
      <trkpt lat="47.63645" lon="6.05505">
        <ele>317.3</ele>
        <time>2012-06-07T08:05:27.000Z</time>
      </trkpt>
      <trkpt lat="47.63644" lon="6.05514">
        <ele>317.1</ele>
        <time>2012-06-07T08:05:28.000Z</time>
      </trkpt>
      <trkpt lat="47.63643" lon="6.05522">
        <ele>317</ele>
        <time>2012-06-07T08:05:29.000Z</time>
      </trkpt>
      <trkpt lat="47.63642" lon="6.0553">
        <ele>316.9</ele>
        <time>2012-06-07T08:05:30.000Z</time>
      </trkpt>
      <trkpt lat="47.63641" lon="6.05538">
        <ele>316.8</ele>
        <time>2012-06-07T08:05:31.000Z</time>
      </trkpt>
      <trkpt lat="47.63639" lon="6.05546">
        <ele>316.8</ele>
        <time>2012-06-07T08:05:32.000Z</time>
      </trkpt>
      <trkpt lat="47.63638" lon="6.05554">
        <ele>316.7</ele>
        <time>2012-06-07T08:05:33.000Z</time>
      </trkpt>
      <trkpt lat="47.63636" lon="6.05562">
        <ele>316.7</ele>
        <time>2012-06-07T08:05:34.000Z</time>
      </trkpt>
      <trkpt lat="47.63634" lon="6.0557">
        <ele>316.5</ele>
        <time>2012-06-07T08:05:35.000Z</time>
      </trkpt>
      <trkpt lat="47.63632" lon="6.05578">
        <ele>316.5</ele>
        <time>2012-06-07T08:05:36.000Z</time>
      </trkpt>
      <trkpt lat="47.6363" lon="6.05588">
        <ele>316.4</ele>
        <time>2012-06-07T08:05:37.000Z</time>
      </trkpt>
      <trkpt lat="47.63629" lon="6.05598">
        <ele>315.8</ele>
        <time>2012-06-07T08:05:38.000Z</time>
      </trkpt>
      <trkpt lat="47.63629" lon="6.05608">
        <ele>315.6</ele>
        <time>2012-06-07T08:05:39.000Z</time>
      </trkpt>
      <trkpt lat="47.6363" lon="6.05619">
        <ele>315.4</ele>
        <time>2012-06-07T08:05:40.000Z</time>
      </trkpt>
      <trkpt lat="47.63631" lon="6.0563">
        <ele>315.1</ele>
        <time>2012-06-07T08:05:41.000Z</time>
      </trkpt>
      <trkpt lat="47.63632" lon="6.05642">
        <ele>314.8</ele>
        <time>2012-06-07T08:05:42.000Z</time>
      </trkpt>
      <trkpt lat="47.63632" lon="6.05654">
        <ele>314.5</ele>
        <time>2012-06-07T08:05:43.000Z</time>
      </trkpt>
      <trkpt lat="47.63633" lon="6.05667">
        <ele>314.2</ele>
        <time>2012-06-07T08:05:44.000Z</time>
      </trkpt>
      <trkpt lat="47.63634" lon="6.05679">
        <ele>313.9</ele>
        <time>2012-06-07T08:05:45.000Z</time>
      </trkpt>
      <trkpt lat="47.63634" lon="6.05691">
        <ele>313.5</ele>
        <time>2012-06-07T08:05:46.000Z</time>
      </trkpt>
      <trkpt lat="47.63636" lon="6.05704">
        <ele>312.5</ele>
        <time>2012-06-07T08:05:47.000Z</time>
      </trkpt>
      <trkpt lat="47.63637" lon="6.05718">
        <ele>310.8</ele>
        <time>2012-06-07T08:05:48.000Z</time>
      </trkpt>
      <trkpt lat="47.63638" lon="6.0573">
        <ele>309.9</ele>
        <time>2012-06-07T08:05:49.000Z</time>
      </trkpt>
      <trkpt lat="47.6364" lon="6.05742">
        <ele>308.1</ele>
        <time>2012-06-07T08:05:50.000Z</time>
      </trkpt>
      <trkpt lat="47.63648" lon="6.05835">
        <ele>291</ele>
        <time>2012-06-07T08:06:01.000Z</time>
      </trkpt>
      <trkpt lat="47.63648" lon="6.05844">
        <ele>291.1</ele>
        <time>2012-06-07T08:06:03.000Z</time>
      </trkpt>
      <trkpt lat="47.63647" lon="6.05853">
        <ele>291.8</ele>
        <time>2012-06-07T08:06:05.000Z</time>
      </trkpt>
      <trkpt lat="47.63647" lon="6.05861">
        <ele>291.4</ele>
        <time>2012-06-07T08:06:07.000Z</time>
      </trkpt>
      <trkpt lat="47.63648" lon="6.05869">
        <ele>291.6</ele>
        <time>2012-06-07T08:06:09.000Z</time>
      </trkpt>
      <trkpt lat="47.63648" lon="6.05877">
        <ele>291.6</ele>
        <time>2012-06-07T08:06:11.000Z</time>
      </trkpt>
      <trkpt lat="47.63648" lon="6.05886">
        <ele>293.5</ele>
        <time>2012-06-07T08:06:14.000Z</time>
      </trkpt>
      <trkpt lat="47.63649" lon="6.05894">
        <ele>294.6</ele>
        <time>2012-06-07T08:06:17.000Z</time>
      </trkpt>
      <trkpt lat="47.6365" lon="6.05902">
        <ele>294.4</ele>
        <time>2012-06-07T08:06:20.000Z</time>
      </trkpt>
      <trkpt lat="47.63651" lon="6.05911">
        <ele>294.5</ele>
        <time>2012-06-07T08:06:23.000Z</time>
      </trkpt>
      <trkpt lat="47.63652" lon="6.05918">
        <ele>294.2</ele>
        <time>2012-06-07T08:06:25.000Z</time>
      </trkpt>
      <trkpt lat="47.63652" lon="6.05925">
        <ele>294</ele>
        <time>2012-06-07T08:06:27.000Z</time>
      </trkpt>
      <trkpt lat="47.63653" lon="6.05932">
        <ele>293.3</ele>
        <time>2012-06-07T08:06:29.000Z</time>
      </trkpt>
      <trkpt lat="47.63654" lon="6.05939">
        <ele>292.3</ele>
        <time>2012-06-07T08:06:31.000Z</time>
      </trkpt>
      <trkpt lat="47.63655" lon="6.05946">
        <ele>291.7</ele>
        <time>2012-06-07T08:06:33.000Z</time>
      </trkpt>
      <trkpt lat="47.63655" lon="6.05954">
        <ele>290.9</ele>
        <time>2012-06-07T08:06:36.000Z</time>
      </trkpt>
      <trkpt lat="47.63656" lon="6.05963">
        <ele>290.4</ele>
        <time>2012-06-07T08:06:39.000Z</time>
      </trkpt>
      <trkpt lat="47.63657" lon="6.05971">
        <ele>290.6</ele>
        <time>2012-06-07T08:06:42.000Z</time>
      </trkpt>
      <trkpt lat="47.63657" lon="6.05978">
        <ele>291</ele>
        <time>2012-06-07T08:06:45.000Z</time>
      </trkpt>
      <trkpt lat="47.63658" lon="6.05987">
        <ele>291.5</ele>
        <time>2012-06-07T08:06:48.000Z</time>
      </trkpt>
      <trkpt lat="47.63659" lon="6.06026">
        <ele>294.5</ele>
        <time>2012-06-07T08:07:01.000Z</time>
      </trkpt>
      <trkpt lat="47.63659" lon="6.06034">
        <ele>295.4</ele>
        <time>2012-06-07T08:07:04.000Z</time>
      </trkpt>
      <trkpt lat="47.63657" lon="6.06042">
        <ele>297.4</ele>
        <time>2012-06-07T08:07:07.000Z</time>
      </trkpt>
      <trkpt lat="47.63657" lon="6.0605">
        <ele>298.4</ele>
        <time>2012-06-07T08:07:11.000Z</time>
      </trkpt>
      <trkpt lat="47.63656" lon="6.06057">
        <ele>299.3</ele>
        <time>2012-06-07T08:07:14.000Z</time>
      </trkpt>
      <trkpt lat="47.63656" lon="6.06065">
        <ele>299.1</ele>
        <time>2012-06-07T08:07:17.000Z</time>
      </trkpt>
      <trkpt lat="47.63655" lon="6.06072">
        <ele>299.7</ele>
        <time>2012-06-07T08:07:20.000Z</time>
      </trkpt>
      <trkpt lat="47.63655" lon="6.06079">
        <ele>299.1</ele>
        <time>2012-06-07T08:07:23.000Z</time>
      </trkpt>
      <trkpt lat="47.63656" lon="6.06087">
        <ele>298.6</ele>
        <time>2012-06-07T08:07:26.000Z</time>
      </trkpt>
      <trkpt lat="47.63656" lon="6.06094">
        <ele>298.3</ele>
        <time>2012-06-07T08:07:29.000Z</time>
      </trkpt>
      <trkpt lat="47.63655" lon="6.06101">
        <ele>298.4</ele>
        <time>2012-06-07T08:07:32.000Z</time>
      </trkpt>
      <trkpt lat="47.63654" lon="6.0611">
        <ele>297.9</ele>
        <time>2012-06-07T08:07:35.000Z</time>
      </trkpt>
      <trkpt lat="47.63654" lon="6.06117">
        <ele>297.8</ele>
        <time>2012-06-07T08:07:38.000Z</time>
      </trkpt>
      <trkpt lat="47.63653" lon="6.06125">
        <ele>298.7</ele>
        <time>2012-06-07T08:07:42.000Z</time>
      </trkpt>
      <trkpt lat="47.63653" lon="6.06134">
        <ele>298.2</ele>
        <time>2012-06-07T08:07:45.000Z</time>
      </trkpt>
      <trkpt lat="47.63653" lon="6.06141">
        <ele>298.2</ele>
        <time>2012-06-07T08:07:48.000Z</time>
      </trkpt>
      <trkpt lat="47.63652" lon="6.06176">
        <ele>296.9</ele>
        <time>2012-06-07T08:08:01.000Z</time>
      </trkpt>
      <trkpt lat="47.63651" lon="6.06183">
        <ele>297.4</ele>
        <time>2012-06-07T08:08:04.000Z</time>
      </trkpt>
      <trkpt lat="47.6365" lon="6.06192">
        <ele>298.5</ele>
        <time>2012-06-07T08:08:07.000Z</time>
      </trkpt>
      <trkpt lat="47.6365" lon="6.062">
        <ele>298.4</ele>
        <time>2012-06-07T08:08:10.000Z</time>
      </trkpt>
      <trkpt lat="47.63649" lon="6.06207">
        <ele>299.7</ele>
        <time>2012-06-07T08:08:13.000Z</time>
      </trkpt>
      <trkpt lat="47.63649" lon="6.06216">
        <ele>300.4</ele>
        <time>2012-06-07T08:08:16.000Z</time>
      </trkpt>
      <trkpt lat="47.63649" lon="6.06224">
        <ele>301</ele>
        <time>2012-06-07T08:08:19.000Z</time>
      </trkpt>
      <trkpt lat="47.63648" lon="6.06231">
        <ele>302.3</ele>
        <time>2012-06-07T08:08:22.000Z</time>
      </trkpt>
      <trkpt lat="47.63649" lon="6.06239">
        <ele>301.7</ele>
        <time>2012-06-07T08:08:25.000Z</time>
      </trkpt>
      <trkpt lat="47.63649" lon="6.06248">
        <ele>302</ele>
        <time>2012-06-07T08:08:28.000Z</time>
      </trkpt>
      <trkpt lat="47.6365" lon="6.06257">
        <ele>302.6</ele>
        <time>2012-06-07T08:08:31.000Z</time>
      </trkpt>
      <trkpt lat="47.63651" lon="6.06263">
        <ele>302.9</ele>
        <time>2012-06-07T08:08:33.000Z</time>
      </trkpt>
      <trkpt lat="47.63652" lon="6.06271">
        <ele>303</ele>
        <time>2012-06-07T08:08:35.000Z</time>
      </trkpt>
      <trkpt lat="47.63654" lon="6.06279">
        <ele>302.5</ele>
        <time>2012-06-07T08:08:37.000Z</time>
      </trkpt>
      <trkpt lat="47.63655" lon="6.06287">
        <ele>302.6</ele>
        <time>2012-06-07T08:08:39.000Z</time>
      </trkpt>
      <trkpt lat="47.63657" lon="6.06294">
        <ele>303.1</ele>
        <time>2012-06-07T08:08:42.000Z</time>
      </trkpt>
      <trkpt lat="47.6366" lon="6.063">
        <ele>303.4</ele>
        <time>2012-06-07T08:08:45.000Z</time>
      </trkpt>
      <trkpt lat="47.63662" lon="6.06306">
        <ele>304</ele>
        <time>2012-06-07T08:08:48.000Z</time>
      </trkpt>
      <trkpt lat="47.63673" lon="6.06336">
        <ele>303.5</ele>
        <time>2012-06-07T08:09:01.000Z</time>
      </trkpt>
      <trkpt lat="47.63674" lon="6.06342">
        <ele>305.5</ele>
        <time>2012-06-07T08:09:04.000Z</time>
      </trkpt>
      <trkpt lat="47.63675" lon="6.06349">
        <ele>306.7</ele>
        <time>2012-06-07T08:09:06.000Z</time>
      </trkpt>
      <trkpt lat="47.63676" lon="6.06355">
        <ele>307.1</ele>
        <time>2012-06-07T08:09:08.000Z</time>
      </trkpt>
      <trkpt lat="47.63679" lon="6.06364">
        <ele>306.5</ele>
        <time>2012-06-07T08:09:11.000Z</time>
      </trkpt>
      <trkpt lat="47.63681" lon="6.06372">
        <ele>306.9</ele>
        <time>2012-06-07T08:09:14.000Z</time>
      </trkpt>
      <trkpt lat="47.63684" lon="6.06379">
        <ele>306.6</ele>
        <time>2012-06-07T08:09:17.000Z</time>
      </trkpt>
      <trkpt lat="47.63686" lon="6.06385">
        <ele>306.9</ele>
        <time>2012-06-07T08:09:20.000Z</time>
      </trkpt>
      <trkpt lat="47.63688" lon="6.06392">
        <ele>306.9</ele>
        <time>2012-06-07T08:09:23.000Z</time>
      </trkpt>
      <trkpt lat="47.6369" lon="6.06399">
        <ele>307.1</ele>
        <time>2012-06-07T08:09:26.000Z</time>
      </trkpt>
      <trkpt lat="47.63692" lon="6.06406">
        <ele>308.1</ele>
        <time>2012-06-07T08:09:30.000Z</time>
      </trkpt>
      <trkpt lat="47.63695" lon="6.06414">
        <ele>308.9</ele>
        <time>2012-06-07T08:09:34.000Z</time>
      </trkpt>
      <trkpt lat="47.63698" lon="6.06421">
        <ele>309.2</ele>
        <time>2012-06-07T08:09:37.000Z</time>
      </trkpt>
      <trkpt lat="47.63701" lon="6.06428">
        <ele>309.3</ele>
        <time>2012-06-07T08:09:40.000Z</time>
      </trkpt>
      <trkpt lat="47.63703" lon="6.06435">
        <ele>309.6</ele>
        <time>2012-06-07T08:09:43.000Z</time>
      </trkpt>
      <trkpt lat="47.63706" lon="6.06443">
        <ele>310</ele>
        <time>2012-06-07T08:09:46.000Z</time>
      </trkpt>
      <trkpt lat="47.63708" lon="6.06449">
        <ele>310.3</ele>
        <time>2012-06-07T08:09:49.000Z</time>
      </trkpt>
      <trkpt lat="47.63712" lon="6.06458">
        <ele>310.7</ele>
        <time>2012-06-07T08:09:52.000Z</time>
      </trkpt>
      <trkpt lat="47.63714" lon="6.06464">
        <ele>310.7</ele>
        <time>2012-06-07T08:09:54.000Z</time>
      </trkpt>
      <trkpt lat="47.63717" lon="6.06471">
        <ele>310.6</ele>
        <time>2012-06-07T08:09:57.000Z</time>
      </trkpt>
      <trkpt lat="47.6372" lon="6.06479">
        <ele>310.2</ele>
        <time>2012-06-07T08:10:00.000Z</time>
      </trkpt>
      <trkpt lat="47.63722" lon="6.06485">
        <ele>310.2</ele>
        <time>2012-06-07T08:10:03.000Z</time>
      </trkpt>
      <trkpt lat="47.63723" lon="6.06493">
        <ele>310</ele>
        <time>2012-06-07T08:10:06.000Z</time>
      </trkpt>
      <trkpt lat="47.6372" lon="6.06499">
        <ele>312.5</ele>
        <time>2012-06-07T08:11:15.000Z</time>
      </trkpt>
      <trkpt lat="47.63715" lon="6.06502">
        <ele>312.6</ele>
        <time>2012-06-07T08:11:19.000Z</time>
      </trkpt>
      <trkpt lat="47.6371" lon="6.06504">
        <ele>313</ele>
        <time>2012-06-07T08:11:22.000Z</time>
      </trkpt>
      <trkpt lat="47.63704" lon="6.06502">
        <ele>312.4</ele>
        <time>2012-06-07T08:11:26.000Z</time>
      </trkpt>
      <trkpt lat="47.63698" lon="6.06505">
        <ele>312.5</ele>
        <time>2012-06-07T08:11:29.000Z</time>
      </trkpt>
      <trkpt lat="47.63693" lon="6.06507">
        <ele>312.4</ele>
        <time>2012-06-07T08:11:32.000Z</time>
      </trkpt>
      <trkpt lat="47.63688" lon="6.06508">
        <ele>312.2</ele>
        <time>2012-06-07T08:11:34.000Z</time>
      </trkpt>
      <trkpt lat="47.63682" lon="6.0651">
        <ele>312.2</ele>
        <time>2012-06-07T08:11:37.000Z</time>
      </trkpt>
      <trkpt lat="47.63675" lon="6.06513">
        <ele>312.2</ele>
        <time>2012-06-07T08:11:40.000Z</time>
      </trkpt>
      <trkpt lat="47.6367" lon="6.06515">
        <ele>312.4</ele>
        <time>2012-06-07T08:11:43.000Z</time>
      </trkpt>
      <trkpt lat="47.63664" lon="6.06517">
        <ele>312.4</ele>
        <time>2012-06-07T08:11:47.000Z</time>
      </trkpt>
      <trkpt lat="47.63659" lon="6.06519">
        <ele>312.8</ele>
        <time>2012-06-07T08:11:51.000Z</time>
      </trkpt>
      <trkpt lat="47.63654" lon="6.0652">
        <ele>312.9</ele>
        <time>2012-06-07T08:11:56.000Z</time>
      </trkpt>
      <trkpt lat="47.63649" lon="6.06522">
        <ele>313.1</ele>
        <time>2012-06-07T08:12:00.000Z</time>
      </trkpt>
      <trkpt lat="47.63642" lon="6.06524">
        <ele>312.9</ele>
        <time>2012-06-07T08:12:03.000Z</time>
      </trkpt>
      <trkpt lat="47.63638" lon="6.06525">
        <ele>312.8</ele>
        <time>2012-06-07T08:12:05.000Z</time>
      </trkpt>
      <trkpt lat="47.63633" lon="6.06526">
        <ele>312.6</ele>
        <time>2012-06-07T08:12:07.000Z</time>
      </trkpt>
      <trkpt lat="47.63628" lon="6.06528">
        <ele>312.6</ele>
        <time>2012-06-07T08:12:09.000Z</time>
      </trkpt>
      <trkpt lat="47.63624" lon="6.06529">
        <ele>312.7</ele>
        <time>2012-06-07T08:12:11.000Z</time>
      </trkpt>
      <trkpt lat="47.63618" lon="6.06531">
        <ele>312.8</ele>
        <time>2012-06-07T08:12:14.000Z</time>
      </trkpt>
      <trkpt lat="47.63612" lon="6.06533">
        <ele>312.7</ele>
        <time>2012-06-07T08:12:17.000Z</time>
      </trkpt>
      <trkpt lat="47.63607" lon="6.06534">
        <ele>312.6</ele>
        <time>2012-06-07T08:12:19.000Z</time>
      </trkpt>
      <trkpt lat="47.63602" lon="6.06535">
        <ele>312.7</ele>
        <time>2012-06-07T08:12:21.000Z</time>
      </trkpt>
      <trkpt lat="47.63598" lon="6.06536">
        <ele>312.7</ele>
        <time>2012-06-07T08:12:23.000Z</time>
      </trkpt>
      <trkpt lat="47.63591" lon="6.06537">
        <ele>312.6</ele>
        <time>2012-06-07T08:12:26.000Z</time>
      </trkpt>
      <trkpt lat="47.63586" lon="6.06539">
        <ele>312.7</ele>
        <time>2012-06-07T08:12:28.000Z</time>
      </trkpt>
      <trkpt lat="47.63582" lon="6.06539">
        <ele>312.9</ele>
        <time>2012-06-07T08:12:30.000Z</time>
      </trkpt>
      <trkpt lat="47.63575" lon="6.0654">
        <ele>312.9</ele>
        <time>2012-06-07T08:12:33.000Z</time>
      </trkpt>
      <trkpt lat="47.63569" lon="6.06541">
        <ele>312.9</ele>
        <time>2012-06-07T08:12:35.000Z</time>
      </trkpt>
      <trkpt lat="47.63564" lon="6.06541">
        <ele>312.6</ele>
        <time>2012-06-07T08:12:37.000Z</time>
      </trkpt>
      <trkpt lat="47.63557" lon="6.06542">
        <ele>312.7</ele>
        <time>2012-06-07T08:12:40.000Z</time>
      </trkpt>
      <trkpt lat="47.63552" lon="6.06543">
        <ele>312.8</ele>
        <time>2012-06-07T08:12:42.000Z</time>
      </trkpt>
      <trkpt lat="47.63545" lon="6.06543">
        <ele>312.5</ele>
        <time>2012-06-07T08:12:45.000Z</time>
      </trkpt>
      <trkpt lat="47.6354" lon="6.06544">
        <ele>312.4</ele>
        <time>2012-06-07T08:12:47.000Z</time>
      </trkpt>
      <trkpt lat="47.63534" lon="6.06544">
        <ele>312.3</ele>
        <time>2012-06-07T08:12:49.000Z</time>
      </trkpt>
      <trkpt lat="47.63494" lon="6.06544">
        <ele>314</ele>
        <time>2012-06-07T08:13:02.000Z</time>
      </trkpt>
      <trkpt lat="47.63489" lon="6.06544">
        <ele>315.8</ele>
        <time>2012-06-07T08:13:04.000Z</time>
      </trkpt>
      <trkpt lat="47.63484" lon="6.06544">
        <ele>317</ele>
        <time>2012-06-07T08:13:06.000Z</time>
      </trkpt>
      <trkpt lat="47.63478" lon="6.06543">
        <ele>316.6</ele>
        <time>2012-06-07T08:13:09.000Z</time>
      </trkpt>
      <trkpt lat="47.63473" lon="6.06541">
        <ele>316</ele>
        <time>2012-06-07T08:13:12.000Z</time>
      </trkpt>
      <trkpt lat="47.63467" lon="6.0654">
        <ele>315.6</ele>
        <time>2012-06-07T08:13:16.000Z</time>
      </trkpt>
      <trkpt lat="47.6346" lon="6.06539">
        <ele>316</ele>
        <time>2012-06-07T08:13:19.000Z</time>
      </trkpt>
      <trkpt lat="47.63456" lon="6.06536">
        <ele>315.2</ele>
        <time>2012-06-07T08:13:21.000Z</time>
      </trkpt>
      <trkpt lat="47.6345" lon="6.06534">
        <ele>313.5</ele>
        <time>2012-06-07T08:13:23.000Z</time>
      </trkpt>
      <trkpt lat="47.63445" lon="6.06534">
        <ele>314.9</ele>
        <time>2012-06-07T08:13:25.000Z</time>
      </trkpt>
      <trkpt lat="47.63439" lon="6.06534">
        <ele>314.6</ele>
        <time>2012-06-07T08:13:27.000Z</time>
      </trkpt>
      <trkpt lat="47.63433" lon="6.06534">
        <ele>314.5</ele>
        <time>2012-06-07T08:13:29.000Z</time>
      </trkpt>
      <trkpt lat="47.63428" lon="6.06533">
        <ele>314.5</ele>
        <time>2012-06-07T08:13:31.000Z</time>
      </trkpt>
      <trkpt lat="47.63423" lon="6.06532">
        <ele>315</ele>
        <time>2012-06-07T08:13:33.000Z</time>
      </trkpt>
      <trkpt lat="47.63417" lon="6.06532">
        <ele>314.7</ele>
        <time>2012-06-07T08:13:35.000Z</time>
      </trkpt>
      <trkpt lat="47.63412" lon="6.06534">
        <ele>314.6</ele>
        <time>2012-06-07T08:13:37.000Z</time>
      </trkpt>
      <trkpt lat="47.63406" lon="6.06533">
        <ele>314.7</ele>
        <time>2012-06-07T08:13:39.000Z</time>
      </trkpt>
      <trkpt lat="47.634" lon="6.06533">
        <ele>314.2</ele>
        <time>2012-06-07T08:13:41.000Z</time>
      </trkpt>
      <trkpt lat="47.63394" lon="6.06534">
        <ele>314.4</ele>
        <time>2012-06-07T08:13:43.000Z</time>
      </trkpt>
      <trkpt lat="47.63388" lon="6.06534">
        <ele>314.5</ele>
        <time>2012-06-07T08:13:45.000Z</time>
      </trkpt>
      <trkpt lat="47.63382" lon="6.06535">
        <ele>314.3</ele>
        <time>2012-06-07T08:13:47.000Z</time>
      </trkpt>
      <trkpt lat="47.63377" lon="6.06536">
        <ele>313.8</ele>
        <time>2012-06-07T08:13:49.000Z</time>
      </trkpt>
      <trkpt lat="47.63371" lon="6.06537">
        <ele>313.7</ele>
        <time>2012-06-07T08:13:51.000Z</time>
      </trkpt>
      <trkpt lat="47.63365" lon="6.06538">
        <ele>313.3</ele>
        <time>2012-06-07T08:13:53.000Z</time>
      </trkpt>
      <trkpt lat="47.63358" lon="6.0654">
        <ele>312.7</ele>
        <time>2012-06-07T08:13:55.000Z</time>
      </trkpt>
      <trkpt lat="47.63352" lon="6.06542">
        <ele>312.3</ele>
        <time>2012-06-07T08:13:57.000Z</time>
      </trkpt>
      <trkpt lat="47.63346" lon="6.06544">
        <ele>311.8</ele>
        <time>2012-06-07T08:13:59.000Z</time>
      </trkpt>
      <trkpt lat="47.6334" lon="6.06546">
        <ele>311.5</ele>
        <time>2012-06-07T08:14:01.000Z</time>
      </trkpt>
      <trkpt lat="47.63335" lon="6.06547">
        <ele>311.4</ele>
        <time>2012-06-07T08:14:03.000Z</time>
      </trkpt>
      <trkpt lat="47.6333" lon="6.06548">
        <ele>311.2</ele>
        <time>2012-06-07T08:14:05.000Z</time>
      </trkpt>
      <trkpt lat="47.63324" lon="6.06551">
        <ele>311.1</ele>
        <time>2012-06-07T08:14:07.000Z</time>
      </trkpt>
      <trkpt lat="47.63319" lon="6.06553">
        <ele>311.3</ele>
        <time>2012-06-07T08:14:09.000Z</time>
      </trkpt>
      <trkpt lat="47.63314" lon="6.06556">
        <ele>311.3</ele>
        <time>2012-06-07T08:14:11.000Z</time>
      </trkpt>
      <trkpt lat="47.63308" lon="6.06558">
        <ele>311.7</ele>
        <time>2012-06-07T08:14:13.000Z</time>
      </trkpt>
      <trkpt lat="47.63302" lon="6.0656">
        <ele>311.7</ele>
        <time>2012-06-07T08:14:15.000Z</time>
      </trkpt>
      <trkpt lat="47.63296" lon="6.06561">
        <ele>311.9</ele>
        <time>2012-06-07T08:14:17.000Z</time>
      </trkpt>
      <trkpt lat="47.6329" lon="6.06564">
        <ele>312</ele>
        <time>2012-06-07T08:14:19.000Z</time>
      </trkpt>
      <trkpt lat="47.63284" lon="6.06564">
        <ele>312</ele>
        <time>2012-06-07T08:14:21.000Z</time>
      </trkpt>
      <trkpt lat="47.63277" lon="6.06564">
        <ele>311.9</ele>
        <time>2012-06-07T08:14:23.000Z</time>
      </trkpt>
      <trkpt lat="47.63269" lon="6.06565">
        <ele>311.7</ele>
        <time>2012-06-07T08:14:25.000Z</time>
      </trkpt>
      <trkpt lat="47.63262" lon="6.06568">
        <ele>311.8</ele>
        <time>2012-06-07T08:14:27.000Z</time>
      </trkpt>
      <trkpt lat="47.63254" lon="6.0657">
        <ele>311.9</ele>
        <time>2012-06-07T08:14:29.000Z</time>
      </trkpt>
      <trkpt lat="47.63246" lon="6.06569">
        <ele>311.9</ele>
        <time>2012-06-07T08:14:31.000Z</time>
      </trkpt>
      <trkpt lat="47.63238" lon="6.0657">
        <ele>311.9</ele>
        <time>2012-06-07T08:14:33.000Z</time>
      </trkpt>
      <trkpt lat="47.63232" lon="6.06571">
        <ele>312.1</ele>
        <time>2012-06-07T08:14:35.000Z</time>
      </trkpt>
      <trkpt lat="47.63225" lon="6.06571">
        <ele>312</ele>
        <time>2012-06-07T08:14:37.000Z</time>
      </trkpt>
      <trkpt lat="47.63219" lon="6.06571">
        <ele>311.9</ele>
        <time>2012-06-07T08:14:39.000Z</time>
      </trkpt>
      <trkpt lat="47.63212" lon="6.06572">
        <ele>311.9</ele>
        <time>2012-06-07T08:14:41.000Z</time>
      </trkpt>
      <trkpt lat="47.63206" lon="6.06572">
        <ele>311.7</ele>
        <time>2012-06-07T08:14:43.000Z</time>
      </trkpt>
      <trkpt lat="47.63201" lon="6.06572">
        <ele>311.6</ele>
        <time>2012-06-07T08:14:45.000Z</time>
      </trkpt>
      <trkpt lat="47.63195" lon="6.06571">
        <ele>311.3</ele>
        <time>2012-06-07T08:14:47.000Z</time>
      </trkpt>
      <trkpt lat="47.6319" lon="6.0657">
        <ele>311.2</ele>
        <time>2012-06-07T08:14:49.000Z</time>
      </trkpt>
      <trkpt lat="47.63183" lon="6.06571">
        <ele>311.3</ele>
        <time>2012-06-07T08:14:51.000Z</time>
      </trkpt>
      <trkpt lat="47.63177" lon="6.06572">
        <ele>311.3</ele>
        <time>2012-06-07T08:14:53.000Z</time>
      </trkpt>
      <trkpt lat="47.63172" lon="6.06572">
        <ele>311</ele>
        <time>2012-06-07T08:14:55.000Z</time>
      </trkpt>
      <trkpt lat="47.63166" lon="6.06572">
        <ele>310.6</ele>
        <time>2012-06-07T08:14:57.000Z</time>
      </trkpt>
      <trkpt lat="47.6316" lon="6.06575">
        <ele>310</ele>
        <time>2012-06-07T08:14:59.000Z</time>
      </trkpt>
      <trkpt lat="47.63154" lon="6.06579">
        <ele>309.4</ele>
        <time>2012-06-07T08:15:01.000Z</time>
      </trkpt>
      <trkpt lat="47.63146" lon="6.0658">
        <ele>307</ele>
        <time>2012-06-07T08:15:03.000Z</time>
      </trkpt>
      <trkpt lat="47.63139" lon="6.06581">
        <ele>303.4</ele>
        <time>2012-06-07T08:15:06.000Z</time>
      </trkpt>
      <trkpt lat="47.63133" lon="6.06589">
        <ele>303.4</ele>
        <time>2012-06-07T08:15:08.000Z</time>
      </trkpt>
      <trkpt lat="47.63128" lon="6.06597">
        <ele>303</ele>
        <time>2012-06-07T08:15:10.000Z</time>
      </trkpt>
      <trkpt lat="47.63123" lon="6.06606">
        <ele>302.8</ele>
        <time>2012-06-07T08:15:12.000Z</time>
      </trkpt>
      <trkpt lat="47.63118" lon="6.06616">
        <ele>302.6</ele>
        <time>2012-06-07T08:15:14.000Z</time>
      </trkpt>
      <trkpt lat="47.63113" lon="6.06625">
        <ele>302.5</ele>
        <time>2012-06-07T08:15:16.000Z</time>
      </trkpt>
      <trkpt lat="47.63107" lon="6.06631">
        <ele>302.3</ele>
        <time>2012-06-07T08:15:18.000Z</time>
      </trkpt>
      <trkpt lat="47.63102" lon="6.06636">
        <ele>302.2</ele>
        <time>2012-06-07T08:15:20.000Z</time>
      </trkpt>
      <trkpt lat="47.631" lon="6.06644">
        <ele>301.7</ele>
        <time>2012-06-07T08:15:22.000Z</time>
      </trkpt>
      <trkpt lat="47.631" lon="6.06652">
        <ele>300.5</ele>
        <time>2012-06-07T08:15:24.000Z</time>
      </trkpt>
      <trkpt lat="47.63106" lon="6.06659">
        <ele>300.5</ele>
        <time>2012-06-07T08:15:26.000Z</time>
      </trkpt>
      <trkpt lat="47.63113" lon="6.06662">
        <ele>300.4</ele>
        <time>2012-06-07T08:15:28.000Z</time>
      </trkpt>
      <trkpt lat="47.63119" lon="6.06665">
        <ele>300.5</ele>
        <time>2012-06-07T08:15:30.000Z</time>
      </trkpt>
      <trkpt lat="47.63124" lon="6.06668">
        <ele>300.7</ele>
        <time>2012-06-07T08:15:32.000Z</time>
      </trkpt>
      <trkpt lat="47.63131" lon="6.06676">
        <ele>292.2</ele>
        <time>2012-06-07T08:16:00.000Z</time>
      </trkpt>
      <trkpt lat="47.6313" lon="6.06669">
        <ele>293.2</ele>
        <time>2012-06-07T08:16:47.000Z</time>
      </trkpt>
      <trkpt lat="47.63124" lon="6.06664">
        <ele>294.5</ele>
        <time>2012-06-07T08:16:51.000Z</time>
      </trkpt>
      <trkpt lat="47.63119" lon="6.06659">
        <ele>295.3</ele>
        <time>2012-06-07T08:16:54.000Z</time>
      </trkpt>
      <trkpt lat="47.63113" lon="6.06654">
        <ele>296</ele>
        <time>2012-06-07T08:16:57.000Z</time>
      </trkpt>
      <trkpt lat="47.63108" lon="6.06653">
        <ele>296.1</ele>
        <time>2012-06-07T08:16:59.000Z</time>
      </trkpt>
      <trkpt lat="47.63102" lon="6.06653">
        <ele>296</ele>
        <time>2012-06-07T08:17:02.000Z</time>
      </trkpt>
      <trkpt lat="47.63097" lon="6.06651">
        <ele>296.2</ele>
        <time>2012-06-07T08:17:05.000Z</time>
      </trkpt>
      <trkpt lat="47.6309" lon="6.06646">
        <ele>296.5</ele>
        <time>2012-06-07T08:17:07.000Z</time>
      </trkpt>
      <trkpt lat="47.6309" lon="6.06638">
        <ele>296.1</ele>
        <time>2012-06-07T08:17:11.000Z</time>
      </trkpt>
      <trkpt lat="47.63087" lon="6.06631">
        <ele>295.4</ele>
        <time>2012-06-07T08:17:14.000Z</time>
      </trkpt>
      <trkpt lat="47.63079" lon="6.06629">
        <ele>293.9</ele>
        <time>2012-06-07T08:17:16.000Z</time>
      </trkpt>
      <trkpt lat="47.63072" lon="6.06628">
        <ele>293</ele>
        <time>2012-06-07T08:17:17.000Z</time>
      </trkpt>
      <trkpt lat="47.63066" lon="6.06626">
        <ele>292</ele>
        <time>2012-06-07T08:17:18.000Z</time>
      </trkpt>
      <trkpt lat="47.6306" lon="6.06625">
        <ele>291.1</ele>
        <time>2012-06-07T08:17:19.000Z</time>
      </trkpt>
      <trkpt lat="47.63055" lon="6.06624">
        <ele>290.3</ele>
        <time>2012-06-07T08:17:20.000Z</time>
      </trkpt>
      <trkpt lat="47.63048" lon="6.06623">
        <ele>289.6</ele>
        <time>2012-06-07T08:17:21.000Z</time>
      </trkpt>
      <trkpt lat="47.6304" lon="6.06622">
        <ele>288.7</ele>
        <time>2012-06-07T08:17:22.000Z</time>
      </trkpt>
      <trkpt lat="47.63032" lon="6.0662">
        <ele>287.9</ele>
        <time>2012-06-07T08:17:23.000Z</time>
      </trkpt>
      <trkpt lat="47.63024" lon="6.0662">
        <ele>287.3</ele>
        <time>2012-06-07T08:17:24.000Z</time>
      </trkpt>
      <trkpt lat="47.63016" lon="6.0662">
        <ele>286.8</ele>
        <time>2012-06-07T08:17:25.000Z</time>
      </trkpt>
      <trkpt lat="47.63007" lon="6.06621">
        <ele>286.5</ele>
        <time>2012-06-07T08:17:26.000Z</time>
      </trkpt>
      <trkpt lat="47.63001" lon="6.06622">
        <ele>286.4</ele>
        <time>2012-06-07T08:17:27.000Z</time>
      </trkpt>
      <trkpt lat="47.62996" lon="6.06623">
        <ele>286.2</ele>
        <time>2012-06-07T08:17:28.000Z</time>
      </trkpt>
      <trkpt lat="47.62991" lon="6.06626">
        <ele>286.2</ele>
        <time>2012-06-07T08:17:29.000Z</time>
      </trkpt>
      <trkpt lat="47.62987" lon="6.06628">
        <ele>286.4</ele>
        <time>2012-06-07T08:17:30.000Z</time>
      </trkpt>
      <trkpt lat="47.62982" lon="6.06631">
        <ele>286.5</ele>
        <time>2012-06-07T08:17:31.000Z</time>
      </trkpt>
      <trkpt lat="47.62974" lon="6.06634">
        <ele>286.3</ele>
        <time>2012-06-07T08:17:32.000Z</time>
      </trkpt>
      <trkpt lat="47.62967" lon="6.06636">
        <ele>286.1</ele>
        <time>2012-06-07T08:17:33.000Z</time>
      </trkpt>
      <trkpt lat="47.62957" lon="6.06637">
        <ele>286</ele>
        <time>2012-06-07T08:17:34.000Z</time>
      </trkpt>
      <trkpt lat="47.62949" lon="6.06638">
        <ele>285.8</ele>
        <time>2012-06-07T08:17:35.000Z</time>
      </trkpt>
      <trkpt lat="47.62939" lon="6.06638">
        <ele>286</ele>
        <time>2012-06-07T08:17:36.000Z</time>
      </trkpt>
      <trkpt lat="47.62932" lon="6.06637">
        <ele>286.1</ele>
        <time>2012-06-07T08:17:37.000Z</time>
      </trkpt>
      <trkpt lat="47.62926" lon="6.06636">
        <ele>286.3</ele>
        <time>2012-06-07T08:17:38.000Z</time>
      </trkpt>
      <trkpt lat="47.62921" lon="6.06634">
        <ele>286.1</ele>
        <time>2012-06-07T08:17:39.000Z</time>
      </trkpt>
      <trkpt lat="47.62914" lon="6.06632">
        <ele>286.3</ele>
        <time>2012-06-07T08:17:41.000Z</time>
      </trkpt>
      <trkpt lat="47.62904" lon="6.0663">
        <ele>287.1</ele>
        <time>2012-06-07T08:17:43.000Z</time>
      </trkpt>
      <trkpt lat="47.62898" lon="6.0663">
        <ele>287.1</ele>
        <time>2012-06-07T08:17:44.000Z</time>
      </trkpt>
      <trkpt lat="47.6289" lon="6.06627">
        <ele>287.1</ele>
        <time>2012-06-07T08:17:46.000Z</time>
      </trkpt>
      <trkpt lat="47.62882" lon="6.06624">
        <ele>287.3</ele>
        <time>2012-06-07T08:17:48.000Z</time>
      </trkpt>
      <trkpt lat="47.62877" lon="6.06622">
        <ele>287.1</ele>
        <time>2012-06-07T08:17:49.000Z</time>
      </trkpt>
      <trkpt lat="47.62872" lon="6.0662">
        <ele>287.1</ele>
        <time>2012-06-07T08:17:50.000Z</time>
      </trkpt>
      <trkpt lat="47.62868" lon="6.06618">
        <ele>287.1</ele>
        <time>2012-06-07T08:17:51.000Z</time>
      </trkpt>
      <trkpt lat="47.62863" lon="6.06616">
        <ele>286.9</ele>
        <time>2012-06-07T08:17:52.000Z</time>
      </trkpt>
      <trkpt lat="47.62858" lon="6.06613">
        <ele>287.1</ele>
        <time>2012-06-07T08:17:53.000Z</time>
      </trkpt>
      <trkpt lat="47.62854" lon="6.06611">
        <ele>287.4</ele>
        <time>2012-06-07T08:17:54.000Z</time>
      </trkpt>
      <trkpt lat="47.6285" lon="6.06607">
        <ele>287.5</ele>
        <time>2012-06-07T08:17:55.000Z</time>
      </trkpt>
      <trkpt lat="47.62845" lon="6.06603">
        <ele>287.5</ele>
        <time>2012-06-07T08:17:56.000Z</time>
      </trkpt>
      <trkpt lat="47.6284" lon="6.06598">
        <ele>287.8</ele>
        <time>2012-06-07T08:17:57.000Z</time>
      </trkpt>
      <trkpt lat="47.62836" lon="6.06593">
        <ele>288.2</ele>
        <time>2012-06-07T08:17:58.000Z</time>
      </trkpt>
      <trkpt lat="47.62831" lon="6.06588">
        <ele>288.5</ele>
        <time>2012-06-07T08:17:59.000Z</time>
      </trkpt>
      <trkpt lat="47.62827" lon="6.06584">
        <ele>288.4</ele>
        <time>2012-06-07T08:18:00.000Z</time>
      </trkpt>
      <trkpt lat="47.62822" lon="6.0658">
        <ele>288.7</ele>
        <time>2012-06-07T08:18:01.000Z</time>
      </trkpt>
      <trkpt lat="47.62816" lon="6.06577">
        <ele>289</ele>
        <time>2012-06-07T08:18:02.000Z</time>
      </trkpt>
      <trkpt lat="47.62811" lon="6.06574">
        <ele>289.3</ele>
        <time>2012-06-07T08:18:03.000Z</time>
      </trkpt>
      <trkpt lat="47.62804" lon="6.06569">
        <ele>289.8</ele>
        <time>2012-06-07T08:18:05.000Z</time>
      </trkpt>
      <trkpt lat="47.62797" lon="6.06566">
        <ele>290.3</ele>
        <time>2012-06-07T08:18:07.000Z</time>
      </trkpt>
      <trkpt lat="47.62792" lon="6.06564">
        <ele>290.2</ele>
        <time>2012-06-07T08:18:09.000Z</time>
      </trkpt>
      <trkpt lat="47.62787" lon="6.0656">
        <ele>291</ele>
        <time>2012-06-07T08:18:11.000Z</time>
      </trkpt>
      <trkpt lat="47.62782" lon="6.06557">
        <ele>291.2</ele>
        <time>2012-06-07T08:18:14.000Z</time>
      </trkpt>
      <trkpt lat="47.62776" lon="6.06554">
        <ele>291.1</ele>
        <time>2012-06-07T08:18:17.000Z</time>
      </trkpt>
      <trkpt lat="47.62774" lon="6.06547">
        <ele>291.3</ele>
        <time>2012-06-07T08:18:22.000Z</time>
      </trkpt>
      <trkpt lat="47.62768" lon="6.06543">
        <ele>291.3</ele>
        <time>2012-06-07T08:18:25.000Z</time>
      </trkpt>
      <trkpt lat="47.62762" lon="6.06538">
        <ele>291.6</ele>
        <time>2012-06-07T08:18:27.000Z</time>
      </trkpt>
      <trkpt lat="47.62758" lon="6.06531">
        <ele>291.4</ele>
        <time>2012-06-07T08:18:29.000Z</time>
      </trkpt>
      <trkpt lat="47.62753" lon="6.06524">
        <ele>291.3</ele>
        <time>2012-06-07T08:18:31.000Z</time>
      </trkpt>
      <trkpt lat="47.62746" lon="6.06522">
        <ele>291.6</ele>
        <time>2012-06-07T08:18:33.000Z</time>
      </trkpt>
      <trkpt lat="47.6274" lon="6.06516">
        <ele>292.3</ele>
        <time>2012-06-07T08:18:35.000Z</time>
      </trkpt>
      <trkpt lat="47.62733" lon="6.06509">
        <ele>292.7</ele>
        <time>2012-06-07T08:18:37.000Z</time>
      </trkpt>
      <trkpt lat="47.62729" lon="6.065">
        <ele>292.5</ele>
        <time>2012-06-07T08:18:39.000Z</time>
      </trkpt>
      <trkpt lat="47.62725" lon="6.06492">
        <ele>292.9</ele>
        <time>2012-06-07T08:18:41.000Z</time>
      </trkpt>
      <trkpt lat="47.62719" lon="6.06485">
        <ele>292.8</ele>
        <time>2012-06-07T08:18:43.000Z</time>
      </trkpt>
      <trkpt lat="47.62712" lon="6.06478">
        <ele>292.9</ele>
        <time>2012-06-07T08:18:45.000Z</time>
      </trkpt>
      <trkpt lat="47.62704" lon="6.06472">
        <ele>293.1</ele>
        <time>2012-06-07T08:18:47.000Z</time>
      </trkpt>
      <trkpt lat="47.62698" lon="6.06467">
        <ele>293.5</ele>
        <time>2012-06-07T08:18:49.000Z</time>
      </trkpt>
      <trkpt lat="47.62663" lon="6.06404">
        <ele>269.3</ele>
        <time>2012-06-07T08:18:57.000Z</time>
      </trkpt>
      <trkpt lat="47.6266" lon="6.06396">
        <ele>265.9</ele>
        <time>2012-06-07T08:18:58.000Z</time>
      </trkpt>
      <trkpt lat="47.62653" lon="6.06395">
        <ele>281.3</ele>
        <time>2012-06-07T08:19:01.000Z</time>
      </trkpt>
      <trkpt lat="47.62648" lon="6.06392">
        <ele>285.5</ele>
        <time>2012-06-07T08:19:03.000Z</time>
      </trkpt>
      <trkpt lat="47.62641" lon="6.0639">
        <ele>288.9</ele>
        <time>2012-06-07T08:19:05.000Z</time>
      </trkpt>
      <trkpt lat="47.62633" lon="6.06385">
        <ele>290.4</ele>
        <time>2012-06-07T08:19:07.000Z</time>
      </trkpt>
      <trkpt lat="47.62626" lon="6.06374">
        <ele>287</ele>
        <time>2012-06-07T08:19:09.000Z</time>
      </trkpt>
      <trkpt lat="47.62624" lon="6.06367">
        <ele>284.4</ele>
        <time>2012-06-07T08:19:10.000Z</time>
      </trkpt>
      <trkpt lat="47.6262" lon="6.06362">
        <ele>283.4</ele>
        <time>2012-06-07T08:19:11.000Z</time>
      </trkpt>
      <trkpt lat="47.62616" lon="6.06358">
        <ele>282.8</ele>
        <time>2012-06-07T08:19:12.000Z</time>
      </trkpt>
      <trkpt lat="47.62609" lon="6.0635">
        <ele>282</ele>
        <time>2012-06-07T08:19:14.000Z</time>
      </trkpt>
      <trkpt lat="47.62602" lon="6.06342">
        <ele>280.6</ele>
        <time>2012-06-07T08:19:16.000Z</time>
      </trkpt>
      <trkpt lat="47.62596" lon="6.06334">
        <ele>279.2</ele>
        <time>2012-06-07T08:19:18.000Z</time>
      </trkpt>
      <trkpt lat="47.62588" lon="6.06326">
        <ele>278.7</ele>
        <time>2012-06-07T08:19:20.000Z</time>
      </trkpt>
      <trkpt lat="47.62581" lon="6.06317">
        <ele>277.8</ele>
        <time>2012-06-07T08:19:22.000Z</time>
      </trkpt>
      <trkpt lat="47.62575" lon="6.0631">
        <ele>276.6</ele>
        <time>2012-06-07T08:19:24.000Z</time>
      </trkpt>
      <trkpt lat="47.62569" lon="6.06303">
        <ele>275.8</ele>
        <time>2012-06-07T08:19:26.000Z</time>
      </trkpt>
      <trkpt lat="47.62563" lon="6.06297">
        <ele>275.5</ele>
        <time>2012-06-07T08:19:28.000Z</time>
      </trkpt>
      <trkpt lat="47.62558" lon="6.0629">
        <ele>274.8</ele>
        <time>2012-06-07T08:19:30.000Z</time>
      </trkpt>
      <trkpt lat="47.62552" lon="6.06284">
        <ele>273.8</ele>
        <time>2012-06-07T08:19:32.000Z</time>
      </trkpt>
      <trkpt lat="47.62547" lon="6.06279">
        <ele>273.6</ele>
        <time>2012-06-07T08:19:34.000Z</time>
      </trkpt>
      <trkpt lat="47.62541" lon="6.06274">
        <ele>273.4</ele>
        <time>2012-06-07T08:19:36.000Z</time>
      </trkpt>
      <trkpt lat="47.62536" lon="6.06267">
        <ele>273.4</ele>
        <time>2012-06-07T08:19:38.000Z</time>
      </trkpt>
      <trkpt lat="47.6253" lon="6.06261">
        <ele>273.5</ele>
        <time>2012-06-07T08:19:40.000Z</time>
      </trkpt>
      <trkpt lat="47.62526" lon="6.06253">
        <ele>273.5</ele>
        <time>2012-06-07T08:19:42.000Z</time>
      </trkpt>
      <trkpt lat="47.62524" lon="6.06245">
        <ele>273.4</ele>
        <time>2012-06-07T08:19:44.000Z</time>
      </trkpt>
      <trkpt lat="47.62522" lon="6.06237">
        <ele>273.8</ele>
        <time>2012-06-07T08:19:46.000Z</time>
      </trkpt>
      <trkpt lat="47.62524" lon="6.06229">
        <ele>273.2</ele>
        <time>2012-06-07T08:19:48.000Z</time>
      </trkpt>
      <trkpt lat="47.62525" lon="6.06222">
        <ele>272.4</ele>
        <time>2012-06-07T08:19:50.000Z</time>
      </trkpt>
      <trkpt lat="47.62528" lon="6.06216">
        <ele>271.1</ele>
        <time>2012-06-07T08:19:52.000Z</time>
      </trkpt>
      <trkpt lat="47.62531" lon="6.06209">
        <ele>270.2</ele>
        <time>2012-06-07T08:19:54.000Z</time>
      </trkpt>
      <trkpt lat="47.62536" lon="6.06203">
        <ele>269.5</ele>
        <time>2012-06-07T08:19:56.000Z</time>
      </trkpt>
      <trkpt lat="47.62541" lon="6.06197">
        <ele>269</ele>
        <time>2012-06-07T08:19:58.000Z</time>
      </trkpt>
      <trkpt lat="47.62546" lon="6.06192">
        <ele>268.8</ele>
        <time>2012-06-07T08:20:00.000Z</time>
      </trkpt>
      <trkpt lat="47.62551" lon="6.06186">
        <ele>268.6</ele>
        <time>2012-06-07T08:20:02.000Z</time>
      </trkpt>
      <trkpt lat="47.62556" lon="6.0618">
        <ele>268.6</ele>
        <time>2012-06-07T08:20:04.000Z</time>
      </trkpt>
      <trkpt lat="47.62561" lon="6.06174">
        <ele>268.7</ele>
        <time>2012-06-07T08:20:06.000Z</time>
      </trkpt>
      <trkpt lat="47.62566" lon="6.06167">
        <ele>268.7</ele>
        <time>2012-06-07T08:20:08.000Z</time>
      </trkpt>
      <trkpt lat="47.62572" lon="6.06161">
        <ele>268.7</ele>
        <time>2012-06-07T08:20:10.000Z</time>
      </trkpt>
      <trkpt lat="47.62577" lon="6.06155">
        <ele>268.8</ele>
        <time>2012-06-07T08:20:12.000Z</time>
      </trkpt>
      <trkpt lat="47.62583" lon="6.06149">
        <ele>268.9</ele>
        <time>2012-06-07T08:20:14.000Z</time>
      </trkpt>
      <trkpt lat="47.62588" lon="6.06144">
        <ele>268.9</ele>
        <time>2012-06-07T08:20:16.000Z</time>
      </trkpt>
      <trkpt lat="47.62594" lon="6.0614">
        <ele>269</ele>
        <time>2012-06-07T08:20:18.000Z</time>
      </trkpt>
      <trkpt lat="47.626" lon="6.06135">
        <ele>269</ele>
        <time>2012-06-07T08:20:20.000Z</time>
      </trkpt>
      <trkpt lat="47.62606" lon="6.0613">
        <ele>269.1</ele>
        <time>2012-06-07T08:20:22.000Z</time>
      </trkpt>
      <trkpt lat="47.62612" lon="6.06127">
        <ele>269.1</ele>
        <time>2012-06-07T08:20:24.000Z</time>
      </trkpt>
      <trkpt lat="47.62618" lon="6.06124">
        <ele>269.2</ele>
        <time>2012-06-07T08:20:26.000Z</time>
      </trkpt>
      <trkpt lat="47.62624" lon="6.0612">
        <ele>269.2</ele>
        <time>2012-06-07T08:20:28.000Z</time>
      </trkpt>
      <trkpt lat="47.6263" lon="6.06116">
        <ele>269.3</ele>
        <time>2012-06-07T08:20:30.000Z</time>
      </trkpt>
      <trkpt lat="47.62636" lon="6.06113">
        <ele>269.4</ele>
        <time>2012-06-07T08:20:32.000Z</time>
      </trkpt>
      <trkpt lat="47.62642" lon="6.06109">
        <ele>269.5</ele>
        <time>2012-06-07T08:20:34.000Z</time>
      </trkpt>
      <trkpt lat="47.62648" lon="6.06105">
        <ele>269.5</ele>
        <time>2012-06-07T08:20:36.000Z</time>
      </trkpt>
      <trkpt lat="47.62654" lon="6.06101">
        <ele>269.5</ele>
        <time>2012-06-07T08:20:38.000Z</time>
      </trkpt>
      <trkpt lat="47.6266" lon="6.06096">
        <ele>269.6</ele>
        <time>2012-06-07T08:20:40.000Z</time>
      </trkpt>
      <trkpt lat="47.62665" lon="6.06091">
        <ele>269.7</ele>
        <time>2012-06-07T08:20:42.000Z</time>
      </trkpt>
      <trkpt lat="47.62671" lon="6.06087">
        <ele>269.9</ele>
        <time>2012-06-07T08:20:44.000Z</time>
      </trkpt>
      <trkpt lat="47.62676" lon="6.06081">
        <ele>270.1</ele>
        <time>2012-06-07T08:20:46.000Z</time>
      </trkpt>
      <trkpt lat="47.62681" lon="6.06076">
        <ele>270.1</ele>
        <time>2012-06-07T08:20:48.000Z</time>
      </trkpt>
      <trkpt lat="47.62687" lon="6.0607">
        <ele>270.2</ele>
        <time>2012-06-07T08:20:50.000Z</time>
      </trkpt>
      <trkpt lat="47.62707" lon="6.06042">
        <ele>269.3</ele>
        <time>2012-06-07T08:20:58.000Z</time>
      </trkpt>
      <trkpt lat="47.62712" lon="6.06036">
        <ele>270.3</ele>
        <time>2012-06-07T08:21:00.000Z</time>
      </trkpt>
      <trkpt lat="47.62717" lon="6.06029">
        <ele>270.3</ele>
        <time>2012-06-07T08:21:02.000Z</time>
      </trkpt>
      <trkpt lat="47.62723" lon="6.06022">
        <ele>270.1</ele>
        <time>2012-06-07T08:21:04.000Z</time>
      </trkpt>
      <trkpt lat="47.62728" lon="6.06015">
        <ele>270</ele>
        <time>2012-06-07T08:21:06.000Z</time>
      </trkpt>
      <trkpt lat="47.62734" lon="6.06008">
        <ele>269.9</ele>
        <time>2012-06-07T08:21:08.000Z</time>
      </trkpt>
      <trkpt lat="47.62739" lon="6.06002">
        <ele>269.8</ele>
        <time>2012-06-07T08:21:10.000Z</time>
      </trkpt>
      <trkpt lat="47.62744" lon="6.05996">
        <ele>269.7</ele>
        <time>2012-06-07T08:21:12.000Z</time>
      </trkpt>
      <trkpt lat="47.6275" lon="6.05989">
        <ele>269.4</ele>
        <time>2012-06-07T08:21:14.000Z</time>
      </trkpt>
      <trkpt lat="47.62756" lon="6.05983">
        <ele>269.2</ele>
        <time>2012-06-07T08:21:16.000Z</time>
      </trkpt>
      <trkpt lat="47.62762" lon="6.05977">
        <ele>269.2</ele>
        <time>2012-06-07T08:21:18.000Z</time>
      </trkpt>
      <trkpt lat="47.62768" lon="6.05972">
        <ele>269.4</ele>
        <time>2012-06-07T08:21:20.000Z</time>
      </trkpt>
      <trkpt lat="47.62773" lon="6.05966">
        <ele>269.3</ele>
        <time>2012-06-07T08:21:22.000Z</time>
      </trkpt>
      <trkpt lat="47.62779" lon="6.05961">
        <ele>269.2</ele>
        <time>2012-06-07T08:21:24.000Z</time>
      </trkpt>
      <trkpt lat="47.62785" lon="6.05955">
        <ele>269.1</ele>
        <time>2012-06-07T08:21:26.000Z</time>
      </trkpt>
      <trkpt lat="47.62791" lon="6.05949">
        <ele>269</ele>
        <time>2012-06-07T08:21:28.000Z</time>
      </trkpt>
      <trkpt lat="47.62797" lon="6.05943">
        <ele>269</ele>
        <time>2012-06-07T08:21:30.000Z</time>
      </trkpt>
      <trkpt lat="47.62802" lon="6.05937">
        <ele>268.9</ele>
        <time>2012-06-07T08:21:32.000Z</time>
      </trkpt>
      <trkpt lat="47.62809" lon="6.05931">
        <ele>268.8</ele>
        <time>2012-06-07T08:21:34.000Z</time>
      </trkpt>
      <trkpt lat="47.62815" lon="6.05923">
        <ele>268.6</ele>
        <time>2012-06-07T08:21:36.000Z</time>
      </trkpt>
      <trkpt lat="47.62821" lon="6.05916">
        <ele>268.6</ele>
        <time>2012-06-07T08:21:38.000Z</time>
      </trkpt>
      <trkpt lat="47.62827" lon="6.05908">
        <ele>268.5</ele>
        <time>2012-06-07T08:21:40.000Z</time>
      </trkpt>
      <trkpt lat="47.62833" lon="6.05899">
        <ele>268.5</ele>
        <time>2012-06-07T08:21:42.000Z</time>
      </trkpt>
      <trkpt lat="47.62838" lon="6.05891">
        <ele>268.4</ele>
        <time>2012-06-07T08:21:44.000Z</time>
      </trkpt>
      <trkpt lat="47.62844" lon="6.05882">
        <ele>268.3</ele>
        <time>2012-06-07T08:21:46.000Z</time>
      </trkpt>
      <trkpt lat="47.62849" lon="6.05872">
        <ele>268.1</ele>
        <time>2012-06-07T08:21:48.000Z</time>
      </trkpt>
      <trkpt lat="47.62854" lon="6.05862">
        <ele>268</ele>
        <time>2012-06-07T08:21:50.000Z</time>
      </trkpt>
      <trkpt lat="47.62878" lon="6.05819">
        <ele>268.3</ele>
        <time>2012-06-07T08:21:58.000Z</time>
      </trkpt>
      <trkpt lat="47.6288" lon="6.05807">
        <ele>272.1</ele>
        <time>2012-06-07T08:21:59.000Z</time>
      </trkpt>
      <trkpt lat="47.62885" lon="6.058">
        <ele>274.3</ele>
        <time>2012-06-07T08:22:00.000Z</time>
      </trkpt>
      <trkpt lat="47.62887" lon="6.05794">
        <ele>277.4</ele>
        <time>2012-06-07T08:22:01.000Z</time>
      </trkpt>
      <trkpt lat="47.62891" lon="6.05789">
        <ele>278.5</ele>
        <time>2012-06-07T08:22:02.000Z</time>
      </trkpt>
      <trkpt lat="47.62895" lon="6.05783">
        <ele>279.8</ele>
        <time>2012-06-07T08:22:03.000Z</time>
      </trkpt>
      <trkpt lat="47.62898" lon="6.05776">
        <ele>281.3</ele>
        <time>2012-06-07T08:22:04.000Z</time>
      </trkpt>
      <trkpt lat="47.62901" lon="6.05769">
        <ele>283.9</ele>
        <time>2012-06-07T08:22:05.000Z</time>
      </trkpt>
      <trkpt lat="47.62903" lon="6.05762">
        <ele>285.5</ele>
        <time>2012-06-07T08:22:06.000Z</time>
      </trkpt>
      <trkpt lat="47.62906" lon="6.05756">
        <ele>287.5</ele>
        <time>2012-06-07T08:22:07.000Z</time>
      </trkpt>
      <trkpt lat="47.62909" lon="6.0575">
        <ele>289.4</ele>
        <time>2012-06-07T08:22:08.000Z</time>
      </trkpt>
      <trkpt lat="47.62912" lon="6.05746">
        <ele>291.2</ele>
        <time>2012-06-07T08:22:09.000Z</time>
      </trkpt>
      <trkpt lat="47.62916" lon="6.05742">
        <ele>292</ele>
        <time>2012-06-07T08:22:10.000Z</time>
      </trkpt>
      <trkpt lat="47.62922" lon="6.05737">
        <ele>292.8</ele>
        <time>2012-06-07T08:22:12.000Z</time>
      </trkpt>
      <trkpt lat="47.62922" lon="6.05727">
        <ele>297.6</ele>
        <time>2012-06-07T08:22:15.000Z</time>
      </trkpt>
      <trkpt lat="47.62922" lon="6.05716">
        <ele>299</ele>
        <time>2012-06-07T08:22:17.000Z</time>
      </trkpt>
      <trkpt lat="47.6292" lon="6.05704">
        <ele>298.6</ele>
        <time>2012-06-07T08:22:19.000Z</time>
      </trkpt>
      <trkpt lat="47.62919" lon="6.05695">
        <ele>299.1</ele>
        <time>2012-06-07T08:22:21.000Z</time>
      </trkpt>
      <trkpt lat="47.62916" lon="6.05684">
        <ele>296.9</ele>
        <time>2012-06-07T08:22:23.000Z</time>
      </trkpt>
      <trkpt lat="47.62914" lon="6.05677">
        <ele>295.8</ele>
        <time>2012-06-07T08:22:24.000Z</time>
      </trkpt>
      <trkpt lat="47.62913" lon="6.0567">
        <ele>294.9</ele>
        <time>2012-06-07T08:22:25.000Z</time>
      </trkpt>
      <trkpt lat="47.62911" lon="6.05664">
        <ele>294.3</ele>
        <time>2012-06-07T08:22:26.000Z</time>
      </trkpt>
      <trkpt lat="47.6291" lon="6.05657">
        <ele>294</ele>
        <time>2012-06-07T08:22:27.000Z</time>
      </trkpt>
      <trkpt lat="47.62908" lon="6.0565">
        <ele>293.7</ele>
        <time>2012-06-07T08:22:28.000Z</time>
      </trkpt>
      <trkpt lat="47.62909" lon="6.05643">
        <ele>293.1</ele>
        <time>2012-06-07T08:22:29.000Z</time>
      </trkpt>
      <trkpt lat="47.62909" lon="6.05634">
        <ele>292.4</ele>
        <time>2012-06-07T08:22:30.000Z</time>
      </trkpt>
      <trkpt lat="47.62909" lon="6.05625">
        <ele>291.9</ele>
        <time>2012-06-07T08:22:31.000Z</time>
      </trkpt>
      <trkpt lat="47.62909" lon="6.05615">
        <ele>291.5</ele>
        <time>2012-06-07T08:22:32.000Z</time>
      </trkpt>
      <trkpt lat="47.62909" lon="6.05605">
        <ele>291.3</ele>
        <time>2012-06-07T08:22:33.000Z</time>
      </trkpt>
      <trkpt lat="47.62909" lon="6.05594">
        <ele>290.8</ele>
        <time>2012-06-07T08:22:34.000Z</time>
      </trkpt>
      <trkpt lat="47.62909" lon="6.05584">
        <ele>290.3</ele>
        <time>2012-06-07T08:22:35.000Z</time>
      </trkpt>
      <trkpt lat="47.62909" lon="6.05573">
        <ele>290.4</ele>
        <time>2012-06-07T08:22:36.000Z</time>
      </trkpt>
      <trkpt lat="47.62909" lon="6.05564">
        <ele>290.7</ele>
        <time>2012-06-07T08:22:37.000Z</time>
      </trkpt>
      <trkpt lat="47.62909" lon="6.05553">
        <ele>290.9</ele>
        <time>2012-06-07T08:22:38.000Z</time>
      </trkpt>
      <trkpt lat="47.62909" lon="6.05544">
        <ele>290.9</ele>
        <time>2012-06-07T08:22:39.000Z</time>
      </trkpt>
      <trkpt lat="47.62909" lon="6.05535">
        <ele>290.9</ele>
        <time>2012-06-07T08:22:40.000Z</time>
      </trkpt>
      <trkpt lat="47.62908" lon="6.05526">
        <ele>290.9</ele>
        <time>2012-06-07T08:22:41.000Z</time>
      </trkpt>
      <trkpt lat="47.62907" lon="6.05517">
        <ele>290.8</ele>
        <time>2012-06-07T08:22:42.000Z</time>
      </trkpt>
      <trkpt lat="47.62905" lon="6.05508">
        <ele>290.5</ele>
        <time>2012-06-07T08:22:43.000Z</time>
      </trkpt>
      <trkpt lat="47.62903" lon="6.055">
        <ele>290.5</ele>
        <time>2012-06-07T08:22:44.000Z</time>
      </trkpt>
      <trkpt lat="47.62901" lon="6.05492">
        <ele>290.6</ele>
        <time>2012-06-07T08:22:45.000Z</time>
      </trkpt>
      <trkpt lat="47.62899" lon="6.05484">
        <ele>290.5</ele>
        <time>2012-06-07T08:22:46.000Z</time>
      </trkpt>
      <trkpt lat="47.62897" lon="6.05476">
        <ele>290.8</ele>
        <time>2012-06-07T08:22:47.000Z</time>
      </trkpt>
      <trkpt lat="47.62895" lon="6.05469">
        <ele>290.6</ele>
        <time>2012-06-07T08:22:48.000Z</time>
      </trkpt>
      <trkpt lat="47.62893" lon="6.05462">
        <ele>290.4</ele>
        <time>2012-06-07T08:22:49.000Z</time>
      </trkpt>
      <trkpt lat="47.62892" lon="6.05456">
        <ele>290.5</ele>
        <time>2012-06-07T08:22:50.000Z</time>
      </trkpt>
      <trkpt lat="47.6286" lon="6.054">
        <ele>313.7</ele>
        <time>2012-06-07T08:23:03.000Z</time>
      </trkpt>
      <trkpt lat="47.6286" lon="6.05391">
        <ele>315.5</ele>
        <time>2012-06-07T08:23:05.000Z</time>
      </trkpt>
      <trkpt lat="47.62858" lon="6.05382">
        <ele>318.3</ele>
        <time>2012-06-07T08:23:08.000Z</time>
      </trkpt>
      <trkpt lat="47.62857" lon="6.05374">
        <ele>319.1</ele>
        <time>2012-06-07T08:23:10.000Z</time>
      </trkpt>
      <trkpt lat="47.62857" lon="6.05365">
        <ele>319.2</ele>
        <time>2012-06-07T08:23:12.000Z</time>
      </trkpt>
      <trkpt lat="47.62856" lon="6.05356">
        <ele>318.6</ele>
        <time>2012-06-07T08:23:14.000Z</time>
      </trkpt>
      <trkpt lat="47.62856" lon="6.05348">
        <ele>320.3</ele>
        <time>2012-06-07T08:23:16.000Z</time>
      </trkpt>
      <trkpt lat="47.62855" lon="6.0534">
        <ele>320.8</ele>
        <time>2012-06-07T08:23:19.000Z</time>
      </trkpt>
      <trkpt lat="47.62852" lon="6.05331">
        <ele>322.1</ele>
        <time>2012-06-07T08:23:21.000Z</time>
      </trkpt>
      <trkpt lat="47.62848" lon="6.05321">
        <ele>324</ele>
        <time>2012-06-07T08:23:23.000Z</time>
      </trkpt>
      <trkpt lat="47.62845" lon="6.05312">
        <ele>322.1</ele>
        <time>2012-06-07T08:23:25.000Z</time>
      </trkpt>
      <trkpt lat="47.62843" lon="6.05303">
        <ele>319.2</ele>
        <time>2012-06-07T08:23:27.000Z</time>
      </trkpt>
      <trkpt lat="47.62839" lon="6.05291">
        <ele>317.9</ele>
        <time>2012-06-07T08:23:29.000Z</time>
      </trkpt>
      <trkpt lat="47.62837" lon="6.05283">
        <ele>318.7</ele>
        <time>2012-06-07T08:23:30.000Z</time>
      </trkpt>
      <trkpt lat="47.62835" lon="6.05276">
        <ele>317.2</ele>
        <time>2012-06-07T08:23:31.000Z</time>
      </trkpt>
      <trkpt lat="47.62833" lon="6.05268">
        <ele>315.7</ele>
        <time>2012-06-07T08:23:32.000Z</time>
      </trkpt>
      <trkpt lat="47.62831" lon="6.05261">
        <ele>314.3</ele>
        <time>2012-06-07T08:23:33.000Z</time>
      </trkpt>
      <trkpt lat="47.62829" lon="6.05253">
        <ele>312.8</ele>
        <time>2012-06-07T08:23:34.000Z</time>
      </trkpt>
      <trkpt lat="47.62827" lon="6.05246">
        <ele>311.6</ele>
        <time>2012-06-07T08:23:35.000Z</time>
      </trkpt>
      <trkpt lat="47.62824" lon="6.05239">
        <ele>310.4</ele>
        <time>2012-06-07T08:23:36.000Z</time>
      </trkpt>
      <trkpt lat="47.62821" lon="6.05233">
        <ele>309.7</ele>
        <time>2012-06-07T08:23:37.000Z</time>
      </trkpt>
      <trkpt lat="47.62817" lon="6.05228">
        <ele>309.1</ele>
        <time>2012-06-07T08:23:38.000Z</time>
      </trkpt>
      <trkpt lat="47.62813" lon="6.05222">
        <ele>309.3</ele>
        <time>2012-06-07T08:23:39.000Z</time>
      </trkpt>
      <trkpt lat="47.6281" lon="6.05217">
        <ele>309.2</ele>
        <time>2012-06-07T08:23:40.000Z</time>
      </trkpt>
      <trkpt lat="47.62807" lon="6.05209">
        <ele>309.7</ele>
        <time>2012-06-07T08:23:41.000Z</time>
      </trkpt>
      <trkpt lat="47.62804" lon="6.05199">
        <ele>309.1</ele>
        <time>2012-06-07T08:23:42.000Z</time>
      </trkpt>
      <trkpt lat="47.62802" lon="6.05187">
        <ele>308.8</ele>
        <time>2012-06-07T08:23:43.000Z</time>
      </trkpt>
      <trkpt lat="47.62801" lon="6.05174">
        <ele>310</ele>
        <time>2012-06-07T08:23:44.000Z</time>
      </trkpt>
      <trkpt lat="47.628" lon="6.05163">
        <ele>310.6</ele>
        <time>2012-06-07T08:23:45.000Z</time>
      </trkpt>
      <trkpt lat="47.62799" lon="6.05151">
        <ele>311.5</ele>
        <time>2012-06-07T08:23:46.000Z</time>
      </trkpt>
      <trkpt lat="47.62798" lon="6.0514">
        <ele>311.7</ele>
        <time>2012-06-07T08:23:47.000Z</time>
      </trkpt>
      <trkpt lat="47.62796" lon="6.0513">
        <ele>311.9</ele>
        <time>2012-06-07T08:23:48.000Z</time>
      </trkpt>
      <trkpt lat="47.62796" lon="6.05119">
        <ele>312</ele>
        <time>2012-06-07T08:23:49.000Z</time>
      </trkpt>
      <trkpt lat="47.62794" lon="6.0511">
        <ele>311.6</ele>
        <time>2012-06-07T08:23:50.000Z</time>
      </trkpt>
      <trkpt lat="47.62793" lon="6.05101">
        <ele>311.2</ele>
        <time>2012-06-07T08:23:51.000Z</time>
      </trkpt>
      <trkpt lat="47.62792" lon="6.05092">
        <ele>310.6</ele>
        <time>2012-06-07T08:23:52.000Z</time>
      </trkpt>
      <trkpt lat="47.62792" lon="6.05083">
        <ele>310.1</ele>
        <time>2012-06-07T08:23:53.000Z</time>
      </trkpt>
      <trkpt lat="47.62792" lon="6.05074">
        <ele>309.4</ele>
        <time>2012-06-07T08:23:54.000Z</time>
      </trkpt>
      <trkpt lat="47.62791" lon="6.05066">
        <ele>308.6</ele>
        <time>2012-06-07T08:23:55.000Z</time>
      </trkpt>
      <trkpt lat="47.62792" lon="6.05057">
        <ele>307.8</ele>
        <time>2012-06-07T08:23:56.000Z</time>
      </trkpt>
      <trkpt lat="47.62791" lon="6.05049">
        <ele>307.4</ele>
        <time>2012-06-07T08:23:57.000Z</time>
      </trkpt>
      <trkpt lat="47.62791" lon="6.05041">
        <ele>307.1</ele>
        <time>2012-06-07T08:23:58.000Z</time>
      </trkpt>
      <trkpt lat="47.6279" lon="6.05033">
        <ele>306.7</ele>
        <time>2012-06-07T08:23:59.000Z</time>
      </trkpt>
      <trkpt lat="47.62789" lon="6.05026">
        <ele>306.4</ele>
        <time>2012-06-07T08:24:00.000Z</time>
      </trkpt>
      <trkpt lat="47.62788" lon="6.05019">
        <ele>306.1</ele>
        <time>2012-06-07T08:24:01.000Z</time>
      </trkpt>
      <trkpt lat="47.62786" lon="6.05012">
        <ele>305.7</ele>
        <time>2012-06-07T08:24:02.000Z</time>
      </trkpt>
      <trkpt lat="47.62785" lon="6.05004">
        <ele>305.4</ele>
        <time>2012-06-07T08:24:03.000Z</time>
      </trkpt>
      <trkpt lat="47.62784" lon="6.04996">
        <ele>305</ele>
        <time>2012-06-07T08:24:04.000Z</time>
      </trkpt>
      <trkpt lat="47.62783" lon="6.04987">
        <ele>304.9</ele>
        <time>2012-06-07T08:24:05.000Z</time>
      </trkpt>
      <trkpt lat="47.62781" lon="6.0498">
        <ele>304.9</ele>
        <time>2012-06-07T08:24:06.000Z</time>
      </trkpt>
      <trkpt lat="47.6278" lon="6.04971">
        <ele>304.9</ele>
        <time>2012-06-07T08:24:07.000Z</time>
      </trkpt>
      <trkpt lat="47.62779" lon="6.04963">
        <ele>304.7</ele>
        <time>2012-06-07T08:24:08.000Z</time>
      </trkpt>
      <trkpt lat="47.62778" lon="6.04955">
        <ele>304.6</ele>
        <time>2012-06-07T08:24:09.000Z</time>
      </trkpt>
      <trkpt lat="47.62776" lon="6.04948">
        <ele>304.5</ele>
        <time>2012-06-07T08:24:10.000Z</time>
      </trkpt>
      <trkpt lat="47.62774" lon="6.04941">
        <ele>304.5</ele>
        <time>2012-06-07T08:24:11.000Z</time>
      </trkpt>
      <trkpt lat="47.62772" lon="6.04933">
        <ele>303.8</ele>
        <time>2012-06-07T08:24:12.000Z</time>
      </trkpt>
      <trkpt lat="47.62769" lon="6.0492">
        <ele>303.2</ele>
        <time>2012-06-07T08:24:14.000Z</time>
      </trkpt>
      <trkpt lat="47.62768" lon="6.04911">
        <ele>302.5</ele>
        <time>2012-06-07T08:24:15.000Z</time>
      </trkpt>
      <trkpt lat="47.62767" lon="6.04902">
        <ele>301.9</ele>
        <time>2012-06-07T08:24:16.000Z</time>
      </trkpt>
      <trkpt lat="47.62767" lon="6.04895">
        <ele>301.4</ele>
        <time>2012-06-07T08:24:17.000Z</time>
      </trkpt>
      <trkpt lat="47.62765" lon="6.04884">
        <ele>300.6</ele>
        <time>2012-06-07T08:24:19.000Z</time>
      </trkpt>
      <trkpt lat="47.62764" lon="6.04876">
        <ele>300.4</ele>
        <time>2012-06-07T08:24:20.000Z</time>
      </trkpt>
      <trkpt lat="47.62764" lon="6.04868">
        <ele>300.2</ele>
        <time>2012-06-07T08:24:21.000Z</time>
      </trkpt>
      <trkpt lat="47.62764" lon="6.04862">
        <ele>299.9</ele>
        <time>2012-06-07T08:24:22.000Z</time>
      </trkpt>
      <trkpt lat="47.62763" lon="6.04854">
        <ele>299.6</ele>
        <time>2012-06-07T08:24:23.000Z</time>
      </trkpt>
      <trkpt lat="47.62763" lon="6.04847">
        <ele>299.2</ele>
        <time>2012-06-07T08:24:24.000Z</time>
      </trkpt>
      <trkpt lat="47.62763" lon="6.04839">
        <ele>298.9</ele>
        <time>2012-06-07T08:24:25.000Z</time>
      </trkpt>
      <trkpt lat="47.62764" lon="6.04832">
        <ele>298.5</ele>
        <time>2012-06-07T08:24:26.000Z</time>
      </trkpt>
      <trkpt lat="47.62762" lon="6.04825">
        <ele>297.1</ele>
        <time>2012-06-07T08:24:27.000Z</time>
      </trkpt>
      <trkpt lat="47.62762" lon="6.04817">
        <ele>296.2</ele>
        <time>2012-06-07T08:24:28.000Z</time>
      </trkpt>
      <trkpt lat="47.62762" lon="6.04809">
        <ele>295.5</ele>
        <time>2012-06-07T08:24:29.000Z</time>
      </trkpt>
      <trkpt lat="47.62762" lon="6.04801">
        <ele>294.8</ele>
        <time>2012-06-07T08:24:30.000Z</time>
      </trkpt>
      <trkpt lat="47.62761" lon="6.04794">
        <ele>294.2</ele>
        <time>2012-06-07T08:24:31.000Z</time>
      </trkpt>
      <trkpt lat="47.62761" lon="6.04786">
        <ele>293.6</ele>
        <time>2012-06-07T08:24:32.000Z</time>
      </trkpt>
      <trkpt lat="47.62761" lon="6.04779">
        <ele>292.9</ele>
        <time>2012-06-07T08:24:33.000Z</time>
      </trkpt>
      <trkpt lat="47.62762" lon="6.04772">
        <ele>292.1</ele>
        <time>2012-06-07T08:24:34.000Z</time>
      </trkpt>
      <trkpt lat="47.62762" lon="6.04764">
        <ele>291.3</ele>
        <time>2012-06-07T08:24:35.000Z</time>
      </trkpt>
      <trkpt lat="47.62762" lon="6.04757">
        <ele>290.6</ele>
        <time>2012-06-07T08:24:36.000Z</time>
      </trkpt>
      <trkpt lat="47.62762" lon="6.0475">
        <ele>290</ele>
        <time>2012-06-07T08:24:37.000Z</time>
      </trkpt>
      <trkpt lat="47.62763" lon="6.04738">
        <ele>289.2</ele>
        <time>2012-06-07T08:24:39.000Z</time>
      </trkpt>
      <trkpt lat="47.62763" lon="6.04728">
        <ele>288.1</ele>
        <time>2012-06-07T08:24:41.000Z</time>
      </trkpt>
      <trkpt lat="47.62764" lon="6.04719">
        <ele>287.2</ele>
        <time>2012-06-07T08:24:43.000Z</time>
      </trkpt>
      <trkpt lat="47.62766" lon="6.04708">
        <ele>286.4</ele>
        <time>2012-06-07T08:24:45.000Z</time>
      </trkpt>
      <trkpt lat="47.62766" lon="6.047">
        <ele>286.2</ele>
        <time>2012-06-07T08:24:46.000Z</time>
      </trkpt>
      <trkpt lat="47.62766" lon="6.04693">
        <ele>285.6</ele>
        <time>2012-06-07T08:24:47.000Z</time>
      </trkpt>
      <trkpt lat="47.62766" lon="6.04685">
        <ele>284.9</ele>
        <time>2012-06-07T08:24:48.000Z</time>
      </trkpt>
      <trkpt lat="47.62766" lon="6.04678">
        <ele>284.5</ele>
        <time>2012-06-07T08:24:49.000Z</time>
      </trkpt>
      <trkpt lat="47.62771" lon="6.0459">
        <ele>269.1</ele>
        <time>2012-06-07T08:24:57.000Z</time>
      </trkpt>
      <trkpt lat="47.62777" lon="6.04582">
        <ele>256.9</ele>
        <time>2012-06-07T08:24:59.000Z</time>
      </trkpt>
      <trkpt lat="47.62775" lon="6.04574">
        <ele>259.1</ele>
        <time>2012-06-07T08:25:01.000Z</time>
      </trkpt>
      <trkpt lat="47.62775" lon="6.04564">
        <ele>258.7</ele>
        <time>2012-06-07T08:25:03.000Z</time>
      </trkpt>
      <trkpt lat="47.62775" lon="6.04554">
        <ele>259.1</ele>
        <time>2012-06-07T08:25:05.000Z</time>
      </trkpt>
      <trkpt lat="47.62776" lon="6.04543">
        <ele>260.1</ele>
        <time>2012-06-07T08:25:07.000Z</time>
      </trkpt>
      <trkpt lat="47.62776" lon="6.04533">
        <ele>260.7</ele>
        <time>2012-06-07T08:25:09.000Z</time>
      </trkpt>
      <trkpt lat="47.62775" lon="6.04525">
        <ele>260.5</ele>
        <time>2012-06-07T08:25:11.000Z</time>
      </trkpt>
      <trkpt lat="47.62777" lon="6.04514">
        <ele>260.6</ele>
        <time>2012-06-07T08:25:13.000Z</time>
      </trkpt>
      <trkpt lat="47.62778" lon="6.04501">
        <ele>260.4</ele>
        <time>2012-06-07T08:25:15.000Z</time>
      </trkpt>
      <trkpt lat="47.62778" lon="6.04494">
        <ele>260.1</ele>
        <time>2012-06-07T08:25:16.000Z</time>
      </trkpt>
      <trkpt lat="47.6278" lon="6.04481">
        <ele>260.2</ele>
        <time>2012-06-07T08:25:18.000Z</time>
      </trkpt>
      <trkpt lat="47.6278" lon="6.04474">
        <ele>260</ele>
        <time>2012-06-07T08:25:19.000Z</time>
      </trkpt>
      <trkpt lat="47.62781" lon="6.04461">
        <ele>259.5</ele>
        <time>2012-06-07T08:25:21.000Z</time>
      </trkpt>
      <trkpt lat="47.62781" lon="6.04448">
        <ele>259.7</ele>
        <time>2012-06-07T08:25:23.000Z</time>
      </trkpt>
      <trkpt lat="47.62782" lon="6.04436">
        <ele>259.9</ele>
        <time>2012-06-07T08:25:25.000Z</time>
      </trkpt>
      <trkpt lat="47.62783" lon="6.04429">
        <ele>259.9</ele>
        <time>2012-06-07T08:25:26.000Z</time>
      </trkpt>
      <trkpt lat="47.62783" lon="6.04422">
        <ele>260</ele>
        <time>2012-06-07T08:25:27.000Z</time>
      </trkpt>
      <trkpt lat="47.62784" lon="6.04415">
        <ele>260</ele>
        <time>2012-06-07T08:25:28.000Z</time>
      </trkpt>
      <trkpt lat="47.62785" lon="6.04408">
        <ele>260</ele>
        <time>2012-06-07T08:25:29.000Z</time>
      </trkpt>
      <trkpt lat="47.62786" lon="6.04401">
        <ele>259.9</ele>
        <time>2012-06-07T08:25:30.000Z</time>
      </trkpt>
      <trkpt lat="47.62788" lon="6.04393">
        <ele>259.6</ele>
        <time>2012-06-07T08:25:31.000Z</time>
      </trkpt>
      <trkpt lat="47.6279" lon="6.04386">
        <ele>259.5</ele>
        <time>2012-06-07T08:25:32.000Z</time>
      </trkpt>
      <trkpt lat="47.62791" lon="6.04379">
        <ele>259.5</ele>
        <time>2012-06-07T08:25:33.000Z</time>
      </trkpt>
      <trkpt lat="47.62793" lon="6.04372">
        <ele>259.3</ele>
        <time>2012-06-07T08:25:34.000Z</time>
      </trkpt>
      <trkpt lat="47.62795" lon="6.04364">
        <ele>259.4</ele>
        <time>2012-06-07T08:25:35.000Z</time>
      </trkpt>
      <trkpt lat="47.62798" lon="6.04358">
        <ele>259.3</ele>
        <time>2012-06-07T08:25:36.000Z</time>
      </trkpt>
      <trkpt lat="47.628" lon="6.04351">
        <ele>259.5</ele>
        <time>2012-06-07T08:25:37.000Z</time>
      </trkpt>
      <trkpt lat="47.62802" lon="6.04345">
        <ele>259.4</ele>
        <time>2012-06-07T08:25:38.000Z</time>
      </trkpt>
      <trkpt lat="47.62804" lon="6.04338">
        <ele>259.2</ele>
        <time>2012-06-07T08:25:39.000Z</time>
      </trkpt>
      <trkpt lat="47.62808" lon="6.04329">
        <ele>258.9</ele>
        <time>2012-06-07T08:25:41.000Z</time>
      </trkpt>
      <trkpt lat="47.62812" lon="6.04317">
        <ele>258.6</ele>
        <time>2012-06-07T08:25:43.000Z</time>
      </trkpt>
      <trkpt lat="47.62815" lon="6.04311">
        <ele>258.4</ele>
        <time>2012-06-07T08:25:44.000Z</time>
      </trkpt>
      <trkpt lat="47.62817" lon="6.04305">
        <ele>258.2</ele>
        <time>2012-06-07T08:25:45.000Z</time>
      </trkpt>
      <trkpt lat="47.62822" lon="6.04294">
        <ele>258.1</ele>
        <time>2012-06-07T08:25:47.000Z</time>
      </trkpt>
      <trkpt lat="47.62827" lon="6.04285">
        <ele>257.3</ele>
        <time>2012-06-07T08:25:49.000Z</time>
      </trkpt>
      <trkpt lat="47.62832" lon="6.04274">
        <ele>256.9</ele>
        <time>2012-06-07T08:25:51.000Z</time>
      </trkpt>
      <trkpt lat="47.62835" lon="6.04267">
        <ele>256.9</ele>
        <time>2012-06-07T08:25:52.000Z</time>
      </trkpt>
      <trkpt lat="47.62837" lon="6.04258">
        <ele>256.7</ele>
        <time>2012-06-07T08:25:53.000Z</time>
      </trkpt>
      <trkpt lat="47.6284" lon="6.04252">
        <ele>256.6</ele>
        <time>2012-06-07T08:25:54.000Z</time>
      </trkpt>
      <trkpt lat="47.62844" lon="6.04242">
        <ele>256.6</ele>
        <time>2012-06-07T08:25:56.000Z</time>
      </trkpt>
      <trkpt lat="47.62848" lon="6.04233">
        <ele>256.7</ele>
        <time>2012-06-07T08:25:58.000Z</time>
      </trkpt>
      <trkpt lat="47.62853" lon="6.04224">
        <ele>256.8</ele>
        <time>2012-06-07T08:26:00.000Z</time>
      </trkpt>
      <trkpt lat="47.62857" lon="6.04214">
        <ele>256.8</ele>
        <time>2012-06-07T08:26:02.000Z</time>
      </trkpt>
      <trkpt lat="47.62861" lon="6.04206">
        <ele>256.7</ele>
        <time>2012-06-07T08:26:04.000Z</time>
      </trkpt>
      <trkpt lat="47.62865" lon="6.04198">
        <ele>256.6</ele>
        <time>2012-06-07T08:26:06.000Z</time>
      </trkpt>
      <trkpt lat="47.62868" lon="6.04191">
        <ele>256.5</ele>
        <time>2012-06-07T08:26:08.000Z</time>
      </trkpt>
      <trkpt lat="47.62872" lon="6.04183">
        <ele>256.5</ele>
        <time>2012-06-07T08:26:10.000Z</time>
      </trkpt>
      <trkpt lat="47.62874" lon="6.04177">
        <ele>256.5</ele>
        <time>2012-06-07T08:26:12.000Z</time>
      </trkpt>
      <trkpt lat="47.62877" lon="6.04171">
        <ele>256.5</ele>
        <time>2012-06-07T08:26:15.000Z</time>
      </trkpt>
      <trkpt lat="47.62873" lon="6.04167">
        <ele>262.6</ele>
        <time>2012-06-07T08:27:26.000Z</time>
      </trkpt>
      <trkpt lat="47.62876" lon="6.04162">
        <ele>261.4</ele>
        <time>2012-06-07T08:27:40.000Z</time>
      </trkpt>
      <trkpt lat="47.6288" lon="6.0416">
        <ele>260.8</ele>
        <time>2012-06-07T08:27:48.000Z</time>
      </trkpt>
      <trkpt lat="47.62868" lon="6.04179">
        <ele>261.4</ele>
        <time>2012-06-07T08:27:58.000Z</time>
      </trkpt>
      <trkpt lat="47.6287" lon="6.04174">
        <ele>259.8</ele>
        <time>2012-06-07T08:28:26.000Z</time>
      </trkpt>
      <trkpt lat="47.62868" lon="6.04166">
        <ele>264.1</ele>
        <time>2012-06-07T08:28:46.000Z</time>
      </trkpt>
      <trkpt lat="47.62873" lon="6.04169">
        <ele>256.3</ele>
        <time>2012-06-07T08:29:00.000Z</time>
      </trkpt>
      <trkpt lat="47.62878" lon="6.0417">
        <ele>264.2</ele>
        <time>2012-06-07T08:30:35.000Z</time>
      </trkpt>
      <trkpt lat="47.6288" lon="6.04163">
        <ele>263.1</ele>
        <time>2012-06-07T08:31:06.000Z</time>
      </trkpt>
      <trkpt lat="47.62883" lon="6.04157">
        <ele>262.7</ele>
        <time>2012-06-07T08:31:08.000Z</time>
      </trkpt>
      <trkpt lat="47.62886" lon="6.04152">
        <ele>262.7</ele>
        <time>2012-06-07T08:31:10.000Z</time>
      </trkpt>
      <trkpt lat="47.62889" lon="6.04146">
        <ele>262.5</ele>
        <time>2012-06-07T08:31:12.000Z</time>
      </trkpt>
      <trkpt lat="47.62893" lon="6.0414">
        <ele>262.3</ele>
        <time>2012-06-07T08:31:14.000Z</time>
      </trkpt>
      <trkpt lat="47.62896" lon="6.04133">
        <ele>262.3</ele>
        <time>2012-06-07T08:31:16.000Z</time>
      </trkpt>
      <trkpt lat="47.62898" lon="6.04126">
        <ele>262.3</ele>
        <time>2012-06-07T08:31:18.000Z</time>
      </trkpt>
      <trkpt lat="47.62902" lon="6.0412">
        <ele>262.6</ele>
        <time>2012-06-07T08:31:20.000Z</time>
      </trkpt>
      <trkpt lat="47.62906" lon="6.04112">
        <ele>262.6</ele>
        <time>2012-06-07T08:31:22.000Z</time>
      </trkpt>
      <trkpt lat="47.6291" lon="6.04104">
        <ele>262.6</ele>
        <time>2012-06-07T08:31:24.000Z</time>
      </trkpt>
      <trkpt lat="47.62913" lon="6.04098">
        <ele>262.7</ele>
        <time>2012-06-07T08:31:26.000Z</time>
      </trkpt>
      <trkpt lat="47.62917" lon="6.0409">
        <ele>263.1</ele>
        <time>2012-06-07T08:31:28.000Z</time>
      </trkpt>
      <trkpt lat="47.62921" lon="6.04082">
        <ele>263.2</ele>
        <time>2012-06-07T08:31:30.000Z</time>
      </trkpt>
      <trkpt lat="47.62925" lon="6.04074">
        <ele>263.2</ele>
        <time>2012-06-07T08:31:32.000Z</time>
      </trkpt>
      <trkpt lat="47.6293" lon="6.04066">
        <ele>263.2</ele>
        <time>2012-06-07T08:31:34.000Z</time>
      </trkpt>
      <trkpt lat="47.62934" lon="6.0406">
        <ele>263.5</ele>
        <time>2012-06-07T08:31:36.000Z</time>
      </trkpt>
      <trkpt lat="47.62938" lon="6.04054">
        <ele>263.3</ele>
        <time>2012-06-07T08:31:38.000Z</time>
      </trkpt>
      <trkpt lat="47.62943" lon="6.04046">
        <ele>263.1</ele>
        <time>2012-06-07T08:31:40.000Z</time>
      </trkpt>
      <trkpt lat="47.62949" lon="6.04038">
        <ele>262.9</ele>
        <time>2012-06-07T08:31:42.000Z</time>
      </trkpt>
      <trkpt lat="47.62956" lon="6.04029">
        <ele>262.5</ele>
        <time>2012-06-07T08:31:44.000Z</time>
      </trkpt>
      <trkpt lat="47.6296" lon="6.04025">
        <ele>262.4</ele>
        <time>2012-06-07T08:31:45.000Z</time>
      </trkpt>
      <trkpt lat="47.62963" lon="6.0402">
        <ele>262.4</ele>
        <time>2012-06-07T08:31:46.000Z</time>
      </trkpt>
      <trkpt lat="47.62967" lon="6.04016">
        <ele>262.4</ele>
        <time>2012-06-07T08:31:47.000Z</time>
      </trkpt>
      <trkpt lat="47.6297" lon="6.04011">
        <ele>262.4</ele>
        <time>2012-06-07T08:31:48.000Z</time>
      </trkpt>
      <trkpt lat="47.62974" lon="6.04006">
        <ele>262.4</ele>
        <time>2012-06-07T08:31:49.000Z</time>
      </trkpt>
      <trkpt lat="47.62977" lon="6.04001">
        <ele>262.4</ele>
        <time>2012-06-07T08:31:50.000Z</time>
      </trkpt>
      <trkpt lat="47.62981" lon="6.03997">
        <ele>262.4</ele>
        <time>2012-06-07T08:31:51.000Z</time>
      </trkpt>
      <trkpt lat="47.62984" lon="6.03992">
        <ele>262.3</ele>
        <time>2012-06-07T08:31:52.000Z</time>
      </trkpt>
      <trkpt lat="47.62988" lon="6.03988">
        <ele>262.2</ele>
        <time>2012-06-07T08:31:53.000Z</time>
      </trkpt>
      <trkpt lat="47.62992" lon="6.03983">
        <ele>262.1</ele>
        <time>2012-06-07T08:31:54.000Z</time>
      </trkpt>
      <trkpt lat="47.62996" lon="6.03979">
        <ele>262.1</ele>
        <time>2012-06-07T08:31:55.000Z</time>
      </trkpt>
      <trkpt lat="47.62999" lon="6.03975">
        <ele>262.2</ele>
        <time>2012-06-07T08:31:56.000Z</time>
      </trkpt>
      <trkpt lat="47.63003" lon="6.03971">
        <ele>262.1</ele>
        <time>2012-06-07T08:31:57.000Z</time>
      </trkpt>
      <trkpt lat="47.63007" lon="6.03967">
        <ele>262.1</ele>
        <time>2012-06-07T08:31:58.000Z</time>
      </trkpt>
      <trkpt lat="47.63011" lon="6.03963">
        <ele>262.1</ele>
        <time>2012-06-07T08:31:59.000Z</time>
      </trkpt>
      <trkpt lat="47.63015" lon="6.03957">
        <ele>261.3</ele>
        <time>2012-06-07T08:32:00.000Z</time>
      </trkpt>
      <trkpt lat="47.63019" lon="6.03954">
        <ele>261.2</ele>
        <time>2012-06-07T08:32:01.000Z</time>
      </trkpt>
      <trkpt lat="47.63023" lon="6.03951">
        <ele>261.1</ele>
        <time>2012-06-07T08:32:02.000Z</time>
      </trkpt>
      <trkpt lat="47.63027" lon="6.03949">
        <ele>261</ele>
        <time>2012-06-07T08:32:03.000Z</time>
      </trkpt>
      <trkpt lat="47.63032" lon="6.03948">
        <ele>260.9</ele>
        <time>2012-06-07T08:32:04.000Z</time>
      </trkpt>
      <trkpt lat="47.6304" lon="6.03947">
        <ele>261.2</ele>
        <time>2012-06-07T08:32:06.000Z</time>
      </trkpt>
      <trkpt lat="47.63048" lon="6.03947">
        <ele>261.4</ele>
        <time>2012-06-07T08:32:08.000Z</time>
      </trkpt>
      <trkpt lat="47.63056" lon="6.03948">
        <ele>261.6</ele>
        <time>2012-06-07T08:32:10.000Z</time>
      </trkpt>
      <trkpt lat="47.63065" lon="6.0395">
        <ele>261.7</ele>
        <time>2012-06-07T08:32:12.000Z</time>
      </trkpt>
      <trkpt lat="47.63074" lon="6.03951">
        <ele>261.5</ele>
        <time>2012-06-07T08:32:14.000Z</time>
      </trkpt>
      <trkpt lat="47.63082" lon="6.03953">
        <ele>261.6</ele>
        <time>2012-06-07T08:32:16.000Z</time>
      </trkpt>
      <trkpt lat="47.6309" lon="6.03957">
        <ele>261.5</ele>
        <time>2012-06-07T08:32:18.000Z</time>
      </trkpt>
      <trkpt lat="47.63097" lon="6.03962">
        <ele>261.5</ele>
        <time>2012-06-07T08:32:20.000Z</time>
      </trkpt>
      <trkpt lat="47.63104" lon="6.03968">
        <ele>261.6</ele>
        <time>2012-06-07T08:32:22.000Z</time>
      </trkpt>
      <trkpt lat="47.6311" lon="6.03975">
        <ele>261.8</ele>
        <time>2012-06-07T08:32:24.000Z</time>
      </trkpt>
      <trkpt lat="47.63117" lon="6.03982">
        <ele>262</ele>
        <time>2012-06-07T08:32:26.000Z</time>
      </trkpt>
      <trkpt lat="47.63123" lon="6.03988">
        <ele>262.1</ele>
        <time>2012-06-07T08:32:28.000Z</time>
      </trkpt>
      <trkpt lat="47.6313" lon="6.03994">
        <ele>262.2</ele>
        <time>2012-06-07T08:32:30.000Z</time>
      </trkpt>
      <trkpt lat="47.63138" lon="6.03998">
        <ele>262.4</ele>
        <time>2012-06-07T08:32:32.000Z</time>
      </trkpt>
      <trkpt lat="47.63146" lon="6.04001">
        <ele>262.4</ele>
        <time>2012-06-07T08:32:34.000Z</time>
      </trkpt>
      <trkpt lat="47.63155" lon="6.04002">
        <ele>262.1</ele>
        <time>2012-06-07T08:32:36.000Z</time>
      </trkpt>
      <trkpt lat="47.63163" lon="6.04001">
        <ele>261.9</ele>
        <time>2012-06-07T08:32:38.000Z</time>
      </trkpt>
      <trkpt lat="47.63171" lon="6.03998">
        <ele>262</ele>
        <time>2012-06-07T08:32:40.000Z</time>
      </trkpt>
      <trkpt lat="47.63179" lon="6.03996">
        <ele>261.9</ele>
        <time>2012-06-07T08:32:42.000Z</time>
      </trkpt>
      <trkpt lat="47.63186" lon="6.03992">
        <ele>261.8</ele>
        <time>2012-06-07T08:32:44.000Z</time>
      </trkpt>
      <trkpt lat="47.63194" lon="6.03987">
        <ele>261.7</ele>
        <time>2012-06-07T08:32:46.000Z</time>
      </trkpt>
      <trkpt lat="47.63202" lon="6.03982">
        <ele>261.7</ele>
        <time>2012-06-07T08:32:48.000Z</time>
      </trkpt>
      <trkpt lat="47.6321" lon="6.03976">
        <ele>262</ele>
        <time>2012-06-07T08:32:50.000Z</time>
      </trkpt>
      <trkpt lat="47.63218" lon="6.03972">
        <ele>262.2</ele>
        <time>2012-06-07T08:32:52.000Z</time>
      </trkpt>
      <trkpt lat="47.63225" lon="6.03968">
        <ele>262.2</ele>
        <time>2012-06-07T08:32:54.000Z</time>
      </trkpt>
      <trkpt lat="47.63229" lon="6.03964">
        <ele>262.1</ele>
        <time>2012-06-07T08:32:55.000Z</time>
      </trkpt>
      <trkpt lat="47.63233" lon="6.03961">
        <ele>262.4</ele>
        <time>2012-06-07T08:32:56.000Z</time>
      </trkpt>
      <trkpt lat="47.63241" lon="6.03956">
        <ele>262.6</ele>
        <time>2012-06-07T08:32:58.000Z</time>
      </trkpt>
      <trkpt lat="47.63248" lon="6.03951">
        <ele>262.9</ele>
        <time>2012-06-07T08:33:00.000Z</time>
      </trkpt>
      <trkpt lat="47.63252" lon="6.03947">
        <ele>262.8</ele>
        <time>2012-06-07T08:33:01.000Z</time>
      </trkpt>
      <trkpt lat="47.63256" lon="6.03944">
        <ele>262.8</ele>
        <time>2012-06-07T08:33:02.000Z</time>
      </trkpt>
      <trkpt lat="47.63261" lon="6.03942">
        <ele>262.8</ele>
        <time>2012-06-07T08:33:03.000Z</time>
      </trkpt>
      <trkpt lat="47.63265" lon="6.03938">
        <ele>262.8</ele>
        <time>2012-06-07T08:33:04.000Z</time>
      </trkpt>
      <trkpt lat="47.6327" lon="6.03935">
        <ele>262.8</ele>
        <time>2012-06-07T08:33:05.000Z</time>
      </trkpt>
      <trkpt lat="47.63274" lon="6.03932">
        <ele>262.9</ele>
        <time>2012-06-07T08:33:06.000Z</time>
      </trkpt>
      <trkpt lat="47.63279" lon="6.03929">
        <ele>262.8</ele>
        <time>2012-06-07T08:33:07.000Z</time>
      </trkpt>
      <trkpt lat="47.63283" lon="6.03926">
        <ele>262.6</ele>
        <time>2012-06-07T08:33:08.000Z</time>
      </trkpt>
      <trkpt lat="47.63287" lon="6.03923">
        <ele>262.3</ele>
        <time>2012-06-07T08:33:09.000Z</time>
      </trkpt>
      <trkpt lat="47.63292" lon="6.0392">
        <ele>262</ele>
        <time>2012-06-07T08:33:10.000Z</time>
      </trkpt>
      <trkpt lat="47.63297" lon="6.03917">
        <ele>261.8</ele>
        <time>2012-06-07T08:33:11.000Z</time>
      </trkpt>
      <trkpt lat="47.63301" lon="6.03914">
        <ele>261.4</ele>
        <time>2012-06-07T08:33:12.000Z</time>
      </trkpt>
      <trkpt lat="47.63306" lon="6.0391">
        <ele>261.1</ele>
        <time>2012-06-07T08:33:13.000Z</time>
      </trkpt>
      <trkpt lat="47.6331" lon="6.03906">
        <ele>261.1</ele>
        <time>2012-06-07T08:33:14.000Z</time>
      </trkpt>
      <trkpt lat="47.63314" lon="6.03904">
        <ele>261</ele>
        <time>2012-06-07T08:33:15.000Z</time>
      </trkpt>
      <trkpt lat="47.63319" lon="6.039">
        <ele>260.8</ele>
        <time>2012-06-07T08:33:16.000Z</time>
      </trkpt>
      <trkpt lat="47.63323" lon="6.03897">
        <ele>260.5</ele>
        <time>2012-06-07T08:33:17.000Z</time>
      </trkpt>
      <trkpt lat="47.63328" lon="6.03894">
        <ele>260.3</ele>
        <time>2012-06-07T08:33:18.000Z</time>
      </trkpt>
      <trkpt lat="47.63332" lon="6.03891">
        <ele>260.1</ele>
        <time>2012-06-07T08:33:19.000Z</time>
      </trkpt>
      <trkpt lat="47.63336" lon="6.03888">
        <ele>259.9</ele>
        <time>2012-06-07T08:33:20.000Z</time>
      </trkpt>
      <trkpt lat="47.63341" lon="6.03885">
        <ele>259.8</ele>
        <time>2012-06-07T08:33:21.000Z</time>
      </trkpt>
      <trkpt lat="47.63346" lon="6.03883">
        <ele>259.7</ele>
        <time>2012-06-07T08:33:22.000Z</time>
      </trkpt>
      <trkpt lat="47.6335" lon="6.0388">
        <ele>259.6</ele>
        <time>2012-06-07T08:33:23.000Z</time>
      </trkpt>
      <trkpt lat="47.63355" lon="6.03877">
        <ele>259.5</ele>
        <time>2012-06-07T08:33:24.000Z</time>
      </trkpt>
      <trkpt lat="47.63359" lon="6.03873">
        <ele>259.4</ele>
        <time>2012-06-07T08:33:25.000Z</time>
      </trkpt>
      <trkpt lat="47.63363" lon="6.0387">
        <ele>259.5</ele>
        <time>2012-06-07T08:33:26.000Z</time>
      </trkpt>
      <trkpt lat="47.63368" lon="6.03866">
        <ele>259.5</ele>
        <time>2012-06-07T08:33:27.000Z</time>
      </trkpt>
      <trkpt lat="47.63372" lon="6.03862">
        <ele>259.4</ele>
        <time>2012-06-07T08:33:28.000Z</time>
      </trkpt>
      <trkpt lat="47.63376" lon="6.03857">
        <ele>259.4</ele>
        <time>2012-06-07T08:33:29.000Z</time>
      </trkpt>
      <trkpt lat="47.6338" lon="6.03853">
        <ele>259.4</ele>
        <time>2012-06-07T08:33:30.000Z</time>
      </trkpt>
      <trkpt lat="47.63384" lon="6.03848">
        <ele>259.4</ele>
        <time>2012-06-07T08:33:31.000Z</time>
      </trkpt>
      <trkpt lat="47.63388" lon="6.03844">
        <ele>259.3</ele>
        <time>2012-06-07T08:33:32.000Z</time>
      </trkpt>
      <trkpt lat="47.63392" lon="6.0384">
        <ele>259.3</ele>
        <time>2012-06-07T08:33:33.000Z</time>
      </trkpt>
      <trkpt lat="47.63396" lon="6.03835">
        <ele>259.3</ele>
        <time>2012-06-07T08:33:34.000Z</time>
      </trkpt>
      <trkpt lat="47.634" lon="6.03831">
        <ele>259.3</ele>
        <time>2012-06-07T08:33:35.000Z</time>
      </trkpt>
      <trkpt lat="47.63404" lon="6.03827">
        <ele>259.3</ele>
        <time>2012-06-07T08:33:36.000Z</time>
      </trkpt>
      <trkpt lat="47.63408" lon="6.03823">
        <ele>259.3</ele>
        <time>2012-06-07T08:33:37.000Z</time>
      </trkpt>
      <trkpt lat="47.63412" lon="6.03819">
        <ele>259.4</ele>
        <time>2012-06-07T08:33:38.000Z</time>
      </trkpt>
      <trkpt lat="47.63416" lon="6.03815">
        <ele>259.4</ele>
        <time>2012-06-07T08:33:39.000Z</time>
      </trkpt>
      <trkpt lat="47.6342" lon="6.03811">
        <ele>259.4</ele>
        <time>2012-06-07T08:33:40.000Z</time>
      </trkpt>
      <trkpt lat="47.63423" lon="6.03806">
        <ele>259.5</ele>
        <time>2012-06-07T08:33:41.000Z</time>
      </trkpt>
      <trkpt lat="47.63427" lon="6.03803">
        <ele>259.5</ele>
        <time>2012-06-07T08:33:42.000Z</time>
      </trkpt>
      <trkpt lat="47.63431" lon="6.03799">
        <ele>259.6</ele>
        <time>2012-06-07T08:33:43.000Z</time>
      </trkpt>
      <trkpt lat="47.63435" lon="6.03794">
        <ele>259.5</ele>
        <time>2012-06-07T08:33:44.000Z</time>
      </trkpt>
      <trkpt lat="47.63438" lon="6.0379">
        <ele>259.5</ele>
        <time>2012-06-07T08:33:45.000Z</time>
      </trkpt>
      <trkpt lat="47.63442" lon="6.03786">
        <ele>259.5</ele>
        <time>2012-06-07T08:33:46.000Z</time>
      </trkpt>
      <trkpt lat="47.63446" lon="6.03782">
        <ele>259.6</ele>
        <time>2012-06-07T08:33:47.000Z</time>
      </trkpt>
      <trkpt lat="47.63449" lon="6.03778">
        <ele>259.6</ele>
        <time>2012-06-07T08:33:48.000Z</time>
      </trkpt>
      <trkpt lat="47.63452" lon="6.03773">
        <ele>259.6</ele>
        <time>2012-06-07T08:33:49.000Z</time>
      </trkpt>
      <trkpt lat="47.63459" lon="6.03767">
        <ele>259.8</ele>
        <time>2012-06-07T08:33:51.000Z</time>
      </trkpt>
      <trkpt lat="47.63466" lon="6.03763">
        <ele>260.2</ele>
        <time>2012-06-07T08:33:53.000Z</time>
      </trkpt>
      <trkpt lat="47.63474" lon="6.03757">
        <ele>260.1</ele>
        <time>2012-06-07T08:33:55.000Z</time>
      </trkpt>
      <trkpt lat="47.63481" lon="6.03751">
        <ele>260.2</ele>
        <time>2012-06-07T08:33:57.000Z</time>
      </trkpt>
      <trkpt lat="47.63488" lon="6.03745">
        <ele>260.2</ele>
        <time>2012-06-07T08:33:59.000Z</time>
      </trkpt>
      <trkpt lat="47.63495" lon="6.03738">
        <ele>260.2</ele>
        <time>2012-06-07T08:34:01.000Z</time>
      </trkpt>
      <trkpt lat="47.63502" lon="6.03731">
        <ele>260.1</ele>
        <time>2012-06-07T08:34:03.000Z</time>
      </trkpt>
      <trkpt lat="47.63506" lon="6.03728">
        <ele>260</ele>
        <time>2012-06-07T08:34:04.000Z</time>
      </trkpt>
      <trkpt lat="47.6351" lon="6.03724">
        <ele>259.9</ele>
        <time>2012-06-07T08:34:05.000Z</time>
      </trkpt>
      <trkpt lat="47.63514" lon="6.03719">
        <ele>259.8</ele>
        <time>2012-06-07T08:34:06.000Z</time>
      </trkpt>
      <trkpt lat="47.63519" lon="6.03715">
        <ele>259.7</ele>
        <time>2012-06-07T08:34:07.000Z</time>
      </trkpt>
      <trkpt lat="47.63523" lon="6.03711">
        <ele>259.6</ele>
        <time>2012-06-07T08:34:08.000Z</time>
      </trkpt>
      <trkpt lat="47.63528" lon="6.03707">
        <ele>259.5</ele>
        <time>2012-06-07T08:34:09.000Z</time>
      </trkpt>
      <trkpt lat="47.63532" lon="6.03703">
        <ele>259.5</ele>
        <time>2012-06-07T08:34:10.000Z</time>
      </trkpt>
      <trkpt lat="47.63537" lon="6.03699">
        <ele>259.4</ele>
        <time>2012-06-07T08:34:11.000Z</time>
      </trkpt>
      <trkpt lat="47.63541" lon="6.03695">
        <ele>259.4</ele>
        <time>2012-06-07T08:34:12.000Z</time>
      </trkpt>
      <trkpt lat="47.63545" lon="6.03692">
        <ele>259.3</ele>
        <time>2012-06-07T08:34:13.000Z</time>
      </trkpt>
      <trkpt lat="47.63549" lon="6.03688">
        <ele>259.3</ele>
        <time>2012-06-07T08:34:14.000Z</time>
      </trkpt>
      <trkpt lat="47.63553" lon="6.03685">
        <ele>259.2</ele>
        <time>2012-06-07T08:34:15.000Z</time>
      </trkpt>
      <trkpt lat="47.63561" lon="6.0368">
        <ele>259</ele>
        <time>2012-06-07T08:34:17.000Z</time>
      </trkpt>
      <trkpt lat="47.63569" lon="6.03674">
        <ele>258.8</ele>
        <time>2012-06-07T08:34:19.000Z</time>
      </trkpt>
      <trkpt lat="47.63577" lon="6.03669">
        <ele>258.9</ele>
        <time>2012-06-07T08:34:21.000Z</time>
      </trkpt>
      <trkpt lat="47.63585" lon="6.03664">
        <ele>258.7</ele>
        <time>2012-06-07T08:34:23.000Z</time>
      </trkpt>
      <trkpt lat="47.63589" lon="6.03661">
        <ele>258.7</ele>
        <time>2012-06-07T08:34:24.000Z</time>
      </trkpt>
      <trkpt lat="47.63597" lon="6.03654">
        <ele>258.7</ele>
        <time>2012-06-07T08:34:26.000Z</time>
      </trkpt>
      <trkpt lat="47.63604" lon="6.03647">
        <ele>258.6</ele>
        <time>2012-06-07T08:34:28.000Z</time>
      </trkpt>
      <trkpt lat="47.63612" lon="6.03641">
        <ele>258.6</ele>
        <time>2012-06-07T08:34:30.000Z</time>
      </trkpt>
      <trkpt lat="47.6362" lon="6.03634">
        <ele>258.6</ele>
        <time>2012-06-07T08:34:32.000Z</time>
      </trkpt>
      <trkpt lat="47.63627" lon="6.03627">
        <ele>258.6</ele>
        <time>2012-06-07T08:34:34.000Z</time>
      </trkpt>
      <trkpt lat="47.63631" lon="6.03623">
        <ele>258.6</ele>
        <time>2012-06-07T08:34:35.000Z</time>
      </trkpt>
      <trkpt lat="47.63634" lon="6.0362">
        <ele>258.6</ele>
        <time>2012-06-07T08:34:36.000Z</time>
      </trkpt>
      <trkpt lat="47.63638" lon="6.03616">
        <ele>258.6</ele>
        <time>2012-06-07T08:34:37.000Z</time>
      </trkpt>
      <trkpt lat="47.63642" lon="6.03612">
        <ele>258.6</ele>
        <time>2012-06-07T08:34:38.000Z</time>
      </trkpt>
      <trkpt lat="47.63648" lon="6.03604">
        <ele>258.6</ele>
        <time>2012-06-07T08:34:40.000Z</time>
      </trkpt>
      <trkpt lat="47.63655" lon="6.03595">
        <ele>258.7</ele>
        <time>2012-06-07T08:34:42.000Z</time>
      </trkpt>
      <trkpt lat="47.63662" lon="6.03587">
        <ele>258.7</ele>
        <time>2012-06-07T08:34:44.000Z</time>
      </trkpt>
      <trkpt lat="47.63668" lon="6.03579">
        <ele>258.6</ele>
        <time>2012-06-07T08:34:46.000Z</time>
      </trkpt>
      <trkpt lat="47.63673" lon="6.03571">
        <ele>258.4</ele>
        <time>2012-06-07T08:34:48.000Z</time>
      </trkpt>
      <trkpt lat="47.63679" lon="6.03563">
        <ele>258.4</ele>
        <time>2012-06-07T08:34:50.000Z</time>
      </trkpt>
      <trkpt lat="47.63684" lon="6.03555">
        <ele>258.5</ele>
        <time>2012-06-07T08:34:52.000Z</time>
      </trkpt>
      <trkpt lat="47.63689" lon="6.03546">
        <ele>258.6</ele>
        <time>2012-06-07T08:34:54.000Z</time>
      </trkpt>
      <trkpt lat="47.63694" lon="6.03536">
        <ele>258.5</ele>
        <time>2012-06-07T08:34:56.000Z</time>
      </trkpt>
      <trkpt lat="47.637" lon="6.03529">
        <ele>258.5</ele>
        <time>2012-06-07T08:34:58.000Z</time>
      </trkpt>
      <trkpt lat="47.63708" lon="6.03526">
        <ele>258.7</ele>
        <time>2012-06-07T08:35:00.000Z</time>
      </trkpt>
      <trkpt lat="47.63715" lon="6.03523">
        <ele>258.7</ele>
        <time>2012-06-07T08:35:02.000Z</time>
      </trkpt>
      <trkpt lat="47.63722" lon="6.03521">
        <ele>259</ele>
        <time>2012-06-07T08:35:04.000Z</time>
      </trkpt>
      <trkpt lat="47.63728" lon="6.03518">
        <ele>259.2</ele>
        <time>2012-06-07T08:35:06.000Z</time>
      </trkpt>
      <trkpt lat="47.63734" lon="6.03516">
        <ele>259.3</ele>
        <time>2012-06-07T08:35:08.000Z</time>
      </trkpt>
      <trkpt lat="47.63741" lon="6.03514">
        <ele>259.6</ele>
        <time>2012-06-07T08:35:10.000Z</time>
      </trkpt>
      <trkpt lat="47.63747" lon="6.03514">
        <ele>259.7</ele>
        <time>2012-06-07T08:35:12.000Z</time>
      </trkpt>
      <trkpt lat="47.63754" lon="6.03512">
        <ele>259.9</ele>
        <time>2012-06-07T08:35:14.000Z</time>
      </trkpt>
      <trkpt lat="47.63761" lon="6.03512">
        <ele>259.9</ele>
        <time>2012-06-07T08:35:16.000Z</time>
      </trkpt>
      <trkpt lat="47.63768" lon="6.03512">
        <ele>260.1</ele>
        <time>2012-06-07T08:35:18.000Z</time>
      </trkpt>
      <trkpt lat="47.63775" lon="6.03513">
        <ele>260.2</ele>
        <time>2012-06-07T08:35:20.000Z</time>
      </trkpt>
      <trkpt lat="47.63781" lon="6.03514">
        <ele>260.5</ele>
        <time>2012-06-07T08:35:22.000Z</time>
      </trkpt>
      <trkpt lat="47.63788" lon="6.03515">
        <ele>260.6</ele>
        <time>2012-06-07T08:35:24.000Z</time>
      </trkpt>
      <trkpt lat="47.63796" lon="6.03516">
        <ele>260.8</ele>
        <time>2012-06-07T08:35:26.000Z</time>
      </trkpt>
      <trkpt lat="47.638" lon="6.03518">
        <ele>261</ele>
        <time>2012-06-07T08:35:27.000Z</time>
      </trkpt>
      <trkpt lat="47.63808" lon="6.03522">
        <ele>261.1</ele>
        <time>2012-06-07T08:35:29.000Z</time>
      </trkpt>
      <trkpt lat="47.63814" lon="6.03525">
        <ele>261.3</ele>
        <time>2012-06-07T08:35:31.000Z</time>
      </trkpt>
      <trkpt lat="47.63821" lon="6.03526">
        <ele>261.5</ele>
        <time>2012-06-07T08:35:33.000Z</time>
      </trkpt>
      <trkpt lat="47.63828" lon="6.03527">
        <ele>261.7</ele>
        <time>2012-06-07T08:35:35.000Z</time>
      </trkpt>
      <trkpt lat="47.63836" lon="6.03529">
        <ele>261.9</ele>
        <time>2012-06-07T08:35:37.000Z</time>
      </trkpt>
      <trkpt lat="47.63841" lon="6.03529">
        <ele>262</ele>
        <time>2012-06-07T08:35:39.000Z</time>
      </trkpt>
      <trkpt lat="47.63846" lon="6.03531">
        <ele>262.3</ele>
        <time>2012-06-07T08:35:41.000Z</time>
      </trkpt>
      <trkpt lat="47.63851" lon="6.03532">
        <ele>262.6</ele>
        <time>2012-06-07T08:35:43.000Z</time>
      </trkpt>
      <trkpt lat="47.63856" lon="6.03533">
        <ele>263</ele>
        <time>2012-06-07T08:35:45.000Z</time>
      </trkpt>
      <trkpt lat="47.63862" lon="6.03536">
        <ele>263.7</ele>
        <time>2012-06-07T08:35:47.000Z</time>
      </trkpt>
      <trkpt lat="47.63869" lon="6.0354">
        <ele>264.3</ele>
        <time>2012-06-07T08:35:49.000Z</time>
      </trkpt>
      <trkpt lat="47.63898" lon="6.03555">
        <ele>250.1</ele>
        <time>2012-06-07T08:35:58.000Z</time>
      </trkpt>
      <trkpt lat="47.63903" lon="6.03552">
        <ele>277.9</ele>
        <time>2012-06-07T08:36:04.000Z</time>
      </trkpt>
      <trkpt lat="47.63908" lon="6.0355">
        <ele>288.1</ele>
        <time>2012-06-07T08:36:09.000Z</time>
      </trkpt>
      <trkpt lat="47.63913" lon="6.03552">
        <ele>293.2</ele>
        <time>2012-06-07T08:36:12.000Z</time>
      </trkpt>
      <trkpt lat="47.6392" lon="6.03554">
        <ele>295.1</ele>
        <time>2012-06-07T08:36:15.000Z</time>
      </trkpt>
      <trkpt lat="47.63926" lon="6.03555">
        <ele>294.9</ele>
        <time>2012-06-07T08:36:17.000Z</time>
      </trkpt>
      <trkpt lat="47.63933" lon="6.03558">
        <ele>295.4</ele>
        <time>2012-06-07T08:36:19.000Z</time>
      </trkpt>
      <trkpt lat="47.6394" lon="6.03561">
        <ele>295.2</ele>
        <time>2012-06-07T08:36:21.000Z</time>
      </trkpt>
      <trkpt lat="47.63948" lon="6.03563">
        <ele>296.3</ele>
        <time>2012-06-07T08:36:23.000Z</time>
      </trkpt>
      <trkpt lat="47.63954" lon="6.03565">
        <ele>296.9</ele>
        <time>2012-06-07T08:36:25.000Z</time>
      </trkpt>
      <trkpt lat="47.6396" lon="6.03568">
        <ele>296.2</ele>
        <time>2012-06-07T08:36:27.000Z</time>
      </trkpt>
      <trkpt lat="47.63968" lon="6.03574">
        <ele>295.8</ele>
        <time>2012-06-07T08:36:29.000Z</time>
      </trkpt>
      <trkpt lat="47.63973" lon="6.03577">
        <ele>294.8</ele>
        <time>2012-06-07T08:36:30.000Z</time>
      </trkpt>
      <trkpt lat="47.63977" lon="6.0358">
        <ele>293.2</ele>
        <time>2012-06-07T08:36:31.000Z</time>
      </trkpt>
      <trkpt lat="47.63982" lon="6.03584">
        <ele>291.7</ele>
        <time>2012-06-07T08:36:32.000Z</time>
      </trkpt>
      <trkpt lat="47.63986" lon="6.03587">
        <ele>290.9</ele>
        <time>2012-06-07T08:36:33.000Z</time>
      </trkpt>
      <trkpt lat="47.6399" lon="6.0359">
        <ele>290.3</ele>
        <time>2012-06-07T08:36:34.000Z</time>
      </trkpt>
      <trkpt lat="47.63997" lon="6.03594">
        <ele>289.7</ele>
        <time>2012-06-07T08:36:36.000Z</time>
      </trkpt>
      <trkpt lat="47.64004" lon="6.03599">
        <ele>289.1</ele>
        <time>2012-06-07T08:36:38.000Z</time>
      </trkpt>
      <trkpt lat="47.64008" lon="6.03602">
        <ele>288.7</ele>
        <time>2012-06-07T08:36:39.000Z</time>
      </trkpt>
      <trkpt lat="47.64012" lon="6.03606">
        <ele>288.3</ele>
        <time>2012-06-07T08:36:40.000Z</time>
      </trkpt>
      <trkpt lat="47.64018" lon="6.03611">
        <ele>288.5</ele>
        <time>2012-06-07T08:36:41.000Z</time>
      </trkpt>
      <trkpt lat="47.64023" lon="6.03615">
        <ele>288.4</ele>
        <time>2012-06-07T08:36:42.000Z</time>
      </trkpt>
      <trkpt lat="47.64027" lon="6.03618">
        <ele>288.4</ele>
        <time>2012-06-07T08:36:43.000Z</time>
      </trkpt>
      <trkpt lat="47.64032" lon="6.03622">
        <ele>288.4</ele>
        <time>2012-06-07T08:36:44.000Z</time>
      </trkpt>
      <trkpt lat="47.64039" lon="6.03627">
        <ele>288.3</ele>
        <time>2012-06-07T08:36:46.000Z</time>
      </trkpt>
      <trkpt lat="47.64046" lon="6.03633">
        <ele>287.6</ele>
        <time>2012-06-07T08:36:48.000Z</time>
      </trkpt>
      <trkpt lat="47.64055" lon="6.03637">
        <ele>287</ele>
        <time>2012-06-07T08:36:50.000Z</time>
      </trkpt>
      <trkpt lat="47.64102" lon="6.03661">
        <ele>272.3</ele>
        <time>2012-06-07T08:36:59.000Z</time>
      </trkpt>
      <trkpt lat="47.64107" lon="6.03663">
        <ele>271.3</ele>
        <time>2012-06-07T08:37:00.000Z</time>
      </trkpt>
      <trkpt lat="47.64114" lon="6.03666">
        <ele>272.8</ele>
        <time>2012-06-07T08:37:02.000Z</time>
      </trkpt>
      <trkpt lat="47.64119" lon="6.03669">
        <ele>272.8</ele>
        <time>2012-06-07T08:37:03.000Z</time>
      </trkpt>
      <trkpt lat="47.64127" lon="6.03672">
        <ele>272.4</ele>
        <time>2012-06-07T08:37:05.000Z</time>
      </trkpt>
      <trkpt lat="47.64135" lon="6.03674">
        <ele>273.6</ele>
        <time>2012-06-07T08:37:07.000Z</time>
      </trkpt>
      <trkpt lat="47.64143" lon="6.03676">
        <ele>274.6</ele>
        <time>2012-06-07T08:37:09.000Z</time>
      </trkpt>
      <trkpt lat="47.64151" lon="6.03677">
        <ele>275.4</ele>
        <time>2012-06-07T08:37:11.000Z</time>
      </trkpt>
      <trkpt lat="47.6416" lon="6.03678">
        <ele>274.9</ele>
        <time>2012-06-07T08:37:13.000Z</time>
      </trkpt>
      <trkpt lat="47.64165" lon="6.03678">
        <ele>274.6</ele>
        <time>2012-06-07T08:37:14.000Z</time>
      </trkpt>
      <trkpt lat="47.6417" lon="6.03679">
        <ele>273.8</ele>
        <time>2012-06-07T08:37:15.000Z</time>
      </trkpt>
      <trkpt lat="47.64178" lon="6.03679">
        <ele>273.7</ele>
        <time>2012-06-07T08:37:17.000Z</time>
      </trkpt>
      <trkpt lat="47.64183" lon="6.0368">
        <ele>273.6</ele>
        <time>2012-06-07T08:37:18.000Z</time>
      </trkpt>
      <trkpt lat="47.64187" lon="6.0368">
        <ele>273.2</ele>
        <time>2012-06-07T08:37:19.000Z</time>
      </trkpt>
      <trkpt lat="47.64196" lon="6.03682">
        <ele>273.1</ele>
        <time>2012-06-07T08:37:21.000Z</time>
      </trkpt>
      <trkpt lat="47.64204" lon="6.03683">
        <ele>272.8</ele>
        <time>2012-06-07T08:37:23.000Z</time>
      </trkpt>
      <trkpt lat="47.64212" lon="6.03685">
        <ele>272.4</ele>
        <time>2012-06-07T08:37:25.000Z</time>
      </trkpt>
      <trkpt lat="47.6422" lon="6.03688">
        <ele>272.4</ele>
        <time>2012-06-07T08:37:27.000Z</time>
      </trkpt>
      <trkpt lat="47.64229" lon="6.03689">
        <ele>272.2</ele>
        <time>2012-06-07T08:37:29.000Z</time>
      </trkpt>
      <trkpt lat="47.64233" lon="6.0369">
        <ele>272</ele>
        <time>2012-06-07T08:37:30.000Z</time>
      </trkpt>
      <trkpt lat="47.64238" lon="6.03691">
        <ele>271.7</ele>
        <time>2012-06-07T08:37:31.000Z</time>
      </trkpt>
      <trkpt lat="47.64243" lon="6.03692">
        <ele>271.7</ele>
        <time>2012-06-07T08:37:32.000Z</time>
      </trkpt>
      <trkpt lat="47.64247" lon="6.03694">
        <ele>271.6</ele>
        <time>2012-06-07T08:37:33.000Z</time>
      </trkpt>
      <trkpt lat="47.64252" lon="6.03695">
        <ele>271.4</ele>
        <time>2012-06-07T08:37:34.000Z</time>
      </trkpt>
      <trkpt lat="47.64257" lon="6.03696">
        <ele>271.1</ele>
        <time>2012-06-07T08:37:35.000Z</time>
      </trkpt>
      <trkpt lat="47.64262" lon="6.03698">
        <ele>271</ele>
        <time>2012-06-07T08:37:36.000Z</time>
      </trkpt>
      <trkpt lat="47.64266" lon="6.03699">
        <ele>271</ele>
        <time>2012-06-07T08:37:37.000Z</time>
      </trkpt>
      <trkpt lat="47.64274" lon="6.03702">
        <ele>271.4</ele>
        <time>2012-06-07T08:37:39.000Z</time>
      </trkpt>
      <trkpt lat="47.64282" lon="6.03704">
        <ele>271.4</ele>
        <time>2012-06-07T08:37:41.000Z</time>
      </trkpt>
      <trkpt lat="47.6429" lon="6.03706">
        <ele>271.2</ele>
        <time>2012-06-07T08:37:43.000Z</time>
      </trkpt>
      <trkpt lat="47.64297" lon="6.03706">
        <ele>271.4</ele>
        <time>2012-06-07T08:37:45.000Z</time>
      </trkpt>
      <trkpt lat="47.64304" lon="6.03706">
        <ele>271.4</ele>
        <time>2012-06-07T08:37:47.000Z</time>
      </trkpt>
      <trkpt lat="47.64311" lon="6.03706">
        <ele>271.3</ele>
        <time>2012-06-07T08:37:49.000Z</time>
      </trkpt>
      <trkpt lat="47.64318" lon="6.03705">
        <ele>271.6</ele>
        <time>2012-06-07T08:37:51.000Z</time>
      </trkpt>
      <trkpt lat="47.64326" lon="6.03704">
        <ele>271.4</ele>
        <time>2012-06-07T08:37:53.000Z</time>
      </trkpt>
      <trkpt lat="47.64333" lon="6.03703">
        <ele>271.6</ele>
        <time>2012-06-07T08:37:55.000Z</time>
      </trkpt>
      <trkpt lat="47.6434" lon="6.03702">
        <ele>271.6</ele>
        <time>2012-06-07T08:37:57.000Z</time>
      </trkpt>
      <trkpt lat="47.64348" lon="6.037">
        <ele>271.5</ele>
        <time>2012-06-07T08:37:59.000Z</time>
      </trkpt>
      <trkpt lat="47.64356" lon="6.03699">
        <ele>271.4</ele>
        <time>2012-06-07T08:38:01.000Z</time>
      </trkpt>
      <trkpt lat="47.64361" lon="6.03698">
        <ele>271.2</ele>
        <time>2012-06-07T08:38:02.000Z</time>
      </trkpt>
      <trkpt lat="47.64365" lon="6.03697">
        <ele>270.9</ele>
        <time>2012-06-07T08:38:03.000Z</time>
      </trkpt>
      <trkpt lat="47.6437" lon="6.03695">
        <ele>270.6</ele>
        <time>2012-06-07T08:38:04.000Z</time>
      </trkpt>
      <trkpt lat="47.64376" lon="6.03693">
        <ele>270.3</ele>
        <time>2012-06-07T08:38:05.000Z</time>
      </trkpt>
      <trkpt lat="47.64381" lon="6.0369">
        <ele>269.9</ele>
        <time>2012-06-07T08:38:06.000Z</time>
      </trkpt>
      <trkpt lat="47.64387" lon="6.03687">
        <ele>269.4</ele>
        <time>2012-06-07T08:38:07.000Z</time>
      </trkpt>
      <trkpt lat="47.64393" lon="6.03681">
        <ele>268.9</ele>
        <time>2012-06-07T08:38:08.000Z</time>
      </trkpt>
      <trkpt lat="47.64398" lon="6.03674">
        <ele>268.6</ele>
        <time>2012-06-07T08:38:09.000Z</time>
      </trkpt>
      <trkpt lat="47.64402" lon="6.03664">
        <ele>268.5</ele>
        <time>2012-06-07T08:38:10.000Z</time>
      </trkpt>
      <trkpt lat="47.64406" lon="6.03654">
        <ele>268.2</ele>
        <time>2012-06-07T08:38:11.000Z</time>
      </trkpt>
      <trkpt lat="47.6441" lon="6.03645">
        <ele>267.9</ele>
        <time>2012-06-07T08:38:12.000Z</time>
      </trkpt>
      <trkpt lat="47.64415" lon="6.03636">
        <ele>267.5</ele>
        <time>2012-06-07T08:38:13.000Z</time>
      </trkpt>
      <trkpt lat="47.64422" lon="6.03629">
        <ele>267</ele>
        <time>2012-06-07T08:38:14.000Z</time>
      </trkpt>
      <trkpt lat="47.64429" lon="6.03624">
        <ele>266.5</ele>
        <time>2012-06-07T08:38:15.000Z</time>
      </trkpt>
      <trkpt lat="47.64436" lon="6.03621">
        <ele>266.1</ele>
        <time>2012-06-07T08:38:16.000Z</time>
      </trkpt>
      <trkpt lat="47.64444" lon="6.0362">
        <ele>265.6</ele>
        <time>2012-06-07T08:38:17.000Z</time>
      </trkpt>
      <trkpt lat="47.64451" lon="6.03621">
        <ele>265.4</ele>
        <time>2012-06-07T08:38:18.000Z</time>
      </trkpt>
      <trkpt lat="47.64458" lon="6.03622">
        <ele>265.3</ele>
        <time>2012-06-07T08:38:19.000Z</time>
      </trkpt>
      <trkpt lat="47.64466" lon="6.03622">
        <ele>265.2</ele>
        <time>2012-06-07T08:38:20.000Z</time>
      </trkpt>
      <trkpt lat="47.64473" lon="6.03623">
        <ele>264.8</ele>
        <time>2012-06-07T08:38:21.000Z</time>
      </trkpt>
      <trkpt lat="47.6448" lon="6.03624">
        <ele>264.7</ele>
        <time>2012-06-07T08:38:22.000Z</time>
      </trkpt>
      <trkpt lat="47.64486" lon="6.03624">
        <ele>264.6</ele>
        <time>2012-06-07T08:38:23.000Z</time>
      </trkpt>
      <trkpt lat="47.64492" lon="6.03624">
        <ele>264.4</ele>
        <time>2012-06-07T08:38:24.000Z</time>
      </trkpt>
      <trkpt lat="47.64498" lon="6.03623">
        <ele>264.2</ele>
        <time>2012-06-07T08:38:25.000Z</time>
      </trkpt>
      <trkpt lat="47.64504" lon="6.03622">
        <ele>264.1</ele>
        <time>2012-06-07T08:38:26.000Z</time>
      </trkpt>
      <trkpt lat="47.64509" lon="6.03621">
        <ele>264</ele>
        <time>2012-06-07T08:38:27.000Z</time>
      </trkpt>
      <trkpt lat="47.64515" lon="6.0362">
        <ele>264</ele>
        <time>2012-06-07T08:38:28.000Z</time>
      </trkpt>
      <trkpt lat="47.64521" lon="6.03618">
        <ele>263.8</ele>
        <time>2012-06-07T08:38:29.000Z</time>
      </trkpt>
      <trkpt lat="47.64526" lon="6.03617">
        <ele>263.8</ele>
        <time>2012-06-07T08:38:30.000Z</time>
      </trkpt>
      <trkpt lat="47.64531" lon="6.03615">
        <ele>263.7</ele>
        <time>2012-06-07T08:38:31.000Z</time>
      </trkpt>
      <trkpt lat="47.64536" lon="6.03613">
        <ele>263.4</ele>
        <time>2012-06-07T08:38:32.000Z</time>
      </trkpt>
      <trkpt lat="47.64541" lon="6.03612">
        <ele>263.7</ele>
        <time>2012-06-07T08:38:33.000Z</time>
      </trkpt>
      <trkpt lat="47.64546" lon="6.0361">
        <ele>263.8</ele>
        <time>2012-06-07T08:38:34.000Z</time>
      </trkpt>
      <trkpt lat="47.64551" lon="6.03607">
        <ele>263.9</ele>
        <time>2012-06-07T08:38:35.000Z</time>
      </trkpt>
      <trkpt lat="47.64556" lon="6.03605">
        <ele>263.9</ele>
        <time>2012-06-07T08:38:36.000Z</time>
      </trkpt>
      <trkpt lat="47.64561" lon="6.03601">
        <ele>264</ele>
        <time>2012-06-07T08:38:37.000Z</time>
      </trkpt>
      <trkpt lat="47.64566" lon="6.03596">
        <ele>264</ele>
        <time>2012-06-07T08:38:38.000Z</time>
      </trkpt>
      <trkpt lat="47.6457" lon="6.03592">
        <ele>264.1</ele>
        <time>2012-06-07T08:38:39.000Z</time>
      </trkpt>
      <trkpt lat="47.64575" lon="6.03587">
        <ele>264.2</ele>
        <time>2012-06-07T08:38:40.000Z</time>
      </trkpt>
      <trkpt lat="47.64579" lon="6.03581">
        <ele>264.3</ele>
        <time>2012-06-07T08:38:41.000Z</time>
      </trkpt>
      <trkpt lat="47.64583" lon="6.03576">
        <ele>264.2</ele>
        <time>2012-06-07T08:38:42.000Z</time>
      </trkpt>
      <trkpt lat="47.64587" lon="6.03571">
        <ele>264.2</ele>
        <time>2012-06-07T08:38:43.000Z</time>
      </trkpt>
      <trkpt lat="47.64591" lon="6.03565">
        <ele>264</ele>
        <time>2012-06-07T08:38:44.000Z</time>
      </trkpt>
      <trkpt lat="47.64595" lon="6.0356">
        <ele>263.9</ele>
        <time>2012-06-07T08:38:45.000Z</time>
      </trkpt>
      <trkpt lat="47.64599" lon="6.03555">
        <ele>263.8</ele>
        <time>2012-06-07T08:38:46.000Z</time>
      </trkpt>
      <trkpt lat="47.64603" lon="6.0355">
        <ele>263.7</ele>
        <time>2012-06-07T08:38:47.000Z</time>
      </trkpt>
      <trkpt lat="47.64607" lon="6.03545">
        <ele>263.6</ele>
        <time>2012-06-07T08:38:48.000Z</time>
      </trkpt>
      <trkpt lat="47.64611" lon="6.0354">
        <ele>263.5</ele>
        <time>2012-06-07T08:38:49.000Z</time>
      </trkpt>
      <trkpt lat="47.64615" lon="6.03535">
        <ele>263.5</ele>
        <time>2012-06-07T08:38:50.000Z</time>
      </trkpt>
      <trkpt lat="47.64645" lon="6.03498">
        <ele>256</ele>
        <time>2012-06-07T08:38:57.000Z</time>
      </trkpt>
      <trkpt lat="47.64652" lon="6.03489">
        <ele>254.9</ele>
        <time>2012-06-07T08:38:59.000Z</time>
      </trkpt>
      <trkpt lat="47.64656" lon="6.03484">
        <ele>255.2</ele>
        <time>2012-06-07T08:39:00.000Z</time>
      </trkpt>
      <trkpt lat="47.64659" lon="6.03479">
        <ele>255.5</ele>
        <time>2012-06-07T08:39:01.000Z</time>
      </trkpt>
      <trkpt lat="47.64663" lon="6.03474">
        <ele>255.9</ele>
        <time>2012-06-07T08:39:02.000Z</time>
      </trkpt>
      <trkpt lat="47.64667" lon="6.03469">
        <ele>255.9</ele>
        <time>2012-06-07T08:39:03.000Z</time>
      </trkpt>
      <trkpt lat="47.64671" lon="6.03464">
        <ele>255.9</ele>
        <time>2012-06-07T08:39:04.000Z</time>
      </trkpt>
      <trkpt lat="47.64675" lon="6.03459">
        <ele>255.8</ele>
        <time>2012-06-07T08:39:05.000Z</time>
      </trkpt>
      <trkpt lat="47.6468" lon="6.03454">
        <ele>255.7</ele>
        <time>2012-06-07T08:39:06.000Z</time>
      </trkpt>
      <trkpt lat="47.64684" lon="6.0345">
        <ele>255.7</ele>
        <time>2012-06-07T08:39:07.000Z</time>
      </trkpt>
      <trkpt lat="47.64689" lon="6.03446">
        <ele>255.8</ele>
        <time>2012-06-07T08:39:08.000Z</time>
      </trkpt>
      <trkpt lat="47.64694" lon="6.03443">
        <ele>256</ele>
        <time>2012-06-07T08:39:09.000Z</time>
      </trkpt>
      <trkpt lat="47.64698" lon="6.03439">
        <ele>256.3</ele>
        <time>2012-06-07T08:39:10.000Z</time>
      </trkpt>
      <trkpt lat="47.64703" lon="6.03436">
        <ele>256.4</ele>
        <time>2012-06-07T08:39:11.000Z</time>
      </trkpt>
      <trkpt lat="47.64708" lon="6.03433">
        <ele>256.5</ele>
        <time>2012-06-07T08:39:12.000Z</time>
      </trkpt>
      <trkpt lat="47.64712" lon="6.03429">
        <ele>256.6</ele>
        <time>2012-06-07T08:39:13.000Z</time>
      </trkpt>
      <trkpt lat="47.64717" lon="6.03426">
        <ele>256.7</ele>
        <time>2012-06-07T08:39:14.000Z</time>
      </trkpt>
      <trkpt lat="47.64721" lon="6.03423">
        <ele>256.7</ele>
        <time>2012-06-07T08:39:15.000Z</time>
      </trkpt>
      <trkpt lat="47.64726" lon="6.03419">
        <ele>256.8</ele>
        <time>2012-06-07T08:39:16.000Z</time>
      </trkpt>
      <trkpt lat="47.64731" lon="6.03416">
        <ele>256.8</ele>
        <time>2012-06-07T08:39:17.000Z</time>
      </trkpt>
      <trkpt lat="47.64735" lon="6.03413">
        <ele>256.8</ele>
        <time>2012-06-07T08:39:18.000Z</time>
      </trkpt>
      <trkpt lat="47.6474" lon="6.03409">
        <ele>256.8</ele>
        <time>2012-06-07T08:39:19.000Z</time>
      </trkpt>
      <trkpt lat="47.64744" lon="6.03406">
        <ele>256.8</ele>
        <time>2012-06-07T08:39:20.000Z</time>
      </trkpt>
      <trkpt lat="47.64749" lon="6.03402">
        <ele>256.8</ele>
        <time>2012-06-07T08:39:21.000Z</time>
      </trkpt>
      <trkpt lat="47.64753" lon="6.03399">
        <ele>256.9</ele>
        <time>2012-06-07T08:39:22.000Z</time>
      </trkpt>
      <trkpt lat="47.64758" lon="6.03396">
        <ele>256.8</ele>
        <time>2012-06-07T08:39:23.000Z</time>
      </trkpt>
      <trkpt lat="47.64762" lon="6.03393">
        <ele>256.8</ele>
        <time>2012-06-07T08:39:24.000Z</time>
      </trkpt>
      <trkpt lat="47.64767" lon="6.03389">
        <ele>256.8</ele>
        <time>2012-06-07T08:39:25.000Z</time>
      </trkpt>
      <trkpt lat="47.64772" lon="6.03386">
        <ele>256.7</ele>
        <time>2012-06-07T08:39:26.000Z</time>
      </trkpt>
      <trkpt lat="47.64776" lon="6.03383">
        <ele>256.8</ele>
        <time>2012-06-07T08:39:27.000Z</time>
      </trkpt>
      <trkpt lat="47.6478" lon="6.0338">
        <ele>256.8</ele>
        <time>2012-06-07T08:39:28.000Z</time>
      </trkpt>
      <trkpt lat="47.64785" lon="6.03378">
        <ele>256.9</ele>
        <time>2012-06-07T08:39:29.000Z</time>
      </trkpt>
      <trkpt lat="47.64789" lon="6.03376">
        <ele>256.9</ele>
        <time>2012-06-07T08:39:30.000Z</time>
      </trkpt>
      <trkpt lat="47.64796" lon="6.0337">
        <ele>256.9</ele>
        <time>2012-06-07T08:39:32.000Z</time>
      </trkpt>
      <trkpt lat="47.64804" lon="6.03365">
        <ele>257.1</ele>
        <time>2012-06-07T08:39:34.000Z</time>
      </trkpt>
      <trkpt lat="47.64811" lon="6.0336">
        <ele>257.4</ele>
        <time>2012-06-07T08:39:36.000Z</time>
      </trkpt>
      <trkpt lat="47.64818" lon="6.03354">
        <ele>257.8</ele>
        <time>2012-06-07T08:39:38.000Z</time>
      </trkpt>
      <trkpt lat="47.64823" lon="6.03352">
        <ele>258</ele>
        <time>2012-06-07T08:39:39.000Z</time>
      </trkpt>
      <trkpt lat="47.64828" lon="6.03349">
        <ele>258.1</ele>
        <time>2012-06-07T08:39:40.000Z</time>
      </trkpt>
      <trkpt lat="47.64833" lon="6.03346">
        <ele>258.3</ele>
        <time>2012-06-07T08:39:41.000Z</time>
      </trkpt>
      <trkpt lat="47.64839" lon="6.03343">
        <ele>258.3</ele>
        <time>2012-06-07T08:39:42.000Z</time>
      </trkpt>
      <trkpt lat="47.64844" lon="6.0334">
        <ele>258.3</ele>
        <time>2012-06-07T08:39:43.000Z</time>
      </trkpt>
      <trkpt lat="47.64849" lon="6.03337">
        <ele>258.5</ele>
        <time>2012-06-07T08:39:44.000Z</time>
      </trkpt>
      <trkpt lat="47.64854" lon="6.03334">
        <ele>258.7</ele>
        <time>2012-06-07T08:39:45.000Z</time>
      </trkpt>
      <trkpt lat="47.6486" lon="6.0333">
        <ele>258.9</ele>
        <time>2012-06-07T08:39:46.000Z</time>
      </trkpt>
      <trkpt lat="47.64865" lon="6.03327">
        <ele>259</ele>
        <time>2012-06-07T08:39:47.000Z</time>
      </trkpt>
      <trkpt lat="47.6487" lon="6.03324">
        <ele>259.1</ele>
        <time>2012-06-07T08:39:48.000Z</time>
      </trkpt>
      <trkpt lat="47.64876" lon="6.03321">
        <ele>259.1</ele>
        <time>2012-06-07T08:39:49.000Z</time>
      </trkpt>
      <trkpt lat="47.64881" lon="6.03317">
        <ele>259.1</ele>
        <time>2012-06-07T08:39:50.000Z</time>
      </trkpt>
      <trkpt lat="47.64887" lon="6.03314">
        <ele>259.2</ele>
        <time>2012-06-07T08:39:51.000Z</time>
      </trkpt>
      <trkpt lat="47.64892" lon="6.03311">
        <ele>259.3</ele>
        <time>2012-06-07T08:39:52.000Z</time>
      </trkpt>
      <trkpt lat="47.64898" lon="6.03308">
        <ele>259.4</ele>
        <time>2012-06-07T08:39:53.000Z</time>
      </trkpt>
      <trkpt lat="47.64903" lon="6.03305">
        <ele>259.6</ele>
        <time>2012-06-07T08:39:54.000Z</time>
      </trkpt>
      <trkpt lat="47.64908" lon="6.03302">
        <ele>259.7</ele>
        <time>2012-06-07T08:39:55.000Z</time>
      </trkpt>
      <trkpt lat="47.64913" lon="6.03299">
        <ele>259.9</ele>
        <time>2012-06-07T08:39:56.000Z</time>
      </trkpt>
      <trkpt lat="47.64918" lon="6.03296">
        <ele>259.9</ele>
        <time>2012-06-07T08:39:57.000Z</time>
      </trkpt>
      <trkpt lat="47.64923" lon="6.03293">
        <ele>260</ele>
        <time>2012-06-07T08:39:58.000Z</time>
      </trkpt>
      <trkpt lat="47.64929" lon="6.0329">
        <ele>260</ele>
        <time>2012-06-07T08:39:59.000Z</time>
      </trkpt>
      <trkpt lat="47.64934" lon="6.03287">
        <ele>260.1</ele>
        <time>2012-06-07T08:40:00.000Z</time>
      </trkpt>
      <trkpt lat="47.64938" lon="6.03284">
        <ele>260.1</ele>
        <time>2012-06-07T08:40:01.000Z</time>
      </trkpt>
      <trkpt lat="47.64943" lon="6.03282">
        <ele>260.1</ele>
        <time>2012-06-07T08:40:02.000Z</time>
      </trkpt>
      <trkpt lat="47.64948" lon="6.03279">
        <ele>260.2</ele>
        <time>2012-06-07T08:40:03.000Z</time>
      </trkpt>
      <trkpt lat="47.64953" lon="6.03277">
        <ele>260.2</ele>
        <time>2012-06-07T08:40:04.000Z</time>
      </trkpt>
      <trkpt lat="47.64957" lon="6.03275">
        <ele>260.3</ele>
        <time>2012-06-07T08:40:05.000Z</time>
      </trkpt>
      <trkpt lat="47.64961" lon="6.03272">
        <ele>260.2</ele>
        <time>2012-06-07T08:40:06.000Z</time>
      </trkpt>
      <trkpt lat="47.64966" lon="6.03269">
        <ele>260.3</ele>
        <time>2012-06-07T08:40:07.000Z</time>
      </trkpt>
      <trkpt lat="47.6497" lon="6.03266">
        <ele>260.2</ele>
        <time>2012-06-07T08:40:08.000Z</time>
      </trkpt>
      <trkpt lat="47.64976" lon="6.03261">
        <ele>260.5</ele>
        <time>2012-06-07T08:40:10.000Z</time>
      </trkpt>
      <trkpt lat="47.64982" lon="6.03256">
        <ele>260.3</ele>
        <time>2012-06-07T08:40:12.000Z</time>
      </trkpt>
      <trkpt lat="47.64989" lon="6.03252">
        <ele>260.2</ele>
        <time>2012-06-07T08:40:14.000Z</time>
      </trkpt>
      <trkpt lat="47.64996" lon="6.03246">
        <ele>260.4</ele>
        <time>2012-06-07T08:40:16.000Z</time>
      </trkpt>
      <trkpt lat="47.65003" lon="6.03241">
        <ele>260.4</ele>
        <time>2012-06-07T08:40:18.000Z</time>
      </trkpt>
      <trkpt lat="47.65009" lon="6.03234">
        <ele>260.6</ele>
        <time>2012-06-07T08:40:20.000Z</time>
      </trkpt>
      <trkpt lat="47.65015" lon="6.03228">
        <ele>260.5</ele>
        <time>2012-06-07T08:40:22.000Z</time>
      </trkpt>
      <trkpt lat="47.65022" lon="6.0322">
        <ele>260.5</ele>
        <time>2012-06-07T08:40:24.000Z</time>
      </trkpt>
      <trkpt lat="47.65027" lon="6.03217">
        <ele>260.1</ele>
        <time>2012-06-07T08:40:25.000Z</time>
      </trkpt>
      <trkpt lat="47.65031" lon="6.03213">
        <ele>259.9</ele>
        <time>2012-06-07T08:40:26.000Z</time>
      </trkpt>
      <trkpt lat="47.65035" lon="6.03209">
        <ele>259.8</ele>
        <time>2012-06-07T08:40:27.000Z</time>
      </trkpt>
      <trkpt lat="47.6504" lon="6.03204">
        <ele>259.7</ele>
        <time>2012-06-07T08:40:28.000Z</time>
      </trkpt>
      <trkpt lat="47.65043" lon="6.03199">
        <ele>259.5</ele>
        <time>2012-06-07T08:40:29.000Z</time>
      </trkpt>
      <trkpt lat="47.65047" lon="6.03193">
        <ele>259.3</ele>
        <time>2012-06-07T08:40:30.000Z</time>
      </trkpt>
      <trkpt lat="47.6505" lon="6.03187">
        <ele>259.2</ele>
        <time>2012-06-07T08:40:31.000Z</time>
      </trkpt>
      <trkpt lat="47.65054" lon="6.03181">
        <ele>259.2</ele>
        <time>2012-06-07T08:40:32.000Z</time>
      </trkpt>
      <trkpt lat="47.65057" lon="6.03176">
        <ele>259.1</ele>
        <time>2012-06-07T08:40:33.000Z</time>
      </trkpt>
      <trkpt lat="47.65061" lon="6.0317">
        <ele>259</ele>
        <time>2012-06-07T08:40:34.000Z</time>
      </trkpt>
      <trkpt lat="47.65064" lon="6.03164">
        <ele>258.9</ele>
        <time>2012-06-07T08:40:35.000Z</time>
      </trkpt>
      <trkpt lat="47.65067" lon="6.03159">
        <ele>258.9</ele>
        <time>2012-06-07T08:40:36.000Z</time>
      </trkpt>
      <trkpt lat="47.6507" lon="6.03153">
        <ele>258.8</ele>
        <time>2012-06-07T08:40:37.000Z</time>
      </trkpt>
      <trkpt lat="47.65074" lon="6.03146">
        <ele>258.8</ele>
        <time>2012-06-07T08:40:38.000Z</time>
      </trkpt>
      <trkpt lat="47.65077" lon="6.03139">
        <ele>258.8</ele>
        <time>2012-06-07T08:40:39.000Z</time>
      </trkpt>
      <trkpt lat="47.65081" lon="6.0313">
        <ele>258.7</ele>
        <time>2012-06-07T08:40:40.000Z</time>
      </trkpt>
      <trkpt lat="47.65083" lon="6.03121">
        <ele>258.3</ele>
        <time>2012-06-07T08:40:41.000Z</time>
      </trkpt>
      <trkpt lat="47.65084" lon="6.03113">
        <ele>258.2</ele>
        <time>2012-06-07T08:40:42.000Z</time>
      </trkpt>
      <trkpt lat="47.65084" lon="6.03104">
        <ele>257.9</ele>
        <time>2012-06-07T08:40:43.000Z</time>
      </trkpt>
      <trkpt lat="47.65082" lon="6.03096">
        <ele>258.1</ele>
        <time>2012-06-07T08:40:44.000Z</time>
      </trkpt>
      <trkpt lat="47.6508" lon="6.03088">
        <ele>258.3</ele>
        <time>2012-06-07T08:40:45.000Z</time>
      </trkpt>
      <trkpt lat="47.65078" lon="6.03081">
        <ele>258.6</ele>
        <time>2012-06-07T08:40:46.000Z</time>
      </trkpt>
      <trkpt lat="47.65075" lon="6.03073">
        <ele>258.8</ele>
        <time>2012-06-07T08:40:47.000Z</time>
      </trkpt>
      <trkpt lat="47.65073" lon="6.03066">
        <ele>259</ele>
        <time>2012-06-07T08:40:48.000Z</time>
      </trkpt>
      <trkpt lat="47.6507" lon="6.03059">
        <ele>259.2</ele>
        <time>2012-06-07T08:40:49.000Z</time>
      </trkpt>
      <trkpt lat="47.65068" lon="6.03052">
        <ele>259.5</ele>
        <time>2012-06-07T08:40:50.000Z</time>
      </trkpt>
      <trkpt lat="47.65066" lon="6.03044">
        <ele>259.7</ele>
        <time>2012-06-07T08:40:51.000Z</time>
      </trkpt>
      <trkpt lat="47.65063" lon="6.03037">
        <ele>259.7</ele>
        <time>2012-06-07T08:40:52.000Z</time>
      </trkpt>
      <trkpt lat="47.6506" lon="6.03031">
        <ele>259.6</ele>
        <time>2012-06-07T08:40:53.000Z</time>
      </trkpt>
      <trkpt lat="47.65056" lon="6.03024">
        <ele>259.6</ele>
        <time>2012-06-07T08:40:54.000Z</time>
      </trkpt>
      <trkpt lat="47.65053" lon="6.03018">
        <ele>259.5</ele>
        <time>2012-06-07T08:40:55.000Z</time>
      </trkpt>
      <trkpt lat="47.6505" lon="6.03012">
        <ele>259.4</ele>
        <time>2012-06-07T08:40:56.000Z</time>
      </trkpt>
      <trkpt lat="47.65045" lon="6.03004">
        <ele>259.3</ele>
        <time>2012-06-07T08:40:58.000Z</time>
      </trkpt>
      <trkpt lat="47.65041" lon="6.02995">
        <ele>259.2</ele>
        <time>2012-06-07T08:41:00.000Z</time>
      </trkpt>
      <trkpt lat="47.65036" lon="6.02986">
        <ele>259.1</ele>
        <time>2012-06-07T08:41:02.000Z</time>
      </trkpt>
      <trkpt lat="47.65033" lon="6.02981">
        <ele>258.9</ele>
        <time>2012-06-07T08:41:03.000Z</time>
      </trkpt>
      <trkpt lat="47.6503" lon="6.02975">
        <ele>259</ele>
        <time>2012-06-07T08:41:04.000Z</time>
      </trkpt>
      <trkpt lat="47.65027" lon="6.0297">
        <ele>259</ele>
        <time>2012-06-07T08:41:05.000Z</time>
      </trkpt>
      <trkpt lat="47.65024" lon="6.02964">
        <ele>259</ele>
        <time>2012-06-07T08:41:06.000Z</time>
      </trkpt>
      <trkpt lat="47.65021" lon="6.02958">
        <ele>259.1</ele>
        <time>2012-06-07T08:41:07.000Z</time>
      </trkpt>
      <trkpt lat="47.65018" lon="6.02952">
        <ele>259.2</ele>
        <time>2012-06-07T08:41:08.000Z</time>
      </trkpt>
      <trkpt lat="47.65016" lon="6.02946">
        <ele>259.3</ele>
        <time>2012-06-07T08:41:09.000Z</time>
      </trkpt>
      <trkpt lat="47.65013" lon="6.02939">
        <ele>259.4</ele>
        <time>2012-06-07T08:41:10.000Z</time>
      </trkpt>
      <trkpt lat="47.65011" lon="6.02933">
        <ele>259.4</ele>
        <time>2012-06-07T08:41:11.000Z</time>
      </trkpt>
      <trkpt lat="47.65009" lon="6.02926">
        <ele>259.5</ele>
        <time>2012-06-07T08:41:12.000Z</time>
      </trkpt>
      <trkpt lat="47.65007" lon="6.02919">
        <ele>259.5</ele>
        <time>2012-06-07T08:41:13.000Z</time>
      </trkpt>
      <trkpt lat="47.65006" lon="6.02912">
        <ele>259.5</ele>
        <time>2012-06-07T08:41:14.000Z</time>
      </trkpt>
      <trkpt lat="47.65004" lon="6.02906">
        <ele>259.6</ele>
        <time>2012-06-07T08:41:15.000Z</time>
      </trkpt>
      <trkpt lat="47.65003" lon="6.02899">
        <ele>259.5</ele>
        <time>2012-06-07T08:41:16.000Z</time>
      </trkpt>
      <trkpt lat="47.65001" lon="6.02892">
        <ele>259.5</ele>
        <time>2012-06-07T08:41:17.000Z</time>
      </trkpt>
      <trkpt lat="47.65" lon="6.02884">
        <ele>259.4</ele>
        <time>2012-06-07T08:41:18.000Z</time>
      </trkpt>
      <trkpt lat="47.64999" lon="6.02876">
        <ele>259.3</ele>
        <time>2012-06-07T08:41:19.000Z</time>
      </trkpt>
      <trkpt lat="47.64998" lon="6.02869">
        <ele>259.3</ele>
        <time>2012-06-07T08:41:20.000Z</time>
      </trkpt>
      <trkpt lat="47.64997" lon="6.02862">
        <ele>259.3</ele>
        <time>2012-06-07T08:41:21.000Z</time>
      </trkpt>
      <trkpt lat="47.64996" lon="6.02855">
        <ele>259.3</ele>
        <time>2012-06-07T08:41:22.000Z</time>
      </trkpt>
      <trkpt lat="47.64995" lon="6.02848">
        <ele>259.4</ele>
        <time>2012-06-07T08:41:23.000Z</time>
      </trkpt>
      <trkpt lat="47.64994" lon="6.02842">
        <ele>259.4</ele>
        <time>2012-06-07T08:41:24.000Z</time>
      </trkpt>
      <trkpt lat="47.64994" lon="6.02835">
        <ele>259.6</ele>
        <time>2012-06-07T08:41:25.000Z</time>
      </trkpt>
      <trkpt lat="47.64993" lon="6.02828">
        <ele>259.7</ele>
        <time>2012-06-07T08:41:26.000Z</time>
      </trkpt>
      <trkpt lat="47.64991" lon="6.02815">
        <ele>259.9</ele>
        <time>2012-06-07T08:41:28.000Z</time>
      </trkpt>
      <trkpt lat="47.6499" lon="6.02808">
        <ele>259.9</ele>
        <time>2012-06-07T08:41:29.000Z</time>
      </trkpt>
      <trkpt lat="47.6499" lon="6.02801">
        <ele>259.8</ele>
        <time>2012-06-07T08:41:30.000Z</time>
      </trkpt>
      <trkpt lat="47.64989" lon="6.02794">
        <ele>259.9</ele>
        <time>2012-06-07T08:41:31.000Z</time>
      </trkpt>
      <trkpt lat="47.64988" lon="6.02787">
        <ele>259.9</ele>
        <time>2012-06-07T08:41:32.000Z</time>
      </trkpt>
      <trkpt lat="47.64987" lon="6.02779">
        <ele>259.7</ele>
        <time>2012-06-07T08:41:33.000Z</time>
      </trkpt>
      <trkpt lat="47.64986" lon="6.02772">
        <ele>259.7</ele>
        <time>2012-06-07T08:41:34.000Z</time>
      </trkpt>
      <trkpt lat="47.64985" lon="6.02764">
        <ele>259.7</ele>
        <time>2012-06-07T08:41:35.000Z</time>
      </trkpt>
      <trkpt lat="47.64984" lon="6.02757">
        <ele>259.7</ele>
        <time>2012-06-07T08:41:36.000Z</time>
      </trkpt>
      <trkpt lat="47.64983" lon="6.0275">
        <ele>259.7</ele>
        <time>2012-06-07T08:41:37.000Z</time>
      </trkpt>
      <trkpt lat="47.64982" lon="6.02742">
        <ele>259.7</ele>
        <time>2012-06-07T08:41:38.000Z</time>
      </trkpt>
      <trkpt lat="47.64981" lon="6.02735">
        <ele>259.4</ele>
        <time>2012-06-07T08:41:39.000Z</time>
      </trkpt>
      <trkpt lat="47.64981" lon="6.02727">
        <ele>259.3</ele>
        <time>2012-06-07T08:41:40.000Z</time>
      </trkpt>
      <trkpt lat="47.6498" lon="6.0272">
        <ele>259.1</ele>
        <time>2012-06-07T08:41:41.000Z</time>
      </trkpt>
      <trkpt lat="47.64979" lon="6.02712">
        <ele>259</ele>
        <time>2012-06-07T08:41:42.000Z</time>
      </trkpt>
      <trkpt lat="47.64978" lon="6.02705">
        <ele>259.1</ele>
        <time>2012-06-07T08:41:43.000Z</time>
      </trkpt>
      <trkpt lat="47.64977" lon="6.02697">
        <ele>259</ele>
        <time>2012-06-07T08:41:44.000Z</time>
      </trkpt>
      <trkpt lat="47.64976" lon="6.02689">
        <ele>259.1</ele>
        <time>2012-06-07T08:41:45.000Z</time>
      </trkpt>
      <trkpt lat="47.64975" lon="6.02682">
        <ele>259.2</ele>
        <time>2012-06-07T08:41:46.000Z</time>
      </trkpt>
      <trkpt lat="47.64974" lon="6.02675">
        <ele>259.4</ele>
        <time>2012-06-07T08:41:47.000Z</time>
      </trkpt>
      <trkpt lat="47.64974" lon="6.02668">
        <ele>259.5</ele>
        <time>2012-06-07T08:41:48.000Z</time>
      </trkpt>
      <trkpt lat="47.64973" lon="6.02661">
        <ele>259.5</ele>
        <time>2012-06-07T08:41:49.000Z</time>
      </trkpt>
      <trkpt lat="47.64972" lon="6.02654">
        <ele>259.6</ele>
        <time>2012-06-07T08:41:50.000Z</time>
      </trkpt>
      <trkpt lat="47.64963" lon="6.02599">
        <ele>247.3</ele>
        <time>2012-06-07T08:41:57.000Z</time>
      </trkpt>
      <trkpt lat="47.64958" lon="6.02593">
        <ele>270.4</ele>
        <time>2012-06-07T08:42:01.000Z</time>
      </trkpt>
      <trkpt lat="47.64955" lon="6.02584">
        <ele>271.9</ele>
        <time>2012-06-07T08:42:03.000Z</time>
      </trkpt>
      <trkpt lat="47.64954" lon="6.02571">
        <ele>273.5</ele>
        <time>2012-06-07T08:42:05.000Z</time>
      </trkpt>
      <trkpt lat="47.64953" lon="6.02563">
        <ele>273.5</ele>
        <time>2012-06-07T08:42:06.000Z</time>
      </trkpt>
      <trkpt lat="47.64952" lon="6.02556">
        <ele>274.8</ele>
        <time>2012-06-07T08:42:07.000Z</time>
      </trkpt>
      <trkpt lat="47.64951" lon="6.02549">
        <ele>276</ele>
        <time>2012-06-07T08:42:08.000Z</time>
      </trkpt>
      <trkpt lat="47.64946" lon="6.02538">
        <ele>278.2</ele>
        <time>2012-06-07T08:42:10.000Z</time>
      </trkpt>
      <trkpt lat="47.64944" lon="6.02532">
        <ele>278.8</ele>
        <time>2012-06-07T08:42:11.000Z</time>
      </trkpt>
      <trkpt lat="47.64943" lon="6.02522">
        <ele>277.1</ele>
        <time>2012-06-07T08:42:12.000Z</time>
      </trkpt>
      <trkpt lat="47.64943" lon="6.02514">
        <ele>277.2</ele>
        <time>2012-06-07T08:42:13.000Z</time>
      </trkpt>
      <trkpt lat="47.64942" lon="6.02506">
        <ele>276.4</ele>
        <time>2012-06-07T08:42:14.000Z</time>
      </trkpt>
      <trkpt lat="47.64942" lon="6.02497">
        <ele>275.1</ele>
        <time>2012-06-07T08:42:15.000Z</time>
      </trkpt>
      <trkpt lat="47.64942" lon="6.02488">
        <ele>273.4</ele>
        <time>2012-06-07T08:42:16.000Z</time>
      </trkpt>
      <trkpt lat="47.64942" lon="6.02478">
        <ele>271</ele>
        <time>2012-06-07T08:42:17.000Z</time>
      </trkpt>
      <trkpt lat="47.64941" lon="6.0247">
        <ele>269.7</ele>
        <time>2012-06-07T08:42:18.000Z</time>
      </trkpt>
      <trkpt lat="47.64941" lon="6.02461">
        <ele>267.7</ele>
        <time>2012-06-07T08:42:19.000Z</time>
      </trkpt>
      <trkpt lat="47.64941" lon="6.02452">
        <ele>266.8</ele>
        <time>2012-06-07T08:42:20.000Z</time>
      </trkpt>
      <trkpt lat="47.64938" lon="6.02442">
        <ele>268.8</ele>
        <time>2012-06-07T08:42:22.000Z</time>
      </trkpt>
      <trkpt lat="47.64937" lon="6.02434">
        <ele>269.5</ele>
        <time>2012-06-07T08:42:24.000Z</time>
      </trkpt>
      <trkpt lat="47.64941" lon="6.02423">
        <ele>264.9</ele>
        <time>2012-06-07T08:42:26.000Z</time>
      </trkpt>
      <trkpt lat="47.64944" lon="6.02417">
        <ele>262.9</ele>
        <time>2012-06-07T08:42:27.000Z</time>
      </trkpt>
      <trkpt lat="47.64948" lon="6.02409">
        <ele>261.9</ele>
        <time>2012-06-07T08:42:29.000Z</time>
      </trkpt>
      <trkpt lat="47.64955" lon="6.02401">
        <ele>261.6</ele>
        <time>2012-06-07T08:42:31.000Z</time>
      </trkpt>
      <trkpt lat="47.64961" lon="6.02393">
        <ele>261.9</ele>
        <time>2012-06-07T08:42:33.000Z</time>
      </trkpt>
      <trkpt lat="47.64966" lon="6.02382">
        <ele>262.6</ele>
        <time>2012-06-07T08:42:35.000Z</time>
      </trkpt>
      <trkpt lat="47.64967" lon="6.0237">
        <ele>263.7</ele>
        <time>2012-06-07T08:42:37.000Z</time>
      </trkpt>
      <trkpt lat="47.64966" lon="6.02359">
        <ele>265.5</ele>
        <time>2012-06-07T08:42:39.000Z</time>
      </trkpt>
      <trkpt lat="47.64965" lon="6.02352">
        <ele>268.3</ele>
        <time>2012-06-07T08:42:41.000Z</time>
      </trkpt>
      <trkpt lat="47.64967" lon="6.02339">
        <ele>269.2</ele>
        <time>2012-06-07T08:42:43.000Z</time>
      </trkpt>
      <trkpt lat="47.64967" lon="6.02332">
        <ele>269.8</ele>
        <time>2012-06-07T08:42:44.000Z</time>
      </trkpt>
      <trkpt lat="47.64966" lon="6.02324">
        <ele>270.4</ele>
        <time>2012-06-07T08:42:45.000Z</time>
      </trkpt>
      <trkpt lat="47.64964" lon="6.02316">
        <ele>270.9</ele>
        <time>2012-06-07T08:42:46.000Z</time>
      </trkpt>
      <trkpt lat="47.64962" lon="6.02308">
        <ele>270.9</ele>
        <time>2012-06-07T08:42:47.000Z</time>
      </trkpt>
      <trkpt lat="47.6496" lon="6.023">
        <ele>270.9</ele>
        <time>2012-06-07T08:42:48.000Z</time>
      </trkpt>
      <trkpt lat="47.64959" lon="6.0229">
        <ele>269.6</ele>
        <time>2012-06-07T08:42:49.000Z</time>
      </trkpt>
      <trkpt lat="47.64957" lon="6.02278">
        <ele>268.3</ele>
        <time>2012-06-07T08:42:50.000Z</time>
      </trkpt>
      <trkpt lat="47.64957" lon="6.02268">
        <ele>267.2</ele>
        <time>2012-06-07T08:42:51.000Z</time>
      </trkpt>
      <trkpt lat="47.64955" lon="6.0226">
        <ele>266.7</ele>
        <time>2012-06-07T08:42:52.000Z</time>
      </trkpt>
      <trkpt lat="47.64954" lon="6.02253">
        <ele>266.5</ele>
        <time>2012-06-07T08:42:53.000Z</time>
      </trkpt>
      <trkpt lat="47.6495" lon="6.02241">
        <ele>266.7</ele>
        <time>2012-06-07T08:42:55.000Z</time>
      </trkpt>
      <trkpt lat="47.64946" lon="6.02237">
        <ele>266.7</ele>
        <time>2012-06-07T08:42:56.000Z</time>
      </trkpt>
      <trkpt lat="47.64943" lon="6.02231">
        <ele>266.7</ele>
        <time>2012-06-07T08:42:57.000Z</time>
      </trkpt>
      <trkpt lat="47.64941" lon="6.02224">
        <ele>267.1</ele>
        <time>2012-06-07T08:42:58.000Z</time>
      </trkpt>
      <trkpt lat="47.64938" lon="6.02213">
        <ele>267.1</ele>
        <time>2012-06-07T08:43:00.000Z</time>
      </trkpt>
      <trkpt lat="47.64934" lon="6.02202">
        <ele>266.1</ele>
        <time>2012-06-07T08:43:02.000Z</time>
      </trkpt>
      <trkpt lat="47.64931" lon="6.02195">
        <ele>265.9</ele>
        <time>2012-06-07T08:43:04.000Z</time>
      </trkpt>
      <trkpt lat="47.64926" lon="6.0219">
        <ele>266.1</ele>
        <time>2012-06-07T08:43:07.000Z</time>
      </trkpt>
      <trkpt lat="47.64923" lon="6.02182">
        <ele>265.8</ele>
        <time>2012-06-07T08:43:10.000Z</time>
      </trkpt>
      <trkpt lat="47.64921" lon="6.02173">
        <ele>265.3</ele>
        <time>2012-06-07T08:43:12.000Z</time>
      </trkpt>
      <trkpt lat="47.64919" lon="6.02165">
        <ele>265.4</ele>
        <time>2012-06-07T08:43:14.000Z</time>
      </trkpt>
      <trkpt lat="47.64915" lon="6.02159">
        <ele>265.6</ele>
        <time>2012-06-07T08:43:16.000Z</time>
      </trkpt>
      <trkpt lat="47.64913" lon="6.02151">
        <ele>265.6</ele>
        <time>2012-06-07T08:43:18.000Z</time>
      </trkpt>
      <trkpt lat="47.64912" lon="6.02137">
        <ele>264.6</ele>
        <time>2012-06-07T08:43:20.000Z</time>
      </trkpt>
      <trkpt lat="47.64911" lon="6.0213">
        <ele>264.2</ele>
        <time>2012-06-07T08:43:21.000Z</time>
      </trkpt>
      <trkpt lat="47.64909" lon="6.02124">
        <ele>263.7</ele>
        <time>2012-06-07T08:43:22.000Z</time>
      </trkpt>
      <trkpt lat="47.64905" lon="6.0212">
        <ele>263.3</ele>
        <time>2012-06-07T08:43:23.000Z</time>
      </trkpt>
      <trkpt lat="47.64897" lon="6.02108">
        <ele>263.5</ele>
        <time>2012-06-07T08:43:25.000Z</time>
      </trkpt>
      <trkpt lat="47.64892" lon="6.02104">
        <ele>263.6</ele>
        <time>2012-06-07T08:43:26.000Z</time>
      </trkpt>
      <trkpt lat="47.64889" lon="6.02097">
        <ele>264.5</ele>
        <time>2012-06-07T08:43:28.000Z</time>
      </trkpt>
      <trkpt lat="47.64885" lon="6.02086">
        <ele>263.4</ele>
        <time>2012-06-07T08:43:30.000Z</time>
      </trkpt>
      <trkpt lat="47.64881" lon="6.02079">
        <ele>262.8</ele>
        <time>2012-06-07T08:43:33.000Z</time>
      </trkpt>
      <trkpt lat="47.64878" lon="6.02072">
        <ele>263.9</ele>
        <time>2012-06-07T08:43:42.000Z</time>
      </trkpt>
      <trkpt lat="47.64883" lon="6.02068">
        <ele>265.3</ele>
        <time>2012-06-07T08:43:45.000Z</time>
      </trkpt>
      <trkpt lat="47.64888" lon="6.02071">
        <ele>265.4</ele>
        <time>2012-06-07T08:43:46.000Z</time>
      </trkpt>
      <trkpt lat="47.64896" lon="6.02075">
        <ele>265.2</ele>
        <time>2012-06-07T08:43:47.000Z</time>
      </trkpt>
      <trkpt lat="47.64902" lon="6.02078">
        <ele>265</ele>
        <time>2012-06-07T08:43:48.000Z</time>
      </trkpt>
      <trkpt lat="47.64907" lon="6.0208">
        <ele>265.1</ele>
        <time>2012-06-07T08:43:49.000Z</time>
      </trkpt>
      <trkpt lat="47.64912" lon="6.02079">
        <ele>265.4</ele>
        <time>2012-06-07T08:43:50.000Z</time>
      </trkpt>
      <trkpt lat="47.6492" lon="6.02078">
        <ele>265.7</ele>
        <time>2012-06-07T08:43:52.000Z</time>
      </trkpt>
      <trkpt lat="47.64928" lon="6.02072">
        <ele>265.5</ele>
        <time>2012-06-07T08:43:54.000Z</time>
      </trkpt>
      <trkpt lat="47.64934" lon="6.02067">
        <ele>264.8</ele>
        <time>2012-06-07T08:43:56.000Z</time>
      </trkpt>
      <trkpt lat="47.64942" lon="6.02061">
        <ele>263.6</ele>
        <time>2012-06-07T08:43:58.000Z</time>
      </trkpt>
      <trkpt lat="47.64946" lon="6.02058">
        <ele>263.2</ele>
        <time>2012-06-07T08:43:59.000Z</time>
      </trkpt>
      <trkpt lat="47.6495" lon="6.02054">
        <ele>263.1</ele>
        <time>2012-06-07T08:44:00.000Z</time>
      </trkpt>
      <trkpt lat="47.64954" lon="6.02051">
        <ele>263</ele>
        <time>2012-06-07T08:44:01.000Z</time>
      </trkpt>
      <trkpt lat="47.64958" lon="6.02048">
        <ele>263.1</ele>
        <time>2012-06-07T08:44:02.000Z</time>
      </trkpt>
      <trkpt lat="47.64963" lon="6.02045">
        <ele>262.9</ele>
        <time>2012-06-07T08:44:03.000Z</time>
      </trkpt>
      <trkpt lat="47.64968" lon="6.02042">
        <ele>262.9</ele>
        <time>2012-06-07T08:44:04.000Z</time>
      </trkpt>
      <trkpt lat="47.64973" lon="6.02039">
        <ele>262.9</ele>
        <time>2012-06-07T08:44:05.000Z</time>
      </trkpt>
      <trkpt lat="47.64979" lon="6.02036">
        <ele>262.5</ele>
        <time>2012-06-07T08:44:06.000Z</time>
      </trkpt>
      <trkpt lat="47.64985" lon="6.02032">
        <ele>261.6</ele>
        <time>2012-06-07T08:44:07.000Z</time>
      </trkpt>
      <trkpt lat="47.64991" lon="6.0203">
        <ele>260.9</ele>
        <time>2012-06-07T08:44:08.000Z</time>
      </trkpt>
      <trkpt lat="47.64997" lon="6.0203">
        <ele>260.3</ele>
        <time>2012-06-07T08:44:09.000Z</time>
      </trkpt>
      <trkpt lat="47.65002" lon="6.02031">
        <ele>260</ele>
        <time>2012-06-07T08:44:10.000Z</time>
      </trkpt>
      <trkpt lat="47.65008" lon="6.02032">
        <ele>259.7</ele>
        <time>2012-06-07T08:44:11.000Z</time>
      </trkpt>
      <trkpt lat="47.65013" lon="6.02034">
        <ele>259.6</ele>
        <time>2012-06-07T08:44:12.000Z</time>
      </trkpt>
      <trkpt lat="47.65018" lon="6.02036">
        <ele>259.5</ele>
        <time>2012-06-07T08:44:13.000Z</time>
      </trkpt>
      <trkpt lat="47.65022" lon="6.0204">
        <ele>259.4</ele>
        <time>2012-06-07T08:44:14.000Z</time>
      </trkpt>
      <trkpt lat="47.65028" lon="6.02044">
        <ele>259.2</ele>
        <time>2012-06-07T08:44:15.000Z</time>
      </trkpt>
      <trkpt lat="47.65036" lon="6.02049">
        <ele>258.8</ele>
        <time>2012-06-07T08:44:17.000Z</time>
      </trkpt>
      <trkpt lat="47.65043" lon="6.02053">
        <ele>258.6</ele>
        <time>2012-06-07T08:44:19.000Z</time>
      </trkpt>
      <trkpt lat="47.65051" lon="6.02056">
        <ele>258.6</ele>
        <time>2012-06-07T08:44:21.000Z</time>
      </trkpt>
      <trkpt lat="47.65058" lon="6.02059">
        <ele>258.4</ele>
        <time>2012-06-07T08:44:23.000Z</time>
      </trkpt>
      <trkpt lat="47.65066" lon="6.02061">
        <ele>258.3</ele>
        <time>2012-06-07T08:44:25.000Z</time>
      </trkpt>
      <trkpt lat="47.65072" lon="6.02064">
        <ele>258.4</ele>
        <time>2012-06-07T08:44:27.000Z</time>
      </trkpt>
      <trkpt lat="47.65079" lon="6.02067">
        <ele>258.7</ele>
        <time>2012-06-07T08:44:29.000Z</time>
      </trkpt>
      <trkpt lat="47.65085" lon="6.02069">
        <ele>259</ele>
        <time>2012-06-07T08:44:31.000Z</time>
      </trkpt>
      <trkpt lat="47.65092" lon="6.02071">
        <ele>259.3</ele>
        <time>2012-06-07T08:44:33.000Z</time>
      </trkpt>
      <trkpt lat="47.65098" lon="6.02074">
        <ele>259.5</ele>
        <time>2012-06-07T08:44:35.000Z</time>
      </trkpt>
      <trkpt lat="47.65105" lon="6.02076">
        <ele>259.8</ele>
        <time>2012-06-07T08:44:37.000Z</time>
      </trkpt>
      <trkpt lat="47.65112" lon="6.02079">
        <ele>260.1</ele>
        <time>2012-06-07T08:44:39.000Z</time>
      </trkpt>
      <trkpt lat="47.65119" lon="6.02082">
        <ele>260.3</ele>
        <time>2012-06-07T08:44:41.000Z</time>
      </trkpt>
      <trkpt lat="47.65126" lon="6.02085">
        <ele>260.5</ele>
        <time>2012-06-07T08:44:43.000Z</time>
      </trkpt>
      <trkpt lat="47.65133" lon="6.02088">
        <ele>260.6</ele>
        <time>2012-06-07T08:44:45.000Z</time>
      </trkpt>
      <trkpt lat="47.65141" lon="6.0209">
        <ele>260.7</ele>
        <time>2012-06-07T08:44:47.000Z</time>
      </trkpt>
      <trkpt lat="47.65148" lon="6.02092">
        <ele>260.7</ele>
        <time>2012-06-07T08:44:49.000Z</time>
      </trkpt>
      <trkpt lat="47.6518" lon="6.02103">
        <ele>259</ele>
        <time>2012-06-07T08:44:57.000Z</time>
      </trkpt>
      <trkpt lat="47.65189" lon="6.02104">
        <ele>259.5</ele>
        <time>2012-06-07T08:44:59.000Z</time>
      </trkpt>
      <trkpt lat="47.65196" lon="6.02105">
        <ele>260.7</ele>
        <time>2012-06-07T08:45:01.000Z</time>
      </trkpt>
      <trkpt lat="47.65204" lon="6.02105">
        <ele>260.3</ele>
        <time>2012-06-07T08:45:03.000Z</time>
      </trkpt>
      <trkpt lat="47.65213" lon="6.02106">
        <ele>260.6</ele>
        <time>2012-06-07T08:45:05.000Z</time>
      </trkpt>
      <trkpt lat="47.65221" lon="6.02106">
        <ele>261.8</ele>
        <time>2012-06-07T08:45:07.000Z</time>
      </trkpt>
      <trkpt lat="47.65229" lon="6.02107">
        <ele>262.9</ele>
        <time>2012-06-07T08:45:09.000Z</time>
      </trkpt>
      <trkpt lat="47.65237" lon="6.02107">
        <ele>263</ele>
        <time>2012-06-07T08:45:11.000Z</time>
      </trkpt>
      <trkpt lat="47.65245" lon="6.02106">
        <ele>262.9</ele>
        <time>2012-06-07T08:45:13.000Z</time>
      </trkpt>
      <trkpt lat="47.65254" lon="6.02105">
        <ele>263</ele>
        <time>2012-06-07T08:45:15.000Z</time>
      </trkpt>
      <trkpt lat="47.65258" lon="6.02105">
        <ele>262.8</ele>
        <time>2012-06-07T08:45:16.000Z</time>
      </trkpt>
      <trkpt lat="47.65267" lon="6.02103">
        <ele>263.1</ele>
        <time>2012-06-07T08:45:18.000Z</time>
      </trkpt>
      <trkpt lat="47.65275" lon="6.02101">
        <ele>263.4</ele>
        <time>2012-06-07T08:45:20.000Z</time>
      </trkpt>
      <trkpt lat="47.65284" lon="6.021">
        <ele>263.3</ele>
        <time>2012-06-07T08:45:22.000Z</time>
      </trkpt>
      <trkpt lat="47.65288" lon="6.02099">
        <ele>262.8</ele>
        <time>2012-06-07T08:45:23.000Z</time>
      </trkpt>
      <trkpt lat="47.65293" lon="6.02098">
        <ele>262.5</ele>
        <time>2012-06-07T08:45:24.000Z</time>
      </trkpt>
      <trkpt lat="47.65297" lon="6.02096">
        <ele>262.1</ele>
        <time>2012-06-07T08:45:25.000Z</time>
      </trkpt>
      <trkpt lat="47.65306" lon="6.02094">
        <ele>260.7</ele>
        <time>2012-06-07T08:45:27.000Z</time>
      </trkpt>
      <trkpt lat="47.65311" lon="6.02092">
        <ele>260.2</ele>
        <time>2012-06-07T08:45:28.000Z</time>
      </trkpt>
      <trkpt lat="47.65316" lon="6.02091">
        <ele>259.6</ele>
        <time>2012-06-07T08:45:29.000Z</time>
      </trkpt>
      <trkpt lat="47.6532" lon="6.02089">
        <ele>259.2</ele>
        <time>2012-06-07T08:45:30.000Z</time>
      </trkpt>
      <trkpt lat="47.65325" lon="6.02087">
        <ele>259</ele>
        <time>2012-06-07T08:45:31.000Z</time>
      </trkpt>
      <trkpt lat="47.6533" lon="6.02085">
        <ele>258.7</ele>
        <time>2012-06-07T08:45:32.000Z</time>
      </trkpt>
      <trkpt lat="47.65334" lon="6.02083">
        <ele>258.5</ele>
        <time>2012-06-07T08:45:33.000Z</time>
      </trkpt>
      <trkpt lat="47.65339" lon="6.0208">
        <ele>258.4</ele>
        <time>2012-06-07T08:45:34.000Z</time>
      </trkpt>
      <trkpt lat="47.65344" lon="6.02078">
        <ele>258.2</ele>
        <time>2012-06-07T08:45:35.000Z</time>
      </trkpt>
      <trkpt lat="47.65348" lon="6.02076">
        <ele>258</ele>
        <time>2012-06-07T08:45:36.000Z</time>
      </trkpt>
      <trkpt lat="47.65353" lon="6.02073">
        <ele>257.7</ele>
        <time>2012-06-07T08:45:37.000Z</time>
      </trkpt>
      <trkpt lat="47.65357" lon="6.02071">
        <ele>257.5</ele>
        <time>2012-06-07T08:45:38.000Z</time>
      </trkpt>
      <trkpt lat="47.65361" lon="6.02068">
        <ele>257.4</ele>
        <time>2012-06-07T08:45:39.000Z</time>
      </trkpt>
      <trkpt lat="47.65365" lon="6.02065">
        <ele>257.3</ele>
        <time>2012-06-07T08:45:40.000Z</time>
      </trkpt>
      <trkpt lat="47.6537" lon="6.02063">
        <ele>257.3</ele>
        <time>2012-06-07T08:45:41.000Z</time>
      </trkpt>
      <trkpt lat="47.65374" lon="6.0206">
        <ele>257.3</ele>
        <time>2012-06-07T08:45:42.000Z</time>
      </trkpt>
      <trkpt lat="47.65378" lon="6.02057">
        <ele>257.3</ele>
        <time>2012-06-07T08:45:43.000Z</time>
      </trkpt>
      <trkpt lat="47.65382" lon="6.02054">
        <ele>257.3</ele>
        <time>2012-06-07T08:45:44.000Z</time>
      </trkpt>
      <trkpt lat="47.6539" lon="6.02049">
        <ele>257.4</ele>
        <time>2012-06-07T08:45:46.000Z</time>
      </trkpt>
      <trkpt lat="47.65394" lon="6.02046">
        <ele>257.5</ele>
        <time>2012-06-07T08:45:47.000Z</time>
      </trkpt>
      <trkpt lat="47.65398" lon="6.02043">
        <ele>257.5</ele>
        <time>2012-06-07T08:45:48.000Z</time>
      </trkpt>
      <trkpt lat="47.65402" lon="6.0204">
        <ele>257.5</ele>
        <time>2012-06-07T08:45:49.000Z</time>
      </trkpt>
      <trkpt lat="47.65406" lon="6.02037">
        <ele>257.6</ele>
        <time>2012-06-07T08:45:50.000Z</time>
      </trkpt>
      <trkpt lat="47.65443" lon="6.02007">
        <ele>257.5</ele>
        <time>2012-06-07T08:45:58.000Z</time>
      </trkpt>
      <trkpt lat="47.65448" lon="6.02">
        <ele>261.3</ele>
        <time>2012-06-07T08:46:00.000Z</time>
      </trkpt>
      <trkpt lat="47.65452" lon="6.01998">
        <ele>259.7</ele>
        <time>2012-06-07T08:46:01.000Z</time>
      </trkpt>
      <trkpt lat="47.6546" lon="6.01992">
        <ele>260</ele>
        <time>2012-06-07T08:46:03.000Z</time>
      </trkpt>
      <trkpt lat="47.65468" lon="6.01985">
        <ele>259.7</ele>
        <time>2012-06-07T08:46:05.000Z</time>
      </trkpt>
      <trkpt lat="47.65475" lon="6.01979">
        <ele>259.5</ele>
        <time>2012-06-07T08:46:07.000Z</time>
      </trkpt>
      <trkpt lat="47.65479" lon="6.01975">
        <ele>259.2</ele>
        <time>2012-06-07T08:46:08.000Z</time>
      </trkpt>
      <trkpt lat="47.65483" lon="6.01972">
        <ele>258.9</ele>
        <time>2012-06-07T08:46:09.000Z</time>
      </trkpt>
      <trkpt lat="47.65488" lon="6.01969">
        <ele>258.8</ele>
        <time>2012-06-07T08:46:10.000Z</time>
      </trkpt>
      <trkpt lat="47.65492" lon="6.01966">
        <ele>258.6</ele>
        <time>2012-06-07T08:46:11.000Z</time>
      </trkpt>
      <trkpt lat="47.65496" lon="6.01964">
        <ele>258.5</ele>
        <time>2012-06-07T08:46:12.000Z</time>
      </trkpt>
      <trkpt lat="47.65504" lon="6.0196">
        <ele>258.3</ele>
        <time>2012-06-07T08:46:14.000Z</time>
      </trkpt>
      <trkpt lat="47.65511" lon="6.01955">
        <ele>258.3</ele>
        <time>2012-06-07T08:46:16.000Z</time>
      </trkpt>
      <trkpt lat="47.65518" lon="6.01949">
        <ele>258.6</ele>
        <time>2012-06-07T08:46:18.000Z</time>
      </trkpt>
      <trkpt lat="47.65525" lon="6.01942">
        <ele>258.7</ele>
        <time>2012-06-07T08:46:20.000Z</time>
      </trkpt>
      <trkpt lat="47.6553" lon="6.01937">
        <ele>260.1</ele>
        <time>2012-06-07T08:46:22.000Z</time>
      </trkpt>
      <trkpt lat="47.65535" lon="6.01931">
        <ele>259.2</ele>
        <time>2012-06-07T08:46:24.000Z</time>
      </trkpt>
      <trkpt lat="47.65536" lon="6.01923">
        <ele>258.7</ele>
        <time>2012-06-07T08:46:26.000Z</time>
      </trkpt>
      <trkpt lat="47.65534" lon="6.01914">
        <ele>258.8</ele>
        <time>2012-06-07T08:46:28.000Z</time>
      </trkpt>
      <trkpt lat="47.65531" lon="6.01907">
        <ele>259.2</ele>
        <time>2012-06-07T08:46:30.000Z</time>
      </trkpt>
      <trkpt lat="47.65529" lon="6.019">
        <ele>259.6</ele>
        <time>2012-06-07T08:46:32.000Z</time>
      </trkpt>
      <trkpt lat="47.65526" lon="6.01893">
        <ele>259.6</ele>
        <time>2012-06-07T08:46:34.000Z</time>
      </trkpt>
      <trkpt lat="47.65523" lon="6.01887">
        <ele>260.1</ele>
        <time>2012-06-07T08:46:36.000Z</time>
      </trkpt>
      <trkpt lat="47.65521" lon="6.0188">
        <ele>260.6</ele>
        <time>2012-06-07T08:46:38.000Z</time>
      </trkpt>
      <trkpt lat="47.65518" lon="6.0187">
        <ele>260.8</ele>
        <time>2012-06-07T08:46:40.000Z</time>
      </trkpt>
      <trkpt lat="47.65518" lon="6.0186">
        <ele>261</ele>
        <time>2012-06-07T08:46:42.000Z</time>
      </trkpt>
      <trkpt lat="47.65521" lon="6.01849">
        <ele>261.2</ele>
        <time>2012-06-07T08:46:44.000Z</time>
      </trkpt>
      <trkpt lat="47.65525" lon="6.0184">
        <ele>261.5</ele>
        <time>2012-06-07T08:46:46.000Z</time>
      </trkpt>
      <trkpt lat="47.65528" lon="6.01834">
        <ele>261.5</ele>
        <time>2012-06-07T08:46:47.000Z</time>
      </trkpt>
      <trkpt lat="47.65532" lon="6.01829">
        <ele>261.4</ele>
        <time>2012-06-07T08:46:48.000Z</time>
      </trkpt>
      <trkpt lat="47.65537" lon="6.01824">
        <ele>261.4</ele>
        <time>2012-06-07T08:46:49.000Z</time>
      </trkpt>
      <trkpt lat="47.65542" lon="6.01819">
        <ele>261.2</ele>
        <time>2012-06-07T08:46:50.000Z</time>
      </trkpt>
      <trkpt lat="47.65547" lon="6.01816">
        <ele>261.1</ele>
        <time>2012-06-07T08:46:51.000Z</time>
      </trkpt>
      <trkpt lat="47.65553" lon="6.01812">
        <ele>260.9</ele>
        <time>2012-06-07T08:46:52.000Z</time>
      </trkpt>
      <trkpt lat="47.65558" lon="6.01807">
        <ele>260.5</ele>
        <time>2012-06-07T08:46:53.000Z</time>
      </trkpt>
      <trkpt lat="47.65564" lon="6.01802">
        <ele>260</ele>
        <time>2012-06-07T08:46:54.000Z</time>
      </trkpt>
      <trkpt lat="47.65569" lon="6.01796">
        <ele>259.5</ele>
        <time>2012-06-07T08:46:55.000Z</time>
      </trkpt>
      <trkpt lat="47.65574" lon="6.0179">
        <ele>259.4</ele>
        <time>2012-06-07T08:46:56.000Z</time>
      </trkpt>
      <trkpt lat="47.65578" lon="6.01784">
        <ele>259.2</ele>
        <time>2012-06-07T08:46:57.000Z</time>
      </trkpt>
      <trkpt lat="47.65582" lon="6.01777">
        <ele>259.2</ele>
        <time>2012-06-07T08:46:58.000Z</time>
      </trkpt>
      <trkpt lat="47.65586" lon="6.01771">
        <ele>259</ele>
        <time>2012-06-07T08:46:59.000Z</time>
      </trkpt>
      <trkpt lat="47.65589" lon="6.01764">
        <ele>259</ele>
        <time>2012-06-07T08:47:00.000Z</time>
      </trkpt>
      <trkpt lat="47.65593" lon="6.01759">
        <ele>259.1</ele>
        <time>2012-06-07T08:47:01.000Z</time>
      </trkpt>
      <trkpt lat="47.65596" lon="6.01753">
        <ele>259.1</ele>
        <time>2012-06-07T08:47:02.000Z</time>
      </trkpt>
      <trkpt lat="47.65599" lon="6.01748">
        <ele>259.1</ele>
        <time>2012-06-07T08:47:03.000Z</time>
      </trkpt>
      <trkpt lat="47.65602" lon="6.01743">
        <ele>259.1</ele>
        <time>2012-06-07T08:47:04.000Z</time>
      </trkpt>
      <trkpt lat="47.65605" lon="6.01737">
        <ele>259</ele>
        <time>2012-06-07T08:47:05.000Z</time>
      </trkpt>
      <trkpt lat="47.65608" lon="6.01732">
        <ele>259</ele>
        <time>2012-06-07T08:47:06.000Z</time>
      </trkpt>
      <trkpt lat="47.65611" lon="6.01728">
        <ele>259</ele>
        <time>2012-06-07T08:47:07.000Z</time>
      </trkpt>
      <trkpt lat="47.65618" lon="6.01718">
        <ele>259</ele>
        <time>2012-06-07T08:47:09.000Z</time>
      </trkpt>
      <trkpt lat="47.65624" lon="6.0171">
        <ele>258.8</ele>
        <time>2012-06-07T08:47:11.000Z</time>
      </trkpt>
      <trkpt lat="47.65631" lon="6.01702">
        <ele>258.6</ele>
        <time>2012-06-07T08:47:13.000Z</time>
      </trkpt>
      <trkpt lat="47.65638" lon="6.01696">
        <ele>258.5</ele>
        <time>2012-06-07T08:47:15.000Z</time>
      </trkpt>
      <trkpt lat="47.65644" lon="6.0169">
        <ele>258.5</ele>
        <time>2012-06-07T08:47:17.000Z</time>
      </trkpt>
      <trkpt lat="47.65651" lon="6.01684">
        <ele>257.6</ele>
        <time>2012-06-07T08:47:19.000Z</time>
      </trkpt>
      <trkpt lat="47.65657" lon="6.01678">
        <ele>257.3</ele>
        <time>2012-06-07T08:47:21.000Z</time>
      </trkpt>
      <trkpt lat="47.65662" lon="6.01675">
        <ele>257.1</ele>
        <time>2012-06-07T08:47:23.000Z</time>
      </trkpt>
      <trkpt lat="47.65667" lon="6.01681">
        <ele>257.6</ele>
        <time>2012-06-07T08:47:26.000Z</time>
      </trkpt>
      <trkpt lat="47.65671" lon="6.01688">
        <ele>257.6</ele>
        <time>2012-06-07T08:47:28.000Z</time>
      </trkpt>
      <trkpt lat="47.65676" lon="6.01695">
        <ele>257.7</ele>
        <time>2012-06-07T08:47:30.000Z</time>
      </trkpt>
      <trkpt lat="47.65684" lon="6.01699">
        <ele>257.3</ele>
        <time>2012-06-07T08:47:32.000Z</time>
      </trkpt>
      <trkpt lat="47.65688" lon="6.01699">
        <ele>257.1</ele>
        <time>2012-06-07T08:47:33.000Z</time>
      </trkpt>
      <trkpt lat="47.65693" lon="6.01697">
        <ele>256.8</ele>
        <time>2012-06-07T08:47:34.000Z</time>
      </trkpt>
      <trkpt lat="47.65697" lon="6.01694">
        <ele>256.7</ele>
        <time>2012-06-07T08:47:35.000Z</time>
      </trkpt>
      <trkpt lat="47.65702" lon="6.01691">
        <ele>256.5</ele>
        <time>2012-06-07T08:47:36.000Z</time>
      </trkpt>
      <trkpt lat="47.6571" lon="6.01686">
        <ele>256.1</ele>
        <time>2012-06-07T08:47:38.000Z</time>
      </trkpt>
      <trkpt lat="47.65717" lon="6.01682">
        <ele>255.9</ele>
        <time>2012-06-07T08:47:40.000Z</time>
      </trkpt>
      <trkpt lat="47.65725" lon="6.01678">
        <ele>255.9</ele>
        <time>2012-06-07T08:47:42.000Z</time>
      </trkpt>
      <trkpt lat="47.65732" lon="6.01674">
        <ele>255.9</ele>
        <time>2012-06-07T08:47:44.000Z</time>
      </trkpt>
      <trkpt lat="47.65738" lon="6.0167">
        <ele>255.6</ele>
        <time>2012-06-07T08:47:46.000Z</time>
      </trkpt>
      <trkpt lat="47.65744" lon="6.01667">
        <ele>255.3</ele>
        <time>2012-06-07T08:47:48.000Z</time>
      </trkpt>
      <trkpt lat="47.65751" lon="6.01662">
        <ele>255.2</ele>
        <time>2012-06-07T08:47:50.000Z</time>
      </trkpt>
      <trkpt lat="47.65774" lon="6.01648">
        <ele>258.9</ele>
        <time>2012-06-07T08:47:57.000Z</time>
      </trkpt>
      <trkpt lat="47.6578" lon="6.01649">
        <ele>266</ele>
        <time>2012-06-07T08:47:58.000Z</time>
      </trkpt>
      <trkpt lat="47.65784" lon="6.01644">
        <ele>264.1</ele>
        <time>2012-06-07T08:47:59.000Z</time>
      </trkpt>
      <trkpt lat="47.65788" lon="6.0164">
        <ele>261.5</ele>
        <time>2012-06-07T08:48:00.000Z</time>
      </trkpt>
      <trkpt lat="47.65795" lon="6.01635">
        <ele>263</ele>
        <time>2012-06-07T08:48:02.000Z</time>
      </trkpt>
      <trkpt lat="47.65801" lon="6.01632">
        <ele>265.2</ele>
        <time>2012-06-07T08:48:04.000Z</time>
      </trkpt>
      <trkpt lat="47.65807" lon="6.01629">
        <ele>267.6</ele>
        <time>2012-06-07T08:48:06.000Z</time>
      </trkpt>
      <trkpt lat="47.65814" lon="6.01626">
        <ele>269.3</ele>
        <time>2012-06-07T08:48:08.000Z</time>
      </trkpt>
      <trkpt lat="47.6582" lon="6.01622">
        <ele>271.5</ele>
        <time>2012-06-07T08:48:10.000Z</time>
      </trkpt>
      <trkpt lat="47.65826" lon="6.01618">
        <ele>274.2</ele>
        <time>2012-06-07T08:48:12.000Z</time>
      </trkpt>
      <trkpt lat="47.65833" lon="6.01614">
        <ele>276.9</ele>
        <time>2012-06-07T08:48:14.000Z</time>
      </trkpt>
      <trkpt lat="47.6584" lon="6.0161">
        <ele>278.1</ele>
        <time>2012-06-07T08:48:16.000Z</time>
      </trkpt>
      <trkpt lat="47.65845" lon="6.01606">
        <ele>277.4</ele>
        <time>2012-06-07T08:48:17.000Z</time>
      </trkpt>
      <trkpt lat="47.65849" lon="6.01602">
        <ele>277.5</ele>
        <time>2012-06-07T08:48:18.000Z</time>
      </trkpt>
      <trkpt lat="47.65854" lon="6.01598">
        <ele>277.8</ele>
        <time>2012-06-07T08:48:19.000Z</time>
      </trkpt>
      <trkpt lat="47.6586" lon="6.01594">
        <ele>278.8</ele>
        <time>2012-06-07T08:48:21.000Z</time>
      </trkpt>
      <trkpt lat="47.65865" lon="6.01591">
        <ele>279.9</ele>
        <time>2012-06-07T08:48:22.000Z</time>
      </trkpt>
      <trkpt lat="47.6587" lon="6.01587">
        <ele>278.7</ele>
        <time>2012-06-07T08:48:23.000Z</time>
      </trkpt>
      <trkpt lat="47.65874" lon="6.01584">
        <ele>278.2</ele>
        <time>2012-06-07T08:48:24.000Z</time>
      </trkpt>
      <trkpt lat="47.6588" lon="6.01574">
        <ele>270.9</ele>
        <time>2012-06-07T08:48:25.000Z</time>
      </trkpt>
      <trkpt lat="47.65885" lon="6.01569">
        <ele>268.6</ele>
        <time>2012-06-07T08:48:26.000Z</time>
      </trkpt>
      <trkpt lat="47.65893" lon="6.01565">
        <ele>268.2</ele>
        <time>2012-06-07T08:48:28.000Z</time>
      </trkpt>
      <trkpt lat="47.65901" lon="6.0156">
        <ele>268</ele>
        <time>2012-06-07T08:48:30.000Z</time>
      </trkpt>
      <trkpt lat="47.65906" lon="6.01558">
        <ele>267.6</ele>
        <time>2012-06-07T08:48:31.000Z</time>
      </trkpt>
      <trkpt lat="47.6591" lon="6.01555">
        <ele>266.5</ele>
        <time>2012-06-07T08:48:32.000Z</time>
      </trkpt>
      <trkpt lat="47.65915" lon="6.01552">
        <ele>265.5</ele>
        <time>2012-06-07T08:48:33.000Z</time>
      </trkpt>
      <trkpt lat="47.65923" lon="6.01549">
        <ele>264.6</ele>
        <time>2012-06-07T08:48:35.000Z</time>
      </trkpt>
      <trkpt lat="47.6593" lon="6.01548">
        <ele>264.7</ele>
        <time>2012-06-07T08:48:37.000Z</time>
      </trkpt>
      <trkpt lat="47.65939" lon="6.01548">
        <ele>264.4</ele>
        <time>2012-06-07T08:48:39.000Z</time>
      </trkpt>
      <trkpt lat="47.65943" lon="6.01546">
        <ele>264.4</ele>
        <time>2012-06-07T08:48:40.000Z</time>
      </trkpt>
      <trkpt lat="47.65948" lon="6.01545">
        <ele>264.4</ele>
        <time>2012-06-07T08:48:41.000Z</time>
      </trkpt>
      <trkpt lat="47.65957" lon="6.01542">
        <ele>264.7</ele>
        <time>2012-06-07T08:48:43.000Z</time>
      </trkpt>
      <trkpt lat="47.65961" lon="6.0154">
        <ele>264.8</ele>
        <time>2012-06-07T08:48:44.000Z</time>
      </trkpt>
      <trkpt lat="47.65966" lon="6.01538">
        <ele>264.8</ele>
        <time>2012-06-07T08:48:45.000Z</time>
      </trkpt>
      <trkpt lat="47.6597" lon="6.01536">
        <ele>265</ele>
        <time>2012-06-07T08:48:46.000Z</time>
      </trkpt>
      <trkpt lat="47.65978" lon="6.01534">
        <ele>265.3</ele>
        <time>2012-06-07T08:48:48.000Z</time>
      </trkpt>
      <trkpt lat="47.65982" lon="6.01532">
        <ele>265.4</ele>
        <time>2012-06-07T08:48:49.000Z</time>
      </trkpt>
      <trkpt lat="47.65987" lon="6.01529">
        <ele>265.3</ele>
        <time>2012-06-07T08:48:50.000Z</time>
      </trkpt>
      <trkpt lat="47.65993" lon="6.01524">
        <ele>265.2</ele>
        <time>2012-06-07T08:48:51.000Z</time>
      </trkpt>
      <trkpt lat="47.65999" lon="6.01517">
        <ele>265.1</ele>
        <time>2012-06-07T08:48:52.000Z</time>
      </trkpt>
      <trkpt lat="47.66004" lon="6.01511">
        <ele>264.6</ele>
        <time>2012-06-07T08:48:53.000Z</time>
      </trkpt>
      <trkpt lat="47.6601" lon="6.01507">
        <ele>264.4</ele>
        <time>2012-06-07T08:48:54.000Z</time>
      </trkpt>
      <trkpt lat="47.66014" lon="6.01505">
        <ele>264.2</ele>
        <time>2012-06-07T08:48:55.000Z</time>
      </trkpt>
      <trkpt lat="47.66022" lon="6.01505">
        <ele>264.3</ele>
        <time>2012-06-07T08:48:57.000Z</time>
      </trkpt>
      <trkpt lat="47.66028" lon="6.01504">
        <ele>264</ele>
        <time>2012-06-07T08:48:59.000Z</time>
      </trkpt>
      <trkpt lat="47.66036" lon="6.01503">
        <ele>264</ele>
        <time>2012-06-07T08:49:01.000Z</time>
      </trkpt>
      <trkpt lat="47.66044" lon="6.01503">
        <ele>264</ele>
        <time>2012-06-07T08:49:03.000Z</time>
      </trkpt>
      <trkpt lat="47.66052" lon="6.01502">
        <ele>263.7</ele>
        <time>2012-06-07T08:49:05.000Z</time>
      </trkpt>
      <trkpt lat="47.66061" lon="6.015">
        <ele>263.5</ele>
        <time>2012-06-07T08:49:07.000Z</time>
      </trkpt>
      <trkpt lat="47.6607" lon="6.01499">
        <ele>263.6</ele>
        <time>2012-06-07T08:49:09.000Z</time>
      </trkpt>
      <trkpt lat="47.66078" lon="6.01498">
        <ele>263.5</ele>
        <time>2012-06-07T08:49:11.000Z</time>
      </trkpt>
      <trkpt lat="47.66086" lon="6.01498">
        <ele>263.1</ele>
        <time>2012-06-07T08:49:13.000Z</time>
      </trkpt>
      <trkpt lat="47.66094" lon="6.01497">
        <ele>263</ele>
        <time>2012-06-07T08:49:15.000Z</time>
      </trkpt>
      <trkpt lat="47.66102" lon="6.01497">
        <ele>262.7</ele>
        <time>2012-06-07T08:49:17.000Z</time>
      </trkpt>
      <trkpt lat="47.6611" lon="6.01496">
        <ele>262.9</ele>
        <time>2012-06-07T08:49:19.000Z</time>
      </trkpt>
      <trkpt lat="47.66115" lon="6.01495">
        <ele>262.9</ele>
        <time>2012-06-07T08:49:20.000Z</time>
      </trkpt>
      <trkpt lat="47.66123" lon="6.01496">
        <ele>263</ele>
        <time>2012-06-07T08:49:22.000Z</time>
      </trkpt>
      <trkpt lat="47.6613" lon="6.01496">
        <ele>263</ele>
        <time>2012-06-07T08:49:24.000Z</time>
      </trkpt>
      <trkpt lat="47.66137" lon="6.01497">
        <ele>263.1</ele>
        <time>2012-06-07T08:49:26.000Z</time>
      </trkpt>
      <trkpt lat="47.66144" lon="6.01498">
        <ele>263</ele>
        <time>2012-06-07T08:49:28.000Z</time>
      </trkpt>
      <trkpt lat="47.66154" lon="6.01494">
        <ele>263</ele>
        <time>2012-06-07T08:49:30.000Z</time>
      </trkpt>
      <trkpt lat="47.66159" lon="6.01492">
        <ele>263</ele>
        <time>2012-06-07T08:49:31.000Z</time>
      </trkpt>
      <trkpt lat="47.66165" lon="6.01491">
        <ele>262.8</ele>
        <time>2012-06-07T08:49:32.000Z</time>
      </trkpt>
      <trkpt lat="47.6617" lon="6.0149">
        <ele>262.8</ele>
        <time>2012-06-07T08:49:33.000Z</time>
      </trkpt>
      <trkpt lat="47.66175" lon="6.0149">
        <ele>262.6</ele>
        <time>2012-06-07T08:49:34.000Z</time>
      </trkpt>
      <trkpt lat="47.6618" lon="6.0149">
        <ele>262.7</ele>
        <time>2012-06-07T08:49:35.000Z</time>
      </trkpt>
      <trkpt lat="47.66189" lon="6.01488">
        <ele>262.4</ele>
        <time>2012-06-07T08:49:37.000Z</time>
      </trkpt>
      <trkpt lat="47.66195" lon="6.01486">
        <ele>261.8</ele>
        <time>2012-06-07T08:49:38.000Z</time>
      </trkpt>
      <trkpt lat="47.66203" lon="6.01483">
        <ele>261</ele>
        <time>2012-06-07T08:49:40.000Z</time>
      </trkpt>
      <trkpt lat="47.66208" lon="6.01482">
        <ele>260.7</ele>
        <time>2012-06-07T08:49:41.000Z</time>
      </trkpt>
      <trkpt lat="47.66216" lon="6.0148">
        <ele>260.4</ele>
        <time>2012-06-07T08:49:43.000Z</time>
      </trkpt>
      <trkpt lat="47.66224" lon="6.0148">
        <ele>260.4</ele>
        <time>2012-06-07T08:49:45.000Z</time>
      </trkpt>
      <trkpt lat="47.66232" lon="6.0148">
        <ele>260.1</ele>
        <time>2012-06-07T08:49:47.000Z</time>
      </trkpt>
      <trkpt lat="47.6624" lon="6.01481">
        <ele>260.4</ele>
        <time>2012-06-07T08:49:49.000Z</time>
      </trkpt>
      <trkpt lat="47.66245" lon="6.01482">
        <ele>260.8</ele>
        <time>2012-06-07T08:49:50.000Z</time>
      </trkpt>
      <trkpt lat="47.6628" lon="6.01489">
        <ele>258.9</ele>
        <time>2012-06-07T08:49:57.000Z</time>
      </trkpt>
      <trkpt lat="47.66287" lon="6.01491">
        <ele>259.7</ele>
        <time>2012-06-07T08:49:59.000Z</time>
      </trkpt>
      <trkpt lat="47.66293" lon="6.01492">
        <ele>259.2</ele>
        <time>2012-06-07T08:50:01.000Z</time>
      </trkpt>
      <trkpt lat="47.66301" lon="6.01495">
        <ele>260</ele>
        <time>2012-06-07T08:50:03.000Z</time>
      </trkpt>
      <trkpt lat="47.66305" lon="6.01497">
        <ele>259.7</ele>
        <time>2012-06-07T08:50:04.000Z</time>
      </trkpt>
      <trkpt lat="47.66313" lon="6.015">
        <ele>259.9</ele>
        <time>2012-06-07T08:50:06.000Z</time>
      </trkpt>
      <trkpt lat="47.6632" lon="6.01504">
        <ele>260.7</ele>
        <time>2012-06-07T08:50:08.000Z</time>
      </trkpt>
      <trkpt lat="47.66328" lon="6.01507">
        <ele>261.2</ele>
        <time>2012-06-07T08:50:10.000Z</time>
      </trkpt>
      <trkpt lat="47.66335" lon="6.01511">
        <ele>261.7</ele>
        <time>2012-06-07T08:50:12.000Z</time>
      </trkpt>
      <trkpt lat="47.66343" lon="6.01516">
        <ele>261.7</ele>
        <time>2012-06-07T08:50:14.000Z</time>
      </trkpt>
      <trkpt lat="47.66351" lon="6.0152">
        <ele>261.6</ele>
        <time>2012-06-07T08:50:16.000Z</time>
      </trkpt>
      <trkpt lat="47.66359" lon="6.01525">
        <ele>261.8</ele>
        <time>2012-06-07T08:50:18.000Z</time>
      </trkpt>
      <trkpt lat="47.66366" lon="6.01529">
        <ele>261.8</ele>
        <time>2012-06-07T08:50:20.000Z</time>
      </trkpt>
      <trkpt lat="47.66374" lon="6.01534">
        <ele>261.9</ele>
        <time>2012-06-07T08:50:22.000Z</time>
      </trkpt>
      <trkpt lat="47.66382" lon="6.01538">
        <ele>261.5</ele>
        <time>2012-06-07T08:50:24.000Z</time>
      </trkpt>
      <trkpt lat="47.6639" lon="6.01543">
        <ele>261.2</ele>
        <time>2012-06-07T08:50:26.000Z</time>
      </trkpt>
      <trkpt lat="47.66397" lon="6.01548">
        <ele>261</ele>
        <time>2012-06-07T08:50:28.000Z</time>
      </trkpt>
      <trkpt lat="47.66405" lon="6.01553">
        <ele>260.8</ele>
        <time>2012-06-07T08:50:30.000Z</time>
      </trkpt>
      <trkpt lat="47.66413" lon="6.01558">
        <ele>260.7</ele>
        <time>2012-06-07T08:50:32.000Z</time>
      </trkpt>
      <trkpt lat="47.6642" lon="6.01564">
        <ele>260.4</ele>
        <time>2012-06-07T08:50:34.000Z</time>
      </trkpt>
      <trkpt lat="47.66427" lon="6.01568">
        <ele>260.1</ele>
        <time>2012-06-07T08:50:36.000Z</time>
      </trkpt>
      <trkpt lat="47.66434" lon="6.01574">
        <ele>260.1</ele>
        <time>2012-06-07T08:50:38.000Z</time>
      </trkpt>
      <trkpt lat="47.66442" lon="6.01579">
        <ele>259.9</ele>
        <time>2012-06-07T08:50:40.000Z</time>
      </trkpt>
      <trkpt lat="47.66449" lon="6.01585">
        <ele>259.8</ele>
        <time>2012-06-07T08:50:42.000Z</time>
      </trkpt>
      <trkpt lat="47.66457" lon="6.01591">
        <ele>259.6</ele>
        <time>2012-06-07T08:50:44.000Z</time>
      </trkpt>
      <trkpt lat="47.66464" lon="6.01597">
        <ele>259.7</ele>
        <time>2012-06-07T08:50:46.000Z</time>
      </trkpt>
      <trkpt lat="47.66472" lon="6.01602">
        <ele>260</ele>
        <time>2012-06-07T08:50:48.000Z</time>
      </trkpt>
      <trkpt lat="47.66479" lon="6.01608">
        <ele>260</ele>
        <time>2012-06-07T08:50:50.000Z</time>
      </trkpt>
      <trkpt lat="47.66486" lon="6.01614">
        <ele>259.9</ele>
        <time>2012-06-07T08:50:52.000Z</time>
      </trkpt>
      <trkpt lat="47.66493" lon="6.0162">
        <ele>260</ele>
        <time>2012-06-07T08:50:54.000Z</time>
      </trkpt>
      <trkpt lat="47.665" lon="6.01627">
        <ele>260.1</ele>
        <time>2012-06-07T08:50:56.000Z</time>
      </trkpt>
      <trkpt lat="47.66508" lon="6.01634">
        <ele>260.1</ele>
        <time>2012-06-07T08:50:58.000Z</time>
      </trkpt>
      <trkpt lat="47.66515" lon="6.01642">
        <ele>260.3</ele>
        <time>2012-06-07T08:51:00.000Z</time>
      </trkpt>
      <trkpt lat="47.66519" lon="6.01645">
        <ele>260.4</ele>
        <time>2012-06-07T08:51:01.000Z</time>
      </trkpt>
      <trkpt lat="47.66522" lon="6.0165">
        <ele>260.4</ele>
        <time>2012-06-07T08:51:02.000Z</time>
      </trkpt>
      <trkpt lat="47.66526" lon="6.01654">
        <ele>260.3</ele>
        <time>2012-06-07T08:51:03.000Z</time>
      </trkpt>
      <trkpt lat="47.66534" lon="6.01661">
        <ele>260.5</ele>
        <time>2012-06-07T08:51:05.000Z</time>
      </trkpt>
      <trkpt lat="47.66541" lon="6.01668">
        <ele>260.5</ele>
        <time>2012-06-07T08:51:07.000Z</time>
      </trkpt>
      <trkpt lat="47.66548" lon="6.01676">
        <ele>260.3</ele>
        <time>2012-06-07T08:51:09.000Z</time>
      </trkpt>
      <trkpt lat="47.66554" lon="6.01683">
        <ele>260.1</ele>
        <time>2012-06-07T08:51:11.000Z</time>
      </trkpt>
      <trkpt lat="47.66561" lon="6.0169">
        <ele>260</ele>
        <time>2012-06-07T08:51:13.000Z</time>
      </trkpt>
      <trkpt lat="47.66567" lon="6.01696">
        <ele>260.5</ele>
        <time>2012-06-07T08:51:15.000Z</time>
      </trkpt>
      <trkpt lat="47.66574" lon="6.01702">
        <ele>260.8</ele>
        <time>2012-06-07T08:51:17.000Z</time>
      </trkpt>
      <trkpt lat="47.6658" lon="6.01708">
        <ele>261.1</ele>
        <time>2012-06-07T08:51:19.000Z</time>
      </trkpt>
      <trkpt lat="47.66586" lon="6.01713">
        <ele>261.2</ele>
        <time>2012-06-07T08:51:21.000Z</time>
      </trkpt>
      <trkpt lat="47.66592" lon="6.01719">
        <ele>261.4</ele>
        <time>2012-06-07T08:51:23.000Z</time>
      </trkpt>
      <trkpt lat="47.66596" lon="6.01723">
        <ele>261.5</ele>
        <time>2012-06-07T08:51:24.000Z</time>
      </trkpt>
      <trkpt lat="47.66599" lon="6.01727">
        <ele>261.7</ele>
        <time>2012-06-07T08:51:25.000Z</time>
      </trkpt>
      <trkpt lat="47.66606" lon="6.01736">
        <ele>262</ele>
        <time>2012-06-07T08:51:27.000Z</time>
      </trkpt>
      <trkpt lat="47.66611" lon="6.01744">
        <ele>262.4</ele>
        <time>2012-06-07T08:51:29.000Z</time>
      </trkpt>
      <trkpt lat="47.66617" lon="6.01752">
        <ele>262.6</ele>
        <time>2012-06-07T08:51:31.000Z</time>
      </trkpt>
      <trkpt lat="47.66622" lon="6.0176">
        <ele>263</ele>
        <time>2012-06-07T08:51:33.000Z</time>
      </trkpt>
      <trkpt lat="47.66627" lon="6.01767">
        <ele>263.1</ele>
        <time>2012-06-07T08:51:35.000Z</time>
      </trkpt>
      <trkpt lat="47.66633" lon="6.01775">
        <ele>263.3</ele>
        <time>2012-06-07T08:51:37.000Z</time>
      </trkpt>
      <trkpt lat="47.66638" lon="6.01784">
        <ele>263.6</ele>
        <time>2012-06-07T08:51:39.000Z</time>
      </trkpt>
      <trkpt lat="47.66642" lon="6.01794">
        <ele>263.9</ele>
        <time>2012-06-07T08:51:41.000Z</time>
      </trkpt>
      <trkpt lat="47.66646" lon="6.01805">
        <ele>264</ele>
        <time>2012-06-07T08:51:43.000Z</time>
      </trkpt>
      <trkpt lat="47.66652" lon="6.01816">
        <ele>264.3</ele>
        <time>2012-06-07T08:51:45.000Z</time>
      </trkpt>
      <trkpt lat="47.66656" lon="6.01821">
        <ele>264.2</ele>
        <time>2012-06-07T08:51:46.000Z</time>
      </trkpt>
      <trkpt lat="47.66659" lon="6.01827">
        <ele>264.3</ele>
        <time>2012-06-07T08:51:47.000Z</time>
      </trkpt>
      <trkpt lat="47.66662" lon="6.01833">
        <ele>264.4</ele>
        <time>2012-06-07T08:51:48.000Z</time>
      </trkpt>
      <trkpt lat="47.66667" lon="6.01843">
        <ele>264.9</ele>
        <time>2012-06-07T08:51:50.000Z</time>
      </trkpt>
      <trkpt lat="47.66673" lon="6.01852">
        <ele>265.3</ele>
        <time>2012-06-07T08:51:52.000Z</time>
      </trkpt>
      <trkpt lat="47.66678" lon="6.01861">
        <ele>265.6</ele>
        <time>2012-06-07T08:51:54.000Z</time>
      </trkpt>
      <trkpt lat="47.66684" lon="6.01871">
        <ele>265.5</ele>
        <time>2012-06-07T08:51:56.000Z</time>
      </trkpt>
      <trkpt lat="47.66689" lon="6.01881">
        <ele>265.7</ele>
        <time>2012-06-07T08:51:58.000Z</time>
      </trkpt>
      <trkpt lat="47.66694" lon="6.01891">
        <ele>266</ele>
        <time>2012-06-07T08:52:00.000Z</time>
      </trkpt>
      <trkpt lat="47.66699" lon="6.01901">
        <ele>265.9</ele>
        <time>2012-06-07T08:52:02.000Z</time>
      </trkpt>
      <trkpt lat="47.66704" lon="6.01911">
        <ele>266</ele>
        <time>2012-06-07T08:52:04.000Z</time>
      </trkpt>
      <trkpt lat="47.66708" lon="6.01921">
        <ele>266.3</ele>
        <time>2012-06-07T08:52:06.000Z</time>
      </trkpt>
      <trkpt lat="47.66713" lon="6.01932">
        <ele>266.4</ele>
        <time>2012-06-07T08:52:08.000Z</time>
      </trkpt>
      <trkpt lat="47.66716" lon="6.01943">
        <ele>266.5</ele>
        <time>2012-06-07T08:52:10.000Z</time>
      </trkpt>
      <trkpt lat="47.66718" lon="6.01949">
        <ele>266.6</ele>
        <time>2012-06-07T08:52:11.000Z</time>
      </trkpt>
      <trkpt lat="47.66722" lon="6.01961">
        <ele>266.6</ele>
        <time>2012-06-07T08:52:13.000Z</time>
      </trkpt>
      <trkpt lat="47.66724" lon="6.01967">
        <ele>266.7</ele>
        <time>2012-06-07T08:52:14.000Z</time>
      </trkpt>
      <trkpt lat="47.66725" lon="6.01973">
        <ele>267</ele>
        <time>2012-06-07T08:52:15.000Z</time>
      </trkpt>
      <trkpt lat="47.66727" lon="6.01979">
        <ele>267</ele>
        <time>2012-06-07T08:52:16.000Z</time>
      </trkpt>
      <trkpt lat="47.6673" lon="6.01992">
        <ele>267</ele>
        <time>2012-06-07T08:52:18.000Z</time>
      </trkpt>
      <trkpt lat="47.66732" lon="6.01998">
        <ele>267</ele>
        <time>2012-06-07T08:52:19.000Z</time>
      </trkpt>
      <trkpt lat="47.66734" lon="6.02011">
        <ele>267.3</ele>
        <time>2012-06-07T08:52:21.000Z</time>
      </trkpt>
      <trkpt lat="47.66736" lon="6.02023">
        <ele>267.6</ele>
        <time>2012-06-07T08:52:23.000Z</time>
      </trkpt>
      <trkpt lat="47.66738" lon="6.02029">
        <ele>267.7</ele>
        <time>2012-06-07T08:52:24.000Z</time>
      </trkpt>
      <trkpt lat="47.6674" lon="6.02036">
        <ele>267.9</ele>
        <time>2012-06-07T08:52:25.000Z</time>
      </trkpt>
      <trkpt lat="47.66742" lon="6.02042">
        <ele>268</ele>
        <time>2012-06-07T08:52:26.000Z</time>
      </trkpt>
      <trkpt lat="47.66745" lon="6.02054">
        <ele>268.1</ele>
        <time>2012-06-07T08:52:28.000Z</time>
      </trkpt>
      <trkpt lat="47.66749" lon="6.02064">
        <ele>268</ele>
        <time>2012-06-07T08:52:30.000Z</time>
      </trkpt>
      <trkpt lat="47.66752" lon="6.02075">
        <ele>268.3</ele>
        <time>2012-06-07T08:52:32.000Z</time>
      </trkpt>
      <trkpt lat="47.66754" lon="6.02084">
        <ele>268.3</ele>
        <time>2012-06-07T08:52:34.000Z</time>
      </trkpt>
      <trkpt lat="47.66756" lon="6.02094">
        <ele>268.4</ele>
        <time>2012-06-07T08:52:36.000Z</time>
      </trkpt>
      <trkpt lat="47.66759" lon="6.02106">
        <ele>268.6</ele>
        <time>2012-06-07T08:52:38.000Z</time>
      </trkpt>
      <trkpt lat="47.66763" lon="6.02116">
        <ele>268.7</ele>
        <time>2012-06-07T08:52:40.000Z</time>
      </trkpt>
      <trkpt lat="47.66766" lon="6.02127">
        <ele>268.9</ele>
        <time>2012-06-07T08:52:42.000Z</time>
      </trkpt>
      <trkpt lat="47.66769" lon="6.02138">
        <ele>269.1</ele>
        <time>2012-06-07T08:52:44.000Z</time>
      </trkpt>
      <trkpt lat="47.66772" lon="6.0215">
        <ele>269</ele>
        <time>2012-06-07T08:52:46.000Z</time>
      </trkpt>
      <trkpt lat="47.66774" lon="6.02161">
        <ele>268.8</ele>
        <time>2012-06-07T08:52:48.000Z</time>
      </trkpt>
      <trkpt lat="47.66776" lon="6.02172">
        <ele>268.8</ele>
        <time>2012-06-07T08:52:50.000Z</time>
      </trkpt>
      <trkpt lat="47.66795" lon="6.02226">
        <ele>256.7</ele>
        <time>2012-06-07T08:52:58.000Z</time>
      </trkpt>
      <trkpt lat="47.66796" lon="6.02233">
        <ele>256.8</ele>
        <time>2012-06-07T08:52:59.000Z</time>
      </trkpt>
      <trkpt lat="47.66798" lon="6.02243">
        <ele>261.8</ele>
        <time>2012-06-07T08:53:01.000Z</time>
      </trkpt>
      <trkpt lat="47.66801" lon="6.02252">
        <ele>263.2</ele>
        <time>2012-06-07T08:53:03.000Z</time>
      </trkpt>
      <trkpt lat="47.66803" lon="6.02262">
        <ele>266.1</ele>
        <time>2012-06-07T08:53:05.000Z</time>
      </trkpt>
      <trkpt lat="47.66806" lon="6.02272">
        <ele>267.2</ele>
        <time>2012-06-07T08:53:07.000Z</time>
      </trkpt>
      <trkpt lat="47.66808" lon="6.02281">
        <ele>269</ele>
        <time>2012-06-07T08:53:09.000Z</time>
      </trkpt>
      <trkpt lat="47.66811" lon="6.0229">
        <ele>270</ele>
        <time>2012-06-07T08:53:11.000Z</time>
      </trkpt>
      <trkpt lat="47.66813" lon="6.02298">
        <ele>272.3</ele>
        <time>2012-06-07T08:53:13.000Z</time>
      </trkpt>
      <trkpt lat="47.66816" lon="6.02308">
        <ele>272.5</ele>
        <time>2012-06-07T08:53:15.000Z</time>
      </trkpt>
      <trkpt lat="47.66819" lon="6.02314">
        <ele>272.9</ele>
        <time>2012-06-07T08:53:16.000Z</time>
      </trkpt>
      <trkpt lat="47.66822" lon="6.02324">
        <ele>274.7</ele>
        <time>2012-06-07T08:53:18.000Z</time>
      </trkpt>
      <trkpt lat="47.66826" lon="6.02333">
        <ele>275.8</ele>
        <time>2012-06-07T08:53:20.000Z</time>
      </trkpt>
      <trkpt lat="47.66828" lon="6.02341">
        <ele>278.6</ele>
        <time>2012-06-07T08:53:22.000Z</time>
      </trkpt>
      <trkpt lat="47.66832" lon="6.0235">
        <ele>278.6</ele>
        <time>2012-06-07T08:53:24.000Z</time>
      </trkpt>
      <trkpt lat="47.66836" lon="6.02355">
        <ele>276.9</ele>
        <time>2012-06-07T08:53:25.000Z</time>
      </trkpt>
      <trkpt lat="47.66839" lon="6.0236">
        <ele>276.3</ele>
        <time>2012-06-07T08:53:26.000Z</time>
      </trkpt>
      <trkpt lat="47.66843" lon="6.02371">
        <ele>276.1</ele>
        <time>2012-06-07T08:53:28.000Z</time>
      </trkpt>
      <trkpt lat="47.66848" lon="6.02381">
        <ele>275.4</ele>
        <time>2012-06-07T08:53:30.000Z</time>
      </trkpt>
      <trkpt lat="47.66853" lon="6.0239">
        <ele>274.9</ele>
        <time>2012-06-07T08:53:32.000Z</time>
      </trkpt>
      <trkpt lat="47.66856" lon="6.02396">
        <ele>274.7</ele>
        <time>2012-06-07T08:53:33.000Z</time>
      </trkpt>
      <trkpt lat="47.66861" lon="6.02408">
        <ele>274</ele>
        <time>2012-06-07T08:53:35.000Z</time>
      </trkpt>
      <trkpt lat="47.66864" lon="6.02413">
        <ele>274.1</ele>
        <time>2012-06-07T08:53:36.000Z</time>
      </trkpt>
      <trkpt lat="47.66867" lon="6.02419">
        <ele>273.9</ele>
        <time>2012-06-07T08:53:37.000Z</time>
      </trkpt>
      <trkpt lat="47.6687" lon="6.02424">
        <ele>273.6</ele>
        <time>2012-06-07T08:53:38.000Z</time>
      </trkpt>
      <trkpt lat="47.66873" lon="6.02429">
        <ele>273.4</ele>
        <time>2012-06-07T08:53:39.000Z</time>
      </trkpt>
      <trkpt lat="47.66876" lon="6.02435">
        <ele>273.2</ele>
        <time>2012-06-07T08:53:40.000Z</time>
      </trkpt>
      <trkpt lat="47.66882" lon="6.02444">
        <ele>272.4</ele>
        <time>2012-06-07T08:53:42.000Z</time>
      </trkpt>
      <trkpt lat="47.66887" lon="6.02453">
        <ele>272</ele>
        <time>2012-06-07T08:53:44.000Z</time>
      </trkpt>
      <trkpt lat="47.66891" lon="6.02459">
        <ele>271.8</ele>
        <time>2012-06-07T08:53:45.000Z</time>
      </trkpt>
      <trkpt lat="47.66894" lon="6.02464">
        <ele>271.6</ele>
        <time>2012-06-07T08:53:46.000Z</time>
      </trkpt>
      <trkpt lat="47.66897" lon="6.0247">
        <ele>271.4</ele>
        <time>2012-06-07T08:53:47.000Z</time>
      </trkpt>
      <trkpt lat="47.66903" lon="6.02481">
        <ele>271.2</ele>
        <time>2012-06-07T08:53:49.000Z</time>
      </trkpt>
      <trkpt lat="47.66908" lon="6.0249">
        <ele>271.1</ele>
        <time>2012-06-07T08:53:51.000Z</time>
      </trkpt>
      <trkpt lat="47.66913" lon="6.02499">
        <ele>271.4</ele>
        <time>2012-06-07T08:53:53.000Z</time>
      </trkpt>
      <trkpt lat="47.66918" lon="6.02507">
        <ele>271.3</ele>
        <time>2012-06-07T08:53:55.000Z</time>
      </trkpt>
      <trkpt lat="47.66924" lon="6.02516">
        <ele>271.3</ele>
        <time>2012-06-07T08:53:57.000Z</time>
      </trkpt>
      <trkpt lat="47.66929" lon="6.02525">
        <ele>271.5</ele>
        <time>2012-06-07T08:53:59.000Z</time>
      </trkpt>
      <trkpt lat="47.66935" lon="6.02535">
        <ele>271.8</ele>
        <time>2012-06-07T08:54:01.000Z</time>
      </trkpt>
      <trkpt lat="47.6694" lon="6.02544">
        <ele>271.9</ele>
        <time>2012-06-07T08:54:03.000Z</time>
      </trkpt>
      <trkpt lat="47.66946" lon="6.02554">
        <ele>271.7</ele>
        <time>2012-06-07T08:54:05.000Z</time>
      </trkpt>
      <trkpt lat="47.66952" lon="6.02564">
        <ele>271.6</ele>
        <time>2012-06-07T08:54:07.000Z</time>
      </trkpt>
      <trkpt lat="47.66957" lon="6.02573">
        <ele>271.5</ele>
        <time>2012-06-07T08:54:09.000Z</time>
      </trkpt>
      <trkpt lat="47.66962" lon="6.02582">
        <ele>271.7</ele>
        <time>2012-06-07T08:54:11.000Z</time>
      </trkpt>
      <trkpt lat="47.66967" lon="6.02591">
        <ele>271.9</ele>
        <time>2012-06-07T08:54:13.000Z</time>
      </trkpt>
      <trkpt lat="47.66972" lon="6.02601">
        <ele>272</ele>
        <time>2012-06-07T08:54:15.000Z</time>
      </trkpt>
      <trkpt lat="47.66978" lon="6.0261">
        <ele>271.8</ele>
        <time>2012-06-07T08:54:17.000Z</time>
      </trkpt>
      <trkpt lat="47.66981" lon="6.02616">
        <ele>271.8</ele>
        <time>2012-06-07T08:54:18.000Z</time>
      </trkpt>
      <trkpt lat="47.66984" lon="6.0262">
        <ele>271.7</ele>
        <time>2012-06-07T08:54:19.000Z</time>
      </trkpt>
      <trkpt lat="47.66987" lon="6.02626">
        <ele>271.7</ele>
        <time>2012-06-07T08:54:20.000Z</time>
      </trkpt>
      <trkpt lat="47.66993" lon="6.02635">
        <ele>271.8</ele>
        <time>2012-06-07T08:54:22.000Z</time>
      </trkpt>
      <trkpt lat="47.66996" lon="6.0264">
        <ele>271.8</ele>
        <time>2012-06-07T08:54:23.000Z</time>
      </trkpt>
      <trkpt lat="47.67002" lon="6.0265">
        <ele>272.1</ele>
        <time>2012-06-07T08:54:25.000Z</time>
      </trkpt>
      <trkpt lat="47.67007" lon="6.02659">
        <ele>272.2</ele>
        <time>2012-06-07T08:54:27.000Z</time>
      </trkpt>
      <trkpt lat="47.6701" lon="6.02664">
        <ele>272.1</ele>
        <time>2012-06-07T08:54:28.000Z</time>
      </trkpt>
      <trkpt lat="47.67017" lon="6.02672">
        <ele>272.1</ele>
        <time>2012-06-07T08:54:30.000Z</time>
      </trkpt>
      <trkpt lat="47.67021" lon="6.02677">
        <ele>272</ele>
        <time>2012-06-07T08:54:31.000Z</time>
      </trkpt>
      <trkpt lat="47.67024" lon="6.02681">
        <ele>271.9</ele>
        <time>2012-06-07T08:54:32.000Z</time>
      </trkpt>
      <trkpt lat="47.6703" lon="6.02688">
        <ele>271.6</ele>
        <time>2012-06-07T08:54:34.000Z</time>
      </trkpt>
      <trkpt lat="47.67035" lon="6.02694">
        <ele>271.4</ele>
        <time>2012-06-07T08:54:36.000Z</time>
      </trkpt>
      <trkpt lat="47.6704" lon="6.02701">
        <ele>271</ele>
        <time>2012-06-07T08:54:38.000Z</time>
      </trkpt>
      <trkpt lat="47.67046" lon="6.02708">
        <ele>270.7</ele>
        <time>2012-06-07T08:54:40.000Z</time>
      </trkpt>
      <trkpt lat="47.67053" lon="6.02713">
        <ele>270.1</ele>
        <time>2012-06-07T08:54:42.000Z</time>
      </trkpt>
      <trkpt lat="47.6706" lon="6.02721">
        <ele>269.9</ele>
        <time>2012-06-07T08:54:44.000Z</time>
      </trkpt>
      <trkpt lat="47.67065" lon="6.02728">
        <ele>269.7</ele>
        <time>2012-06-07T08:54:46.000Z</time>
      </trkpt>
      <trkpt lat="47.6707" lon="6.02734">
        <ele>269.9</ele>
        <time>2012-06-07T08:54:48.000Z</time>
      </trkpt>
      <trkpt lat="47.67077" lon="6.0274">
        <ele>269.7</ele>
        <time>2012-06-07T08:54:50.000Z</time>
      </trkpt>
      <trkpt lat="47.6712" lon="6.02794">
        <ele>265.9</ele>
        <time>2012-06-07T08:54:58.000Z</time>
      </trkpt>
      <trkpt lat="47.67124" lon="6.028">
        <ele>266.6</ele>
        <time>2012-06-07T08:54:59.000Z</time>
      </trkpt>
      <trkpt lat="47.67128" lon="6.02807">
        <ele>267.8</ele>
        <time>2012-06-07T08:55:02.000Z</time>
      </trkpt>
      <trkpt lat="47.67133" lon="6.02814">
        <ele>267.3</ele>
        <time>2012-06-07T08:55:04.000Z</time>
      </trkpt>
      <trkpt lat="47.67138" lon="6.02822">
        <ele>266.8</ele>
        <time>2012-06-07T08:55:06.000Z</time>
      </trkpt>
      <trkpt lat="47.67144" lon="6.02832">
        <ele>266.4</ele>
        <time>2012-06-07T08:55:08.000Z</time>
      </trkpt>
      <trkpt lat="47.67147" lon="6.02838">
        <ele>266.2</ele>
        <time>2012-06-07T08:55:09.000Z</time>
      </trkpt>
      <trkpt lat="47.6715" lon="6.02844">
        <ele>267.1</ele>
        <time>2012-06-07T08:55:10.000Z</time>
      </trkpt>
      <trkpt lat="47.67152" lon="6.02849">
        <ele>267.4</ele>
        <time>2012-06-07T08:55:11.000Z</time>
      </trkpt>
      <trkpt lat="47.67155" lon="6.02855">
        <ele>267.6</ele>
        <time>2012-06-07T08:55:12.000Z</time>
      </trkpt>
      <trkpt lat="47.67157" lon="6.0286">
        <ele>268.1</ele>
        <time>2012-06-07T08:55:13.000Z</time>
      </trkpt>
      <trkpt lat="47.67161" lon="6.02871">
        <ele>269.6</ele>
        <time>2012-06-07T08:55:15.000Z</time>
      </trkpt>
      <trkpt lat="47.67164" lon="6.02881">
        <ele>270.8</ele>
        <time>2012-06-07T08:55:17.000Z</time>
      </trkpt>
      <trkpt lat="47.67168" lon="6.02892">
        <ele>271.6</ele>
        <time>2012-06-07T08:55:19.000Z</time>
      </trkpt>
      <trkpt lat="47.6717" lon="6.02899">
        <ele>271.6</ele>
        <time>2012-06-07T08:55:20.000Z</time>
      </trkpt>
      <trkpt lat="47.67172" lon="6.02905">
        <ele>272.5</ele>
        <time>2012-06-07T08:55:21.000Z</time>
      </trkpt>
      <trkpt lat="47.67177" lon="6.02916">
        <ele>271.3</ele>
        <time>2012-06-07T08:55:23.000Z</time>
      </trkpt>
      <trkpt lat="47.67181" lon="6.02925">
        <ele>271.8</ele>
        <time>2012-06-07T08:55:25.000Z</time>
      </trkpt>
      <trkpt lat="47.67183" lon="6.02933">
        <ele>272.6</ele>
        <time>2012-06-07T08:55:27.000Z</time>
      </trkpt>
      <trkpt lat="47.67185" lon="6.02944">
        <ele>272.5</ele>
        <time>2012-06-07T08:55:29.000Z</time>
      </trkpt>
      <trkpt lat="47.67187" lon="6.02951">
        <ele>272.2</ele>
        <time>2012-06-07T08:55:30.000Z</time>
      </trkpt>
      <trkpt lat="47.67189" lon="6.02957">
        <ele>271.8</ele>
        <time>2012-06-07T08:55:31.000Z</time>
      </trkpt>
      <trkpt lat="47.6719" lon="6.02964">
        <ele>271.7</ele>
        <time>2012-06-07T08:55:32.000Z</time>
      </trkpt>
      <trkpt lat="47.67192" lon="6.0297">
        <ele>272</ele>
        <time>2012-06-07T08:55:33.000Z</time>
      </trkpt>
      <trkpt lat="47.67194" lon="6.02982">
        <ele>272.2</ele>
        <time>2012-06-07T08:55:35.000Z</time>
      </trkpt>
      <trkpt lat="47.67196" lon="6.02992">
        <ele>272.4</ele>
        <time>2012-06-07T08:55:37.000Z</time>
      </trkpt>
      <trkpt lat="47.67195" lon="6.03003">
        <ele>272.4</ele>
        <time>2012-06-07T08:55:39.000Z</time>
      </trkpt>
      <trkpt lat="47.67195" lon="6.03014">
        <ele>272.2</ele>
        <time>2012-06-07T08:55:41.000Z</time>
      </trkpt>
      <trkpt lat="47.67194" lon="6.03026">
        <ele>271.8</ele>
        <time>2012-06-07T08:55:43.000Z</time>
      </trkpt>
      <trkpt lat="47.67194" lon="6.03038">
        <ele>271.8</ele>
        <time>2012-06-07T08:55:45.000Z</time>
      </trkpt>
      <trkpt lat="47.67194" lon="6.03049">
        <ele>272</ele>
        <time>2012-06-07T08:55:47.000Z</time>
      </trkpt>
      <trkpt lat="47.67194" lon="6.0306">
        <ele>271.4</ele>
        <time>2012-06-07T08:55:49.000Z</time>
      </trkpt>
      <trkpt lat="47.67196" lon="6.03074">
        <ele>270.9</ele>
        <time>2012-06-07T08:55:51.000Z</time>
      </trkpt>
      <trkpt lat="47.67196" lon="6.03086">
        <ele>270.4</ele>
        <time>2012-06-07T08:55:53.000Z</time>
      </trkpt>
      <trkpt lat="47.67196" lon="6.03097">
        <ele>270.2</ele>
        <time>2012-06-07T08:55:55.000Z</time>
      </trkpt>
      <trkpt lat="47.67197" lon="6.0311">
        <ele>270</ele>
        <time>2012-06-07T08:55:57.000Z</time>
      </trkpt>
      <trkpt lat="47.67197" lon="6.03117">
        <ele>270</ele>
        <time>2012-06-07T08:55:58.000Z</time>
      </trkpt>
      <trkpt lat="47.67198" lon="6.0313">
        <ele>270</ele>
        <time>2012-06-07T08:56:00.000Z</time>
      </trkpt>
      <trkpt lat="47.67199" lon="6.03137">
        <ele>270.3</ele>
        <time>2012-06-07T08:56:01.000Z</time>
      </trkpt>
      <trkpt lat="47.672" lon="6.03149">
        <ele>270.6</ele>
        <time>2012-06-07T08:56:03.000Z</time>
      </trkpt>
      <trkpt lat="47.67202" lon="6.03163">
        <ele>270.6</ele>
        <time>2012-06-07T08:56:05.000Z</time>
      </trkpt>
      <trkpt lat="47.67203" lon="6.0317">
        <ele>270.7</ele>
        <time>2012-06-07T08:56:06.000Z</time>
      </trkpt>
      <trkpt lat="47.67204" lon="6.03177">
        <ele>270.7</ele>
        <time>2012-06-07T08:56:07.000Z</time>
      </trkpt>
      <trkpt lat="47.67205" lon="6.03184">
        <ele>270.8</ele>
        <time>2012-06-07T08:56:08.000Z</time>
      </trkpt>
      <trkpt lat="47.67206" lon="6.03192">
        <ele>270.9</ele>
        <time>2012-06-07T08:56:09.000Z</time>
      </trkpt>
      <trkpt lat="47.67208" lon="6.03198">
        <ele>270.8</ele>
        <time>2012-06-07T08:56:10.000Z</time>
      </trkpt>
      <trkpt lat="47.6721" lon="6.0321">
        <ele>270.9</ele>
        <time>2012-06-07T08:56:12.000Z</time>
      </trkpt>
      <trkpt lat="47.67212" lon="6.03223">
        <ele>271</ele>
        <time>2012-06-07T08:56:14.000Z</time>
      </trkpt>
      <trkpt lat="47.67214" lon="6.03235">
        <ele>271.2</ele>
        <time>2012-06-07T08:56:16.000Z</time>
      </trkpt>
      <trkpt lat="47.67217" lon="6.03248">
        <ele>271.2</ele>
        <time>2012-06-07T08:56:18.000Z</time>
      </trkpt>
      <trkpt lat="47.67224" lon="6.0326">
        <ele>271.9</ele>
        <time>2012-06-07T08:56:19.000Z</time>
      </trkpt>
      <trkpt lat="47.67229" lon="6.0327">
        <ele>272.5</ele>
        <time>2012-06-07T08:56:20.000Z</time>
      </trkpt>
      <trkpt lat="47.67232" lon="6.03278">
        <ele>272.4</ele>
        <time>2012-06-07T08:56:21.000Z</time>
      </trkpt>
      <trkpt lat="47.67235" lon="6.03286">
        <ele>272.4</ele>
        <time>2012-06-07T08:56:22.000Z</time>
      </trkpt>
      <trkpt lat="47.67238" lon="6.03294">
        <ele>272.4</ele>
        <time>2012-06-07T08:56:23.000Z</time>
      </trkpt>
      <trkpt lat="47.6724" lon="6.033">
        <ele>272.4</ele>
        <time>2012-06-07T08:56:24.000Z</time>
      </trkpt>
      <trkpt lat="47.67242" lon="6.03307">
        <ele>272.5</ele>
        <time>2012-06-07T08:56:25.000Z</time>
      </trkpt>
      <trkpt lat="47.67246" lon="6.03318">
        <ele>272.6</ele>
        <time>2012-06-07T08:56:27.000Z</time>
      </trkpt>
      <trkpt lat="47.67249" lon="6.03326">
        <ele>272.6</ele>
        <time>2012-06-07T08:56:28.000Z</time>
      </trkpt>
      <trkpt lat="47.67252" lon="6.03333">
        <ele>272.5</ele>
        <time>2012-06-07T08:56:29.000Z</time>
      </trkpt>
      <trkpt lat="47.67254" lon="6.0334">
        <ele>272.3</ele>
        <time>2012-06-07T08:56:30.000Z</time>
      </trkpt>
      <trkpt lat="47.67255" lon="6.03347">
        <ele>272.2</ele>
        <time>2012-06-07T08:56:31.000Z</time>
      </trkpt>
      <trkpt lat="47.67258" lon="6.03358">
        <ele>272.1</ele>
        <time>2012-06-07T08:56:33.000Z</time>
      </trkpt>
      <trkpt lat="47.6726" lon="6.03369">
        <ele>271.9</ele>
        <time>2012-06-07T08:56:35.000Z</time>
      </trkpt>
      <trkpt lat="47.67262" lon="6.03375">
        <ele>271.8</ele>
        <time>2012-06-07T08:56:36.000Z</time>
      </trkpt>
      <trkpt lat="47.67264" lon="6.03387">
        <ele>271.4</ele>
        <time>2012-06-07T08:56:38.000Z</time>
      </trkpt>
      <trkpt lat="47.67266" lon="6.03393">
        <ele>271.4</ele>
        <time>2012-06-07T08:56:39.000Z</time>
      </trkpt>
      <trkpt lat="47.67269" lon="6.03405">
        <ele>271.3</ele>
        <time>2012-06-07T08:56:41.000Z</time>
      </trkpt>
      <trkpt lat="47.67272" lon="6.03416">
        <ele>271.6</ele>
        <time>2012-06-07T08:56:43.000Z</time>
      </trkpt>
      <trkpt lat="47.67274" lon="6.03427">
        <ele>271.7</ele>
        <time>2012-06-07T08:56:45.000Z</time>
      </trkpt>
      <trkpt lat="47.67276" lon="6.03438">
        <ele>271.9</ele>
        <time>2012-06-07T08:56:47.000Z</time>
      </trkpt>
      <trkpt lat="47.67277" lon="6.03448">
        <ele>272.1</ele>
        <time>2012-06-07T08:56:49.000Z</time>
      </trkpt>
      <trkpt lat="47.67279" lon="6.0346">
        <ele>272.4</ele>
        <time>2012-06-07T08:56:51.000Z</time>
      </trkpt>
      <trkpt lat="47.67282" lon="6.03471">
        <ele>272.6</ele>
        <time>2012-06-07T08:56:53.000Z</time>
      </trkpt>
      <trkpt lat="47.67284" lon="6.03481">
        <ele>272.9</ele>
        <time>2012-06-07T08:56:55.000Z</time>
      </trkpt>
      <trkpt lat="47.67286" lon="6.03492">
        <ele>273.3</ele>
        <time>2012-06-07T08:56:57.000Z</time>
      </trkpt>
      <trkpt lat="47.67289" lon="6.03502">
        <ele>273.3</ele>
        <time>2012-06-07T08:56:59.000Z</time>
      </trkpt>
      <trkpt lat="47.67291" lon="6.03512">
        <ele>273.4</ele>
        <time>2012-06-07T08:57:01.000Z</time>
      </trkpt>
      <trkpt lat="47.67293" lon="6.03522">
        <ele>273.4</ele>
        <time>2012-06-07T08:57:03.000Z</time>
      </trkpt>
      <trkpt lat="47.67295" lon="6.03532">
        <ele>273.8</ele>
        <time>2012-06-07T08:57:05.000Z</time>
      </trkpt>
      <trkpt lat="47.67297" lon="6.03541">
        <ele>273.9</ele>
        <time>2012-06-07T08:57:07.000Z</time>
      </trkpt>
      <trkpt lat="47.67298" lon="6.0355">
        <ele>273.6</ele>
        <time>2012-06-07T08:57:09.000Z</time>
      </trkpt>
      <trkpt lat="47.67299" lon="6.03561">
        <ele>273.6</ele>
        <time>2012-06-07T08:57:11.000Z</time>
      </trkpt>
      <trkpt lat="47.67301" lon="6.0357">
        <ele>273.5</ele>
        <time>2012-06-07T08:57:13.000Z</time>
      </trkpt>
      <trkpt lat="47.67304" lon="6.03582">
        <ele>273.1</ele>
        <time>2012-06-07T08:57:15.000Z</time>
      </trkpt>
      <trkpt lat="47.67305" lon="6.03588">
        <ele>273</ele>
        <time>2012-06-07T08:57:16.000Z</time>
      </trkpt>
      <trkpt lat="47.67306" lon="6.03595">
        <ele>272.8</ele>
        <time>2012-06-07T08:57:17.000Z</time>
      </trkpt>
      <trkpt lat="47.67308" lon="6.03601">
        <ele>272.6</ele>
        <time>2012-06-07T08:57:18.000Z</time>
      </trkpt>
      <trkpt lat="47.6731" lon="6.03607">
        <ele>272.4</ele>
        <time>2012-06-07T08:57:19.000Z</time>
      </trkpt>
      <trkpt lat="47.67312" lon="6.0362">
        <ele>271.8</ele>
        <time>2012-06-07T08:57:21.000Z</time>
      </trkpt>
      <trkpt lat="47.67314" lon="6.03626">
        <ele>272.4</ele>
        <time>2012-06-07T08:57:22.000Z</time>
      </trkpt>
      <trkpt lat="47.67317" lon="6.03637">
        <ele>272.3</ele>
        <time>2012-06-07T08:57:24.000Z</time>
      </trkpt>
      <trkpt lat="47.67319" lon="6.03643">
        <ele>272.2</ele>
        <time>2012-06-07T08:57:25.000Z</time>
      </trkpt>
      <trkpt lat="47.67322" lon="6.0365">
        <ele>272.2</ele>
        <time>2012-06-07T08:57:26.000Z</time>
      </trkpt>
      <trkpt lat="47.67324" lon="6.03656">
        <ele>272.1</ele>
        <time>2012-06-07T08:57:27.000Z</time>
      </trkpt>
      <trkpt lat="47.67329" lon="6.03668">
        <ele>272.1</ele>
        <time>2012-06-07T08:57:29.000Z</time>
      </trkpt>
      <trkpt lat="47.67332" lon="6.03675">
        <ele>272.2</ele>
        <time>2012-06-07T08:57:30.000Z</time>
      </trkpt>
      <trkpt lat="47.67336" lon="6.03686">
        <ele>272</ele>
        <time>2012-06-07T08:57:32.000Z</time>
      </trkpt>
      <trkpt lat="47.67341" lon="6.03696">
        <ele>272.1</ele>
        <time>2012-06-07T08:57:34.000Z</time>
      </trkpt>
      <trkpt lat="47.67343" lon="6.03702">
        <ele>272.2</ele>
        <time>2012-06-07T08:57:35.000Z</time>
      </trkpt>
      <trkpt lat="47.67346" lon="6.03707">
        <ele>272.3</ele>
        <time>2012-06-07T08:57:36.000Z</time>
      </trkpt>
      <trkpt lat="47.67351" lon="6.03716">
        <ele>272.4</ele>
        <time>2012-06-07T08:57:38.000Z</time>
      </trkpt>
      <trkpt lat="47.67357" lon="6.03725">
        <ele>272.3</ele>
        <time>2012-06-07T08:57:40.000Z</time>
      </trkpt>
      <trkpt lat="47.67361" lon="6.03731">
        <ele>272.3</ele>
        <time>2012-06-07T08:57:41.000Z</time>
      </trkpt>
      <trkpt lat="47.67365" lon="6.03736">
        <ele>272.2</ele>
        <time>2012-06-07T08:57:42.000Z</time>
      </trkpt>
      <trkpt lat="47.67368" lon="6.03742">
        <ele>272.1</ele>
        <time>2012-06-07T08:57:43.000Z</time>
      </trkpt>
      <trkpt lat="47.67372" lon="6.03747">
        <ele>272.1</ele>
        <time>2012-06-07T08:57:44.000Z</time>
      </trkpt>
      <trkpt lat="47.67375" lon="6.03752">
        <ele>272.1</ele>
        <time>2012-06-07T08:57:45.000Z</time>
      </trkpt>
      <trkpt lat="47.6738" lon="6.0376">
        <ele>271.7</ele>
        <time>2012-06-07T08:57:47.000Z</time>
      </trkpt>
      <trkpt lat="47.67382" lon="6.03766">
        <ele>272</ele>
        <time>2012-06-07T08:57:49.000Z</time>
      </trkpt>
      <trkpt lat="47.67408" lon="6.03811">
        <ele>274.5</ele>
        <time>2012-06-07T08:57:59.000Z</time>
      </trkpt>
      <trkpt lat="47.67412" lon="6.03816">
        <ele>274.1</ele>
        <time>2012-06-07T08:58:00.000Z</time>
      </trkpt>
      <trkpt lat="47.67416" lon="6.0382">
        <ele>272.6</ele>
        <time>2012-06-07T08:58:01.000Z</time>
      </trkpt>
      <trkpt lat="47.6742" lon="6.03826">
        <ele>271.3</ele>
        <time>2012-06-07T08:58:02.000Z</time>
      </trkpt>
      <trkpt lat="47.67425" lon="6.03834">
        <ele>271.2</ele>
        <time>2012-06-07T08:58:03.000Z</time>
      </trkpt>
      <trkpt lat="47.6743" lon="6.03842">
        <ele>269.9</ele>
        <time>2012-06-07T08:58:04.000Z</time>
      </trkpt>
      <trkpt lat="47.67435" lon="6.03851">
        <ele>269.3</ele>
        <time>2012-06-07T08:58:06.000Z</time>
      </trkpt>
      <trkpt lat="47.67438" lon="6.03857">
        <ele>269</ele>
        <time>2012-06-07T08:58:07.000Z</time>
      </trkpt>
      <trkpt lat="47.67441" lon="6.03862">
        <ele>268.6</ele>
        <time>2012-06-07T08:58:08.000Z</time>
      </trkpt>
      <trkpt lat="47.67448" lon="6.03874">
        <ele>269</ele>
        <time>2012-06-07T08:58:10.000Z</time>
      </trkpt>
      <trkpt lat="47.67452" lon="6.03881">
        <ele>269.9</ele>
        <time>2012-06-07T08:58:11.000Z</time>
      </trkpt>
      <trkpt lat="47.67455" lon="6.03886">
        <ele>269.6</ele>
        <time>2012-06-07T08:58:12.000Z</time>
      </trkpt>
      <trkpt lat="47.67459" lon="6.03892">
        <ele>269.6</ele>
        <time>2012-06-07T08:58:13.000Z</time>
      </trkpt>
      <trkpt lat="47.67462" lon="6.03897">
        <ele>269.1</ele>
        <time>2012-06-07T08:58:14.000Z</time>
      </trkpt>
      <trkpt lat="47.67465" lon="6.03903">
        <ele>268.9</ele>
        <time>2012-06-07T08:58:15.000Z</time>
      </trkpt>
      <trkpt lat="47.67469" lon="6.03908">
        <ele>268.6</ele>
        <time>2012-06-07T08:58:16.000Z</time>
      </trkpt>
      <trkpt lat="47.67472" lon="6.03913">
        <ele>268.4</ele>
        <time>2012-06-07T08:58:17.000Z</time>
      </trkpt>
      <trkpt lat="47.67475" lon="6.03918">
        <ele>267.9</ele>
        <time>2012-06-07T08:58:18.000Z</time>
      </trkpt>
      <trkpt lat="47.67479" lon="6.03924">
        <ele>267.2</ele>
        <time>2012-06-07T08:58:19.000Z</time>
      </trkpt>
      <trkpt lat="47.67482" lon="6.03929">
        <ele>266.7</ele>
        <time>2012-06-07T08:58:20.000Z</time>
      </trkpt>
      <trkpt lat="47.67485" lon="6.03934">
        <ele>266.4</ele>
        <time>2012-06-07T08:58:21.000Z</time>
      </trkpt>
      <trkpt lat="47.67488" lon="6.03939">
        <ele>266.2</ele>
        <time>2012-06-07T08:58:22.000Z</time>
      </trkpt>
      <trkpt lat="47.67491" lon="6.03944">
        <ele>265.9</ele>
        <time>2012-06-07T08:58:23.000Z</time>
      </trkpt>
      <trkpt lat="47.67494" lon="6.03949">
        <ele>265.7</ele>
        <time>2012-06-07T08:58:24.000Z</time>
      </trkpt>
      <trkpt lat="47.67497" lon="6.03954">
        <ele>265</ele>
        <time>2012-06-07T08:58:25.000Z</time>
      </trkpt>
      <trkpt lat="47.67503" lon="6.03963">
        <ele>264.4</ele>
        <time>2012-06-07T08:58:27.000Z</time>
      </trkpt>
      <trkpt lat="47.67509" lon="6.03971">
        <ele>263.1</ele>
        <time>2012-06-07T08:58:29.000Z</time>
      </trkpt>
      <trkpt lat="47.67515" lon="6.03978">
        <ele>262.7</ele>
        <time>2012-06-07T08:58:31.000Z</time>
      </trkpt>
      <trkpt lat="47.67522" lon="6.03984">
        <ele>262.2</ele>
        <time>2012-06-07T08:58:33.000Z</time>
      </trkpt>
      <trkpt lat="47.67529" lon="6.03989">
        <ele>261.7</ele>
        <time>2012-06-07T08:58:35.000Z</time>
      </trkpt>
      <trkpt lat="47.67537" lon="6.03992">
        <ele>261.3</ele>
        <time>2012-06-07T08:58:37.000Z</time>
      </trkpt>
      <trkpt lat="47.67544" lon="6.03991">
        <ele>261</ele>
        <time>2012-06-07T08:58:39.000Z</time>
      </trkpt>
      <trkpt lat="47.67552" lon="6.0399">
        <ele>260.3</ele>
        <time>2012-06-07T08:58:41.000Z</time>
      </trkpt>
      <trkpt lat="47.67559" lon="6.03987">
        <ele>259.7</ele>
        <time>2012-06-07T08:58:43.000Z</time>
      </trkpt>
      <trkpt lat="47.67566" lon="6.03982">
        <ele>259.4</ele>
        <time>2012-06-07T08:58:45.000Z</time>
      </trkpt>
      <trkpt lat="47.67572" lon="6.03976">
        <ele>259.4</ele>
        <time>2012-06-07T08:58:47.000Z</time>
      </trkpt>
      <trkpt lat="47.67578" lon="6.03968">
        <ele>259.2</ele>
        <time>2012-06-07T08:58:49.000Z</time>
      </trkpt>
      <trkpt lat="47.67608" lon="6.03931">
        <ele>261.6</ele>
        <time>2012-06-07T08:58:58.000Z</time>
      </trkpt>
      <trkpt lat="47.67612" lon="6.03928">
        <ele>259</ele>
        <time>2012-06-07T08:58:59.000Z</time>
      </trkpt>
      <trkpt lat="47.67616" lon="6.03923">
        <ele>261.2</ele>
        <time>2012-06-07T08:59:00.000Z</time>
      </trkpt>
      <trkpt lat="47.67622" lon="6.03916">
        <ele>260.8</ele>
        <time>2012-06-07T08:59:02.000Z</time>
      </trkpt>
      <trkpt lat="47.67629" lon="6.03908">
        <ele>260.4</ele>
        <time>2012-06-07T08:59:04.000Z</time>
      </trkpt>
      <trkpt lat="47.67636" lon="6.03901">
        <ele>260.1</ele>
        <time>2012-06-07T08:59:06.000Z</time>
      </trkpt>
      <trkpt lat="47.67641" lon="6.03894">
        <ele>259.8</ele>
        <time>2012-06-07T08:59:08.000Z</time>
      </trkpt>
      <trkpt lat="47.67646" lon="6.03888">
        <ele>259.2</ele>
        <time>2012-06-07T08:59:10.000Z</time>
      </trkpt>
      <trkpt lat="47.67651" lon="6.03882">
        <ele>258</ele>
        <time>2012-06-07T08:59:12.000Z</time>
      </trkpt>
      <trkpt lat="47.67656" lon="6.03875">
        <ele>257.7</ele>
        <time>2012-06-07T08:59:14.000Z</time>
      </trkpt>
      <trkpt lat="47.67662" lon="6.03868">
        <ele>257.1</ele>
        <time>2012-06-07T08:59:16.000Z</time>
      </trkpt>
      <trkpt lat="47.67668" lon="6.03861">
        <ele>256.6</ele>
        <time>2012-06-07T08:59:18.000Z</time>
      </trkpt>
      <trkpt lat="47.67673" lon="6.03853">
        <ele>256.5</ele>
        <time>2012-06-07T08:59:20.000Z</time>
      </trkpt>
      <trkpt lat="47.6768" lon="6.03845">
        <ele>256.4</ele>
        <time>2012-06-07T08:59:22.000Z</time>
      </trkpt>
      <trkpt lat="47.67688" lon="6.03836">
        <ele>257</ele>
        <time>2012-06-07T08:59:24.000Z</time>
      </trkpt>
      <trkpt lat="47.67691" lon="6.03832">
        <ele>257.2</ele>
        <time>2012-06-07T08:59:25.000Z</time>
      </trkpt>
      <trkpt lat="47.67695" lon="6.03829">
        <ele>257.1</ele>
        <time>2012-06-07T08:59:26.000Z</time>
      </trkpt>
      <trkpt lat="47.67702" lon="6.03822">
        <ele>257.4</ele>
        <time>2012-06-07T08:59:28.000Z</time>
      </trkpt>
      <trkpt lat="47.6771" lon="6.03814">
        <ele>257.5</ele>
        <time>2012-06-07T08:59:30.000Z</time>
      </trkpt>
      <trkpt lat="47.67715" lon="6.0381">
        <ele>257.6</ele>
        <time>2012-06-07T08:59:31.000Z</time>
      </trkpt>
      <trkpt lat="47.67719" lon="6.03807">
        <ele>257.6</ele>
        <time>2012-06-07T08:59:32.000Z</time>
      </trkpt>
      <trkpt lat="47.67723" lon="6.03803">
        <ele>257.7</ele>
        <time>2012-06-07T08:59:33.000Z</time>
      </trkpt>
      <trkpt lat="47.67731" lon="6.03797">
        <ele>257.3</ele>
        <time>2012-06-07T08:59:35.000Z</time>
      </trkpt>
      <trkpt lat="47.67738" lon="6.03789">
        <ele>257.1</ele>
        <time>2012-06-07T08:59:37.000Z</time>
      </trkpt>
      <trkpt lat="47.67742" lon="6.03785">
        <ele>257.3</ele>
        <time>2012-06-07T08:59:38.000Z</time>
      </trkpt>
      <trkpt lat="47.67747" lon="6.03781">
        <ele>257.5</ele>
        <time>2012-06-07T08:59:39.000Z</time>
      </trkpt>
      <trkpt lat="47.67751" lon="6.03776">
        <ele>258.1</ele>
        <time>2012-06-07T08:59:40.000Z</time>
      </trkpt>
      <trkpt lat="47.67755" lon="6.03771">
        <ele>258.9</ele>
        <time>2012-06-07T08:59:41.000Z</time>
      </trkpt>
      <trkpt lat="47.67759" lon="6.03768">
        <ele>258.9</ele>
        <time>2012-06-07T08:59:42.000Z</time>
      </trkpt>
      <trkpt lat="47.67763" lon="6.03764">
        <ele>258.8</ele>
        <time>2012-06-07T08:59:43.000Z</time>
      </trkpt>
      <trkpt lat="47.67767" lon="6.0376">
        <ele>258.8</ele>
        <time>2012-06-07T08:59:44.000Z</time>
      </trkpt>
      <trkpt lat="47.67771" lon="6.03757">
        <ele>258.7</ele>
        <time>2012-06-07T08:59:45.000Z</time>
      </trkpt>
      <trkpt lat="47.67775" lon="6.03753">
        <ele>258.8</ele>
        <time>2012-06-07T08:59:46.000Z</time>
      </trkpt>
      <trkpt lat="47.67779" lon="6.0375">
        <ele>258.8</ele>
        <time>2012-06-07T08:59:47.000Z</time>
      </trkpt>
      <trkpt lat="47.67783" lon="6.03746">
        <ele>258.9</ele>
        <time>2012-06-07T08:59:48.000Z</time>
      </trkpt>
      <trkpt lat="47.67787" lon="6.03742">
        <ele>259</ele>
        <time>2012-06-07T08:59:49.000Z</time>
      </trkpt>
      <trkpt lat="47.67791" lon="6.03738">
        <ele>258.8</ele>
        <time>2012-06-07T08:59:50.000Z</time>
      </trkpt>
      <trkpt lat="47.67795" lon="6.03735">
        <ele>258.6</ele>
        <time>2012-06-07T08:59:51.000Z</time>
      </trkpt>
      <trkpt lat="47.67799" lon="6.03732">
        <ele>258.5</ele>
        <time>2012-06-07T08:59:52.000Z</time>
      </trkpt>
      <trkpt lat="47.67807" lon="6.03726">
        <ele>258.7</ele>
        <time>2012-06-07T08:59:54.000Z</time>
      </trkpt>
      <trkpt lat="47.67814" lon="6.0372">
        <ele>258.6</ele>
        <time>2012-06-07T08:59:56.000Z</time>
      </trkpt>
      <trkpt lat="47.67822" lon="6.03715">
        <ele>258.5</ele>
        <time>2012-06-07T08:59:58.000Z</time>
      </trkpt>
      <trkpt lat="47.6783" lon="6.03709">
        <ele>258.7</ele>
        <time>2012-06-07T09:00:00.000Z</time>
      </trkpt>
      <trkpt lat="47.67837" lon="6.03702">
        <ele>259</ele>
        <time>2012-06-07T09:00:02.000Z</time>
      </trkpt>
      <trkpt lat="47.67845" lon="6.03697">
        <ele>259.1</ele>
        <time>2012-06-07T09:00:04.000Z</time>
      </trkpt>
      <trkpt lat="47.67849" lon="6.03694">
        <ele>259.2</ele>
        <time>2012-06-07T09:00:05.000Z</time>
      </trkpt>
      <trkpt lat="47.67853" lon="6.03691">
        <ele>259.4</ele>
        <time>2012-06-07T09:00:06.000Z</time>
      </trkpt>
      <trkpt lat="47.67857" lon="6.03688">
        <ele>259.4</ele>
        <time>2012-06-07T09:00:07.000Z</time>
      </trkpt>
      <trkpt lat="47.67861" lon="6.03686">
        <ele>259.7</ele>
        <time>2012-06-07T09:00:08.000Z</time>
      </trkpt>
      <trkpt lat="47.67866" lon="6.03683">
        <ele>259.7</ele>
        <time>2012-06-07T09:00:09.000Z</time>
      </trkpt>
      <trkpt lat="47.6787" lon="6.0368">
        <ele>259.7</ele>
        <time>2012-06-07T09:00:10.000Z</time>
      </trkpt>
      <trkpt lat="47.67874" lon="6.03678">
        <ele>259.6</ele>
        <time>2012-06-07T09:00:11.000Z</time>
      </trkpt>
      <trkpt lat="47.67882" lon="6.03672">
        <ele>259.5</ele>
        <time>2012-06-07T09:00:13.000Z</time>
      </trkpt>
      <trkpt lat="47.67887" lon="6.0367">
        <ele>259.2</ele>
        <time>2012-06-07T09:00:14.000Z</time>
      </trkpt>
      <trkpt lat="47.67892" lon="6.03668">
        <ele>259.1</ele>
        <time>2012-06-07T09:00:15.000Z</time>
      </trkpt>
      <trkpt lat="47.67896" lon="6.03666">
        <ele>258.9</ele>
        <time>2012-06-07T09:00:16.000Z</time>
      </trkpt>
      <trkpt lat="47.67901" lon="6.03664">
        <ele>258.7</ele>
        <time>2012-06-07T09:00:17.000Z</time>
      </trkpt>
      <trkpt lat="47.67905" lon="6.03661">
        <ele>258.4</ele>
        <time>2012-06-07T09:00:18.000Z</time>
      </trkpt>
      <trkpt lat="47.67909" lon="6.03659">
        <ele>258.1</ele>
        <time>2012-06-07T09:00:19.000Z</time>
      </trkpt>
      <trkpt lat="47.67913" lon="6.03656">
        <ele>258</ele>
        <time>2012-06-07T09:00:20.000Z</time>
      </trkpt>
      <trkpt lat="47.67918" lon="6.03653">
        <ele>257.9</ele>
        <time>2012-06-07T09:00:21.000Z</time>
      </trkpt>
      <trkpt lat="47.67922" lon="6.0365">
        <ele>257.8</ele>
        <time>2012-06-07T09:00:22.000Z</time>
      </trkpt>
      <trkpt lat="47.67926" lon="6.03648">
        <ele>257.8</ele>
        <time>2012-06-07T09:00:23.000Z</time>
      </trkpt>
      <trkpt lat="47.6793" lon="6.03645">
        <ele>257.8</ele>
        <time>2012-06-07T09:00:24.000Z</time>
      </trkpt>
      <trkpt lat="47.67938" lon="6.0364">
        <ele>258</ele>
        <time>2012-06-07T09:00:26.000Z</time>
      </trkpt>
      <trkpt lat="47.67946" lon="6.03635">
        <ele>258.4</ele>
        <time>2012-06-07T09:00:28.000Z</time>
      </trkpt>
      <trkpt lat="47.67954" lon="6.0363">
        <ele>258.5</ele>
        <time>2012-06-07T09:00:30.000Z</time>
      </trkpt>
      <trkpt lat="47.67961" lon="6.03624">
        <ele>258.8</ele>
        <time>2012-06-07T09:00:32.000Z</time>
      </trkpt>
      <trkpt lat="47.67965" lon="6.03622">
        <ele>258.9</ele>
        <time>2012-06-07T09:00:33.000Z</time>
      </trkpt>
      <trkpt lat="47.6797" lon="6.03619">
        <ele>258.9</ele>
        <time>2012-06-07T09:00:34.000Z</time>
      </trkpt>
      <trkpt lat="47.67974" lon="6.03616">
        <ele>259</ele>
        <time>2012-06-07T09:00:35.000Z</time>
      </trkpt>
      <trkpt lat="47.67978" lon="6.03613">
        <ele>259</ele>
        <time>2012-06-07T09:00:36.000Z</time>
      </trkpt>
      <trkpt lat="47.67983" lon="6.0361">
        <ele>259.2</ele>
        <time>2012-06-07T09:00:37.000Z</time>
      </trkpt>
      <trkpt lat="47.67987" lon="6.03607">
        <ele>259.2</ele>
        <time>2012-06-07T09:00:38.000Z</time>
      </trkpt>
      <trkpt lat="47.67992" lon="6.03604">
        <ele>259.1</ele>
        <time>2012-06-07T09:00:39.000Z</time>
      </trkpt>
      <trkpt lat="47.68" lon="6.036">
        <ele>259.4</ele>
        <time>2012-06-07T09:00:41.000Z</time>
      </trkpt>
      <trkpt lat="47.68004" lon="6.03597">
        <ele>259.5</ele>
        <time>2012-06-07T09:00:42.000Z</time>
      </trkpt>
      <trkpt lat="47.68008" lon="6.03594">
        <ele>259.4</ele>
        <time>2012-06-07T09:00:43.000Z</time>
      </trkpt>
      <trkpt lat="47.68012" lon="6.0359">
        <ele>259.2</ele>
        <time>2012-06-07T09:00:44.000Z</time>
      </trkpt>
      <trkpt lat="47.68016" lon="6.03587">
        <ele>259.3</ele>
        <time>2012-06-07T09:00:45.000Z</time>
      </trkpt>
      <trkpt lat="47.6802" lon="6.03584">
        <ele>259.2</ele>
        <time>2012-06-07T09:00:46.000Z</time>
      </trkpt>
      <trkpt lat="47.68028" lon="6.03576">
        <ele>259.2</ele>
        <time>2012-06-07T09:00:48.000Z</time>
      </trkpt>
      <trkpt lat="47.68035" lon="6.0357">
        <ele>259.2</ele>
        <time>2012-06-07T09:00:50.000Z</time>
      </trkpt>
      <trkpt lat="47.6804" lon="6.03568">
        <ele>259.1</ele>
        <time>2012-06-07T09:00:51.000Z</time>
      </trkpt>
      <trkpt lat="47.68044" lon="6.03567">
        <ele>259.3</ele>
        <time>2012-06-07T09:00:52.000Z</time>
      </trkpt>
      <trkpt lat="47.6805" lon="6.03567">
        <ele>259.1</ele>
        <time>2012-06-07T09:00:53.000Z</time>
      </trkpt>
      <trkpt lat="47.68055" lon="6.03568">
        <ele>259</ele>
        <time>2012-06-07T09:00:54.000Z</time>
      </trkpt>
      <trkpt lat="47.6806" lon="6.03568">
        <ele>258.8</ele>
        <time>2012-06-07T09:00:55.000Z</time>
      </trkpt>
      <trkpt lat="47.68065" lon="6.03569">
        <ele>258.8</ele>
        <time>2012-06-07T09:00:56.000Z</time>
      </trkpt>
      <trkpt lat="47.6807" lon="6.03569">
        <ele>259</ele>
        <time>2012-06-07T09:00:57.000Z</time>
      </trkpt>
      <trkpt lat="47.68074" lon="6.0357">
        <ele>259.1</ele>
        <time>2012-06-07T09:00:58.000Z</time>
      </trkpt>
      <trkpt lat="47.68079" lon="6.0357">
        <ele>259.2</ele>
        <time>2012-06-07T09:00:59.000Z</time>
      </trkpt>
      <trkpt lat="47.68083" lon="6.03571">
        <ele>259.3</ele>
        <time>2012-06-07T09:01:00.000Z</time>
      </trkpt>
      <trkpt lat="47.68088" lon="6.03573">
        <ele>259.4</ele>
        <time>2012-06-07T09:01:01.000Z</time>
      </trkpt>
      <trkpt lat="47.68092" lon="6.03574">
        <ele>259.5</ele>
        <time>2012-06-07T09:01:02.000Z</time>
      </trkpt>
      <trkpt lat="47.68097" lon="6.03575">
        <ele>259.6</ele>
        <time>2012-06-07T09:01:03.000Z</time>
      </trkpt>
      <trkpt lat="47.68101" lon="6.03576">
        <ele>259.7</ele>
        <time>2012-06-07T09:01:04.000Z</time>
      </trkpt>
      <trkpt lat="47.68106" lon="6.03577">
        <ele>259.8</ele>
        <time>2012-06-07T09:01:05.000Z</time>
      </trkpt>
      <trkpt lat="47.68114" lon="6.03579">
        <ele>260</ele>
        <time>2012-06-07T09:01:07.000Z</time>
      </trkpt>
      <trkpt lat="47.68123" lon="6.0358">
        <ele>259.9</ele>
        <time>2012-06-07T09:01:09.000Z</time>
      </trkpt>
      <trkpt lat="47.68132" lon="6.0358">
        <ele>259.5</ele>
        <time>2012-06-07T09:01:11.000Z</time>
      </trkpt>
      <trkpt lat="47.6814" lon="6.0358">
        <ele>259.4</ele>
        <time>2012-06-07T09:01:13.000Z</time>
      </trkpt>
      <trkpt lat="47.68148" lon="6.03578">
        <ele>259.5</ele>
        <time>2012-06-07T09:01:15.000Z</time>
      </trkpt>
      <trkpt lat="47.68153" lon="6.03577">
        <ele>259.3</ele>
        <time>2012-06-07T09:01:16.000Z</time>
      </trkpt>
      <trkpt lat="47.68158" lon="6.03575">
        <ele>259.3</ele>
        <time>2012-06-07T09:01:17.000Z</time>
      </trkpt>
      <trkpt lat="47.68162" lon="6.03574">
        <ele>259.3</ele>
        <time>2012-06-07T09:01:18.000Z</time>
      </trkpt>
      <trkpt lat="47.68167" lon="6.03573">
        <ele>259.2</ele>
        <time>2012-06-07T09:01:19.000Z</time>
      </trkpt>
      <trkpt lat="47.68171" lon="6.03572">
        <ele>259.2</ele>
        <time>2012-06-07T09:01:20.000Z</time>
      </trkpt>
      <trkpt lat="47.6818" lon="6.0357">
        <ele>259.4</ele>
        <time>2012-06-07T09:01:22.000Z</time>
      </trkpt>
      <trkpt lat="47.68188" lon="6.03568">
        <ele>259.6</ele>
        <time>2012-06-07T09:01:24.000Z</time>
      </trkpt>
      <trkpt lat="47.68197" lon="6.03566">
        <ele>259.6</ele>
        <time>2012-06-07T09:01:26.000Z</time>
      </trkpt>
      <trkpt lat="47.68202" lon="6.03566">
        <ele>259.6</ele>
        <time>2012-06-07T09:01:27.000Z</time>
      </trkpt>
      <trkpt lat="47.68206" lon="6.03566">
        <ele>259.5</ele>
        <time>2012-06-07T09:01:28.000Z</time>
      </trkpt>
      <trkpt lat="47.68211" lon="6.03565">
        <ele>259.4</ele>
        <time>2012-06-07T09:01:29.000Z</time>
      </trkpt>
      <trkpt lat="47.68216" lon="6.03565">
        <ele>259.3</ele>
        <time>2012-06-07T09:01:30.000Z</time>
      </trkpt>
      <trkpt lat="47.68224" lon="6.03565">
        <ele>259.3</ele>
        <time>2012-06-07T09:01:32.000Z</time>
      </trkpt>
      <trkpt lat="47.68233" lon="6.03565">
        <ele>259.4</ele>
        <time>2012-06-07T09:01:34.000Z</time>
      </trkpt>
      <trkpt lat="47.68238" lon="6.03565">
        <ele>259.3</ele>
        <time>2012-06-07T09:01:35.000Z</time>
      </trkpt>
      <trkpt lat="47.68242" lon="6.03566">
        <ele>259.2</ele>
        <time>2012-06-07T09:01:36.000Z</time>
      </trkpt>
      <trkpt lat="47.68247" lon="6.03566">
        <ele>259.2</ele>
        <time>2012-06-07T09:01:37.000Z</time>
      </trkpt>
      <trkpt lat="47.68251" lon="6.03567">
        <ele>259.1</ele>
        <time>2012-06-07T09:01:38.000Z</time>
      </trkpt>
      <trkpt lat="47.68256" lon="6.03568">
        <ele>259</ele>
        <time>2012-06-07T09:01:39.000Z</time>
      </trkpt>
      <trkpt lat="47.68264" lon="6.03568">
        <ele>259.1</ele>
        <time>2012-06-07T09:01:41.000Z</time>
      </trkpt>
      <trkpt lat="47.68273" lon="6.0357">
        <ele>259.1</ele>
        <time>2012-06-07T09:01:43.000Z</time>
      </trkpt>
      <trkpt lat="47.68282" lon="6.03571">
        <ele>259.1</ele>
        <time>2012-06-07T09:01:45.000Z</time>
      </trkpt>
      <trkpt lat="47.68289" lon="6.03572">
        <ele>259.2</ele>
        <time>2012-06-07T09:01:47.000Z</time>
      </trkpt>
      <trkpt lat="47.68297" lon="6.03573">
        <ele>259.2</ele>
        <time>2012-06-07T09:01:49.000Z</time>
      </trkpt>
      <trkpt lat="47.68332" lon="6.03584">
        <ele>258.7</ele>
        <time>2012-06-07T09:01:57.000Z</time>
      </trkpt>
      <trkpt lat="47.68341" lon="6.03585">
        <ele>257</ele>
        <time>2012-06-07T09:01:59.000Z</time>
      </trkpt>
      <trkpt lat="47.68349" lon="6.03588">
        <ele>256.8</ele>
        <time>2012-06-07T09:02:01.000Z</time>
      </trkpt>
      <trkpt lat="47.68357" lon="6.0359">
        <ele>256.6</ele>
        <time>2012-06-07T09:02:03.000Z</time>
      </trkpt>
      <trkpt lat="47.68365" lon="6.03592">
        <ele>256.9</ele>
        <time>2012-06-07T09:02:05.000Z</time>
      </trkpt>
      <trkpt lat="47.68373" lon="6.03596">
        <ele>256.9</ele>
        <time>2012-06-07T09:02:07.000Z</time>
      </trkpt>
      <trkpt lat="47.68382" lon="6.03601">
        <ele>257</ele>
        <time>2012-06-07T09:02:09.000Z</time>
      </trkpt>
      <trkpt lat="47.6839" lon="6.03605">
        <ele>257.3</ele>
        <time>2012-06-07T09:02:11.000Z</time>
      </trkpt>
      <trkpt lat="47.68398" lon="6.0361">
        <ele>257.8</ele>
        <time>2012-06-07T09:02:13.000Z</time>
      </trkpt>
      <trkpt lat="47.68402" lon="6.03612">
        <ele>257.9</ele>
        <time>2012-06-07T09:02:14.000Z</time>
      </trkpt>
      <trkpt lat="47.68406" lon="6.03615">
        <ele>257.8</ele>
        <time>2012-06-07T09:02:15.000Z</time>
      </trkpt>
      <trkpt lat="47.68411" lon="6.03617">
        <ele>257.8</ele>
        <time>2012-06-07T09:02:16.000Z</time>
      </trkpt>
      <trkpt lat="47.68416" lon="6.03619">
        <ele>257.7</ele>
        <time>2012-06-07T09:02:17.000Z</time>
      </trkpt>
      <trkpt lat="47.68424" lon="6.03622">
        <ele>258.5</ele>
        <time>2012-06-07T09:02:19.000Z</time>
      </trkpt>
      <trkpt lat="47.68433" lon="6.03624">
        <ele>258.6</ele>
        <time>2012-06-07T09:02:21.000Z</time>
      </trkpt>
      <trkpt lat="47.68437" lon="6.03624">
        <ele>258.7</ele>
        <time>2012-06-07T09:02:22.000Z</time>
      </trkpt>
      <trkpt lat="47.68442" lon="6.03624">
        <ele>258.2</ele>
        <time>2012-06-07T09:02:23.000Z</time>
      </trkpt>
      <trkpt lat="47.68447" lon="6.03623">
        <ele>258.1</ele>
        <time>2012-06-07T09:02:24.000Z</time>
      </trkpt>
      <trkpt lat="47.68455" lon="6.03619">
        <ele>258.1</ele>
        <time>2012-06-07T09:02:26.000Z</time>
      </trkpt>
      <trkpt lat="47.68462" lon="6.03616">
        <ele>258.3</ele>
        <time>2012-06-07T09:02:28.000Z</time>
      </trkpt>
      <trkpt lat="47.6847" lon="6.03614">
        <ele>258.4</ele>
        <time>2012-06-07T09:02:30.000Z</time>
      </trkpt>
      <trkpt lat="47.68476" lon="6.03616">
        <ele>258.7</ele>
        <time>2012-06-07T09:02:32.000Z</time>
      </trkpt>
      <trkpt lat="47.68483" lon="6.03619">
        <ele>258.9</ele>
        <time>2012-06-07T09:02:34.000Z</time>
      </trkpt>
      <trkpt lat="47.6849" lon="6.03622">
        <ele>259.1</ele>
        <time>2012-06-07T09:02:36.000Z</time>
      </trkpt>
      <trkpt lat="47.68498" lon="6.03624">
        <ele>259.2</ele>
        <time>2012-06-07T09:02:38.000Z</time>
      </trkpt>
      <trkpt lat="47.68506" lon="6.03628">
        <ele>259.5</ele>
        <time>2012-06-07T09:02:40.000Z</time>
      </trkpt>
      <trkpt lat="47.68514" lon="6.03633">
        <ele>259.7</ele>
        <time>2012-06-07T09:02:42.000Z</time>
      </trkpt>
      <trkpt lat="47.68522" lon="6.03636">
        <ele>259.9</ele>
        <time>2012-06-07T09:02:44.000Z</time>
      </trkpt>
      <trkpt lat="47.68527" lon="6.03638">
        <ele>260</ele>
        <time>2012-06-07T09:02:45.000Z</time>
      </trkpt>
      <trkpt lat="47.68533" lon="6.0364">
        <ele>260</ele>
        <time>2012-06-07T09:02:46.000Z</time>
      </trkpt>
      <trkpt lat="47.68538" lon="6.03644">
        <ele>259.7</ele>
        <time>2012-06-07T09:02:47.000Z</time>
      </trkpt>
      <trkpt lat="47.68543" lon="6.03645">
        <ele>259.7</ele>
        <time>2012-06-07T09:02:48.000Z</time>
      </trkpt>
      <trkpt lat="47.6855" lon="6.03646">
        <ele>259.8</ele>
        <time>2012-06-07T09:02:50.000Z</time>
      </trkpt>
      <trkpt lat="47.68582" lon="6.0365">
        <ele>265</ele>
        <time>2012-06-07T09:02:58.000Z</time>
      </trkpt>
      <trkpt lat="47.6859" lon="6.0365">
        <ele>266.5</ele>
        <time>2012-06-07T09:03:00.000Z</time>
      </trkpt>
      <trkpt lat="47.68596" lon="6.03648">
        <ele>267.1</ele>
        <time>2012-06-07T09:03:02.000Z</time>
      </trkpt>
      <trkpt lat="47.68602" lon="6.03644">
        <ele>268.4</ele>
        <time>2012-06-07T09:03:04.000Z</time>
      </trkpt>
      <trkpt lat="47.68608" lon="6.0364">
        <ele>269.3</ele>
        <time>2012-06-07T09:03:06.000Z</time>
      </trkpt>
      <trkpt lat="47.68613" lon="6.03636">
        <ele>270.6</ele>
        <time>2012-06-07T09:03:08.000Z</time>
      </trkpt>
      <trkpt lat="47.6862" lon="6.03633">
        <ele>270.7</ele>
        <time>2012-06-07T09:03:10.000Z</time>
      </trkpt>
      <trkpt lat="47.68628" lon="6.03633">
        <ele>271.3</ele>
        <time>2012-06-07T09:03:12.000Z</time>
      </trkpt>
      <trkpt lat="47.68637" lon="6.03633">
        <ele>271.5</ele>
        <time>2012-06-07T09:03:14.000Z</time>
      </trkpt>
      <trkpt lat="47.68642" lon="6.03634">
        <ele>271.1</ele>
        <time>2012-06-07T09:03:15.000Z</time>
      </trkpt>
      <trkpt lat="47.68647" lon="6.03634">
        <ele>271</ele>
        <time>2012-06-07T09:03:16.000Z</time>
      </trkpt>
      <trkpt lat="47.68652" lon="6.03635">
        <ele>271.1</ele>
        <time>2012-06-07T09:03:17.000Z</time>
      </trkpt>
      <trkpt lat="47.68657" lon="6.03635">
        <ele>271.7</ele>
        <time>2012-06-07T09:03:18.000Z</time>
      </trkpt>
      <trkpt lat="47.68661" lon="6.03635">
        <ele>272.6</ele>
        <time>2012-06-07T09:03:19.000Z</time>
      </trkpt>
      <trkpt lat="47.68669" lon="6.03636">
        <ele>275.7</ele>
        <time>2012-06-07T09:03:21.000Z</time>
      </trkpt>
      <trkpt lat="47.68677" lon="6.03636">
        <ele>276.5</ele>
        <time>2012-06-07T09:03:23.000Z</time>
      </trkpt>
      <trkpt lat="47.68682" lon="6.03636">
        <ele>275.8</ele>
        <time>2012-06-07T09:03:24.000Z</time>
      </trkpt>
      <trkpt lat="47.68686" lon="6.03637">
        <ele>275</ele>
        <time>2012-06-07T09:03:25.000Z</time>
      </trkpt>
      <trkpt lat="47.68695" lon="6.03638">
        <ele>274.5</ele>
        <time>2012-06-07T09:03:27.000Z</time>
      </trkpt>
      <trkpt lat="47.68704" lon="6.03639">
        <ele>273.3</ele>
        <time>2012-06-07T09:03:29.000Z</time>
      </trkpt>
      <trkpt lat="47.68709" lon="6.03639">
        <ele>272.9</ele>
        <time>2012-06-07T09:03:30.000Z</time>
      </trkpt>
      <trkpt lat="47.68714" lon="6.0364">
        <ele>272.9</ele>
        <time>2012-06-07T09:03:31.000Z</time>
      </trkpt>
      <trkpt lat="47.68719" lon="6.0364">
        <ele>272.7</ele>
        <time>2012-06-07T09:03:32.000Z</time>
      </trkpt>
      <trkpt lat="47.68724" lon="6.03641">
        <ele>272.8</ele>
        <time>2012-06-07T09:03:33.000Z</time>
      </trkpt>
      <trkpt lat="47.68729" lon="6.03641">
        <ele>272.7</ele>
        <time>2012-06-07T09:03:34.000Z</time>
      </trkpt>
      <trkpt lat="47.68734" lon="6.03641">
        <ele>272.8</ele>
        <time>2012-06-07T09:03:35.000Z</time>
      </trkpt>
      <trkpt lat="47.68738" lon="6.03641">
        <ele>272.6</ele>
        <time>2012-06-07T09:03:36.000Z</time>
      </trkpt>
      <trkpt lat="47.68746" lon="6.03641">
        <ele>273</ele>
        <time>2012-06-07T09:03:38.000Z</time>
      </trkpt>
      <trkpt lat="47.68751" lon="6.03642">
        <ele>273.3</ele>
        <time>2012-06-07T09:03:39.000Z</time>
      </trkpt>
      <trkpt lat="47.68756" lon="6.03644">
        <ele>273.2</ele>
        <time>2012-06-07T09:03:40.000Z</time>
      </trkpt>
      <trkpt lat="47.68761" lon="6.03645">
        <ele>273.4</ele>
        <time>2012-06-07T09:03:41.000Z</time>
      </trkpt>
      <trkpt lat="47.68767" lon="6.03644">
        <ele>273.5</ele>
        <time>2012-06-07T09:03:42.000Z</time>
      </trkpt>
      <trkpt lat="47.68772" lon="6.03644">
        <ele>273.5</ele>
        <time>2012-06-07T09:03:43.000Z</time>
      </trkpt>
      <trkpt lat="47.68777" lon="6.03645">
        <ele>273.4</ele>
        <time>2012-06-07T09:03:44.000Z</time>
      </trkpt>
      <trkpt lat="47.68782" lon="6.03645">
        <ele>273.3</ele>
        <time>2012-06-07T09:03:45.000Z</time>
      </trkpt>
      <trkpt lat="47.6879" lon="6.03644">
        <ele>273.2</ele>
        <time>2012-06-07T09:03:47.000Z</time>
      </trkpt>
      <trkpt lat="47.68796" lon="6.03645">
        <ele>273.1</ele>
        <time>2012-06-07T09:03:48.000Z</time>
      </trkpt>
      <trkpt lat="47.688" lon="6.03644">
        <ele>273</ele>
        <time>2012-06-07T09:03:49.000Z</time>
      </trkpt>
      <trkpt lat="47.68806" lon="6.03644">
        <ele>272.8</ele>
        <time>2012-06-07T09:03:50.000Z</time>
      </trkpt>
      <trkpt lat="47.68855" lon="6.03656">
        <ele>263.8</ele>
        <time>2012-06-07T09:03:57.000Z</time>
      </trkpt>
      <trkpt lat="47.68859" lon="6.03658">
        <ele>267.6</ele>
        <time>2012-06-07T09:03:59.000Z</time>
      </trkpt>
      <trkpt lat="47.68869" lon="6.03657">
        <ele>266.2</ele>
        <time>2012-06-07T09:04:01.000Z</time>
      </trkpt>
      <trkpt lat="47.68873" lon="6.03658">
        <ele>268.7</ele>
        <time>2012-06-07T09:04:02.000Z</time>
      </trkpt>
      <trkpt lat="47.68878" lon="6.03659">
        <ele>269.7</ele>
        <time>2012-06-07T09:04:03.000Z</time>
      </trkpt>
      <trkpt lat="47.68883" lon="6.03661">
        <ele>270.4</ele>
        <time>2012-06-07T09:04:04.000Z</time>
      </trkpt>
      <trkpt lat="47.68892" lon="6.03663">
        <ele>271.6</ele>
        <time>2012-06-07T09:04:06.000Z</time>
      </trkpt>
      <trkpt lat="47.68896" lon="6.03665">
        <ele>273</ele>
        <time>2012-06-07T09:04:07.000Z</time>
      </trkpt>
      <trkpt lat="47.68901" lon="6.03665">
        <ele>272.9</ele>
        <time>2012-06-07T09:04:08.000Z</time>
      </trkpt>
      <trkpt lat="47.68906" lon="6.03667">
        <ele>273.2</ele>
        <time>2012-06-07T09:04:09.000Z</time>
      </trkpt>
      <trkpt lat="47.6891" lon="6.03669">
        <ele>274.4</ele>
        <time>2012-06-07T09:04:10.000Z</time>
      </trkpt>
      <trkpt lat="47.68918" lon="6.03672">
        <ele>276.3</ele>
        <time>2012-06-07T09:04:12.000Z</time>
      </trkpt>
      <trkpt lat="47.68923" lon="6.03674">
        <ele>276.7</ele>
        <time>2012-06-07T09:04:13.000Z</time>
      </trkpt>
      <trkpt lat="47.68928" lon="6.03675">
        <ele>276.6</ele>
        <time>2012-06-07T09:04:14.000Z</time>
      </trkpt>
      <trkpt lat="47.68932" lon="6.03678">
        <ele>277.4</ele>
        <time>2012-06-07T09:04:15.000Z</time>
      </trkpt>
      <trkpt lat="47.68937" lon="6.03681">
        <ele>277.7</ele>
        <time>2012-06-07T09:04:16.000Z</time>
      </trkpt>
      <trkpt lat="47.68942" lon="6.03684">
        <ele>278.4</ele>
        <time>2012-06-07T09:04:17.000Z</time>
      </trkpt>
      <trkpt lat="47.68947" lon="6.03688">
        <ele>278.2</ele>
        <time>2012-06-07T09:04:18.000Z</time>
      </trkpt>
      <trkpt lat="47.68952" lon="6.03691">
        <ele>278.1</ele>
        <time>2012-06-07T09:04:19.000Z</time>
      </trkpt>
      <trkpt lat="47.68957" lon="6.03693">
        <ele>277.1</ele>
        <time>2012-06-07T09:04:20.000Z</time>
      </trkpt>
      <trkpt lat="47.68962" lon="6.03694">
        <ele>276.3</ele>
        <time>2012-06-07T09:04:21.000Z</time>
      </trkpt>
      <trkpt lat="47.68967" lon="6.03697">
        <ele>275</ele>
        <time>2012-06-07T09:04:22.000Z</time>
      </trkpt>
      <trkpt lat="47.68971" lon="6.037">
        <ele>274.7</ele>
        <time>2012-06-07T09:04:23.000Z</time>
      </trkpt>
      <trkpt lat="47.68976" lon="6.03704">
        <ele>275.2</ele>
        <time>2012-06-07T09:04:24.000Z</time>
      </trkpt>
      <trkpt lat="47.6898" lon="6.03707">
        <ele>274.2</ele>
        <time>2012-06-07T09:04:25.000Z</time>
      </trkpt>
      <trkpt lat="47.68984" lon="6.03709">
        <ele>274</ele>
        <time>2012-06-07T09:04:26.000Z</time>
      </trkpt>
      <trkpt lat="47.68989" lon="6.03712">
        <ele>274.5</ele>
        <time>2012-06-07T09:04:27.000Z</time>
      </trkpt>
      <trkpt lat="47.68994" lon="6.03716">
        <ele>274.7</ele>
        <time>2012-06-07T09:04:28.000Z</time>
      </trkpt>
      <trkpt lat="47.68998" lon="6.03719">
        <ele>274.9</ele>
        <time>2012-06-07T09:04:29.000Z</time>
      </trkpt>
      <trkpt lat="47.69003" lon="6.03723">
        <ele>274.8</ele>
        <time>2012-06-07T09:04:30.000Z</time>
      </trkpt>
      <trkpt lat="47.69008" lon="6.03725">
        <ele>274.9</ele>
        <time>2012-06-07T09:04:31.000Z</time>
      </trkpt>
      <trkpt lat="47.69017" lon="6.0373">
        <ele>275.6</ele>
        <time>2012-06-07T09:04:33.000Z</time>
      </trkpt>
      <trkpt lat="47.69022" lon="6.03734">
        <ele>275.6</ele>
        <time>2012-06-07T09:04:34.000Z</time>
      </trkpt>
      <trkpt lat="47.69028" lon="6.03739">
        <ele>275.8</ele>
        <time>2012-06-07T09:04:35.000Z</time>
      </trkpt>
      <trkpt lat="47.69033" lon="6.03742">
        <ele>275.9</ele>
        <time>2012-06-07T09:04:36.000Z</time>
      </trkpt>
      <trkpt lat="47.69038" lon="6.03746">
        <ele>276.7</ele>
        <time>2012-06-07T09:04:37.000Z</time>
      </trkpt>
      <trkpt lat="47.69043" lon="6.0375">
        <ele>277.2</ele>
        <time>2012-06-07T09:04:38.000Z</time>
      </trkpt>
      <trkpt lat="47.69048" lon="6.03753">
        <ele>277.3</ele>
        <time>2012-06-07T09:04:39.000Z</time>
      </trkpt>
      <trkpt lat="47.69057" lon="6.03758">
        <ele>275.7</ele>
        <time>2012-06-07T09:04:41.000Z</time>
      </trkpt>
      <trkpt lat="47.69063" lon="6.03763">
        <ele>275.7</ele>
        <time>2012-06-07T09:04:42.000Z</time>
      </trkpt>
      <trkpt lat="47.69068" lon="6.03767">
        <ele>275.8</ele>
        <time>2012-06-07T09:04:43.000Z</time>
      </trkpt>
      <trkpt lat="47.69073" lon="6.03771">
        <ele>275.4</ele>
        <time>2012-06-07T09:04:44.000Z</time>
      </trkpt>
      <trkpt lat="47.69078" lon="6.03774">
        <ele>275.2</ele>
        <time>2012-06-07T09:04:45.000Z</time>
      </trkpt>
      <trkpt lat="47.69082" lon="6.03778">
        <ele>274.9</ele>
        <time>2012-06-07T09:04:46.000Z</time>
      </trkpt>
      <trkpt lat="47.69086" lon="6.03784">
        <ele>274.8</ele>
        <time>2012-06-07T09:04:48.000Z</time>
      </trkpt>
      <trkpt lat="47.69086" lon="6.03793">
        <ele>275</ele>
        <time>2012-06-07T09:04:50.000Z</time>
      </trkpt>
      <trkpt lat="47.69078" lon="6.03838">
        <ele>269.6</ele>
        <time>2012-06-07T09:04:58.000Z</time>
      </trkpt>
      <trkpt lat="47.69072" lon="6.03844">
        <ele>269.6</ele>
        <time>2012-06-07T09:04:59.000Z</time>
      </trkpt>
      <trkpt lat="47.69067" lon="6.03854">
        <ele>271</ele>
        <time>2012-06-07T09:05:01.000Z</time>
      </trkpt>
      <trkpt lat="47.69063" lon="6.0386">
        <ele>271.8</ele>
        <time>2012-06-07T09:05:02.000Z</time>
      </trkpt>
      <trkpt lat="47.69058" lon="6.03872">
        <ele>271.6</ele>
        <time>2012-06-07T09:05:04.000Z</time>
      </trkpt>
      <trkpt lat="47.69054" lon="6.03883">
        <ele>271.6</ele>
        <time>2012-06-07T09:05:06.000Z</time>
      </trkpt>
      <trkpt lat="47.6905" lon="6.03894">
        <ele>271.5</ele>
        <time>2012-06-07T09:05:08.000Z</time>
      </trkpt>
      <trkpt lat="47.69046" lon="6.03906">
        <ele>271.2</ele>
        <time>2012-06-07T09:05:10.000Z</time>
      </trkpt>
      <trkpt lat="47.69041" lon="6.03916">
        <ele>271.3</ele>
        <time>2012-06-07T09:05:12.000Z</time>
      </trkpt>
      <trkpt lat="47.69037" lon="6.03928">
        <ele>271</ele>
        <time>2012-06-07T09:05:14.000Z</time>
      </trkpt>
      <trkpt lat="47.69034" lon="6.03934">
        <ele>270.8</ele>
        <time>2012-06-07T09:05:15.000Z</time>
      </trkpt>
      <trkpt lat="47.69032" lon="6.0394">
        <ele>270.7</ele>
        <time>2012-06-07T09:05:16.000Z</time>
      </trkpt>
      <trkpt lat="47.6903" lon="6.03946">
        <ele>270.6</ele>
        <time>2012-06-07T09:05:17.000Z</time>
      </trkpt>
      <trkpt lat="47.69025" lon="6.03957">
        <ele>270.3</ele>
        <time>2012-06-07T09:05:19.000Z</time>
      </trkpt>
      <trkpt lat="47.69023" lon="6.03964">
        <ele>269.5</ele>
        <time>2012-06-07T09:05:20.000Z</time>
      </trkpt>
      <trkpt lat="47.69021" lon="6.03972">
        <ele>268.9</ele>
        <time>2012-06-07T09:05:21.000Z</time>
      </trkpt>
      <trkpt lat="47.69019" lon="6.03979">
        <ele>268</ele>
        <time>2012-06-07T09:05:22.000Z</time>
      </trkpt>
      <trkpt lat="47.69016" lon="6.03986">
        <ele>268.2</ele>
        <time>2012-06-07T09:05:23.000Z</time>
      </trkpt>
      <trkpt lat="47.69013" lon="6.03992">
        <ele>268.2</ele>
        <time>2012-06-07T09:05:24.000Z</time>
      </trkpt>
      <trkpt lat="47.69011" lon="6.03998">
        <ele>268</ele>
        <time>2012-06-07T09:05:25.000Z</time>
      </trkpt>
      <trkpt lat="47.69006" lon="6.04008">
        <ele>267.8</ele>
        <time>2012-06-07T09:05:27.000Z</time>
      </trkpt>
      <trkpt lat="47.69003" lon="6.04014">
        <ele>267.7</ele>
        <time>2012-06-07T09:05:28.000Z</time>
      </trkpt>
      <trkpt lat="47.69" lon="6.04021">
        <ele>267.5</ele>
        <time>2012-06-07T09:05:29.000Z</time>
      </trkpt>
      <trkpt lat="47.68999" lon="6.0403">
        <ele>267.6</ele>
        <time>2012-06-07T09:05:30.000Z</time>
      </trkpt>
      <trkpt lat="47.68996" lon="6.04038">
        <ele>267.3</ele>
        <time>2012-06-07T09:05:31.000Z</time>
      </trkpt>
      <trkpt lat="47.68994" lon="6.04045">
        <ele>267.2</ele>
        <time>2012-06-07T09:05:32.000Z</time>
      </trkpt>
      <trkpt lat="47.68991" lon="6.04051">
        <ele>267.2</ele>
        <time>2012-06-07T09:05:33.000Z</time>
      </trkpt>
      <trkpt lat="47.68988" lon="6.04059">
        <ele>266.8</ele>
        <time>2012-06-07T09:05:34.000Z</time>
      </trkpt>
      <trkpt lat="47.68987" lon="6.04067">
        <ele>266.6</ele>
        <time>2012-06-07T09:05:35.000Z</time>
      </trkpt>
      <trkpt lat="47.68984" lon="6.04073">
        <ele>266.8</ele>
        <time>2012-06-07T09:05:36.000Z</time>
      </trkpt>
      <trkpt lat="47.6898" lon="6.04078">
        <ele>267.3</ele>
        <time>2012-06-07T09:05:37.000Z</time>
      </trkpt>
      <trkpt lat="47.68978" lon="6.04083">
        <ele>267.6</ele>
        <time>2012-06-07T09:05:38.000Z</time>
      </trkpt>
      <trkpt lat="47.68975" lon="6.0409">
        <ele>267.6</ele>
        <time>2012-06-07T09:05:39.000Z</time>
      </trkpt>
      <trkpt lat="47.68973" lon="6.04097">
        <ele>267.6</ele>
        <time>2012-06-07T09:05:40.000Z</time>
      </trkpt>
      <trkpt lat="47.6897" lon="6.04104">
        <ele>267.7</ele>
        <time>2012-06-07T09:05:41.000Z</time>
      </trkpt>
      <trkpt lat="47.68968" lon="6.0411">
        <ele>267.9</ele>
        <time>2012-06-07T09:05:42.000Z</time>
      </trkpt>
      <trkpt lat="47.68965" lon="6.04116">
        <ele>268.1</ele>
        <time>2012-06-07T09:05:43.000Z</time>
      </trkpt>
      <trkpt lat="47.68962" lon="6.04122">
        <ele>268.3</ele>
        <time>2012-06-07T09:05:44.000Z</time>
      </trkpt>
      <trkpt lat="47.6896" lon="6.04129">
        <ele>268.6</ele>
        <time>2012-06-07T09:05:45.000Z</time>
      </trkpt>
      <trkpt lat="47.68957" lon="6.04135">
        <ele>268.6</ele>
        <time>2012-06-07T09:05:46.000Z</time>
      </trkpt>
      <trkpt lat="47.68955" lon="6.04142">
        <ele>268.9</ele>
        <time>2012-06-07T09:05:47.000Z</time>
      </trkpt>
      <trkpt lat="47.68952" lon="6.04148">
        <ele>269</ele>
        <time>2012-06-07T09:05:48.000Z</time>
      </trkpt>
      <trkpt lat="47.68949" lon="6.04155">
        <ele>269.2</ele>
        <time>2012-06-07T09:05:49.000Z</time>
      </trkpt>
      <trkpt lat="47.68947" lon="6.04161">
        <ele>269.5</ele>
        <time>2012-06-07T09:05:50.000Z</time>
      </trkpt>
      <trkpt lat="47.68945" lon="6.04168">
        <ele>269.7</ele>
        <time>2012-06-07T09:05:51.000Z</time>
      </trkpt>
      <trkpt lat="47.68942" lon="6.04174">
        <ele>270</ele>
        <time>2012-06-07T09:05:52.000Z</time>
      </trkpt>
      <trkpt lat="47.6894" lon="6.04179">
        <ele>270.4</ele>
        <time>2012-06-07T09:05:53.000Z</time>
      </trkpt>
      <trkpt lat="47.68937" lon="6.04186">
        <ele>270.6</ele>
        <time>2012-06-07T09:05:54.000Z</time>
      </trkpt>
      <trkpt lat="47.68935" lon="6.04192">
        <ele>270.9</ele>
        <time>2012-06-07T09:05:55.000Z</time>
      </trkpt>
      <trkpt lat="47.68932" lon="6.04198">
        <ele>271.3</ele>
        <time>2012-06-07T09:05:56.000Z</time>
      </trkpt>
      <trkpt lat="47.6893" lon="6.04204">
        <ele>271.6</ele>
        <time>2012-06-07T09:05:57.000Z</time>
      </trkpt>
      <trkpt lat="47.68927" lon="6.0421">
        <ele>272</ele>
        <time>2012-06-07T09:05:58.000Z</time>
      </trkpt>
      <trkpt lat="47.68925" lon="6.04216">
        <ele>272.3</ele>
        <time>2012-06-07T09:05:59.000Z</time>
      </trkpt>
      <trkpt lat="47.68923" lon="6.04223">
        <ele>272.4</ele>
        <time>2012-06-07T09:06:00.000Z</time>
      </trkpt>
      <trkpt lat="47.68921" lon="6.04229">
        <ele>272.5</ele>
        <time>2012-06-07T09:06:01.000Z</time>
      </trkpt>
      <trkpt lat="47.68918" lon="6.04235">
        <ele>272.6</ele>
        <time>2012-06-07T09:06:02.000Z</time>
      </trkpt>
      <trkpt lat="47.68916" lon="6.04241">
        <ele>272.8</ele>
        <time>2012-06-07T09:06:03.000Z</time>
      </trkpt>
      <trkpt lat="47.68914" lon="6.04247">
        <ele>273.2</ele>
        <time>2012-06-07T09:06:04.000Z</time>
      </trkpt>
      <trkpt lat="47.68911" lon="6.04252">
        <ele>273.3</ele>
        <time>2012-06-07T09:06:05.000Z</time>
      </trkpt>
      <trkpt lat="47.68905" lon="6.04262">
        <ele>273.4</ele>
        <time>2012-06-07T09:06:07.000Z</time>
      </trkpt>
      <trkpt lat="47.68903" lon="6.04269">
        <ele>273.2</ele>
        <time>2012-06-07T09:06:08.000Z</time>
      </trkpt>
      <trkpt lat="47.689" lon="6.04274">
        <ele>273.3</ele>
        <time>2012-06-07T09:06:09.000Z</time>
      </trkpt>
      <trkpt lat="47.68897" lon="6.0428">
        <ele>273.1</ele>
        <time>2012-06-07T09:06:10.000Z</time>
      </trkpt>
      <trkpt lat="47.68894" lon="6.04285">
        <ele>273.2</ele>
        <time>2012-06-07T09:06:11.000Z</time>
      </trkpt>
      <trkpt lat="47.68891" lon="6.04291">
        <ele>273.2</ele>
        <time>2012-06-07T09:06:12.000Z</time>
      </trkpt>
      <trkpt lat="47.68888" lon="6.04297">
        <ele>273.3</ele>
        <time>2012-06-07T09:06:13.000Z</time>
      </trkpt>
      <trkpt lat="47.68886" lon="6.04304">
        <ele>273.3</ele>
        <time>2012-06-07T09:06:14.000Z</time>
      </trkpt>
      <trkpt lat="47.68883" lon="6.0431">
        <ele>273.3</ele>
        <time>2012-06-07T09:06:15.000Z</time>
      </trkpt>
      <trkpt lat="47.6888" lon="6.04316">
        <ele>273.5</ele>
        <time>2012-06-07T09:06:16.000Z</time>
      </trkpt>
      <trkpt lat="47.68876" lon="6.04322">
        <ele>273.7</ele>
        <time>2012-06-07T09:06:17.000Z</time>
      </trkpt>
      <trkpt lat="47.68873" lon="6.04328">
        <ele>273.8</ele>
        <time>2012-06-07T09:06:18.000Z</time>
      </trkpt>
      <trkpt lat="47.6887" lon="6.04333">
        <ele>274</ele>
        <time>2012-06-07T09:06:19.000Z</time>
      </trkpt>
      <trkpt lat="47.68868" lon="6.0434">
        <ele>274.4</ele>
        <time>2012-06-07T09:06:20.000Z</time>
      </trkpt>
      <trkpt lat="47.68863" lon="6.0435">
        <ele>274.6</ele>
        <time>2012-06-07T09:06:22.000Z</time>
      </trkpt>
      <trkpt lat="47.6886" lon="6.04355">
        <ele>274.8</ele>
        <time>2012-06-07T09:06:23.000Z</time>
      </trkpt>
      <trkpt lat="47.68856" lon="6.04362">
        <ele>274.7</ele>
        <time>2012-06-07T09:06:24.000Z</time>
      </trkpt>
      <trkpt lat="47.6885" lon="6.04371">
        <ele>274.9</ele>
        <time>2012-06-07T09:06:26.000Z</time>
      </trkpt>
      <trkpt lat="47.68848" lon="6.04382">
        <ele>275.1</ele>
        <time>2012-06-07T09:06:28.000Z</time>
      </trkpt>
      <trkpt lat="47.68846" lon="6.04393">
        <ele>275.3</ele>
        <time>2012-06-07T09:06:30.000Z</time>
      </trkpt>
      <trkpt lat="47.68846" lon="6.04403">
        <ele>275.5</ele>
        <time>2012-06-07T09:06:32.000Z</time>
      </trkpt>
      <trkpt lat="47.68844" lon="6.04411">
        <ele>276</ele>
        <time>2012-06-07T09:06:34.000Z</time>
      </trkpt>
      <trkpt lat="47.68841" lon="6.04418">
        <ele>276.5</ele>
        <time>2012-06-07T09:06:36.000Z</time>
      </trkpt>
      <trkpt lat="47.68838" lon="6.04424">
        <ele>276.9</ele>
        <time>2012-06-07T09:06:38.000Z</time>
      </trkpt>
      <trkpt lat="47.68837" lon="6.04432">
        <ele>278.1</ele>
        <time>2012-06-07T09:06:40.000Z</time>
      </trkpt>
      <trkpt lat="47.68835" lon="6.0444">
        <ele>279</ele>
        <time>2012-06-07T09:06:42.000Z</time>
      </trkpt>
      <trkpt lat="47.68834" lon="6.04452">
        <ele>279.7</ele>
        <time>2012-06-07T09:06:44.000Z</time>
      </trkpt>
      <trkpt lat="47.68832" lon="6.04465">
        <ele>280.3</ele>
        <time>2012-06-07T09:06:46.000Z</time>
      </trkpt>
      <trkpt lat="47.68832" lon="6.04473">
        <ele>280.9</ele>
        <time>2012-06-07T09:06:47.000Z</time>
      </trkpt>
      <trkpt lat="47.68831" lon="6.04486">
        <ele>280.9</ele>
        <time>2012-06-07T09:06:49.000Z</time>
      </trkpt>
      <trkpt lat="47.6883" lon="6.04493">
        <ele>281.3</ele>
        <time>2012-06-07T09:06:50.000Z</time>
      </trkpt>
      <trkpt lat="47.68839" lon="6.04554">
        <ele>296.2</ele>
        <time>2012-06-07T09:07:00.000Z</time>
      </trkpt>
      <trkpt lat="47.68836" lon="6.0456">
        <ele>297.5</ele>
        <time>2012-06-07T09:07:01.000Z</time>
      </trkpt>
      <trkpt lat="47.68832" lon="6.04566">
        <ele>296.7</ele>
        <time>2012-06-07T09:07:02.000Z</time>
      </trkpt>
      <trkpt lat="47.68826" lon="6.04571">
        <ele>295.5</ele>
        <time>2012-06-07T09:07:03.000Z</time>
      </trkpt>
      <trkpt lat="47.6882" lon="6.04575">
        <ele>294.5</ele>
        <time>2012-06-07T09:07:04.000Z</time>
      </trkpt>
      <trkpt lat="47.68813" lon="6.0458">
        <ele>296.1</ele>
        <time>2012-06-07T09:07:06.000Z</time>
      </trkpt>
      <trkpt lat="47.68807" lon="6.04593">
        <ele>295.4</ele>
        <time>2012-06-07T09:07:08.000Z</time>
      </trkpt>
      <trkpt lat="47.68805" lon="6.04599">
        <ele>295.7</ele>
        <time>2012-06-07T09:07:09.000Z</time>
      </trkpt>
      <trkpt lat="47.68804" lon="6.04612">
        <ele>293.6</ele>
        <time>2012-06-07T09:07:11.000Z</time>
      </trkpt>
      <trkpt lat="47.68807" lon="6.0462">
        <ele>292.6</ele>
        <time>2012-06-07T09:07:12.000Z</time>
      </trkpt>
      <trkpt lat="47.68809" lon="6.04632">
        <ele>292.3</ele>
        <time>2012-06-07T09:07:14.000Z</time>
      </trkpt>
      <trkpt lat="47.68808" lon="6.04644">
        <ele>291.6</ele>
        <time>2012-06-07T09:07:16.000Z</time>
      </trkpt>
      <trkpt lat="47.68806" lon="6.04654">
        <ele>291.2</ele>
        <time>2012-06-07T09:07:18.000Z</time>
      </trkpt>
      <trkpt lat="47.68805" lon="6.04664">
        <ele>290.4</ele>
        <time>2012-06-07T09:07:20.000Z</time>
      </trkpt>
      <trkpt lat="47.68806" lon="6.04676">
        <ele>290.6</ele>
        <time>2012-06-07T09:07:22.000Z</time>
      </trkpt>
      <trkpt lat="47.68807" lon="6.04686">
        <ele>291.6</ele>
        <time>2012-06-07T09:07:24.000Z</time>
      </trkpt>
      <trkpt lat="47.68807" lon="6.04697">
        <ele>290.9</ele>
        <time>2012-06-07T09:07:26.000Z</time>
      </trkpt>
      <trkpt lat="47.68808" lon="6.04705">
        <ele>291</ele>
        <time>2012-06-07T09:07:28.000Z</time>
      </trkpt>
      <trkpt lat="47.68812" lon="6.04711">
        <ele>291.4</ele>
        <time>2012-06-07T09:07:30.000Z</time>
      </trkpt>
      <trkpt lat="47.68811" lon="6.04724">
        <ele>291.3</ele>
        <time>2012-06-07T09:07:32.000Z</time>
      </trkpt>
      <trkpt lat="47.68811" lon="6.04733">
        <ele>291</ele>
        <time>2012-06-07T09:07:33.000Z</time>
      </trkpt>
      <trkpt lat="47.6881" lon="6.04743">
        <ele>290.1</ele>
        <time>2012-06-07T09:07:34.000Z</time>
      </trkpt>
      <trkpt lat="47.6881" lon="6.0475">
        <ele>289</ele>
        <time>2012-06-07T09:07:35.000Z</time>
      </trkpt>
      <trkpt lat="47.68813" lon="6.04761">
        <ele>287.5</ele>
        <time>2012-06-07T09:07:36.000Z</time>
      </trkpt>
      <trkpt lat="47.68815" lon="6.0477">
        <ele>287.2</ele>
        <time>2012-06-07T09:07:37.000Z</time>
      </trkpt>
      <trkpt lat="47.68816" lon="6.04777">
        <ele>286.5</ele>
        <time>2012-06-07T09:07:38.000Z</time>
      </trkpt>
      <trkpt lat="47.68816" lon="6.04785">
        <ele>286.1</ele>
        <time>2012-06-07T09:07:39.000Z</time>
      </trkpt>
      <trkpt lat="47.68817" lon="6.04792">
        <ele>286.4</ele>
        <time>2012-06-07T09:07:40.000Z</time>
      </trkpt>
      <trkpt lat="47.68816" lon="6.04803">
        <ele>287.1</ele>
        <time>2012-06-07T09:07:42.000Z</time>
      </trkpt>
      <trkpt lat="47.68812" lon="6.04812">
        <ele>287.2</ele>
        <time>2012-06-07T09:07:44.000Z</time>
      </trkpt>
      <trkpt lat="47.6881" lon="6.04822">
        <ele>287</ele>
        <time>2012-06-07T09:07:46.000Z</time>
      </trkpt>
      <trkpt lat="47.68807" lon="6.0483">
        <ele>287.1</ele>
        <time>2012-06-07T09:07:48.000Z</time>
      </trkpt>
      <trkpt lat="47.68803" lon="6.04836">
        <ele>287.4</ele>
        <time>2012-06-07T09:07:50.000Z</time>
      </trkpt>
      <trkpt lat="47.68823" lon="6.04867">
        <ele>299.7</ele>
        <time>2012-06-07T09:07:58.000Z</time>
      </trkpt>
      <trkpt lat="47.68815" lon="6.0487">
        <ele>294.8</ele>
        <time>2012-06-07T09:08:00.000Z</time>
      </trkpt>
      <trkpt lat="47.68808" lon="6.04874">
        <ele>292.8</ele>
        <time>2012-06-07T09:08:02.000Z</time>
      </trkpt>
      <trkpt lat="47.68802" lon="6.04877">
        <ele>291.9</ele>
        <time>2012-06-07T09:08:05.000Z</time>
      </trkpt>
      <trkpt lat="47.68796" lon="6.04876">
        <ele>290.5</ele>
        <time>2012-06-07T09:08:06.000Z</time>
      </trkpt>
      <trkpt lat="47.68788" lon="6.04876">
        <ele>288.2</ele>
        <time>2012-06-07T09:08:07.000Z</time>
      </trkpt>
      <trkpt lat="47.68784" lon="6.04873">
        <ele>289.2</ele>
        <time>2012-06-07T09:08:09.000Z</time>
      </trkpt>
      <trkpt lat="47.68779" lon="6.04867">
        <ele>290.8</ele>
        <time>2012-06-07T09:08:12.000Z</time>
      </trkpt>
      <trkpt lat="47.68776" lon="6.0486">
        <ele>291</ele>
        <time>2012-06-07T09:08:15.000Z</time>
      </trkpt>
      <trkpt lat="47.68773" lon="6.04854">
        <ele>292.2</ele>
        <time>2012-06-07T09:08:18.000Z</time>
      </trkpt>
      <trkpt lat="47.6877" lon="6.04844">
        <ele>291.9</ele>
        <time>2012-06-07T09:08:21.000Z</time>
      </trkpt>
      <trkpt lat="47.68769" lon="6.04838">
        <ele>291</ele>
        <time>2012-06-07T09:08:23.000Z</time>
      </trkpt>
      <trkpt lat="47.68768" lon="6.04831">
        <ele>290.4</ele>
        <time>2012-06-07T09:08:25.000Z</time>
      </trkpt>
      <trkpt lat="47.68766" lon="6.04822">
        <ele>290.2</ele>
        <time>2012-06-07T09:08:28.000Z</time>
      </trkpt>
      <trkpt lat="47.68763" lon="6.04814">
        <ele>290</ele>
        <time>2012-06-07T09:08:31.000Z</time>
      </trkpt>
      <trkpt lat="47.6876" lon="6.04804">
        <ele>289.7</ele>
        <time>2012-06-07T09:08:34.000Z</time>
      </trkpt>
      <trkpt lat="47.68758" lon="6.04796">
        <ele>289.8</ele>
        <time>2012-06-07T09:08:37.000Z</time>
      </trkpt>
      <trkpt lat="47.68755" lon="6.04787">
        <ele>289.5</ele>
        <time>2012-06-07T09:08:40.000Z</time>
      </trkpt>
      <trkpt lat="47.68754" lon="6.04778">
        <ele>289.5</ele>
        <time>2012-06-07T09:08:43.000Z</time>
      </trkpt>
      <trkpt lat="47.68751" lon="6.0477">
        <ele>289.6</ele>
        <time>2012-06-07T09:08:46.000Z</time>
      </trkpt>
      <trkpt lat="47.68748" lon="6.04762">
        <ele>289.3</ele>
        <time>2012-06-07T09:08:49.000Z</time>
      </trkpt>
      <trkpt lat="47.68735" lon="6.04716">
        <ele>290</ele>
        <time>2012-06-07T09:09:00.000Z</time>
      </trkpt>
      <trkpt lat="47.68732" lon="6.04709">
        <ele>291.4</ele>
        <time>2012-06-07T09:09:02.000Z</time>
      </trkpt>
      <trkpt lat="47.68728" lon="6.04701">
        <ele>291.5</ele>
        <time>2012-06-07T09:09:04.000Z</time>
      </trkpt>
      <trkpt lat="47.68725" lon="6.04692">
        <ele>291.9</ele>
        <time>2012-06-07T09:09:06.000Z</time>
      </trkpt>
      <trkpt lat="47.68721" lon="6.04686">
        <ele>293.3</ele>
        <time>2012-06-07T09:09:08.000Z</time>
      </trkpt>
      <trkpt lat="47.68717" lon="6.04679">
        <ele>294.3</ele>
        <time>2012-06-07T09:09:10.000Z</time>
      </trkpt>
      <trkpt lat="47.68712" lon="6.04671">
        <ele>294.7</ele>
        <time>2012-06-07T09:09:12.000Z</time>
      </trkpt>
      <trkpt lat="47.68709" lon="6.04662">
        <ele>294</ele>
        <time>2012-06-07T09:09:14.000Z</time>
      </trkpt>
      <trkpt lat="47.68705" lon="6.04653">
        <ele>293.9</ele>
        <time>2012-06-07T09:09:16.000Z</time>
      </trkpt>
      <trkpt lat="47.68701" lon="6.04646">
        <ele>294.9</ele>
        <time>2012-06-07T09:09:18.000Z</time>
      </trkpt>
      <trkpt lat="47.68698" lon="6.04638">
        <ele>295</ele>
        <time>2012-06-07T09:09:20.000Z</time>
      </trkpt>
      <trkpt lat="47.68694" lon="6.0463">
        <ele>295</ele>
        <time>2012-06-07T09:09:22.000Z</time>
      </trkpt>
      <trkpt lat="47.68691" lon="6.04621">
        <ele>294</ele>
        <time>2012-06-07T09:09:24.000Z</time>
      </trkpt>
      <trkpt lat="47.68688" lon="6.04611">
        <ele>293.6</ele>
        <time>2012-06-07T09:09:26.000Z</time>
      </trkpt>
      <trkpt lat="47.68686" lon="6.04605">
        <ele>292.3</ele>
        <time>2012-06-07T09:09:27.000Z</time>
      </trkpt>
      <trkpt lat="47.68683" lon="6.04596">
        <ele>292.6</ele>
        <time>2012-06-07T09:09:29.000Z</time>
      </trkpt>
      <trkpt lat="47.68679" lon="6.04586">
        <ele>292.4</ele>
        <time>2012-06-07T09:09:31.000Z</time>
      </trkpt>
      <trkpt lat="47.68675" lon="6.04576">
        <ele>292.4</ele>
        <time>2012-06-07T09:09:33.000Z</time>
      </trkpt>
      <trkpt lat="47.6867" lon="6.04565">
        <ele>292.2</ele>
        <time>2012-06-07T09:09:35.000Z</time>
      </trkpt>
      <trkpt lat="47.68663" lon="6.04555">
        <ele>291.8</ele>
        <time>2012-06-07T09:09:37.000Z</time>
      </trkpt>
      <trkpt lat="47.6866" lon="6.04549">
        <ele>290.6</ele>
        <time>2012-06-07T09:09:38.000Z</time>
      </trkpt>
      <trkpt lat="47.68655" lon="6.04544">
        <ele>290.7</ele>
        <time>2012-06-07T09:09:39.000Z</time>
      </trkpt>
      <trkpt lat="47.68652" lon="6.0454">
        <ele>290.9</ele>
        <time>2012-06-07T09:09:40.000Z</time>
      </trkpt>
      <trkpt lat="47.68645" lon="6.04535">
        <ele>291.6</ele>
        <time>2012-06-07T09:09:42.000Z</time>
      </trkpt>
      <trkpt lat="47.6864" lon="6.04536">
        <ele>291.4</ele>
        <time>2012-06-07T09:09:43.000Z</time>
      </trkpt>
      <trkpt lat="47.68635" lon="6.04539">
        <ele>291.3</ele>
        <time>2012-06-07T09:09:44.000Z</time>
      </trkpt>
      <trkpt lat="47.68631" lon="6.04545">
        <ele>290.6</ele>
        <time>2012-06-07T09:09:46.000Z</time>
      </trkpt>
      <trkpt lat="47.68638" lon="6.04546">
        <ele>277.4</ele>
        <time>2012-06-07T09:09:59.000Z</time>
      </trkpt>
      <trkpt lat="47.68638" lon="6.04546">
        <ele>277.4</ele>
        <time>2012-06-07T09:09:59.000Z</time>
      </trkpt>
      <trkpt lat="47.68638" lon="6.04546">
        <ele>277.4</ele>
        <time>2012-06-07T09:10:07.000Z</time>
      </trkpt>
      <trkpt lat="47.68642" lon="6.04542">
        <ele>283.6</ele>
        <time>2012-06-07T09:10:08.000Z</time>
      </trkpt>
      <trkpt lat="47.68637" lon="6.04542">
        <ele>282.6</ele>
        <time>2012-06-07T09:10:13.000Z</time>
      </trkpt>
      <trkpt lat="47.68632" lon="6.04543">
        <ele>282.5</ele>
        <time>2012-06-07T09:10:17.000Z</time>
      </trkpt>
      <trkpt lat="47.68632" lon="6.04543">
        <ele>282.5</ele>
        <time>2012-06-07T09:10:17.000Z</time>
      </trkpt>
    </trkseg>
  </trk>
</gpx>